<?xml version="1.0" encoding="UTF-8" standalone="no" ?>
<gpx xmlns="http://www.topografix.com/GPX/1/1" xmlns:xsi="http://www.w3.org/2001/XMLSchema-instance" xsi:schemaLocation="http://www.topografix.com/GPX/1/1 http://www.topografix.com/GPX/1/1/gpx.xsd" version="1.1" creator="VisuGPX - https://www.visugpx.com">
  <metadata>
    <name>vtt besancon chailluz</name>
    <desc><![CDATA[randonnee vtt foret de chailluz,vieux tilleul,dame blanche,cul des près]]></desc>
  </metadata>
  <trk>
    <name><![CDATA[Tracé actuel: 14 JUIL 2018 09:50]]></name>
    <trkseg>
      <trkpt lat="47.26097" lon="6.04243">
        <ele>263.06</ele>
        <time>2018-07-14T07:50:34Z</time>
      </trkpt>
      <trkpt lat="47.26097" lon="6.04247">
        <ele>264.02</ele>
        <time>2018-07-14T07:50:43Z</time>
      </trkpt>
      <trkpt lat="47.2612" lon="6.04275">
        <ele>264.98</ele>
        <time>2018-07-14T07:50:56Z</time>
      </trkpt>
      <trkpt lat="47.26145" lon="6.04308">
        <ele>265.46</ele>
        <time>2018-07-14T07:51:10Z</time>
      </trkpt>
      <trkpt lat="47.26177" lon="6.04352">
        <ele>266.9</ele>
        <time>2018-07-14T07:51:24Z</time>
      </trkpt>
      <trkpt lat="47.26205" lon="6.04389">
        <ele>267.86</ele>
        <time>2018-07-14T07:51:36Z</time>
      </trkpt>
      <trkpt lat="47.26241" lon="6.04419">
        <ele>269.79</ele>
        <time>2018-07-14T07:51:49Z</time>
      </trkpt>
      <trkpt lat="47.2627" lon="6.04453">
        <ele>271.71</ele>
        <time>2018-07-14T07:52:01Z</time>
      </trkpt>
      <trkpt lat="47.26302" lon="6.04482">
        <ele>273.63</ele>
        <time>2018-07-14T07:52:14Z</time>
      </trkpt>
      <trkpt lat="47.26342" lon="6.04519">
        <ele>276.52</ele>
        <time>2018-07-14T07:52:29Z</time>
      </trkpt>
      <trkpt lat="47.26388" lon="6.0455">
        <ele>277.96</ele>
        <time>2018-07-14T07:52:43Z</time>
      </trkpt>
      <trkpt lat="47.26435" lon="6.04573">
        <ele>279.4</ele>
        <time>2018-07-14T07:52:56Z</time>
      </trkpt>
      <trkpt lat="47.26501" lon="6.04611">
        <ele>280.84</ele>
        <time>2018-07-14T07:53:14Z</time>
      </trkpt>
      <trkpt lat="47.26557" lon="6.04668">
        <ele>283.25</ele>
        <time>2018-07-14T07:53:32Z</time>
      </trkpt>
      <trkpt lat="47.26606" lon="6.04679">
        <ele>286.13</ele>
        <time>2018-07-14T07:53:45Z</time>
      </trkpt>
      <trkpt lat="47.26661" lon="6.04681">
        <ele>287.09</ele>
        <time>2018-07-14T07:53:58Z</time>
      </trkpt>
      <trkpt lat="47.26665" lon="6.04682">
        <ele>287.09</ele>
        <time>2018-07-14T07:53:59Z</time>
      </trkpt>
      <trkpt lat="47.2667" lon="6.04684">
        <ele>287.09</ele>
        <time>2018-07-14T07:54:00Z</time>
      </trkpt>
      <trkpt lat="47.26687" lon="6.04692">
        <ele>287.09</ele>
        <time>2018-07-14T07:54:04Z</time>
      </trkpt>
      <trkpt lat="47.26762" lon="6.04757">
        <ele>286.13</ele>
        <time>2018-07-14T07:54:22Z</time>
      </trkpt>
      <trkpt lat="47.26766" lon="6.04762">
        <ele>286.13</ele>
        <time>2018-07-14T07:54:23Z</time>
      </trkpt>
      <trkpt lat="47.26809" lon="6.0483">
        <ele>286.61</ele>
        <time>2018-07-14T07:54:36Z</time>
      </trkpt>
      <trkpt lat="47.26812" lon="6.04829">
        <ele>286.61</ele>
        <time>2018-07-14T07:54:37Z</time>
      </trkpt>
      <trkpt lat="47.26815" lon="6.04826">
        <ele>286.61</ele>
        <time>2018-07-14T07:54:38Z</time>
      </trkpt>
      <trkpt lat="47.26818" lon="6.04823">
        <ele>286.61</ele>
        <time>2018-07-14T07:54:39Z</time>
      </trkpt>
      <trkpt lat="47.26822" lon="6.04818">
        <ele>286.13</ele>
        <time>2018-07-14T07:54:40Z</time>
      </trkpt>
      <trkpt lat="47.26825" lon="6.04812">
        <ele>285.65</ele>
        <time>2018-07-14T07:54:41Z</time>
      </trkpt>
      <trkpt lat="47.26869" lon="6.04754">
        <ele>284.69</ele>
        <time>2018-07-14T07:54:51Z</time>
      </trkpt>
      <trkpt lat="47.26874" lon="6.0475">
        <ele>284.69</ele>
        <time>2018-07-14T07:54:52Z</time>
      </trkpt>
      <trkpt lat="47.26967" lon="6.04698">
        <ele>283.25</ele>
        <time>2018-07-14T07:55:09Z</time>
      </trkpt>
      <trkpt lat="47.27008" lon="6.04678">
        <ele>279.88</ele>
        <time>2018-07-14T07:55:15Z</time>
      </trkpt>
      <trkpt lat="47.27015" lon="6.04671">
        <ele>279.4</ele>
        <time>2018-07-14T07:55:16Z</time>
      </trkpt>
      <trkpt lat="47.27043" lon="6.04637">
        <ele>276.52</ele>
        <time>2018-07-14T07:55:20Z</time>
      </trkpt>
      <trkpt lat="47.27064" lon="6.04605">
        <ele>275.07</ele>
        <time>2018-07-14T07:55:23Z</time>
      </trkpt>
      <trkpt lat="47.27097" lon="6.04551">
        <ele>273.15</ele>
        <time>2018-07-14T07:55:28Z</time>
      </trkpt>
      <trkpt lat="47.27104" lon="6.04542">
        <ele>272.67</ele>
        <time>2018-07-14T07:55:29Z</time>
      </trkpt>
      <trkpt lat="47.2714" lon="6.04505">
        <ele>276.52</ele>
        <time>2018-07-14T07:55:35Z</time>
      </trkpt>
      <trkpt lat="47.27144" lon="6.04505">
        <ele>277</ele>
        <time>2018-07-14T07:55:36Z</time>
      </trkpt>
      <trkpt lat="47.2715" lon="6.04505">
        <ele>277.96</ele>
        <time>2018-07-14T07:55:38Z</time>
      </trkpt>
      <trkpt lat="47.27162" lon="6.045">
        <ele>279.4</ele>
        <time>2018-07-14T07:55:44Z</time>
      </trkpt>
      <trkpt lat="47.27163" lon="6.04498">
        <ele>278.92</ele>
        <time>2018-07-14T07:55:45Z</time>
      </trkpt>
      <trkpt lat="47.27164" lon="6.04494">
        <ele>279.4</ele>
        <time>2018-07-14T07:55:46Z</time>
      </trkpt>
      <trkpt lat="47.27165" lon="6.0449">
        <ele>279.4</ele>
        <time>2018-07-14T07:55:47Z</time>
      </trkpt>
      <trkpt lat="47.27165" lon="6.04487">
        <ele>279.88</ele>
        <time>2018-07-14T07:55:48Z</time>
      </trkpt>
      <trkpt lat="47.27165" lon="6.04482">
        <ele>279.88</ele>
        <time>2018-07-14T07:55:49Z</time>
      </trkpt>
      <trkpt lat="47.27166" lon="6.04478">
        <ele>280.36</ele>
        <time>2018-07-14T07:55:50Z</time>
      </trkpt>
      <trkpt lat="47.27168" lon="6.04467">
        <ele>280.84</ele>
        <time>2018-07-14T07:55:53Z</time>
      </trkpt>
      <trkpt lat="47.27169" lon="6.04463">
        <ele>280.84</ele>
        <time>2018-07-14T07:55:54Z</time>
      </trkpt>
      <trkpt lat="47.27186" lon="6.04427">
        <ele>282.77</ele>
        <time>2018-07-14T07:56:04Z</time>
      </trkpt>
      <trkpt lat="47.27186" lon="6.04424">
        <ele>282.77</ele>
        <time>2018-07-14T07:56:05Z</time>
      </trkpt>
      <trkpt lat="47.27186" lon="6.04421">
        <ele>283.25</ele>
        <time>2018-07-14T07:56:06Z</time>
      </trkpt>
      <trkpt lat="47.27188" lon="6.04417">
        <ele>283.25</ele>
        <time>2018-07-14T07:56:07Z</time>
      </trkpt>
      <trkpt lat="47.2719" lon="6.04414">
        <ele>283.73</ele>
        <time>2018-07-14T07:56:08Z</time>
      </trkpt>
      <trkpt lat="47.27192" lon="6.04411">
        <ele>283.73</ele>
        <time>2018-07-14T07:56:09Z</time>
      </trkpt>
      <trkpt lat="47.27198" lon="6.04397">
        <ele>284.69</ele>
        <time>2018-07-14T07:56:13Z</time>
      </trkpt>
      <trkpt lat="47.27198" lon="6.04393">
        <ele>285.17</ele>
        <time>2018-07-14T07:56:14Z</time>
      </trkpt>
      <trkpt lat="47.27199" lon="6.0439">
        <ele>285.17</ele>
        <time>2018-07-14T07:56:15Z</time>
      </trkpt>
      <trkpt lat="47.27202" lon="6.04387">
        <ele>285.65</ele>
        <time>2018-07-14T07:56:16Z</time>
      </trkpt>
      <trkpt lat="47.27204" lon="6.04384">
        <ele>285.65</ele>
        <time>2018-07-14T07:56:17Z</time>
      </trkpt>
      <trkpt lat="47.27206" lon="6.04381">
        <ele>285.65</ele>
        <time>2018-07-14T07:56:18Z</time>
      </trkpt>
      <trkpt lat="47.27228" lon="6.04332">
        <ele>287.57</ele>
        <time>2018-07-14T07:56:31Z</time>
      </trkpt>
      <trkpt lat="47.27242" lon="6.04307">
        <ele>288.05</ele>
        <time>2018-07-14T07:56:37Z</time>
      </trkpt>
      <trkpt lat="47.27257" lon="6.04261">
        <ele>289.97</ele>
        <time>2018-07-14T07:56:48Z</time>
      </trkpt>
      <trkpt lat="47.27275" lon="6.0423">
        <ele>291.42</ele>
        <time>2018-07-14T07:56:56Z</time>
      </trkpt>
      <trkpt lat="47.27294" lon="6.04185">
        <ele>292.86</ele>
        <time>2018-07-14T07:57:07Z</time>
      </trkpt>
      <trkpt lat="47.27319" lon="6.04147">
        <ele>295.26</ele>
        <time>2018-07-14T07:57:18Z</time>
      </trkpt>
      <trkpt lat="47.27337" lon="6.04113">
        <ele>296.7</ele>
        <time>2018-07-14T07:57:26Z</time>
      </trkpt>
      <trkpt lat="47.27356" lon="6.04074">
        <ele>296.7</ele>
        <time>2018-07-14T07:57:35Z</time>
      </trkpt>
      <trkpt lat="47.27363" lon="6.04057">
        <ele>296.22</ele>
        <time>2018-07-14T07:57:38Z</time>
      </trkpt>
      <trkpt lat="47.27376" lon="6.04023">
        <ele>295.74</ele>
        <time>2018-07-14T07:57:44Z</time>
      </trkpt>
      <trkpt lat="47.27386" lon="6.04005">
        <ele>297.18</ele>
        <time>2018-07-14T07:57:48Z</time>
      </trkpt>
      <trkpt lat="47.27402" lon="6.03983">
        <ele>300.55</ele>
        <time>2018-07-14T07:57:56Z</time>
      </trkpt>
      <trkpt lat="47.27411" lon="6.03972">
        <ele>301.51</ele>
        <time>2018-07-14T07:58:00Z</time>
      </trkpt>
      <trkpt lat="47.27413" lon="6.03959">
        <ele>302.47</ele>
        <time>2018-07-14T07:58:03Z</time>
      </trkpt>
      <trkpt lat="47.2742" lon="6.03944">
        <ele>303.91</ele>
        <time>2018-07-14T07:58:08Z</time>
      </trkpt>
      <trkpt lat="47.27442" lon="6.03915">
        <ele>306.8</ele>
        <time>2018-07-14T07:58:19Z</time>
      </trkpt>
      <trkpt lat="47.27446" lon="6.039">
        <ele>307.76</ele>
        <time>2018-07-14T07:58:23Z</time>
      </trkpt>
      <trkpt lat="47.27447" lon="6.03897">
        <ele>307.76</ele>
        <time>2018-07-14T07:58:24Z</time>
      </trkpt>
      <trkpt lat="47.2747" lon="6.03857">
        <ele>309.2</ele>
        <time>2018-07-14T07:58:36Z</time>
      </trkpt>
      <trkpt lat="47.27491" lon="6.0382">
        <ele>310.16</ele>
        <time>2018-07-14T07:58:47Z</time>
      </trkpt>
      <trkpt lat="47.27512" lon="6.03787">
        <ele>312.57</ele>
        <time>2018-07-14T07:58:59Z</time>
      </trkpt>
      <trkpt lat="47.27528" lon="6.03765">
        <ele>314.01</ele>
        <time>2018-07-14T07:59:06Z</time>
      </trkpt>
      <trkpt lat="47.27553" lon="6.03731">
        <ele>315.93</ele>
        <time>2018-07-14T07:59:18Z</time>
      </trkpt>
      <trkpt lat="47.27559" lon="6.03693">
        <ele>316.41</ele>
        <time>2018-07-14T07:59:27Z</time>
      </trkpt>
      <trkpt lat="47.27557" lon="6.03676">
        <ele>315.93</ele>
        <time>2018-07-14T07:59:30Z</time>
      </trkpt>
      <trkpt lat="47.27549" lon="6.03648">
        <ele>316.89</ele>
        <time>2018-07-14T07:59:36Z</time>
      </trkpt>
      <trkpt lat="47.27542" lon="6.03629">
        <ele>320.26</ele>
        <time>2018-07-14T07:59:43Z</time>
      </trkpt>
      <trkpt lat="47.27542" lon="6.0361">
        <ele>323.62</ele>
        <time>2018-07-14T07:59:51Z</time>
      </trkpt>
      <trkpt lat="47.27541" lon="6.03599">
        <ele>325.06</ele>
        <time>2018-07-14T07:59:56Z</time>
      </trkpt>
      <trkpt lat="47.27539" lon="6.03595">
        <ele>325.54</ele>
        <time>2018-07-14T07:59:58Z</time>
      </trkpt>
      <trkpt lat="47.27535" lon="6.03589">
        <ele>326.02</ele>
        <time>2018-07-14T08:00:01Z</time>
      </trkpt>
      <trkpt lat="47.27533" lon="6.03579">
        <ele>327.47</ele>
        <time>2018-07-14T08:00:10Z</time>
      </trkpt>
      <trkpt lat="47.2753" lon="6.03571">
        <ele>328.43</ele>
        <time>2018-07-14T08:00:23Z</time>
      </trkpt>
      <trkpt lat="47.27529" lon="6.0357">
        <ele>328.43</ele>
        <time>2018-07-14T08:00:24Z</time>
      </trkpt>
      <trkpt lat="47.27528" lon="6.03569">
        <ele>328.43</ele>
        <time>2018-07-14T08:00:26Z</time>
      </trkpt>
      <trkpt lat="47.27529" lon="6.03555">
        <ele>329.87</ele>
        <time>2018-07-14T08:00:36Z</time>
      </trkpt>
      <trkpt lat="47.27533" lon="6.03519">
        <ele>331.79</ele>
        <time>2018-07-14T08:00:47Z</time>
      </trkpt>
      <trkpt lat="47.27534" lon="6.03516">
        <ele>331.79</ele>
        <time>2018-07-14T08:00:48Z</time>
      </trkpt>
      <trkpt lat="47.2754" lon="6.03509">
        <ele>331.79</ele>
        <time>2018-07-14T08:00:51Z</time>
      </trkpt>
      <trkpt lat="47.27545" lon="6.03493">
        <ele>331.31</ele>
        <time>2018-07-14T08:00:55Z</time>
      </trkpt>
      <trkpt lat="47.27547" lon="6.03475">
        <ele>329.87</ele>
        <time>2018-07-14T08:00:58Z</time>
      </trkpt>
      <trkpt lat="47.27554" lon="6.0346">
        <ele>329.39</ele>
        <time>2018-07-14T08:01:00Z</time>
      </trkpt>
      <trkpt lat="47.27553" lon="6.03453">
        <ele>328.91</ele>
        <time>2018-07-14T08:01:01Z</time>
      </trkpt>
      <trkpt lat="47.2756" lon="6.03428">
        <ele>326.5</ele>
        <time>2018-07-14T08:01:04Z</time>
      </trkpt>
      <trkpt lat="47.27573" lon="6.03399">
        <ele>323.62</ele>
        <time>2018-07-14T08:01:07Z</time>
      </trkpt>
      <trkpt lat="47.27578" lon="6.0339">
        <ele>322.66</ele>
        <time>2018-07-14T08:01:08Z</time>
      </trkpt>
      <trkpt lat="47.27584" lon="6.03383">
        <ele>321.7</ele>
        <time>2018-07-14T08:01:09Z</time>
      </trkpt>
      <trkpt lat="47.27598" lon="6.03301">
        <ele>317.85</ele>
        <time>2018-07-14T08:01:12Z</time>
      </trkpt>
      <trkpt lat="47.27612" lon="6.03275">
        <ele>315.93</ele>
        <time>2018-07-14T08:01:15Z</time>
      </trkpt>
      <trkpt lat="47.27625" lon="6.0324">
        <ele>316.41</ele>
        <time>2018-07-14T08:01:19Z</time>
      </trkpt>
      <trkpt lat="47.27629" lon="6.03231">
        <ele>316.41</ele>
        <time>2018-07-14T08:01:20Z</time>
      </trkpt>
      <trkpt lat="47.27633" lon="6.03222">
        <ele>315.93</ele>
        <time>2018-07-14T08:01:21Z</time>
      </trkpt>
      <trkpt lat="47.2764" lon="6.03203">
        <ele>314.97</ele>
        <time>2018-07-14T08:01:23Z</time>
      </trkpt>
      <trkpt lat="47.27643" lon="6.03194">
        <ele>314.97</ele>
        <time>2018-07-14T08:01:24Z</time>
      </trkpt>
      <trkpt lat="47.27645" lon="6.03186">
        <ele>314.97</ele>
        <time>2018-07-14T08:01:25Z</time>
      </trkpt>
      <trkpt lat="47.27648" lon="6.03181">
        <ele>314.97</ele>
        <time>2018-07-14T08:01:26Z</time>
      </trkpt>
      <trkpt lat="47.27651" lon="6.03176">
        <ele>315.45</ele>
        <time>2018-07-14T08:01:27Z</time>
      </trkpt>
      <trkpt lat="47.27654" lon="6.03172">
        <ele>314.97</ele>
        <time>2018-07-14T08:01:28Z</time>
      </trkpt>
      <trkpt lat="47.27658" lon="6.03169">
        <ele>314.49</ele>
        <time>2018-07-14T08:01:29Z</time>
      </trkpt>
      <trkpt lat="47.27662" lon="6.03165">
        <ele>314.49</ele>
        <time>2018-07-14T08:01:30Z</time>
      </trkpt>
      <trkpt lat="47.27671" lon="6.03159">
        <ele>314.01</ele>
        <time>2018-07-14T08:01:32Z</time>
      </trkpt>
      <trkpt lat="47.27675" lon="6.03155">
        <ele>314.01</ele>
        <time>2018-07-14T08:01:33Z</time>
      </trkpt>
      <trkpt lat="47.27682" lon="6.03144">
        <ele>313.53</ele>
        <time>2018-07-14T08:01:35Z</time>
      </trkpt>
      <trkpt lat="47.27684" lon="6.03138">
        <ele>313.53</ele>
        <time>2018-07-14T08:01:36Z</time>
      </trkpt>
      <trkpt lat="47.27686" lon="6.03132">
        <ele>313.53</ele>
        <time>2018-07-14T08:01:37Z</time>
      </trkpt>
      <trkpt lat="47.27689" lon="6.03126">
        <ele>313.05</ele>
        <time>2018-07-14T08:01:38Z</time>
      </trkpt>
      <trkpt lat="47.27692" lon="6.0312">
        <ele>312.57</ele>
        <time>2018-07-14T08:01:39Z</time>
      </trkpt>
      <trkpt lat="47.27695" lon="6.03113">
        <ele>312.57</ele>
        <time>2018-07-14T08:01:40Z</time>
      </trkpt>
      <trkpt lat="47.27697" lon="6.03106">
        <ele>312.09</ele>
        <time>2018-07-14T08:01:41Z</time>
      </trkpt>
      <trkpt lat="47.27699" lon="6.03098">
        <ele>312.09</ele>
        <time>2018-07-14T08:01:42Z</time>
      </trkpt>
      <trkpt lat="47.27702" lon="6.0309">
        <ele>311.6</ele>
        <time>2018-07-14T08:01:43Z</time>
      </trkpt>
      <trkpt lat="47.27707" lon="6.03082">
        <ele>311.12</ele>
        <time>2018-07-14T08:01:44Z</time>
      </trkpt>
      <trkpt lat="47.27711" lon="6.03075">
        <ele>310.64</ele>
        <time>2018-07-14T08:01:45Z</time>
      </trkpt>
      <trkpt lat="47.27715" lon="6.03067">
        <ele>309.68</ele>
        <time>2018-07-14T08:01:46Z</time>
      </trkpt>
      <trkpt lat="47.2772" lon="6.03061">
        <ele>309.2</ele>
        <time>2018-07-14T08:01:47Z</time>
      </trkpt>
      <trkpt lat="47.27725" lon="6.03054">
        <ele>309.2</ele>
        <time>2018-07-14T08:01:48Z</time>
      </trkpt>
      <trkpt lat="47.27728" lon="6.03047">
        <ele>308.72</ele>
        <time>2018-07-14T08:01:49Z</time>
      </trkpt>
      <trkpt lat="47.27732" lon="6.0304">
        <ele>308.24</ele>
        <time>2018-07-14T08:01:50Z</time>
      </trkpt>
      <trkpt lat="47.27745" lon="6.03018">
        <ele>307.28</ele>
        <time>2018-07-14T08:01:53Z</time>
      </trkpt>
      <trkpt lat="47.27754" lon="6.03004">
        <ele>306.32</ele>
        <time>2018-07-14T08:01:55Z</time>
      </trkpt>
      <trkpt lat="47.27768" lon="6.02971">
        <ele>304.88</ele>
        <time>2018-07-14T08:01:59Z</time>
      </trkpt>
      <trkpt lat="47.27771" lon="6.02962">
        <ele>304.39</ele>
        <time>2018-07-14T08:02:00Z</time>
      </trkpt>
      <trkpt lat="47.27772" lon="6.02952">
        <ele>303.43</ele>
        <time>2018-07-14T08:02:01Z</time>
      </trkpt>
      <trkpt lat="47.27774" lon="6.02944">
        <ele>303.43</ele>
        <time>2018-07-14T08:02:02Z</time>
      </trkpt>
      <trkpt lat="47.27775" lon="6.02937">
        <ele>303.43</ele>
        <time>2018-07-14T08:02:03Z</time>
      </trkpt>
      <trkpt lat="47.27778" lon="6.02931">
        <ele>302.95</ele>
        <time>2018-07-14T08:02:04Z</time>
      </trkpt>
      <trkpt lat="47.27782" lon="6.02924">
        <ele>301.99</ele>
        <time>2018-07-14T08:02:05Z</time>
      </trkpt>
      <trkpt lat="47.27786" lon="6.02917">
        <ele>301.03</ele>
        <time>2018-07-14T08:02:06Z</time>
      </trkpt>
      <trkpt lat="47.27791" lon="6.0291">
        <ele>300.07</ele>
        <time>2018-07-14T08:02:07Z</time>
      </trkpt>
      <trkpt lat="47.27795" lon="6.02902">
        <ele>299.11</ele>
        <time>2018-07-14T08:02:08Z</time>
      </trkpt>
      <trkpt lat="47.27801" lon="6.02886">
        <ele>297.18</ele>
        <time>2018-07-14T08:02:10Z</time>
      </trkpt>
      <trkpt lat="47.27803" lon="6.02877">
        <ele>296.22</ele>
        <time>2018-07-14T08:02:11Z</time>
      </trkpt>
      <trkpt lat="47.27807" lon="6.02869">
        <ele>295.26</ele>
        <time>2018-07-14T08:02:12Z</time>
      </trkpt>
      <trkpt lat="47.27818" lon="6.02851">
        <ele>296.7</ele>
        <time>2018-07-14T08:02:15Z</time>
      </trkpt>
      <trkpt lat="47.27821" lon="6.02846">
        <ele>297.18</ele>
        <time>2018-07-14T08:02:16Z</time>
      </trkpt>
      <trkpt lat="47.27824" lon="6.02841">
        <ele>297.67</ele>
        <time>2018-07-14T08:02:17Z</time>
      </trkpt>
      <trkpt lat="47.27826" lon="6.02838">
        <ele>297.67</ele>
        <time>2018-07-14T08:02:18Z</time>
      </trkpt>
      <trkpt lat="47.27829" lon="6.02838">
        <ele>297.67</ele>
        <time>2018-07-14T08:02:19Z</time>
      </trkpt>
      <trkpt lat="47.27831" lon="6.02839">
        <ele>297.67</ele>
        <time>2018-07-14T08:02:20Z</time>
      </trkpt>
      <trkpt lat="47.27832" lon="6.02841">
        <ele>297.67</ele>
        <time>2018-07-14T08:02:21Z</time>
      </trkpt>
      <trkpt lat="47.27833" lon="6.02844">
        <ele>298.15</ele>
        <time>2018-07-14T08:02:22Z</time>
      </trkpt>
      <trkpt lat="47.27834" lon="6.02848">
        <ele>298.15</ele>
        <time>2018-07-14T08:02:23Z</time>
      </trkpt>
      <trkpt lat="47.27835" lon="6.02852">
        <ele>298.15</ele>
        <time>2018-07-14T08:02:24Z</time>
      </trkpt>
      <trkpt lat="47.27839" lon="6.02864">
        <ele>298.63</ele>
        <time>2018-07-14T08:02:27Z</time>
      </trkpt>
      <trkpt lat="47.27841" lon="6.02868">
        <ele>299.11</ele>
        <time>2018-07-14T08:02:28Z</time>
      </trkpt>
      <trkpt lat="47.27842" lon="6.02871">
        <ele>299.59</ele>
        <time>2018-07-14T08:02:29Z</time>
      </trkpt>
      <trkpt lat="47.27844" lon="6.02874">
        <ele>299.59</ele>
        <time>2018-07-14T08:02:30Z</time>
      </trkpt>
      <trkpt lat="47.27845" lon="6.02877">
        <ele>300.07</ele>
        <time>2018-07-14T08:02:31Z</time>
      </trkpt>
      <trkpt lat="47.27846" lon="6.02881">
        <ele>300.55</ele>
        <time>2018-07-14T08:02:32Z</time>
      </trkpt>
      <trkpt lat="47.27847" lon="6.02884">
        <ele>300.55</ele>
        <time>2018-07-14T08:02:33Z</time>
      </trkpt>
      <trkpt lat="47.27853" lon="6.0291">
        <ele>301.99</ele>
        <time>2018-07-14T08:02:40Z</time>
      </trkpt>
      <trkpt lat="47.27855" lon="6.02913">
        <ele>302.47</ele>
        <time>2018-07-14T08:02:41Z</time>
      </trkpt>
      <trkpt lat="47.27857" lon="6.02917">
        <ele>302.47</ele>
        <time>2018-07-14T08:02:42Z</time>
      </trkpt>
      <trkpt lat="47.27861" lon="6.02921">
        <ele>302.47</ele>
        <time>2018-07-14T08:02:43Z</time>
      </trkpt>
      <trkpt lat="47.27862" lon="6.02926">
        <ele>302.95</ele>
        <time>2018-07-14T08:02:44Z</time>
      </trkpt>
      <trkpt lat="47.27865" lon="6.02932">
        <ele>302.95</ele>
        <time>2018-07-14T08:02:45Z</time>
      </trkpt>
      <trkpt lat="47.27883" lon="6.02983">
        <ele>303.91</ele>
        <time>2018-07-14T08:02:55Z</time>
      </trkpt>
      <trkpt lat="47.27896" lon="6.03001">
        <ele>304.39</ele>
        <time>2018-07-14T08:02:59Z</time>
      </trkpt>
      <trkpt lat="47.27941" lon="6.03032">
        <ele>304.88</ele>
        <time>2018-07-14T08:03:09Z</time>
      </trkpt>
      <trkpt lat="47.2798" lon="6.03067">
        <ele>305.36</ele>
        <time>2018-07-14T08:03:17Z</time>
      </trkpt>
      <trkpt lat="47.27984" lon="6.03069">
        <ele>305.36</ele>
        <time>2018-07-14T08:03:18Z</time>
      </trkpt>
      <trkpt lat="47.27987" lon="6.03067">
        <ele>305.36</ele>
        <time>2018-07-14T08:03:19Z</time>
      </trkpt>
      <trkpt lat="47.27988" lon="6.03063">
        <ele>305.36</ele>
        <time>2018-07-14T08:03:20Z</time>
      </trkpt>
      <trkpt lat="47.27987" lon="6.0306">
        <ele>305.36</ele>
        <time>2018-07-14T08:03:21Z</time>
      </trkpt>
      <trkpt lat="47.27987" lon="6.03055">
        <ele>305.84</ele>
        <time>2018-07-14T08:03:22Z</time>
      </trkpt>
      <trkpt lat="47.27986" lon="6.03051">
        <ele>305.36</ele>
        <time>2018-07-14T08:03:23Z</time>
      </trkpt>
      <trkpt lat="47.27985" lon="6.03045">
        <ele>305.36</ele>
        <time>2018-07-14T08:03:24Z</time>
      </trkpt>
      <trkpt lat="47.27988" lon="6.03015">
        <ele>305.84</ele>
        <time>2018-07-14T08:03:29Z</time>
      </trkpt>
      <trkpt lat="47.27993" lon="6.02988">
        <ele>306.32</ele>
        <time>2018-07-14T08:03:33Z</time>
      </trkpt>
      <trkpt lat="47.27994" lon="6.02981">
        <ele>306.8</ele>
        <time>2018-07-14T08:03:34Z</time>
      </trkpt>
      <trkpt lat="47.28002" lon="6.02948">
        <ele>307.76</ele>
        <time>2018-07-14T08:03:39Z</time>
      </trkpt>
      <trkpt lat="47.28007" lon="6.02937">
        <ele>307.76</ele>
        <time>2018-07-14T08:03:41Z</time>
      </trkpt>
      <trkpt lat="47.28008" lon="6.02931">
        <ele>308.24</ele>
        <time>2018-07-14T08:03:42Z</time>
      </trkpt>
      <trkpt lat="47.28023" lon="6.02861">
        <ele>306.8</ele>
        <time>2018-07-14T08:03:51Z</time>
      </trkpt>
      <trkpt lat="47.28041" lon="6.02832">
        <ele>306.32</ele>
        <time>2018-07-14T08:03:55Z</time>
      </trkpt>
      <trkpt lat="47.28082" lon="6.02768">
        <ele>306.8</ele>
        <time>2018-07-14T08:04:04Z</time>
      </trkpt>
      <trkpt lat="47.28092" lon="6.02732">
        <ele>308.24</ele>
        <time>2018-07-14T08:04:09Z</time>
      </trkpt>
      <trkpt lat="47.28098" lon="6.02697">
        <ele>310.16</ele>
        <time>2018-07-14T08:04:14Z</time>
      </trkpt>
      <trkpt lat="47.28101" lon="6.02692">
        <ele>310.64</ele>
        <time>2018-07-14T08:04:15Z</time>
      </trkpt>
      <trkpt lat="47.28108" lon="6.02682">
        <ele>311.6</ele>
        <time>2018-07-14T08:04:17Z</time>
      </trkpt>
      <trkpt lat="47.28118" lon="6.02671">
        <ele>312.09</ele>
        <time>2018-07-14T08:04:20Z</time>
      </trkpt>
      <trkpt lat="47.28143" lon="6.0263">
        <ele>314.01</ele>
        <time>2018-07-14T08:04:28Z</time>
      </trkpt>
      <trkpt lat="47.28162" lon="6.02579">
        <ele>314.01</ele>
        <time>2018-07-14T08:04:37Z</time>
      </trkpt>
      <trkpt lat="47.28164" lon="6.02573">
        <ele>314.01</ele>
        <time>2018-07-14T08:04:38Z</time>
      </trkpt>
      <trkpt lat="47.28172" lon="6.02559">
        <ele>314.01</ele>
        <time>2018-07-14T08:04:41Z</time>
      </trkpt>
      <trkpt lat="47.28175" lon="6.02555">
        <ele>314.49</ele>
        <time>2018-07-14T08:04:42Z</time>
      </trkpt>
      <trkpt lat="47.28177" lon="6.02553">
        <ele>314.49</ele>
        <time>2018-07-14T08:04:43Z</time>
      </trkpt>
      <trkpt lat="47.28179" lon="6.02552">
        <ele>315.45</ele>
        <time>2018-07-14T08:04:44Z</time>
      </trkpt>
      <trkpt lat="47.28182" lon="6.0255">
        <ele>315.93</ele>
        <time>2018-07-14T08:04:45Z</time>
      </trkpt>
      <trkpt lat="47.28206" lon="6.02542">
        <ele>319.78</ele>
        <time>2018-07-14T08:04:54Z</time>
      </trkpt>
      <trkpt lat="47.28209" lon="6.02541">
        <ele>319.78</ele>
        <time>2018-07-14T08:04:55Z</time>
      </trkpt>
      <trkpt lat="47.28211" lon="6.02541">
        <ele>319.78</ele>
        <time>2018-07-14T08:04:56Z</time>
      </trkpt>
      <trkpt lat="47.28213" lon="6.02541">
        <ele>320.26</ele>
        <time>2018-07-14T08:04:57Z</time>
      </trkpt>
      <trkpt lat="47.28215" lon="6.02542">
        <ele>320.74</ele>
        <time>2018-07-14T08:04:58Z</time>
      </trkpt>
      <trkpt lat="47.28218" lon="6.0254">
        <ele>320.74</ele>
        <time>2018-07-14T08:04:59Z</time>
      </trkpt>
      <trkpt lat="47.2822" lon="6.0254">
        <ele>321.22</ele>
        <time>2018-07-14T08:05:00Z</time>
      </trkpt>
      <trkpt lat="47.28222" lon="6.02539">
        <ele>321.7</ele>
        <time>2018-07-14T08:05:01Z</time>
      </trkpt>
      <trkpt lat="47.28248" lon="6.02539">
        <ele>324.1</ele>
        <time>2018-07-14T08:05:11Z</time>
      </trkpt>
      <trkpt lat="47.28275" lon="6.02546">
        <ele>325.06</ele>
        <time>2018-07-14T08:05:22Z</time>
      </trkpt>
      <trkpt lat="47.28294" lon="6.02553">
        <ele>325.06</ele>
        <time>2018-07-14T08:05:27Z</time>
      </trkpt>
      <trkpt lat="47.28328" lon="6.02552">
        <ele>324.58</ele>
        <time>2018-07-14T08:05:35Z</time>
      </trkpt>
      <trkpt lat="47.2835" lon="6.02541">
        <ele>323.14</ele>
        <time>2018-07-14T08:05:39Z</time>
      </trkpt>
      <trkpt lat="47.28355" lon="6.02539">
        <ele>322.66</ele>
        <time>2018-07-14T08:05:40Z</time>
      </trkpt>
      <trkpt lat="47.28375" lon="6.02528">
        <ele>320.26</ele>
        <time>2018-07-14T08:05:43Z</time>
      </trkpt>
      <trkpt lat="47.28394" lon="6.02508">
        <ele>318.33</ele>
        <time>2018-07-14T08:05:46Z</time>
      </trkpt>
      <trkpt lat="47.28401" lon="6.02505">
        <ele>317.37</ele>
        <time>2018-07-14T08:05:47Z</time>
      </trkpt>
      <trkpt lat="47.28408" lon="6.02503">
        <ele>316.89</ele>
        <time>2018-07-14T08:05:48Z</time>
      </trkpt>
      <trkpt lat="47.28415" lon="6.02502">
        <ele>316.41</ele>
        <time>2018-07-14T08:05:49Z</time>
      </trkpt>
      <trkpt lat="47.28424" lon="6.02504">
        <ele>315.93</ele>
        <time>2018-07-14T08:05:50Z</time>
      </trkpt>
      <trkpt lat="47.28434" lon="6.02506">
        <ele>314.97</ele>
        <time>2018-07-14T08:05:51Z</time>
      </trkpt>
      <trkpt lat="47.28472" lon="6.02512">
        <ele>310.16</ele>
        <time>2018-07-14T08:05:55Z</time>
      </trkpt>
      <trkpt lat="47.28481" lon="6.02512">
        <ele>309.2</ele>
        <time>2018-07-14T08:05:56Z</time>
      </trkpt>
      <trkpt lat="47.285" lon="6.02512">
        <ele>307.76</ele>
        <time>2018-07-14T08:05:58Z</time>
      </trkpt>
      <trkpt lat="47.2851" lon="6.02513">
        <ele>306.8</ele>
        <time>2018-07-14T08:05:59Z</time>
      </trkpt>
      <trkpt lat="47.2852" lon="6.02514">
        <ele>306.32</ele>
        <time>2018-07-14T08:06:00Z</time>
      </trkpt>
      <trkpt lat="47.28559" lon="6.02524">
        <ele>303.43</ele>
        <time>2018-07-14T08:06:04Z</time>
      </trkpt>
      <trkpt lat="47.28585" lon="6.02528">
        <ele>301.99</ele>
        <time>2018-07-14T08:06:07Z</time>
      </trkpt>
      <trkpt lat="47.28593" lon="6.02525">
        <ele>301.51</ele>
        <time>2018-07-14T08:06:08Z</time>
      </trkpt>
      <trkpt lat="47.28602" lon="6.02519">
        <ele>300.55</ele>
        <time>2018-07-14T08:06:09Z</time>
      </trkpt>
      <trkpt lat="47.28611" lon="6.02513">
        <ele>299.11</ele>
        <time>2018-07-14T08:06:10Z</time>
      </trkpt>
      <trkpt lat="47.28619" lon="6.02509">
        <ele>299.11</ele>
        <time>2018-07-14T08:06:11Z</time>
      </trkpt>
      <trkpt lat="47.28627" lon="6.02507">
        <ele>298.63</ele>
        <time>2018-07-14T08:06:12Z</time>
      </trkpt>
      <trkpt lat="47.28634" lon="6.02506">
        <ele>297.67</ele>
        <time>2018-07-14T08:06:13Z</time>
      </trkpt>
      <trkpt lat="47.28641" lon="6.02504">
        <ele>297.18</ele>
        <time>2018-07-14T08:06:14Z</time>
      </trkpt>
      <trkpt lat="47.28648" lon="6.02502">
        <ele>296.7</ele>
        <time>2018-07-14T08:06:15Z</time>
      </trkpt>
      <trkpt lat="47.28656" lon="6.02499">
        <ele>296.7</ele>
        <time>2018-07-14T08:06:16Z</time>
      </trkpt>
      <trkpt lat="47.28664" lon="6.02496">
        <ele>296.22</ele>
        <time>2018-07-14T08:06:17Z</time>
      </trkpt>
      <trkpt lat="47.28718" lon="6.02474">
        <ele>294.78</ele>
        <time>2018-07-14T08:06:24Z</time>
      </trkpt>
      <trkpt lat="47.28725" lon="6.02472">
        <ele>294.3</ele>
        <time>2018-07-14T08:06:25Z</time>
      </trkpt>
      <trkpt lat="47.2876" lon="6.02459">
        <ele>294.78</ele>
        <time>2018-07-14T08:06:30Z</time>
      </trkpt>
      <trkpt lat="47.28767" lon="6.02458">
        <ele>294.78</ele>
        <time>2018-07-14T08:06:31Z</time>
      </trkpt>
      <trkpt lat="47.28773" lon="6.0246">
        <ele>294.78</ele>
        <time>2018-07-14T08:06:32Z</time>
      </trkpt>
      <trkpt lat="47.28778" lon="6.02464">
        <ele>294.78</ele>
        <time>2018-07-14T08:06:33Z</time>
      </trkpt>
      <trkpt lat="47.28783" lon="6.0247">
        <ele>294.78</ele>
        <time>2018-07-14T08:06:34Z</time>
      </trkpt>
      <trkpt lat="47.28787" lon="6.02476">
        <ele>294.78</ele>
        <time>2018-07-14T08:06:35Z</time>
      </trkpt>
      <trkpt lat="47.28801" lon="6.02493">
        <ele>294.78</ele>
        <time>2018-07-14T08:06:38Z</time>
      </trkpt>
      <trkpt lat="47.28807" lon="6.02497">
        <ele>295.26</ele>
        <time>2018-07-14T08:06:39Z</time>
      </trkpt>
      <trkpt lat="47.28812" lon="6.02498">
        <ele>295.74</ele>
        <time>2018-07-14T08:06:40Z</time>
      </trkpt>
      <trkpt lat="47.28819" lon="6.025">
        <ele>295.74</ele>
        <time>2018-07-14T08:06:41Z</time>
      </trkpt>
      <trkpt lat="47.28824" lon="6.02502">
        <ele>296.22</ele>
        <time>2018-07-14T08:06:42Z</time>
      </trkpt>
      <trkpt lat="47.2883" lon="6.02503">
        <ele>296.22</ele>
        <time>2018-07-14T08:06:43Z</time>
      </trkpt>
      <trkpt lat="47.28836" lon="6.02503">
        <ele>296.22</ele>
        <time>2018-07-14T08:06:44Z</time>
      </trkpt>
      <trkpt lat="47.28842" lon="6.02503">
        <ele>295.74</ele>
        <time>2018-07-14T08:06:45Z</time>
      </trkpt>
      <trkpt lat="47.28862" lon="6.02499">
        <ele>294.3</ele>
        <time>2018-07-14T08:06:48Z</time>
      </trkpt>
      <trkpt lat="47.28869" lon="6.02497">
        <ele>293.82</ele>
        <time>2018-07-14T08:06:49Z</time>
      </trkpt>
      <trkpt lat="47.28889" lon="6.02491">
        <ele>292.38</ele>
        <time>2018-07-14T08:06:52Z</time>
      </trkpt>
      <trkpt lat="47.28896" lon="6.02491">
        <ele>291.42</ele>
        <time>2018-07-14T08:06:53Z</time>
      </trkpt>
      <trkpt lat="47.28904" lon="6.02493">
        <ele>291.42</ele>
        <time>2018-07-14T08:06:54Z</time>
      </trkpt>
      <trkpt lat="47.2892" lon="6.02495">
        <ele>291.42</ele>
        <time>2018-07-14T08:06:56Z</time>
      </trkpt>
      <trkpt lat="47.28927" lon="6.02492">
        <ele>291.9</ele>
        <time>2018-07-14T08:06:57Z</time>
      </trkpt>
      <trkpt lat="47.28935" lon="6.02487">
        <ele>291.42</ele>
        <time>2018-07-14T08:06:58Z</time>
      </trkpt>
      <trkpt lat="47.28953" lon="6.02469">
        <ele>289.97</ele>
        <time>2018-07-14T08:07:01Z</time>
      </trkpt>
      <trkpt lat="47.28958" lon="6.02462">
        <ele>289.97</ele>
        <time>2018-07-14T08:07:02Z</time>
      </trkpt>
      <trkpt lat="47.28966" lon="6.02449">
        <ele>289.49</ele>
        <time>2018-07-14T08:07:04Z</time>
      </trkpt>
      <trkpt lat="47.2897" lon="6.02444">
        <ele>289.49</ele>
        <time>2018-07-14T08:07:05Z</time>
      </trkpt>
      <trkpt lat="47.28983" lon="6.02436">
        <ele>289.97</ele>
        <time>2018-07-14T08:07:07Z</time>
      </trkpt>
      <trkpt lat="47.2899" lon="6.02433">
        <ele>289.97</ele>
        <time>2018-07-14T08:07:08Z</time>
      </trkpt>
      <trkpt lat="47.28996" lon="6.0243">
        <ele>289.97</ele>
        <time>2018-07-14T08:07:09Z</time>
      </trkpt>
      <trkpt lat="47.29002" lon="6.02428">
        <ele>289.97</ele>
        <time>2018-07-14T08:07:10Z</time>
      </trkpt>
      <trkpt lat="47.29009" lon="6.02427">
        <ele>290.46</ele>
        <time>2018-07-14T08:07:11Z</time>
      </trkpt>
      <trkpt lat="47.29015" lon="6.02425">
        <ele>289.97</ele>
        <time>2018-07-14T08:07:12Z</time>
      </trkpt>
      <trkpt lat="47.29021" lon="6.02422">
        <ele>289.97</ele>
        <time>2018-07-14T08:07:13Z</time>
      </trkpt>
      <trkpt lat="47.29028" lon="6.02419">
        <ele>289.97</ele>
        <time>2018-07-14T08:07:14Z</time>
      </trkpt>
      <trkpt lat="47.29061" lon="6.0241">
        <ele>289.97</ele>
        <time>2018-07-14T08:07:19Z</time>
      </trkpt>
      <trkpt lat="47.29068" lon="6.02406">
        <ele>289.49</ele>
        <time>2018-07-14T08:07:20Z</time>
      </trkpt>
      <trkpt lat="47.29075" lon="6.02401">
        <ele>288.53</ele>
        <time>2018-07-14T08:07:21Z</time>
      </trkpt>
      <trkpt lat="47.29089" lon="6.0239">
        <ele>287.57</ele>
        <time>2018-07-14T08:07:23Z</time>
      </trkpt>
      <trkpt lat="47.29095" lon="6.02383">
        <ele>287.09</ele>
        <time>2018-07-14T08:07:24Z</time>
      </trkpt>
      <trkpt lat="47.29102" lon="6.02375">
        <ele>286.61</ele>
        <time>2018-07-14T08:07:25Z</time>
      </trkpt>
      <trkpt lat="47.29114" lon="6.02362">
        <ele>287.09</ele>
        <time>2018-07-14T08:07:27Z</time>
      </trkpt>
      <trkpt lat="47.29117" lon="6.02354">
        <ele>287.57</ele>
        <time>2018-07-14T08:07:28Z</time>
      </trkpt>
      <trkpt lat="47.29118" lon="6.02346">
        <ele>287.57</ele>
        <time>2018-07-14T08:07:29Z</time>
      </trkpt>
      <trkpt lat="47.2912" lon="6.02329">
        <ele>286.61</ele>
        <time>2018-07-14T08:07:31Z</time>
      </trkpt>
      <trkpt lat="47.29118" lon="6.0232">
        <ele>285.65</ele>
        <time>2018-07-14T08:07:32Z</time>
      </trkpt>
      <trkpt lat="47.29116" lon="6.02313">
        <ele>285.17</ele>
        <time>2018-07-14T08:07:33Z</time>
      </trkpt>
      <trkpt lat="47.29113" lon="6.02305">
        <ele>284.69</ele>
        <time>2018-07-14T08:07:34Z</time>
      </trkpt>
      <trkpt lat="47.2911" lon="6.02296">
        <ele>284.69</ele>
        <time>2018-07-14T08:07:35Z</time>
      </trkpt>
      <trkpt lat="47.29107" lon="6.02287">
        <ele>284.69</ele>
        <time>2018-07-14T08:07:36Z</time>
      </trkpt>
      <trkpt lat="47.29099" lon="6.02259">
        <ele>285.17</ele>
        <time>2018-07-14T08:07:39Z</time>
      </trkpt>
      <trkpt lat="47.29099" lon="6.02244">
        <ele>286.13</ele>
        <time>2018-07-14T08:07:41Z</time>
      </trkpt>
      <trkpt lat="47.29099" lon="6.02219">
        <ele>288.05</ele>
        <time>2018-07-14T08:07:45Z</time>
      </trkpt>
      <trkpt lat="47.291" lon="6.02203">
        <ele>288.05</ele>
        <time>2018-07-14T08:07:48Z</time>
      </trkpt>
      <trkpt lat="47.29102" lon="6.02196">
        <ele>288.05</ele>
        <time>2018-07-14T08:07:49Z</time>
      </trkpt>
      <trkpt lat="47.29104" lon="6.0219">
        <ele>287.57</ele>
        <time>2018-07-14T08:07:50Z</time>
      </trkpt>
      <trkpt lat="47.29106" lon="6.02182">
        <ele>287.57</ele>
        <time>2018-07-14T08:07:51Z</time>
      </trkpt>
      <trkpt lat="47.29109" lon="6.02175">
        <ele>287.57</ele>
        <time>2018-07-14T08:07:52Z</time>
      </trkpt>
      <trkpt lat="47.29113" lon="6.02168">
        <ele>287.09</ele>
        <time>2018-07-14T08:07:53Z</time>
      </trkpt>
      <trkpt lat="47.29118" lon="6.02162">
        <ele>287.09</ele>
        <time>2018-07-14T08:07:54Z</time>
      </trkpt>
      <trkpt lat="47.29131" lon="6.02145">
        <ele>286.61</ele>
        <time>2018-07-14T08:07:57Z</time>
      </trkpt>
      <trkpt lat="47.2914" lon="6.02134">
        <ele>286.13</ele>
        <time>2018-07-14T08:07:59Z</time>
      </trkpt>
      <trkpt lat="47.29145" lon="6.02129">
        <ele>286.13</ele>
        <time>2018-07-14T08:08:00Z</time>
      </trkpt>
      <trkpt lat="47.2915" lon="6.02126">
        <ele>286.13</ele>
        <time>2018-07-14T08:08:01Z</time>
      </trkpt>
      <trkpt lat="47.29156" lon="6.02122">
        <ele>286.13</ele>
        <time>2018-07-14T08:08:02Z</time>
      </trkpt>
      <trkpt lat="47.29161" lon="6.0212">
        <ele>286.13</ele>
        <time>2018-07-14T08:08:03Z</time>
      </trkpt>
      <trkpt lat="47.29166" lon="6.02118">
        <ele>286.13</ele>
        <time>2018-07-14T08:08:04Z</time>
      </trkpt>
      <trkpt lat="47.29181" lon="6.02112">
        <ele>286.61</ele>
        <time>2018-07-14T08:08:07Z</time>
      </trkpt>
      <trkpt lat="47.29202" lon="6.02101">
        <ele>286.13</ele>
        <time>2018-07-14T08:08:11Z</time>
      </trkpt>
      <trkpt lat="47.29207" lon="6.02097">
        <ele>286.13</ele>
        <time>2018-07-14T08:08:12Z</time>
      </trkpt>
      <trkpt lat="47.29212" lon="6.02091">
        <ele>285.65</ele>
        <time>2018-07-14T08:08:13Z</time>
      </trkpt>
      <trkpt lat="47.29217" lon="6.02084">
        <ele>285.17</ele>
        <time>2018-07-14T08:08:14Z</time>
      </trkpt>
      <trkpt lat="47.2922" lon="6.02074">
        <ele>284.21</ele>
        <time>2018-07-14T08:08:15Z</time>
      </trkpt>
      <trkpt lat="47.2922" lon="6.02063">
        <ele>283.25</ele>
        <time>2018-07-14T08:08:16Z</time>
      </trkpt>
      <trkpt lat="47.2921" lon="6.02036">
        <ele>282.28</ele>
        <time>2018-07-14T08:08:19Z</time>
      </trkpt>
      <trkpt lat="47.29195" lon="6.02014">
        <ele>281.32</ele>
        <time>2018-07-14T08:08:22Z</time>
      </trkpt>
      <trkpt lat="47.29182" lon="6.02003">
        <ele>280.36</ele>
        <time>2018-07-14T08:08:24Z</time>
      </trkpt>
      <trkpt lat="47.29175" lon="6.01999">
        <ele>280.36</ele>
        <time>2018-07-14T08:08:25Z</time>
      </trkpt>
      <trkpt lat="47.29155" lon="6.01984">
        <ele>280.84</ele>
        <time>2018-07-14T08:08:28Z</time>
      </trkpt>
      <trkpt lat="47.2915" lon="6.01978">
        <ele>280.84</ele>
        <time>2018-07-14T08:08:29Z</time>
      </trkpt>
      <trkpt lat="47.29145" lon="6.01971">
        <ele>280.84</ele>
        <time>2018-07-14T08:08:30Z</time>
      </trkpt>
      <trkpt lat="47.29138" lon="6.01955">
        <ele>281.32</ele>
        <time>2018-07-14T08:08:32Z</time>
      </trkpt>
      <trkpt lat="47.29133" lon="6.01948">
        <ele>280.84</ele>
        <time>2018-07-14T08:08:33Z</time>
      </trkpt>
      <trkpt lat="47.29128" lon="6.01942">
        <ele>280.84</ele>
        <time>2018-07-14T08:08:34Z</time>
      </trkpt>
      <trkpt lat="47.29097" lon="6.01901">
        <ele>279.88</ele>
        <time>2018-07-14T08:08:40Z</time>
      </trkpt>
      <trkpt lat="47.29083" lon="6.01875">
        <ele>278.44</ele>
        <time>2018-07-14T08:08:43Z</time>
      </trkpt>
      <trkpt lat="47.2908" lon="6.01865">
        <ele>277.48</ele>
        <time>2018-07-14T08:08:44Z</time>
      </trkpt>
      <trkpt lat="47.2907" lon="6.0183">
        <ele>276.04</ele>
        <time>2018-07-14T08:08:47Z</time>
      </trkpt>
      <trkpt lat="47.29066" lon="6.0182">
        <ele>274.59</ele>
        <time>2018-07-14T08:08:48Z</time>
      </trkpt>
      <trkpt lat="47.2906" lon="6.01811">
        <ele>274.11</ele>
        <time>2018-07-14T08:08:49Z</time>
      </trkpt>
      <trkpt lat="47.29053" lon="6.01805">
        <ele>274.11</ele>
        <time>2018-07-14T08:08:50Z</time>
      </trkpt>
      <trkpt lat="47.29046" lon="6.018">
        <ele>274.11</ele>
        <time>2018-07-14T08:08:51Z</time>
      </trkpt>
      <trkpt lat="47.29039" lon="6.01796">
        <ele>274.59</ele>
        <time>2018-07-14T08:08:52Z</time>
      </trkpt>
      <trkpt lat="47.29026" lon="6.01788">
        <ele>275.56</ele>
        <time>2018-07-14T08:08:54Z</time>
      </trkpt>
      <trkpt lat="47.29021" lon="6.01784">
        <ele>276.04</ele>
        <time>2018-07-14T08:08:55Z</time>
      </trkpt>
      <trkpt lat="47.29016" lon="6.01779">
        <ele>276.04</ele>
        <time>2018-07-14T08:08:56Z</time>
      </trkpt>
      <trkpt lat="47.29012" lon="6.01773">
        <ele>276.52</ele>
        <time>2018-07-14T08:08:57Z</time>
      </trkpt>
      <trkpt lat="47.29008" lon="6.01768">
        <ele>277</ele>
        <time>2018-07-14T08:08:58Z</time>
      </trkpt>
      <trkpt lat="47.29003" lon="6.01763">
        <ele>277.48</ele>
        <time>2018-07-14T08:08:59Z</time>
      </trkpt>
      <trkpt lat="47.28995" lon="6.01753">
        <ele>277.48</ele>
        <time>2018-07-14T08:09:01Z</time>
      </trkpt>
      <trkpt lat="47.28975" lon="6.01722">
        <ele>277</ele>
        <time>2018-07-14T08:09:06Z</time>
      </trkpt>
      <trkpt lat="47.28971" lon="6.01715">
        <ele>276.52</ele>
        <time>2018-07-14T08:09:07Z</time>
      </trkpt>
      <trkpt lat="47.28966" lon="6.01707">
        <ele>276.04</ele>
        <time>2018-07-14T08:09:08Z</time>
      </trkpt>
      <trkpt lat="47.28961" lon="6.01698">
        <ele>275.56</ele>
        <time>2018-07-14T08:09:09Z</time>
      </trkpt>
      <trkpt lat="47.28957" lon="6.0169">
        <ele>275.07</ele>
        <time>2018-07-14T08:09:10Z</time>
      </trkpt>
      <trkpt lat="47.28951" lon="6.01683">
        <ele>274.59</ele>
        <time>2018-07-14T08:09:11Z</time>
      </trkpt>
      <trkpt lat="47.28946" lon="6.01677">
        <ele>274.59</ele>
        <time>2018-07-14T08:09:12Z</time>
      </trkpt>
      <trkpt lat="47.2894" lon="6.01671">
        <ele>274.11</ele>
        <time>2018-07-14T08:09:13Z</time>
      </trkpt>
      <trkpt lat="47.28886" lon="6.01627">
        <ele>274.11</ele>
        <time>2018-07-14T08:09:22Z</time>
      </trkpt>
      <trkpt lat="47.28875" lon="6.01618">
        <ele>273.63</ele>
        <time>2018-07-14T08:09:24Z</time>
      </trkpt>
      <trkpt lat="47.28856" lon="6.01607">
        <ele>272.67</ele>
        <time>2018-07-14T08:09:28Z</time>
      </trkpt>
      <trkpt lat="47.28846" lon="6.01602">
        <ele>271.71</ele>
        <time>2018-07-14T08:09:30Z</time>
      </trkpt>
      <trkpt lat="47.2884" lon="6.01599">
        <ele>271.23</ele>
        <time>2018-07-14T08:09:31Z</time>
      </trkpt>
      <trkpt lat="47.28835" lon="6.01595">
        <ele>271.23</ele>
        <time>2018-07-14T08:09:32Z</time>
      </trkpt>
      <trkpt lat="47.28821" lon="6.01581">
        <ele>271.23</ele>
        <time>2018-07-14T08:09:35Z</time>
      </trkpt>
      <trkpt lat="47.28817" lon="6.01575">
        <ele>271.71</ele>
        <time>2018-07-14T08:09:36Z</time>
      </trkpt>
      <trkpt lat="47.28798" lon="6.0155">
        <ele>274.59</ele>
        <time>2018-07-14T08:09:43Z</time>
      </trkpt>
      <trkpt lat="47.28794" lon="6.01541">
        <ele>275.07</ele>
        <time>2018-07-14T08:09:45Z</time>
      </trkpt>
      <trkpt lat="47.28792" lon="6.01536">
        <ele>275.56</ele>
        <time>2018-07-14T08:09:46Z</time>
      </trkpt>
      <trkpt lat="47.28789" lon="6.01531">
        <ele>275.56</ele>
        <time>2018-07-14T08:09:47Z</time>
      </trkpt>
      <trkpt lat="47.28787" lon="6.01526">
        <ele>275.56</ele>
        <time>2018-07-14T08:09:48Z</time>
      </trkpt>
      <trkpt lat="47.28784" lon="6.0152">
        <ele>275.56</ele>
        <time>2018-07-14T08:09:49Z</time>
      </trkpt>
      <trkpt lat="47.28782" lon="6.01513">
        <ele>275.56</ele>
        <time>2018-07-14T08:09:50Z</time>
      </trkpt>
      <trkpt lat="47.28777" lon="6.015">
        <ele>275.07</ele>
        <time>2018-07-14T08:09:52Z</time>
      </trkpt>
      <trkpt lat="47.28775" lon="6.01493">
        <ele>275.07</ele>
        <time>2018-07-14T08:09:53Z</time>
      </trkpt>
      <trkpt lat="47.28766" lon="6.01466">
        <ele>274.11</ele>
        <time>2018-07-14T08:09:57Z</time>
      </trkpt>
      <trkpt lat="47.28763" lon="6.01459">
        <ele>274.11</ele>
        <time>2018-07-14T08:09:58Z</time>
      </trkpt>
      <trkpt lat="47.2876" lon="6.01452">
        <ele>273.63</ele>
        <time>2018-07-14T08:09:59Z</time>
      </trkpt>
      <trkpt lat="47.28746" lon="6.01427">
        <ele>273.63</ele>
        <time>2018-07-14T08:10:03Z</time>
      </trkpt>
      <trkpt lat="47.2874" lon="6.01413">
        <ele>274.11</ele>
        <time>2018-07-14T08:10:05Z</time>
      </trkpt>
      <trkpt lat="47.28717" lon="6.01381">
        <ele>273.63</ele>
        <time>2018-07-14T08:10:11Z</time>
      </trkpt>
      <trkpt lat="47.28713" lon="6.01377">
        <ele>273.63</ele>
        <time>2018-07-14T08:10:12Z</time>
      </trkpt>
      <trkpt lat="47.28704" lon="6.01366">
        <ele>273.15</ele>
        <time>2018-07-14T08:10:14Z</time>
      </trkpt>
      <trkpt lat="47.287" lon="6.0136">
        <ele>273.15</ele>
        <time>2018-07-14T08:10:15Z</time>
      </trkpt>
      <trkpt lat="47.28696" lon="6.01355">
        <ele>273.15</ele>
        <time>2018-07-14T08:10:16Z</time>
      </trkpt>
      <trkpt lat="47.28691" lon="6.0135">
        <ele>272.67</ele>
        <time>2018-07-14T08:10:17Z</time>
      </trkpt>
      <trkpt lat="47.28686" lon="6.01345">
        <ele>272.67</ele>
        <time>2018-07-14T08:10:18Z</time>
      </trkpt>
      <trkpt lat="47.28643" lon="6.01308">
        <ele>269.31</ele>
        <time>2018-07-14T08:10:25Z</time>
      </trkpt>
      <trkpt lat="47.28606" lon="6.01278">
        <ele>271.23</ele>
        <time>2018-07-14T08:10:32Z</time>
      </trkpt>
      <trkpt lat="47.28602" lon="6.01274">
        <ele>271.23</ele>
        <time>2018-07-14T08:10:33Z</time>
      </trkpt>
      <trkpt lat="47.28593" lon="6.01262">
        <ele>271.71</ele>
        <time>2018-07-14T08:10:36Z</time>
      </trkpt>
      <trkpt lat="47.28592" lon="6.01259">
        <ele>271.71</ele>
        <time>2018-07-14T08:10:37Z</time>
      </trkpt>
      <trkpt lat="47.28592" lon="6.01256">
        <ele>272.19</ele>
        <time>2018-07-14T08:10:38Z</time>
      </trkpt>
      <trkpt lat="47.28593" lon="6.01252">
        <ele>272.67</ele>
        <time>2018-07-14T08:10:39Z</time>
      </trkpt>
      <trkpt lat="47.28594" lon="6.0125">
        <ele>273.15</ele>
        <time>2018-07-14T08:10:40Z</time>
      </trkpt>
      <trkpt lat="47.28594" lon="6.01247">
        <ele>273.63</ele>
        <time>2018-07-14T08:10:41Z</time>
      </trkpt>
      <trkpt lat="47.28594" lon="6.01245">
        <ele>273.63</ele>
        <time>2018-07-14T08:10:42Z</time>
      </trkpt>
      <trkpt lat="47.28595" lon="6.01243">
        <ele>274.11</ele>
        <time>2018-07-14T08:10:43Z</time>
      </trkpt>
      <trkpt lat="47.28595" lon="6.0124">
        <ele>274.11</ele>
        <time>2018-07-14T08:10:44Z</time>
      </trkpt>
      <trkpt lat="47.28595" lon="6.01237">
        <ele>274.59</ele>
        <time>2018-07-14T08:10:45Z</time>
      </trkpt>
      <trkpt lat="47.28596" lon="6.01234">
        <ele>275.07</ele>
        <time>2018-07-14T08:10:46Z</time>
      </trkpt>
      <trkpt lat="47.28596" lon="6.01232">
        <ele>275.07</ele>
        <time>2018-07-14T08:10:47Z</time>
      </trkpt>
      <trkpt lat="47.28597" lon="6.01229">
        <ele>275.56</ele>
        <time>2018-07-14T08:10:48Z</time>
      </trkpt>
      <trkpt lat="47.28598" lon="6.01226">
        <ele>275.56</ele>
        <time>2018-07-14T08:10:49Z</time>
      </trkpt>
      <trkpt lat="47.28598" lon="6.01224">
        <ele>276.04</ele>
        <time>2018-07-14T08:10:50Z</time>
      </trkpt>
      <trkpt lat="47.28599" lon="6.01222">
        <ele>276.04</ele>
        <time>2018-07-14T08:10:51Z</time>
      </trkpt>
      <trkpt lat="47.286" lon="6.0122">
        <ele>276.52</ele>
        <time>2018-07-14T08:10:52Z</time>
      </trkpt>
      <trkpt lat="47.28602" lon="6.01218">
        <ele>276.52</ele>
        <time>2018-07-14T08:10:53Z</time>
      </trkpt>
      <trkpt lat="47.28603" lon="6.01216">
        <ele>276.52</ele>
        <time>2018-07-14T08:10:54Z</time>
      </trkpt>
      <trkpt lat="47.28605" lon="6.01215">
        <ele>277.48</ele>
        <time>2018-07-14T08:10:55Z</time>
      </trkpt>
      <trkpt lat="47.28607" lon="6.01213">
        <ele>277.48</ele>
        <time>2018-07-14T08:10:56Z</time>
      </trkpt>
      <trkpt lat="47.28609" lon="6.01212">
        <ele>277.96</ele>
        <time>2018-07-14T08:10:57Z</time>
      </trkpt>
      <trkpt lat="47.28611" lon="6.01212">
        <ele>277.96</ele>
        <time>2018-07-14T08:10:58Z</time>
      </trkpt>
      <trkpt lat="47.28629" lon="6.01201">
        <ele>281.32</ele>
        <time>2018-07-14T08:11:09Z</time>
      </trkpt>
      <trkpt lat="47.28645" lon="6.01197">
        <ele>284.21</ele>
        <time>2018-07-14T08:11:19Z</time>
      </trkpt>
      <trkpt lat="47.28661" lon="6.01202">
        <ele>287.09</ele>
        <time>2018-07-14T08:11:29Z</time>
      </trkpt>
      <trkpt lat="47.28678" lon="6.01207">
        <ele>290.46</ele>
        <time>2018-07-14T08:11:38Z</time>
      </trkpt>
      <trkpt lat="47.28679" lon="6.01207">
        <ele>290.94</ele>
        <time>2018-07-14T08:11:39Z</time>
      </trkpt>
      <trkpt lat="47.28681" lon="6.01207">
        <ele>291.42</ele>
        <time>2018-07-14T08:11:40Z</time>
      </trkpt>
      <trkpt lat="47.28691" lon="6.01209">
        <ele>293.34</ele>
        <time>2018-07-14T08:11:46Z</time>
      </trkpt>
      <trkpt lat="47.287" lon="6.0121">
        <ele>295.74</ele>
        <time>2018-07-14T08:11:53Z</time>
      </trkpt>
      <trkpt lat="47.28703" lon="6.01211">
        <ele>296.7</ele>
        <time>2018-07-14T08:11:55Z</time>
      </trkpt>
      <trkpt lat="47.28705" lon="6.01211">
        <ele>296.7</ele>
        <time>2018-07-14T08:11:56Z</time>
      </trkpt>
      <trkpt lat="47.28721" lon="6.01214">
        <ele>299.59</ele>
        <time>2018-07-14T08:12:05Z</time>
      </trkpt>
      <trkpt lat="47.28723" lon="6.01216">
        <ele>300.07</ele>
        <time>2018-07-14T08:12:06Z</time>
      </trkpt>
      <trkpt lat="47.28725" lon="6.01216">
        <ele>300.55</ele>
        <time>2018-07-14T08:12:07Z</time>
      </trkpt>
      <trkpt lat="47.28727" lon="6.01217">
        <ele>301.03</ele>
        <time>2018-07-14T08:12:08Z</time>
      </trkpt>
      <trkpt lat="47.2873" lon="6.0122">
        <ele>301.51</ele>
        <time>2018-07-14T08:12:11Z</time>
      </trkpt>
      <trkpt lat="47.28732" lon="6.01221">
        <ele>301.99</ele>
        <time>2018-07-14T08:12:12Z</time>
      </trkpt>
      <trkpt lat="47.28736" lon="6.01225">
        <ele>303.43</ele>
        <time>2018-07-14T08:12:16Z</time>
      </trkpt>
      <trkpt lat="47.28739" lon="6.01228">
        <ele>303.91</ele>
        <time>2018-07-14T08:12:18Z</time>
      </trkpt>
      <trkpt lat="47.2874" lon="6.0123">
        <ele>303.91</ele>
        <time>2018-07-14T08:12:19Z</time>
      </trkpt>
      <trkpt lat="47.28742" lon="6.01232">
        <ele>304.39</ele>
        <time>2018-07-14T08:12:20Z</time>
      </trkpt>
      <trkpt lat="47.28745" lon="6.01233">
        <ele>304.39</ele>
        <time>2018-07-14T08:12:21Z</time>
      </trkpt>
      <trkpt lat="47.28747" lon="6.01235">
        <ele>304.88</ele>
        <time>2018-07-14T08:12:22Z</time>
      </trkpt>
      <trkpt lat="47.28749" lon="6.01237">
        <ele>304.88</ele>
        <time>2018-07-14T08:12:23Z</time>
      </trkpt>
      <trkpt lat="47.28751" lon="6.01239">
        <ele>304.88</ele>
        <time>2018-07-14T08:12:24Z</time>
      </trkpt>
      <trkpt lat="47.28753" lon="6.01241">
        <ele>305.36</ele>
        <time>2018-07-14T08:12:25Z</time>
      </trkpt>
      <trkpt lat="47.28756" lon="6.01243">
        <ele>305.36</ele>
        <time>2018-07-14T08:12:26Z</time>
      </trkpt>
      <trkpt lat="47.28759" lon="6.01246">
        <ele>305.36</ele>
        <time>2018-07-14T08:12:27Z</time>
      </trkpt>
      <trkpt lat="47.28786" lon="6.01281">
        <ele>306.32</ele>
        <time>2018-07-14T08:12:39Z</time>
      </trkpt>
      <trkpt lat="47.28802" lon="6.01308">
        <ele>305.36</ele>
        <time>2018-07-14T08:12:45Z</time>
      </trkpt>
      <trkpt lat="47.28806" lon="6.01312">
        <ele>305.36</ele>
        <time>2018-07-14T08:12:46Z</time>
      </trkpt>
      <trkpt lat="47.28818" lon="6.01326">
        <ele>304.39</ele>
        <time>2018-07-14T08:12:49Z</time>
      </trkpt>
      <trkpt lat="47.28826" lon="6.01334">
        <ele>304.39</ele>
        <time>2018-07-14T08:12:51Z</time>
      </trkpt>
      <trkpt lat="47.28831" lon="6.01337">
        <ele>304.39</ele>
        <time>2018-07-14T08:12:52Z</time>
      </trkpt>
      <trkpt lat="47.28836" lon="6.0134">
        <ele>304.39</ele>
        <time>2018-07-14T08:12:53Z</time>
      </trkpt>
      <trkpt lat="47.28841" lon="6.01343">
        <ele>304.39</ele>
        <time>2018-07-14T08:12:54Z</time>
      </trkpt>
      <trkpt lat="47.28845" lon="6.01346">
        <ele>304.88</ele>
        <time>2018-07-14T08:12:55Z</time>
      </trkpt>
      <trkpt lat="47.28848" lon="6.01349">
        <ele>304.88</ele>
        <time>2018-07-14T08:12:56Z</time>
      </trkpt>
      <trkpt lat="47.28852" lon="6.01352">
        <ele>304.88</ele>
        <time>2018-07-14T08:12:57Z</time>
      </trkpt>
      <trkpt lat="47.28878" lon="6.01384">
        <ele>306.32</ele>
        <time>2018-07-14T08:13:06Z</time>
      </trkpt>
      <trkpt lat="47.28881" lon="6.01389">
        <ele>306.8</ele>
        <time>2018-07-14T08:13:07Z</time>
      </trkpt>
      <trkpt lat="47.28883" lon="6.01394">
        <ele>306.8</ele>
        <time>2018-07-14T08:13:08Z</time>
      </trkpt>
      <trkpt lat="47.28885" lon="6.01399">
        <ele>306.32</ele>
        <time>2018-07-14T08:13:09Z</time>
      </trkpt>
      <trkpt lat="47.28887" lon="6.01403">
        <ele>306.32</ele>
        <time>2018-07-14T08:13:10Z</time>
      </trkpt>
      <trkpt lat="47.28889" lon="6.01407">
        <ele>306.32</ele>
        <time>2018-07-14T08:13:11Z</time>
      </trkpt>
      <trkpt lat="47.28893" lon="6.01411">
        <ele>306.32</ele>
        <time>2018-07-14T08:13:12Z</time>
      </trkpt>
      <trkpt lat="47.28897" lon="6.01415">
        <ele>305.84</ele>
        <time>2018-07-14T08:13:13Z</time>
      </trkpt>
      <trkpt lat="47.28934" lon="6.01421">
        <ele>308.24</ele>
        <time>2018-07-14T08:13:23Z</time>
      </trkpt>
      <trkpt lat="47.28957" lon="6.01394">
        <ele>311.6</ele>
        <time>2018-07-14T08:13:33Z</time>
      </trkpt>
      <trkpt lat="47.28986" lon="6.01368">
        <ele>313.05</ele>
        <time>2018-07-14T08:13:43Z</time>
      </trkpt>
      <trkpt lat="47.28978" lon="6.01366">
        <ele>313.05</ele>
        <time>2018-07-14T08:13:44Z</time>
      </trkpt>
      <trkpt lat="47.28978" lon="6.01361">
        <ele>313.53</ele>
        <time>2018-07-14T08:13:45Z</time>
      </trkpt>
      <trkpt lat="47.28979" lon="6.01358">
        <ele>313.53</ele>
        <time>2018-07-14T08:13:46Z</time>
      </trkpt>
      <trkpt lat="47.28979" lon="6.01355">
        <ele>314.01</ele>
        <time>2018-07-14T08:13:47Z</time>
      </trkpt>
      <trkpt lat="47.28979" lon="6.0135">
        <ele>314.49</ele>
        <time>2018-07-14T08:13:48Z</time>
      </trkpt>
      <trkpt lat="47.28981" lon="6.01344">
        <ele>314.97</ele>
        <time>2018-07-14T08:13:50Z</time>
      </trkpt>
      <trkpt lat="47.28981" lon="6.01342">
        <ele>315.45</ele>
        <time>2018-07-14T08:13:51Z</time>
      </trkpt>
      <trkpt lat="47.28982" lon="6.01339">
        <ele>315.45</ele>
        <time>2018-07-14T08:13:52Z</time>
      </trkpt>
      <trkpt lat="47.28982" lon="6.01337">
        <ele>315.45</ele>
        <time>2018-07-14T08:13:53Z</time>
      </trkpt>
      <trkpt lat="47.28982" lon="6.01333">
        <ele>315.93</ele>
        <time>2018-07-14T08:13:54Z</time>
      </trkpt>
      <trkpt lat="47.28982" lon="6.01331">
        <ele>315.93</ele>
        <time>2018-07-14T08:13:55Z</time>
      </trkpt>
      <trkpt lat="47.2898" lon="6.0132">
        <ele>316.41</ele>
        <time>2018-07-14T08:13:59Z</time>
      </trkpt>
      <trkpt lat="47.28979" lon="6.01317">
        <ele>316.41</ele>
        <time>2018-07-14T08:14:00Z</time>
      </trkpt>
      <trkpt lat="47.28979" lon="6.01314">
        <ele>316.89</ele>
        <time>2018-07-14T08:14:01Z</time>
      </trkpt>
      <trkpt lat="47.28978" lon="6.01311">
        <ele>316.89</ele>
        <time>2018-07-14T08:14:02Z</time>
      </trkpt>
      <trkpt lat="47.28977" lon="6.01309">
        <ele>317.37</ele>
        <time>2018-07-14T08:14:03Z</time>
      </trkpt>
      <trkpt lat="47.28978" lon="6.01289">
        <ele>318.33</ele>
        <time>2018-07-14T08:14:09Z</time>
      </trkpt>
      <trkpt lat="47.28979" lon="6.01287">
        <ele>318.81</ele>
        <time>2018-07-14T08:14:10Z</time>
      </trkpt>
      <trkpt lat="47.28981" lon="6.01283">
        <ele>319.78</ele>
        <time>2018-07-14T08:14:13Z</time>
      </trkpt>
      <trkpt lat="47.29002" lon="6.01273">
        <ele>321.7</ele>
        <time>2018-07-14T08:14:24Z</time>
      </trkpt>
      <trkpt lat="47.29015" lon="6.01266">
        <ele>323.14</ele>
        <time>2018-07-14T08:14:31Z</time>
      </trkpt>
      <trkpt lat="47.29015" lon="6.01263">
        <ele>323.62</ele>
        <time>2018-07-14T08:14:32Z</time>
      </trkpt>
      <trkpt lat="47.29015" lon="6.01261">
        <ele>324.1</ele>
        <time>2018-07-14T08:14:33Z</time>
      </trkpt>
      <trkpt lat="47.29015" lon="6.01258">
        <ele>324.58</ele>
        <time>2018-07-14T08:14:34Z</time>
      </trkpt>
      <trkpt lat="47.29014" lon="6.01257">
        <ele>324.58</ele>
        <time>2018-07-14T08:14:35Z</time>
      </trkpt>
      <trkpt lat="47.29012" lon="6.01255">
        <ele>325.06</ele>
        <time>2018-07-14T08:14:36Z</time>
      </trkpt>
      <trkpt lat="47.28988" lon="6.01231">
        <ele>326.99</ele>
        <time>2018-07-14T08:14:49Z</time>
      </trkpt>
      <trkpt lat="47.28967" lon="6.01215">
        <ele>329.39</ele>
        <time>2018-07-14T08:15:00Z</time>
      </trkpt>
      <trkpt lat="47.28949" lon="6.01202">
        <ele>331.31</ele>
        <time>2018-07-14T08:15:09Z</time>
      </trkpt>
      <trkpt lat="47.28947" lon="6.012">
        <ele>331.31</ele>
        <time>2018-07-14T08:15:10Z</time>
      </trkpt>
      <trkpt lat="47.28921" lon="6.01183">
        <ele>333.71</ele>
        <time>2018-07-14T08:15:22Z</time>
      </trkpt>
      <trkpt lat="47.28896" lon="6.01168">
        <ele>336.12</ele>
        <time>2018-07-14T08:15:33Z</time>
      </trkpt>
      <trkpt lat="47.2887" lon="6.01141">
        <ele>338.04</ele>
        <time>2018-07-14T08:15:45Z</time>
      </trkpt>
      <trkpt lat="47.28863" lon="6.0113">
        <ele>339</ele>
        <time>2018-07-14T08:15:49Z</time>
      </trkpt>
      <trkpt lat="47.2886" lon="6.01128">
        <ele>339</ele>
        <time>2018-07-14T08:15:50Z</time>
      </trkpt>
      <trkpt lat="47.28854" lon="6.01121">
        <ele>339.48</ele>
        <time>2018-07-14T08:15:53Z</time>
      </trkpt>
      <trkpt lat="47.28829" lon="6.01069">
        <ele>340.92</ele>
        <time>2018-07-14T08:16:07Z</time>
      </trkpt>
      <trkpt lat="47.28819" lon="6.01026">
        <ele>342.37</ele>
        <time>2018-07-14T08:16:17Z</time>
      </trkpt>
      <trkpt lat="47.28818" lon="6.01022">
        <ele>342.85</ele>
        <time>2018-07-14T08:16:18Z</time>
      </trkpt>
      <trkpt lat="47.28818" lon="6.01017">
        <ele>342.85</ele>
        <time>2018-07-14T08:16:19Z</time>
      </trkpt>
      <trkpt lat="47.28818" lon="6.01012">
        <ele>342.85</ele>
        <time>2018-07-14T08:16:20Z</time>
      </trkpt>
      <trkpt lat="47.28817" lon="6.01008">
        <ele>342.85</ele>
        <time>2018-07-14T08:16:21Z</time>
      </trkpt>
      <trkpt lat="47.28808" lon="6.00959">
        <ele>344.29</ele>
        <time>2018-07-14T08:16:32Z</time>
      </trkpt>
      <trkpt lat="47.28799" lon="6.00894">
        <ele>346.21</ele>
        <time>2018-07-14T08:16:46Z</time>
      </trkpt>
      <trkpt lat="47.28797" lon="6.00876">
        <ele>346.69</ele>
        <time>2018-07-14T08:16:50Z</time>
      </trkpt>
      <trkpt lat="47.28796" lon="6.00872">
        <ele>346.69</ele>
        <time>2018-07-14T08:16:51Z</time>
      </trkpt>
      <trkpt lat="47.28796" lon="6.00867">
        <ele>346.69</ele>
        <time>2018-07-14T08:16:52Z</time>
      </trkpt>
      <trkpt lat="47.28791" lon="6.00812">
        <ele>347.17</ele>
        <time>2018-07-14T08:17:03Z</time>
      </trkpt>
      <trkpt lat="47.28788" lon="6.00756">
        <ele>346.69</ele>
        <time>2018-07-14T08:17:13Z</time>
      </trkpt>
      <trkpt lat="47.28787" lon="6.0075">
        <ele>346.69</ele>
        <time>2018-07-14T08:17:14Z</time>
      </trkpt>
      <trkpt lat="47.28791" lon="6.0071">
        <ele>346.21</ele>
        <time>2018-07-14T08:17:19Z</time>
      </trkpt>
      <trkpt lat="47.28794" lon="6.00689">
        <ele>346.21</ele>
        <time>2018-07-14T08:17:22Z</time>
      </trkpt>
      <trkpt lat="47.28795" lon="6.00682">
        <ele>346.21</ele>
        <time>2018-07-14T08:17:23Z</time>
      </trkpt>
      <trkpt lat="47.28798" lon="6.0066">
        <ele>346.21</ele>
        <time>2018-07-14T08:17:26Z</time>
      </trkpt>
      <trkpt lat="47.28803" lon="6.0064">
        <ele>346.21</ele>
        <time>2018-07-14T08:17:29Z</time>
      </trkpt>
      <trkpt lat="47.28803" lon="6.00633">
        <ele>346.21</ele>
        <time>2018-07-14T08:17:30Z</time>
      </trkpt>
      <trkpt lat="47.28805" lon="6.00611">
        <ele>345.73</ele>
        <time>2018-07-14T08:17:33Z</time>
      </trkpt>
      <trkpt lat="47.28804" lon="6.00604">
        <ele>344.77</ele>
        <time>2018-07-14T08:17:34Z</time>
      </trkpt>
      <trkpt lat="47.28802" lon="6.00597">
        <ele>344.77</ele>
        <time>2018-07-14T08:17:35Z</time>
      </trkpt>
      <trkpt lat="47.28799" lon="6.00589">
        <ele>344.29</ele>
        <time>2018-07-14T08:17:36Z</time>
      </trkpt>
      <trkpt lat="47.28796" lon="6.00581">
        <ele>343.81</ele>
        <time>2018-07-14T08:17:37Z</time>
      </trkpt>
      <trkpt lat="47.28791" lon="6.00572">
        <ele>342.85</ele>
        <time>2018-07-14T08:17:38Z</time>
      </trkpt>
      <trkpt lat="47.28787" lon="6.00564">
        <ele>341.89</ele>
        <time>2018-07-14T08:17:39Z</time>
      </trkpt>
      <trkpt lat="47.28769" lon="6.00534">
        <ele>339</ele>
        <time>2018-07-14T08:17:42Z</time>
      </trkpt>
      <trkpt lat="47.28755" lon="6.00503">
        <ele>337.08</ele>
        <time>2018-07-14T08:17:45Z</time>
      </trkpt>
      <trkpt lat="47.28738" lon="6.00465">
        <ele>335.16</ele>
        <time>2018-07-14T08:17:51Z</time>
      </trkpt>
      <trkpt lat="47.28735" lon="6.00458">
        <ele>334.2</ele>
        <time>2018-07-14T08:17:52Z</time>
      </trkpt>
      <trkpt lat="47.28728" lon="6.00444">
        <ele>333.23</ele>
        <time>2018-07-14T08:17:54Z</time>
      </trkpt>
      <trkpt lat="47.28723" lon="6.00435">
        <ele>332.27</ele>
        <time>2018-07-14T08:17:56Z</time>
      </trkpt>
      <trkpt lat="47.28721" lon="6.00431">
        <ele>332.27</ele>
        <time>2018-07-14T08:17:57Z</time>
      </trkpt>
      <trkpt lat="47.28719" lon="6.0043">
        <ele>331.79</ele>
        <time>2018-07-14T08:17:58Z</time>
      </trkpt>
      <trkpt lat="47.28714" lon="6.00424">
        <ele>330.83</ele>
        <time>2018-07-14T08:18:07Z</time>
      </trkpt>
      <trkpt lat="47.28725" lon="6.0041">
        <ele>332.27</ele>
        <time>2018-07-14T08:18:15Z</time>
      </trkpt>
      <trkpt lat="47.28736" lon="6.00392">
        <ele>335.16</ele>
        <time>2018-07-14T08:18:26Z</time>
      </trkpt>
      <trkpt lat="47.28746" lon="6.0038">
        <ele>337.56</ele>
        <time>2018-07-14T08:18:36Z</time>
      </trkpt>
      <trkpt lat="47.28748" lon="6.00378">
        <ele>337.56</ele>
        <time>2018-07-14T08:18:37Z</time>
      </trkpt>
      <trkpt lat="47.28751" lon="6.00373">
        <ele>338.52</ele>
        <time>2018-07-14T08:18:40Z</time>
      </trkpt>
      <trkpt lat="47.28752" lon="6.00372">
        <ele>338.52</ele>
        <time>2018-07-14T08:18:41Z</time>
      </trkpt>
      <trkpt lat="47.28753" lon="6.00371">
        <ele>339</ele>
        <time>2018-07-14T08:18:42Z</time>
      </trkpt>
      <trkpt lat="47.28763" lon="6.00358">
        <ele>341.89</ele>
        <time>2018-07-14T08:18:52Z</time>
      </trkpt>
      <trkpt lat="47.28764" lon="6.00357">
        <ele>342.85</ele>
        <time>2018-07-14T08:18:54Z</time>
      </trkpt>
      <trkpt lat="47.28766" lon="6.00355">
        <ele>343.33</ele>
        <time>2018-07-14T08:18:55Z</time>
      </trkpt>
      <trkpt lat="47.28775" lon="6.00347">
        <ele>346.21</ele>
        <time>2018-07-14T08:19:03Z</time>
      </trkpt>
      <trkpt lat="47.28778" lon="6.00346">
        <ele>347.17</ele>
        <time>2018-07-14T08:19:06Z</time>
      </trkpt>
      <trkpt lat="47.28783" lon="6.00341">
        <ele>348.62</ele>
        <time>2018-07-14T08:19:10Z</time>
      </trkpt>
      <trkpt lat="47.28785" lon="6.00338">
        <ele>349.1</ele>
        <time>2018-07-14T08:19:11Z</time>
      </trkpt>
      <trkpt lat="47.28787" lon="6.00335">
        <ele>349.58</ele>
        <time>2018-07-14T08:19:12Z</time>
      </trkpt>
      <trkpt lat="47.28789" lon="6.00333">
        <ele>349.58</ele>
        <time>2018-07-14T08:19:13Z</time>
      </trkpt>
      <trkpt lat="47.28793" lon="6.00328">
        <ele>351.02</ele>
        <time>2018-07-14T08:19:17Z</time>
      </trkpt>
      <trkpt lat="47.28794" lon="6.00327">
        <ele>351.02</ele>
        <time>2018-07-14T08:19:18Z</time>
      </trkpt>
      <trkpt lat="47.28796" lon="6.00325">
        <ele>351.5</ele>
        <time>2018-07-14T08:19:19Z</time>
      </trkpt>
      <trkpt lat="47.28797" lon="6.00323">
        <ele>351.98</ele>
        <time>2018-07-14T08:19:20Z</time>
      </trkpt>
      <trkpt lat="47.28798" lon="6.00322">
        <ele>351.98</ele>
        <time>2018-07-14T08:19:21Z</time>
      </trkpt>
      <trkpt lat="47.28805" lon="6.00308">
        <ele>353.9</ele>
        <time>2018-07-14T08:19:28Z</time>
      </trkpt>
      <trkpt lat="47.28808" lon="6.00306">
        <ele>354.38</ele>
        <time>2018-07-14T08:19:30Z</time>
      </trkpt>
      <trkpt lat="47.28809" lon="6.00302">
        <ele>355.34</ele>
        <time>2018-07-14T08:19:33Z</time>
      </trkpt>
      <trkpt lat="47.28811" lon="6.003">
        <ele>355.34</ele>
        <time>2018-07-14T08:19:34Z</time>
      </trkpt>
      <trkpt lat="47.28812" lon="6.00298">
        <ele>355.83</ele>
        <time>2018-07-14T08:19:35Z</time>
      </trkpt>
      <trkpt lat="47.28814" lon="6.00294">
        <ele>356.79</ele>
        <time>2018-07-14T08:19:38Z</time>
      </trkpt>
      <trkpt lat="47.28818" lon="6.0029">
        <ele>357.27</ele>
        <time>2018-07-14T08:19:41Z</time>
      </trkpt>
      <trkpt lat="47.28824" lon="6.00279">
        <ele>358.71</ele>
        <time>2018-07-14T08:19:48Z</time>
      </trkpt>
      <trkpt lat="47.28825" lon="6.00278">
        <ele>358.71</ele>
        <time>2018-07-14T08:19:49Z</time>
      </trkpt>
      <trkpt lat="47.28826" lon="6.00276">
        <ele>359.19</ele>
        <time>2018-07-14T08:19:50Z</time>
      </trkpt>
      <trkpt lat="47.28829" lon="6.00272">
        <ele>359.67</ele>
        <time>2018-07-14T08:19:53Z</time>
      </trkpt>
      <trkpt lat="47.28831" lon="6.00269">
        <ele>360.15</ele>
        <time>2018-07-14T08:19:56Z</time>
      </trkpt>
      <trkpt lat="47.28834" lon="6.00266">
        <ele>360.63</ele>
        <time>2018-07-14T08:19:58Z</time>
      </trkpt>
      <trkpt lat="47.28842" lon="6.00253">
        <ele>362.55</ele>
        <time>2018-07-14T08:20:04Z</time>
      </trkpt>
      <trkpt lat="47.28845" lon="6.00249">
        <ele>363.04</ele>
        <time>2018-07-14T08:20:07Z</time>
      </trkpt>
      <trkpt lat="47.28851" lon="6.00242">
        <ele>364</ele>
        <time>2018-07-14T08:20:10Z</time>
      </trkpt>
      <trkpt lat="47.28852" lon="6.00238">
        <ele>364</ele>
        <time>2018-07-14T08:20:11Z</time>
      </trkpt>
      <trkpt lat="47.28854" lon="6.00235">
        <ele>364.48</ele>
        <time>2018-07-14T08:20:12Z</time>
      </trkpt>
      <trkpt lat="47.28855" lon="6.0023">
        <ele>364.48</ele>
        <time>2018-07-14T08:20:13Z</time>
      </trkpt>
      <trkpt lat="47.28863" lon="6.00207">
        <ele>366.4</ele>
        <time>2018-07-14T08:20:20Z</time>
      </trkpt>
      <trkpt lat="47.28865" lon="6.00205">
        <ele>366.4</ele>
        <time>2018-07-14T08:20:21Z</time>
      </trkpt>
      <trkpt lat="47.28873" lon="6.00191">
        <ele>368.8</ele>
        <time>2018-07-14T08:20:32Z</time>
      </trkpt>
      <trkpt lat="47.28886" lon="6.00171">
        <ele>370.24</ele>
        <time>2018-07-14T08:20:42Z</time>
      </trkpt>
      <trkpt lat="47.28887" lon="6.0017">
        <ele>370.73</ele>
        <time>2018-07-14T08:20:43Z</time>
      </trkpt>
      <trkpt lat="47.28888" lon="6.00166">
        <ele>370.73</ele>
        <time>2018-07-14T08:20:44Z</time>
      </trkpt>
      <trkpt lat="47.28889" lon="6.00164">
        <ele>370.73</ele>
        <time>2018-07-14T08:20:45Z</time>
      </trkpt>
      <trkpt lat="47.28891" lon="6.00162">
        <ele>370.73</ele>
        <time>2018-07-14T08:20:46Z</time>
      </trkpt>
      <trkpt lat="47.28893" lon="6.00159">
        <ele>370.73</ele>
        <time>2018-07-14T08:20:47Z</time>
      </trkpt>
      <trkpt lat="47.28894" lon="6.00157">
        <ele>371.21</ele>
        <time>2018-07-14T08:20:48Z</time>
      </trkpt>
      <trkpt lat="47.28895" lon="6.00155">
        <ele>371.21</ele>
        <time>2018-07-14T08:20:49Z</time>
      </trkpt>
      <trkpt lat="47.28897" lon="6.00154">
        <ele>371.21</ele>
        <time>2018-07-14T08:20:50Z</time>
      </trkpt>
      <trkpt lat="47.28899" lon="6.00153">
        <ele>371.21</ele>
        <time>2018-07-14T08:20:51Z</time>
      </trkpt>
      <trkpt lat="47.28901" lon="6.00153">
        <ele>371.21</ele>
        <time>2018-07-14T08:20:52Z</time>
      </trkpt>
      <trkpt lat="47.28902" lon="6.00153">
        <ele>371.21</ele>
        <time>2018-07-14T08:20:53Z</time>
      </trkpt>
      <trkpt lat="47.28904" lon="6.00154">
        <ele>371.69</ele>
        <time>2018-07-14T08:20:54Z</time>
      </trkpt>
      <trkpt lat="47.28906" lon="6.00155">
        <ele>372.17</ele>
        <time>2018-07-14T08:20:55Z</time>
      </trkpt>
      <trkpt lat="47.28908" lon="6.00156">
        <ele>371.69</ele>
        <time>2018-07-14T08:20:56Z</time>
      </trkpt>
      <trkpt lat="47.28911" lon="6.00156">
        <ele>371.69</ele>
        <time>2018-07-14T08:20:57Z</time>
      </trkpt>
      <trkpt lat="47.28913" lon="6.00156">
        <ele>371.21</ele>
        <time>2018-07-14T08:20:58Z</time>
      </trkpt>
      <trkpt lat="47.28916" lon="6.00157">
        <ele>371.21</ele>
        <time>2018-07-14T08:20:59Z</time>
      </trkpt>
      <trkpt lat="47.28938" lon="6.0016">
        <ele>369.76</ele>
        <time>2018-07-14T08:21:05Z</time>
      </trkpt>
      <trkpt lat="47.28943" lon="6.0016">
        <ele>369.28</ele>
        <time>2018-07-14T08:21:06Z</time>
      </trkpt>
      <trkpt lat="47.28948" lon="6.00161">
        <ele>369.28</ele>
        <time>2018-07-14T08:21:07Z</time>
      </trkpt>
      <trkpt lat="47.28952" lon="6.00161">
        <ele>369.28</ele>
        <time>2018-07-14T08:21:08Z</time>
      </trkpt>
      <trkpt lat="47.28954" lon="6.00162">
        <ele>369.28</ele>
        <time>2018-07-14T08:21:09Z</time>
      </trkpt>
      <trkpt lat="47.28964" lon="6.00165">
        <ele>369.28</ele>
        <time>2018-07-14T08:21:18Z</time>
      </trkpt>
      <trkpt lat="47.2897" lon="6.00165">
        <ele>369.28</ele>
        <time>2018-07-14T08:21:26Z</time>
      </trkpt>
      <trkpt lat="47.28972" lon="6.00166">
        <ele>369.28</ele>
        <time>2018-07-14T08:21:27Z</time>
      </trkpt>
      <trkpt lat="47.28978" lon="6.00169">
        <ele>369.28</ele>
        <time>2018-07-14T08:21:31Z</time>
      </trkpt>
      <trkpt lat="47.28981" lon="6.00169">
        <ele>369.28</ele>
        <time>2018-07-14T08:21:32Z</time>
      </trkpt>
      <trkpt lat="47.28991" lon="6.00177">
        <ele>368.8</ele>
        <time>2018-07-14T08:21:36Z</time>
      </trkpt>
      <trkpt lat="47.28993" lon="6.0018">
        <ele>368.8</ele>
        <time>2018-07-14T08:21:37Z</time>
      </trkpt>
      <trkpt lat="47.29007" lon="6.00199">
        <ele>369.28</ele>
        <time>2018-07-14T08:21:43Z</time>
      </trkpt>
      <trkpt lat="47.2901" lon="6.00201">
        <ele>369.76</ele>
        <time>2018-07-14T08:21:44Z</time>
      </trkpt>
      <trkpt lat="47.29012" lon="6.00203">
        <ele>369.76</ele>
        <time>2018-07-14T08:21:45Z</time>
      </trkpt>
      <trkpt lat="47.29014" lon="6.00206">
        <ele>370.24</ele>
        <time>2018-07-14T08:21:46Z</time>
      </trkpt>
      <trkpt lat="47.29017" lon="6.00208">
        <ele>370.24</ele>
        <time>2018-07-14T08:21:47Z</time>
      </trkpt>
      <trkpt lat="47.29019" lon="6.0021">
        <ele>370.73</ele>
        <time>2018-07-14T08:21:48Z</time>
      </trkpt>
      <trkpt lat="47.29023" lon="6.00216">
        <ele>371.21</ele>
        <time>2018-07-14T08:21:51Z</time>
      </trkpt>
      <trkpt lat="47.29025" lon="6.00219">
        <ele>371.21</ele>
        <time>2018-07-14T08:21:52Z</time>
      </trkpt>
      <trkpt lat="47.29027" lon="6.00222">
        <ele>371.69</ele>
        <time>2018-07-14T08:21:53Z</time>
      </trkpt>
      <trkpt lat="47.2903" lon="6.00225">
        <ele>371.69</ele>
        <time>2018-07-14T08:21:54Z</time>
      </trkpt>
      <trkpt lat="47.29032" lon="6.00228">
        <ele>371.69</ele>
        <time>2018-07-14T08:21:55Z</time>
      </trkpt>
      <trkpt lat="47.29039" lon="6.00242">
        <ele>373.13</ele>
        <time>2018-07-14T08:22:00Z</time>
      </trkpt>
      <trkpt lat="47.29046" lon="6.00251">
        <ele>374.09</ele>
        <time>2018-07-14T08:22:03Z</time>
      </trkpt>
      <trkpt lat="47.29048" lon="6.00253">
        <ele>374.09</ele>
        <time>2018-07-14T08:22:04Z</time>
      </trkpt>
      <trkpt lat="47.29051" lon="6.00255">
        <ele>374.57</ele>
        <time>2018-07-14T08:22:05Z</time>
      </trkpt>
      <trkpt lat="47.29053" lon="6.00256">
        <ele>374.57</ele>
        <time>2018-07-14T08:22:06Z</time>
      </trkpt>
      <trkpt lat="47.29055" lon="6.00258">
        <ele>375.05</ele>
        <time>2018-07-14T08:22:07Z</time>
      </trkpt>
      <trkpt lat="47.29058" lon="6.00259">
        <ele>375.53</ele>
        <time>2018-07-14T08:22:08Z</time>
      </trkpt>
      <trkpt lat="47.29069" lon="6.00275">
        <ele>377.45</ele>
        <time>2018-07-14T08:22:16Z</time>
      </trkpt>
      <trkpt lat="47.29071" lon="6.00276">
        <ele>377.45</ele>
        <time>2018-07-14T08:22:17Z</time>
      </trkpt>
      <trkpt lat="47.29093" lon="6.003">
        <ele>379.86</ele>
        <time>2018-07-14T08:22:29Z</time>
      </trkpt>
      <trkpt lat="47.29106" lon="6.00313">
        <ele>381.78</ele>
        <time>2018-07-14T08:22:36Z</time>
      </trkpt>
      <trkpt lat="47.29108" lon="6.00314">
        <ele>381.78</ele>
        <time>2018-07-14T08:22:37Z</time>
      </trkpt>
      <trkpt lat="47.2911" lon="6.00316">
        <ele>382.26</ele>
        <time>2018-07-14T08:22:38Z</time>
      </trkpt>
      <trkpt lat="47.29112" lon="6.00317">
        <ele>382.26</ele>
        <time>2018-07-14T08:22:39Z</time>
      </trkpt>
      <trkpt lat="47.29113" lon="6.00319">
        <ele>382.26</ele>
        <time>2018-07-14T08:22:40Z</time>
      </trkpt>
      <trkpt lat="47.29115" lon="6.0032">
        <ele>382.74</ele>
        <time>2018-07-14T08:22:41Z</time>
      </trkpt>
      <trkpt lat="47.29117" lon="6.00322">
        <ele>383.22</ele>
        <time>2018-07-14T08:22:42Z</time>
      </trkpt>
      <trkpt lat="47.29137" lon="6.00341">
        <ele>385.63</ele>
        <time>2018-07-14T08:22:53Z</time>
      </trkpt>
      <trkpt lat="47.29138" lon="6.00342">
        <ele>385.63</ele>
        <time>2018-07-14T08:22:54Z</time>
      </trkpt>
      <trkpt lat="47.2914" lon="6.00344">
        <ele>386.11</ele>
        <time>2018-07-14T08:22:55Z</time>
      </trkpt>
      <trkpt lat="47.29141" lon="6.00345">
        <ele>386.59</ele>
        <time>2018-07-14T08:22:56Z</time>
      </trkpt>
      <trkpt lat="47.29143" lon="6.00347">
        <ele>387.07</ele>
        <time>2018-07-14T08:22:57Z</time>
      </trkpt>
      <trkpt lat="47.29144" lon="6.00349">
        <ele>387.07</ele>
        <time>2018-07-14T08:22:58Z</time>
      </trkpt>
      <trkpt lat="47.29146" lon="6.00351">
        <ele>387.07</ele>
        <time>2018-07-14T08:22:59Z</time>
      </trkpt>
      <trkpt lat="47.29148" lon="6.00353">
        <ele>387.55</ele>
        <time>2018-07-14T08:23:00Z</time>
      </trkpt>
      <trkpt lat="47.29149" lon="6.00356">
        <ele>387.55</ele>
        <time>2018-07-14T08:23:01Z</time>
      </trkpt>
      <trkpt lat="47.29153" lon="6.00359">
        <ele>388.03</ele>
        <time>2018-07-14T08:23:03Z</time>
      </trkpt>
      <trkpt lat="47.29154" lon="6.00361">
        <ele>388.03</ele>
        <time>2018-07-14T08:23:04Z</time>
      </trkpt>
      <trkpt lat="47.29156" lon="6.00363">
        <ele>388.51</ele>
        <time>2018-07-14T08:23:05Z</time>
      </trkpt>
      <trkpt lat="47.29157" lon="6.00364">
        <ele>388.99</ele>
        <time>2018-07-14T08:23:06Z</time>
      </trkpt>
      <trkpt lat="47.29159" lon="6.00365">
        <ele>388.99</ele>
        <time>2018-07-14T08:23:07Z</time>
      </trkpt>
      <trkpt lat="47.2916" lon="6.00366">
        <ele>388.99</ele>
        <time>2018-07-14T08:23:08Z</time>
      </trkpt>
      <trkpt lat="47.29161" lon="6.00368">
        <ele>389.47</ele>
        <time>2018-07-14T08:23:09Z</time>
      </trkpt>
      <trkpt lat="47.29163" lon="6.00369">
        <ele>389.95</ele>
        <time>2018-07-14T08:23:10Z</time>
      </trkpt>
      <trkpt lat="47.29165" lon="6.0037">
        <ele>389.95</ele>
        <time>2018-07-14T08:23:11Z</time>
      </trkpt>
      <trkpt lat="47.29166" lon="6.00372">
        <ele>389.95</ele>
        <time>2018-07-14T08:23:12Z</time>
      </trkpt>
      <trkpt lat="47.29168" lon="6.00373">
        <ele>389.95</ele>
        <time>2018-07-14T08:23:13Z</time>
      </trkpt>
      <trkpt lat="47.2917" lon="6.00375">
        <ele>390.43</ele>
        <time>2018-07-14T08:23:14Z</time>
      </trkpt>
      <trkpt lat="47.29172" lon="6.00376">
        <ele>390.43</ele>
        <time>2018-07-14T08:23:15Z</time>
      </trkpt>
      <trkpt lat="47.29174" lon="6.00377">
        <ele>390.91</ele>
        <time>2018-07-14T08:23:16Z</time>
      </trkpt>
      <trkpt lat="47.29175" lon="6.00379">
        <ele>391.39</ele>
        <time>2018-07-14T08:23:17Z</time>
      </trkpt>
      <trkpt lat="47.29177" lon="6.0038">
        <ele>391.39</ele>
        <time>2018-07-14T08:23:18Z</time>
      </trkpt>
      <trkpt lat="47.29179" lon="6.00381">
        <ele>391.39</ele>
        <time>2018-07-14T08:23:19Z</time>
      </trkpt>
      <trkpt lat="47.29181" lon="6.00382">
        <ele>391.87</ele>
        <time>2018-07-14T08:23:20Z</time>
      </trkpt>
      <trkpt lat="47.29183" lon="6.00382">
        <ele>392.36</ele>
        <time>2018-07-14T08:23:21Z</time>
      </trkpt>
      <trkpt lat="47.29184" lon="6.00383">
        <ele>392.84</ele>
        <time>2018-07-14T08:23:22Z</time>
      </trkpt>
      <trkpt lat="47.29186" lon="6.00385">
        <ele>392.84</ele>
        <time>2018-07-14T08:23:23Z</time>
      </trkpt>
      <trkpt lat="47.29187" lon="6.00386">
        <ele>393.32</ele>
        <time>2018-07-14T08:23:24Z</time>
      </trkpt>
      <trkpt lat="47.2919" lon="6.00389">
        <ele>393.32</ele>
        <time>2018-07-14T08:23:26Z</time>
      </trkpt>
      <trkpt lat="47.29192" lon="6.00391">
        <ele>393.32</ele>
        <time>2018-07-14T08:23:27Z</time>
      </trkpt>
      <trkpt lat="47.2921" lon="6.00405">
        <ele>395.72</ele>
        <time>2018-07-14T08:23:38Z</time>
      </trkpt>
      <trkpt lat="47.29212" lon="6.00407">
        <ele>395.72</ele>
        <time>2018-07-14T08:23:39Z</time>
      </trkpt>
      <trkpt lat="47.29214" lon="6.00408">
        <ele>395.72</ele>
        <time>2018-07-14T08:23:40Z</time>
      </trkpt>
      <trkpt lat="47.29216" lon="6.0041">
        <ele>396.2</ele>
        <time>2018-07-14T08:23:41Z</time>
      </trkpt>
      <trkpt lat="47.29232" lon="6.00434">
        <ele>398.12</ele>
        <time>2018-07-14T08:23:50Z</time>
      </trkpt>
      <trkpt lat="47.29232" lon="6.00435">
        <ele>398.6</ele>
        <time>2018-07-14T08:23:51Z</time>
      </trkpt>
      <trkpt lat="47.29234" lon="6.00438">
        <ele>398.6</ele>
        <time>2018-07-14T08:23:52Z</time>
      </trkpt>
      <trkpt lat="47.29235" lon="6.0044">
        <ele>399.08</ele>
        <time>2018-07-14T08:23:53Z</time>
      </trkpt>
      <trkpt lat="47.29237" lon="6.00441">
        <ele>399.08</ele>
        <time>2018-07-14T08:23:54Z</time>
      </trkpt>
      <trkpt lat="47.29239" lon="6.00443">
        <ele>399.08</ele>
        <time>2018-07-14T08:23:55Z</time>
      </trkpt>
      <trkpt lat="47.2924" lon="6.00445">
        <ele>399.57</ele>
        <time>2018-07-14T08:23:56Z</time>
      </trkpt>
      <trkpt lat="47.29241" lon="6.0045">
        <ele>399.57</ele>
        <time>2018-07-14T08:23:58Z</time>
      </trkpt>
      <trkpt lat="47.29257" lon="6.00467">
        <ele>400.53</ele>
        <time>2018-07-14T08:24:05Z</time>
      </trkpt>
      <trkpt lat="47.29268" lon="6.0048">
        <ele>401.49</ele>
        <time>2018-07-14T08:24:10Z</time>
      </trkpt>
      <trkpt lat="47.29272" lon="6.00486">
        <ele>401.97</ele>
        <time>2018-07-14T08:24:12Z</time>
      </trkpt>
      <trkpt lat="47.29279" lon="6.005">
        <ele>402.45</ele>
        <time>2018-07-14T08:24:17Z</time>
      </trkpt>
      <trkpt lat="47.29292" lon="6.00521">
        <ele>403.41</ele>
        <time>2018-07-14T08:24:24Z</time>
      </trkpt>
      <trkpt lat="47.29302" lon="6.00541">
        <ele>404.37</ele>
        <time>2018-07-14T08:24:30Z</time>
      </trkpt>
      <trkpt lat="47.29324" lon="6.00587">
        <ele>405.33</ele>
        <time>2018-07-14T08:24:43Z</time>
      </trkpt>
      <trkpt lat="47.29325" lon="6.00594">
        <ele>405.33</ele>
        <time>2018-07-14T08:24:45Z</time>
      </trkpt>
      <trkpt lat="47.29337" lon="6.00622">
        <ele>405.81</ele>
        <time>2018-07-14T08:24:52Z</time>
      </trkpt>
      <trkpt lat="47.29358" lon="6.00677">
        <ele>405.81</ele>
        <time>2018-07-14T08:25:04Z</time>
      </trkpt>
      <trkpt lat="47.29363" lon="6.00695">
        <ele>405.33</ele>
        <time>2018-07-14T08:25:09Z</time>
      </trkpt>
      <trkpt lat="47.29386" lon="6.00745">
        <ele>403.89</ele>
        <time>2018-07-14T08:25:19Z</time>
      </trkpt>
      <trkpt lat="47.29407" lon="6.00772">
        <ele>402.93</ele>
        <time>2018-07-14T08:25:25Z</time>
      </trkpt>
      <trkpt lat="47.29426" lon="6.00813">
        <ele>401.49</ele>
        <time>2018-07-14T08:25:31Z</time>
      </trkpt>
      <trkpt lat="47.29428" lon="6.00821">
        <ele>401.01</ele>
        <time>2018-07-14T08:25:32Z</time>
      </trkpt>
      <trkpt lat="47.2944" lon="6.00853">
        <ele>399.08</ele>
        <time>2018-07-14T08:25:37Z</time>
      </trkpt>
      <trkpt lat="47.29443" lon="6.00863">
        <ele>398.6</ele>
        <time>2018-07-14T08:25:38Z</time>
      </trkpt>
      <trkpt lat="47.29446" lon="6.00874">
        <ele>397.64</ele>
        <time>2018-07-14T08:25:39Z</time>
      </trkpt>
      <trkpt lat="47.2945" lon="6.00884">
        <ele>397.64</ele>
        <time>2018-07-14T08:25:40Z</time>
      </trkpt>
      <trkpt lat="47.29453" lon="6.00896">
        <ele>397.16</ele>
        <time>2018-07-14T08:25:41Z</time>
      </trkpt>
      <trkpt lat="47.29457" lon="6.00906">
        <ele>396.68</ele>
        <time>2018-07-14T08:25:42Z</time>
      </trkpt>
      <trkpt lat="47.29475" lon="6.00948">
        <ele>394.76</ele>
        <time>2018-07-14T08:25:46Z</time>
      </trkpt>
      <trkpt lat="47.29492" lon="6.00986">
        <ele>392.36</ele>
        <time>2018-07-14T08:25:50Z</time>
      </trkpt>
      <trkpt lat="47.29495" lon="6.00992">
        <ele>391.87</ele>
        <time>2018-07-14T08:25:51Z</time>
      </trkpt>
      <trkpt lat="47.29506" lon="6.01015">
        <ele>388.51</ele>
        <time>2018-07-14T08:25:56Z</time>
      </trkpt>
      <trkpt lat="47.2951" lon="6.01027">
        <ele>387.07</ele>
        <time>2018-07-14T08:25:58Z</time>
      </trkpt>
      <trkpt lat="47.29513" lon="6.01033">
        <ele>386.59</ele>
        <time>2018-07-14T08:25:59Z</time>
      </trkpt>
      <trkpt lat="47.29518" lon="6.01047">
        <ele>385.15</ele>
        <time>2018-07-14T08:26:01Z</time>
      </trkpt>
      <trkpt lat="47.29521" lon="6.01054">
        <ele>384.66</ele>
        <time>2018-07-14T08:26:02Z</time>
      </trkpt>
      <trkpt lat="47.29523" lon="6.01061">
        <ele>384.18</ele>
        <time>2018-07-14T08:26:03Z</time>
      </trkpt>
      <trkpt lat="47.29524" lon="6.01068">
        <ele>383.7</ele>
        <time>2018-07-14T08:26:04Z</time>
      </trkpt>
      <trkpt lat="47.29525" lon="6.01073">
        <ele>383.22</ele>
        <time>2018-07-14T08:26:05Z</time>
      </trkpt>
      <trkpt lat="47.29524" lon="6.01078">
        <ele>382.74</ele>
        <time>2018-07-14T08:26:06Z</time>
      </trkpt>
      <trkpt lat="47.29524" lon="6.01082">
        <ele>381.78</ele>
        <time>2018-07-14T08:26:07Z</time>
      </trkpt>
      <trkpt lat="47.29524" lon="6.01091">
        <ele>380.82</ele>
        <time>2018-07-14T08:26:10Z</time>
      </trkpt>
      <trkpt lat="47.29524" lon="6.01095">
        <ele>380.34</ele>
        <time>2018-07-14T08:26:12Z</time>
      </trkpt>
      <trkpt lat="47.29524" lon="6.01098">
        <ele>380.34</ele>
        <time>2018-07-14T08:26:13Z</time>
      </trkpt>
      <trkpt lat="47.29524" lon="6.01104">
        <ele>378.42</ele>
        <time>2018-07-14T08:26:15Z</time>
      </trkpt>
      <trkpt lat="47.29525" lon="6.01107">
        <ele>378.9</ele>
        <time>2018-07-14T08:26:16Z</time>
      </trkpt>
      <trkpt lat="47.2953" lon="6.01113">
        <ele>380.34</ele>
        <time>2018-07-14T08:26:19Z</time>
      </trkpt>
      <trkpt lat="47.29531" lon="6.01116">
        <ele>380.82</ele>
        <time>2018-07-14T08:26:20Z</time>
      </trkpt>
      <trkpt lat="47.29532" lon="6.01117">
        <ele>381.3</ele>
        <time>2018-07-14T08:26:21Z</time>
      </trkpt>
      <trkpt lat="47.29538" lon="6.01127">
        <ele>381.3</ele>
        <time>2018-07-14T08:26:32Z</time>
      </trkpt>
      <trkpt lat="47.29538" lon="6.01135">
        <ele>381.78</ele>
        <time>2018-07-14T08:26:37Z</time>
      </trkpt>
      <trkpt lat="47.29545" lon="6.01143">
        <ele>383.22</ele>
        <time>2018-07-14T08:26:43Z</time>
      </trkpt>
      <trkpt lat="47.29556" lon="6.01154">
        <ele>385.15</ele>
        <time>2018-07-14T08:26:54Z</time>
      </trkpt>
      <trkpt lat="47.29564" lon="6.01162">
        <ele>386.11</ele>
        <time>2018-07-14T08:27:01Z</time>
      </trkpt>
      <trkpt lat="47.29566" lon="6.01163">
        <ele>386.11</ele>
        <time>2018-07-14T08:27:02Z</time>
      </trkpt>
      <trkpt lat="47.29567" lon="6.01164">
        <ele>386.59</ele>
        <time>2018-07-14T08:27:03Z</time>
      </trkpt>
      <trkpt lat="47.2957" lon="6.01165">
        <ele>386.59</ele>
        <time>2018-07-14T08:27:05Z</time>
      </trkpt>
      <trkpt lat="47.29571" lon="6.01167">
        <ele>387.07</ele>
        <time>2018-07-14T08:27:06Z</time>
      </trkpt>
      <trkpt lat="47.29573" lon="6.01168">
        <ele>387.07</ele>
        <time>2018-07-14T08:27:07Z</time>
      </trkpt>
      <trkpt lat="47.29574" lon="6.0117">
        <ele>387.55</ele>
        <time>2018-07-14T08:27:08Z</time>
      </trkpt>
      <trkpt lat="47.29591" lon="6.01195">
        <ele>388.99</ele>
        <time>2018-07-14T08:27:20Z</time>
      </trkpt>
      <trkpt lat="47.29592" lon="6.01199">
        <ele>388.99</ele>
        <time>2018-07-14T08:27:21Z</time>
      </trkpt>
      <trkpt lat="47.29593" lon="6.01202">
        <ele>389.47</ele>
        <time>2018-07-14T08:27:22Z</time>
      </trkpt>
      <trkpt lat="47.29594" lon="6.01204">
        <ele>389.47</ele>
        <time>2018-07-14T08:27:23Z</time>
      </trkpt>
      <trkpt lat="47.29595" lon="6.01206">
        <ele>389.47</ele>
        <time>2018-07-14T08:27:24Z</time>
      </trkpt>
      <trkpt lat="47.29597" lon="6.01207">
        <ele>389.95</ele>
        <time>2018-07-14T08:27:25Z</time>
      </trkpt>
      <trkpt lat="47.29598" lon="6.01209">
        <ele>389.95</ele>
        <time>2018-07-14T08:27:26Z</time>
      </trkpt>
      <trkpt lat="47.296" lon="6.01211">
        <ele>389.95</ele>
        <time>2018-07-14T08:27:27Z</time>
      </trkpt>
      <trkpt lat="47.29601" lon="6.01213">
        <ele>389.95</ele>
        <time>2018-07-14T08:27:28Z</time>
      </trkpt>
      <trkpt lat="47.29603" lon="6.01215">
        <ele>390.43</ele>
        <time>2018-07-14T08:27:29Z</time>
      </trkpt>
      <trkpt lat="47.29604" lon="6.01217">
        <ele>390.43</ele>
        <time>2018-07-14T08:27:30Z</time>
      </trkpt>
      <trkpt lat="47.29606" lon="6.01219">
        <ele>390.43</ele>
        <time>2018-07-14T08:27:31Z</time>
      </trkpt>
      <trkpt lat="47.29607" lon="6.01221">
        <ele>390.43</ele>
        <time>2018-07-14T08:27:32Z</time>
      </trkpt>
      <trkpt lat="47.29609" lon="6.01223">
        <ele>390.91</ele>
        <time>2018-07-14T08:27:33Z</time>
      </trkpt>
      <trkpt lat="47.29614" lon="6.01229">
        <ele>391.39</ele>
        <time>2018-07-14T08:27:36Z</time>
      </trkpt>
      <trkpt lat="47.29633" lon="6.01249">
        <ele>393.32</ele>
        <time>2018-07-14T08:27:46Z</time>
      </trkpt>
      <trkpt lat="47.29637" lon="6.01253">
        <ele>393.32</ele>
        <time>2018-07-14T08:27:48Z</time>
      </trkpt>
      <trkpt lat="47.29639" lon="6.01256">
        <ele>393.32</ele>
        <time>2018-07-14T08:27:49Z</time>
      </trkpt>
      <trkpt lat="47.29657" lon="6.01279">
        <ele>394.28</ele>
        <time>2018-07-14T08:27:58Z</time>
      </trkpt>
      <trkpt lat="47.2966" lon="6.01286">
        <ele>394.28</ele>
        <time>2018-07-14T08:28:00Z</time>
      </trkpt>
      <trkpt lat="47.2968" lon="6.01307">
        <ele>395.72</ele>
        <time>2018-07-14T08:28:08Z</time>
      </trkpt>
      <trkpt lat="47.29703" lon="6.01336">
        <ele>396.68</ele>
        <time>2018-07-14T08:28:17Z</time>
      </trkpt>
      <trkpt lat="47.29711" lon="6.01348">
        <ele>397.64</ele>
        <time>2018-07-14T08:28:21Z</time>
      </trkpt>
      <trkpt lat="47.29715" lon="6.01357">
        <ele>398.12</ele>
        <time>2018-07-14T08:28:24Z</time>
      </trkpt>
      <trkpt lat="47.29716" lon="6.0136">
        <ele>398.12</ele>
        <time>2018-07-14T08:28:25Z</time>
      </trkpt>
      <trkpt lat="47.29718" lon="6.01363">
        <ele>398.6</ele>
        <time>2018-07-14T08:28:26Z</time>
      </trkpt>
      <trkpt lat="47.2972" lon="6.01366">
        <ele>398.6</ele>
        <time>2018-07-14T08:28:27Z</time>
      </trkpt>
      <trkpt lat="47.29722" lon="6.01368">
        <ele>398.6</ele>
        <time>2018-07-14T08:28:28Z</time>
      </trkpt>
      <trkpt lat="47.29722" lon="6.01371">
        <ele>399.08</ele>
        <time>2018-07-14T08:28:29Z</time>
      </trkpt>
      <trkpt lat="47.29723" lon="6.01374">
        <ele>399.08</ele>
        <time>2018-07-14T08:28:30Z</time>
      </trkpt>
      <trkpt lat="47.29724" lon="6.01376">
        <ele>399.57</ele>
        <time>2018-07-14T08:28:31Z</time>
      </trkpt>
      <trkpt lat="47.29724" lon="6.01379">
        <ele>399.57</ele>
        <time>2018-07-14T08:28:32Z</time>
      </trkpt>
      <trkpt lat="47.29725" lon="6.01381">
        <ele>399.57</ele>
        <time>2018-07-14T08:28:33Z</time>
      </trkpt>
      <trkpt lat="47.29729" lon="6.01385">
        <ele>399.57</ele>
        <time>2018-07-14T08:28:34Z</time>
      </trkpt>
      <trkpt lat="47.29732" lon="6.01389">
        <ele>400.05</ele>
        <time>2018-07-14T08:28:35Z</time>
      </trkpt>
      <trkpt lat="47.29736" lon="6.01392">
        <ele>400.05</ele>
        <time>2018-07-14T08:28:36Z</time>
      </trkpt>
      <trkpt lat="47.29739" lon="6.01396">
        <ele>400.53</ele>
        <time>2018-07-14T08:28:37Z</time>
      </trkpt>
      <trkpt lat="47.29742" lon="6.014">
        <ele>400.53</ele>
        <time>2018-07-14T08:28:38Z</time>
      </trkpt>
      <trkpt lat="47.29745" lon="6.01403">
        <ele>400.53</ele>
        <time>2018-07-14T08:28:39Z</time>
      </trkpt>
      <trkpt lat="47.29763" lon="6.01431">
        <ele>402.45</ele>
        <time>2018-07-14T08:28:48Z</time>
      </trkpt>
      <trkpt lat="47.29765" lon="6.01434">
        <ele>402.93</ele>
        <time>2018-07-14T08:28:49Z</time>
      </trkpt>
      <trkpt lat="47.29767" lon="6.01437">
        <ele>402.93</ele>
        <time>2018-07-14T08:28:50Z</time>
      </trkpt>
      <trkpt lat="47.29768" lon="6.0144">
        <ele>402.93</ele>
        <time>2018-07-14T08:28:51Z</time>
      </trkpt>
      <trkpt lat="47.29769" lon="6.01443">
        <ele>403.41</ele>
        <time>2018-07-14T08:28:52Z</time>
      </trkpt>
      <trkpt lat="47.2977" lon="6.01445">
        <ele>403.89</ele>
        <time>2018-07-14T08:28:53Z</time>
      </trkpt>
      <trkpt lat="47.29772" lon="6.01449">
        <ele>403.89</ele>
        <time>2018-07-14T08:28:55Z</time>
      </trkpt>
      <trkpt lat="47.29773" lon="6.01452">
        <ele>404.85</ele>
        <time>2018-07-14T08:28:56Z</time>
      </trkpt>
      <trkpt lat="47.29776" lon="6.01457">
        <ele>404.85</ele>
        <time>2018-07-14T08:28:58Z</time>
      </trkpt>
      <trkpt lat="47.29779" lon="6.01459">
        <ele>404.85</ele>
        <time>2018-07-14T08:28:59Z</time>
      </trkpt>
      <trkpt lat="47.29794" lon="6.01483">
        <ele>406.77</ele>
        <time>2018-07-14T08:29:08Z</time>
      </trkpt>
      <trkpt lat="47.29795" lon="6.01486">
        <ele>406.77</ele>
        <time>2018-07-14T08:29:09Z</time>
      </trkpt>
      <trkpt lat="47.29804" lon="6.01503">
        <ele>408.22</ele>
        <time>2018-07-14T08:29:15Z</time>
      </trkpt>
      <trkpt lat="47.29805" lon="6.01507">
        <ele>408.22</ele>
        <time>2018-07-14T08:29:16Z</time>
      </trkpt>
      <trkpt lat="47.29807" lon="6.0151">
        <ele>408.7</ele>
        <time>2018-07-14T08:29:17Z</time>
      </trkpt>
      <trkpt lat="47.29809" lon="6.01512">
        <ele>408.7</ele>
        <time>2018-07-14T08:29:18Z</time>
      </trkpt>
      <trkpt lat="47.2981" lon="6.01515">
        <ele>408.7</ele>
        <time>2018-07-14T08:29:19Z</time>
      </trkpt>
      <trkpt lat="47.29811" lon="6.01518">
        <ele>409.18</ele>
        <time>2018-07-14T08:29:20Z</time>
      </trkpt>
      <trkpt lat="47.29812" lon="6.0152">
        <ele>409.18</ele>
        <time>2018-07-14T08:29:21Z</time>
      </trkpt>
      <trkpt lat="47.29813" lon="6.01523">
        <ele>409.18</ele>
        <time>2018-07-14T08:29:22Z</time>
      </trkpt>
      <trkpt lat="47.29814" lon="6.01526">
        <ele>409.66</ele>
        <time>2018-07-14T08:29:23Z</time>
      </trkpt>
      <trkpt lat="47.29815" lon="6.01529">
        <ele>409.66</ele>
        <time>2018-07-14T08:29:24Z</time>
      </trkpt>
      <trkpt lat="47.29816" lon="6.01531">
        <ele>409.66</ele>
        <time>2018-07-14T08:29:25Z</time>
      </trkpt>
      <trkpt lat="47.29817" lon="6.01534">
        <ele>409.66</ele>
        <time>2018-07-14T08:29:26Z</time>
      </trkpt>
      <trkpt lat="47.29818" lon="6.01537">
        <ele>410.14</ele>
        <time>2018-07-14T08:29:27Z</time>
      </trkpt>
      <trkpt lat="47.29819" lon="6.0154">
        <ele>410.14</ele>
        <time>2018-07-14T08:29:28Z</time>
      </trkpt>
      <trkpt lat="47.29821" lon="6.01543">
        <ele>410.14</ele>
        <time>2018-07-14T08:29:29Z</time>
      </trkpt>
      <trkpt lat="47.29834" lon="6.01557">
        <ele>411.1</ele>
        <time>2018-07-14T08:29:36Z</time>
      </trkpt>
      <trkpt lat="47.29837" lon="6.01558">
        <ele>411.58</ele>
        <time>2018-07-14T08:29:37Z</time>
      </trkpt>
      <trkpt lat="47.29839" lon="6.0156">
        <ele>411.58</ele>
        <time>2018-07-14T08:29:38Z</time>
      </trkpt>
      <trkpt lat="47.29841" lon="6.01563">
        <ele>411.58</ele>
        <time>2018-07-14T08:29:39Z</time>
      </trkpt>
      <trkpt lat="47.29841" lon="6.01566">
        <ele>411.58</ele>
        <time>2018-07-14T08:29:40Z</time>
      </trkpt>
      <trkpt lat="47.29843" lon="6.01569">
        <ele>412.06</ele>
        <time>2018-07-14T08:29:41Z</time>
      </trkpt>
      <trkpt lat="47.29844" lon="6.01571">
        <ele>412.06</ele>
        <time>2018-07-14T08:29:42Z</time>
      </trkpt>
      <trkpt lat="47.2985" lon="6.01582">
        <ele>412.54</ele>
        <time>2018-07-14T08:29:45Z</time>
      </trkpt>
      <trkpt lat="47.29854" lon="6.01587">
        <ele>413.02</ele>
        <time>2018-07-14T08:29:47Z</time>
      </trkpt>
      <trkpt lat="47.29856" lon="6.01589">
        <ele>413.5</ele>
        <time>2018-07-14T08:29:48Z</time>
      </trkpt>
      <trkpt lat="47.29859" lon="6.01595">
        <ele>413.98</ele>
        <time>2018-07-14T08:29:50Z</time>
      </trkpt>
      <trkpt lat="47.29866" lon="6.01619">
        <ele>415.43</ele>
        <time>2018-07-14T08:29:57Z</time>
      </trkpt>
      <trkpt lat="47.29868" lon="6.01622">
        <ele>415.91</ele>
        <time>2018-07-14T08:29:58Z</time>
      </trkpt>
      <trkpt lat="47.2987" lon="6.01625">
        <ele>416.39</ele>
        <time>2018-07-14T08:29:59Z</time>
      </trkpt>
      <trkpt lat="47.29872" lon="6.01627">
        <ele>416.39</ele>
        <time>2018-07-14T08:30:00Z</time>
      </trkpt>
      <trkpt lat="47.29874" lon="6.0163">
        <ele>416.39</ele>
        <time>2018-07-14T08:30:01Z</time>
      </trkpt>
      <trkpt lat="47.29875" lon="6.01632">
        <ele>416.87</ele>
        <time>2018-07-14T08:30:02Z</time>
      </trkpt>
      <trkpt lat="47.29876" lon="6.01636">
        <ele>416.87</ele>
        <time>2018-07-14T08:30:04Z</time>
      </trkpt>
      <trkpt lat="47.29895" lon="6.01658">
        <ele>418.79</ele>
        <time>2018-07-14T08:30:14Z</time>
      </trkpt>
      <trkpt lat="47.29912" lon="6.01685">
        <ele>420.71</ele>
        <time>2018-07-14T08:30:23Z</time>
      </trkpt>
      <trkpt lat="47.29912" lon="6.01688">
        <ele>421.19</ele>
        <time>2018-07-14T08:30:24Z</time>
      </trkpt>
      <trkpt lat="47.29913" lon="6.0169">
        <ele>421.19</ele>
        <time>2018-07-14T08:30:25Z</time>
      </trkpt>
      <trkpt lat="47.29915" lon="6.01693">
        <ele>421.68</ele>
        <time>2018-07-14T08:30:26Z</time>
      </trkpt>
      <trkpt lat="47.29917" lon="6.01695">
        <ele>421.68</ele>
        <time>2018-07-14T08:30:27Z</time>
      </trkpt>
      <trkpt lat="47.29919" lon="6.01697">
        <ele>421.68</ele>
        <time>2018-07-14T08:30:28Z</time>
      </trkpt>
      <trkpt lat="47.29921" lon="6.01699">
        <ele>422.16</ele>
        <time>2018-07-14T08:30:29Z</time>
      </trkpt>
      <trkpt lat="47.29923" lon="6.01702">
        <ele>422.16</ele>
        <time>2018-07-14T08:30:30Z</time>
      </trkpt>
      <trkpt lat="47.29925" lon="6.01705">
        <ele>422.64</ele>
        <time>2018-07-14T08:30:31Z</time>
      </trkpt>
      <trkpt lat="47.29928" lon="6.01707">
        <ele>422.64</ele>
        <time>2018-07-14T08:30:32Z</time>
      </trkpt>
      <trkpt lat="47.29944" lon="6.0174">
        <ele>424.08</ele>
        <time>2018-07-14T08:30:42Z</time>
      </trkpt>
      <trkpt lat="47.29947" lon="6.0175">
        <ele>425.04</ele>
        <time>2018-07-14T08:30:45Z</time>
      </trkpt>
      <trkpt lat="47.29948" lon="6.01753">
        <ele>425.04</ele>
        <time>2018-07-14T08:30:46Z</time>
      </trkpt>
      <trkpt lat="47.29954" lon="6.01768">
        <ele>424.56</ele>
        <time>2018-07-14T08:30:51Z</time>
      </trkpt>
      <trkpt lat="47.29954" lon="6.01771">
        <ele>424.56</ele>
        <time>2018-07-14T08:30:52Z</time>
      </trkpt>
      <trkpt lat="47.29954" lon="6.01774">
        <ele>424.08</ele>
        <time>2018-07-14T08:30:53Z</time>
      </trkpt>
      <trkpt lat="47.29955" lon="6.01778">
        <ele>424.08</ele>
        <time>2018-07-14T08:30:54Z</time>
      </trkpt>
      <trkpt lat="47.29952" lon="6.01784">
        <ele>423.6</ele>
        <time>2018-07-14T08:30:55Z</time>
      </trkpt>
      <trkpt lat="47.29947" lon="6.01792">
        <ele>423.6</ele>
        <time>2018-07-14T08:30:56Z</time>
      </trkpt>
      <trkpt lat="47.29945" lon="6.01798">
        <ele>423.12</ele>
        <time>2018-07-14T08:30:57Z</time>
      </trkpt>
      <trkpt lat="47.29939" lon="6.01823">
        <ele>423.6</ele>
        <time>2018-07-14T08:31:01Z</time>
      </trkpt>
      <trkpt lat="47.29939" lon="6.01827">
        <ele>423.12</ele>
        <time>2018-07-14T08:31:02Z</time>
      </trkpt>
      <trkpt lat="47.29962" lon="6.01885">
        <ele>425.04</ele>
        <time>2018-07-14T08:31:11Z</time>
      </trkpt>
      <trkpt lat="47.29967" lon="6.01937">
        <ele>426.48</ele>
        <time>2018-07-14T08:31:20Z</time>
      </trkpt>
      <trkpt lat="47.29968" lon="6.01941">
        <ele>426.96</ele>
        <time>2018-07-14T08:31:21Z</time>
      </trkpt>
      <trkpt lat="47.29972" lon="6.01968">
        <ele>428.89</ele>
        <time>2018-07-14T08:31:28Z</time>
      </trkpt>
      <trkpt lat="47.29972" lon="6.01971">
        <ele>428.89</ele>
        <time>2018-07-14T08:31:29Z</time>
      </trkpt>
      <trkpt lat="47.29974" lon="6.01974">
        <ele>428.89</ele>
        <time>2018-07-14T08:31:30Z</time>
      </trkpt>
      <trkpt lat="47.29978" lon="6.01983">
        <ele>429.85</ele>
        <time>2018-07-14T08:31:33Z</time>
      </trkpt>
      <trkpt lat="47.29981" lon="6.02024">
        <ele>432.25</ele>
        <time>2018-07-14T08:31:43Z</time>
      </trkpt>
      <trkpt lat="47.29982" lon="6.02026">
        <ele>432.25</ele>
        <time>2018-07-14T08:31:44Z</time>
      </trkpt>
      <trkpt lat="47.29984" lon="6.02028">
        <ele>432.73</ele>
        <time>2018-07-14T08:31:45Z</time>
      </trkpt>
      <trkpt lat="47.29988" lon="6.02035">
        <ele>433.21</ele>
        <time>2018-07-14T08:31:48Z</time>
      </trkpt>
      <trkpt lat="47.29988" lon="6.02039">
        <ele>433.69</ele>
        <time>2018-07-14T08:31:49Z</time>
      </trkpt>
      <trkpt lat="47.29988" lon="6.02043">
        <ele>433.69</ele>
        <time>2018-07-14T08:31:50Z</time>
      </trkpt>
      <trkpt lat="47.29988" lon="6.02048">
        <ele>434.17</ele>
        <time>2018-07-14T08:31:51Z</time>
      </trkpt>
      <trkpt lat="47.29988" lon="6.02053">
        <ele>434.17</ele>
        <time>2018-07-14T08:31:52Z</time>
      </trkpt>
      <trkpt lat="47.29988" lon="6.02058">
        <ele>434.65</ele>
        <time>2018-07-14T08:31:53Z</time>
      </trkpt>
      <trkpt lat="47.29988" lon="6.02062">
        <ele>434.65</ele>
        <time>2018-07-14T08:31:54Z</time>
      </trkpt>
      <trkpt lat="47.29988" lon="6.02066">
        <ele>435.13</ele>
        <time>2018-07-14T08:31:55Z</time>
      </trkpt>
      <trkpt lat="47.29988" lon="6.0207">
        <ele>435.13</ele>
        <time>2018-07-14T08:31:56Z</time>
      </trkpt>
      <trkpt lat="47.29985" lon="6.02086">
        <ele>436.1</ele>
        <time>2018-07-14T08:32:00Z</time>
      </trkpt>
      <trkpt lat="47.29986" lon="6.02089">
        <ele>436.58</ele>
        <time>2018-07-14T08:32:01Z</time>
      </trkpt>
      <trkpt lat="47.29987" lon="6.02092">
        <ele>437.06</ele>
        <time>2018-07-14T08:32:02Z</time>
      </trkpt>
      <trkpt lat="47.29987" lon="6.02094">
        <ele>437.06</ele>
        <time>2018-07-14T08:32:03Z</time>
      </trkpt>
      <trkpt lat="47.29987" lon="6.02097">
        <ele>437.54</ele>
        <time>2018-07-14T08:32:04Z</time>
      </trkpt>
      <trkpt lat="47.29986" lon="6.02099">
        <ele>437.54</ele>
        <time>2018-07-14T08:32:05Z</time>
      </trkpt>
      <trkpt lat="47.29986" lon="6.02104">
        <ele>438.02</ele>
        <time>2018-07-14T08:32:07Z</time>
      </trkpt>
      <trkpt lat="47.29988" lon="6.02106">
        <ele>438.5</ele>
        <time>2018-07-14T08:32:08Z</time>
      </trkpt>
      <trkpt lat="47.29988" lon="6.02109">
        <ele>438.5</ele>
        <time>2018-07-14T08:32:09Z</time>
      </trkpt>
      <trkpt lat="47.2999" lon="6.02111">
        <ele>438.5</ele>
        <time>2018-07-14T08:32:10Z</time>
      </trkpt>
      <trkpt lat="47.2999" lon="6.02114">
        <ele>438.98</ele>
        <time>2018-07-14T08:32:11Z</time>
      </trkpt>
      <trkpt lat="47.29992" lon="6.02117">
        <ele>439.46</ele>
        <time>2018-07-14T08:32:12Z</time>
      </trkpt>
      <trkpt lat="47.29993" lon="6.0212">
        <ele>439.46</ele>
        <time>2018-07-14T08:32:13Z</time>
      </trkpt>
      <trkpt lat="47.29994" lon="6.02123">
        <ele>439.94</ele>
        <time>2018-07-14T08:32:14Z</time>
      </trkpt>
      <trkpt lat="47.29996" lon="6.02125">
        <ele>439.94</ele>
        <time>2018-07-14T08:32:15Z</time>
      </trkpt>
      <trkpt lat="47.29998" lon="6.02126">
        <ele>440.42</ele>
        <time>2018-07-14T08:32:16Z</time>
      </trkpt>
      <trkpt lat="47.30001" lon="6.02128">
        <ele>440.42</ele>
        <time>2018-07-14T08:32:17Z</time>
      </trkpt>
      <trkpt lat="47.30003" lon="6.0213">
        <ele>440.9</ele>
        <time>2018-07-14T08:32:18Z</time>
      </trkpt>
      <trkpt lat="47.30004" lon="6.02133">
        <ele>440.9</ele>
        <time>2018-07-14T08:32:19Z</time>
      </trkpt>
      <trkpt lat="47.30005" lon="6.02136">
        <ele>441.38</ele>
        <time>2018-07-14T08:32:20Z</time>
      </trkpt>
      <trkpt lat="47.30006" lon="6.02138">
        <ele>441.86</ele>
        <time>2018-07-14T08:32:21Z</time>
      </trkpt>
      <trkpt lat="47.30007" lon="6.0214">
        <ele>441.86</ele>
        <time>2018-07-14T08:32:22Z</time>
      </trkpt>
      <trkpt lat="47.30008" lon="6.02142">
        <ele>442.34</ele>
        <time>2018-07-14T08:32:23Z</time>
      </trkpt>
      <trkpt lat="47.30011" lon="6.02145">
        <ele>442.82</ele>
        <time>2018-07-14T08:32:25Z</time>
      </trkpt>
      <trkpt lat="47.30012" lon="6.02148">
        <ele>442.82</ele>
        <time>2018-07-14T08:32:26Z</time>
      </trkpt>
      <trkpt lat="47.3002" lon="6.0217">
        <ele>445.23</ele>
        <time>2018-07-14T08:32:35Z</time>
      </trkpt>
      <trkpt lat="47.30022" lon="6.02175">
        <ele>445.71</ele>
        <time>2018-07-14T08:32:37Z</time>
      </trkpt>
      <trkpt lat="47.30023" lon="6.02177">
        <ele>445.71</ele>
        <time>2018-07-14T08:32:38Z</time>
      </trkpt>
      <trkpt lat="47.30024" lon="6.02179">
        <ele>445.71</ele>
        <time>2018-07-14T08:32:39Z</time>
      </trkpt>
      <trkpt lat="47.3003" lon="6.02193">
        <ele>447.63</ele>
        <time>2018-07-14T08:32:47Z</time>
      </trkpt>
      <trkpt lat="47.30031" lon="6.02195">
        <ele>448.11</ele>
        <time>2018-07-14T08:32:48Z</time>
      </trkpt>
      <trkpt lat="47.30033" lon="6.02196">
        <ele>448.11</ele>
        <time>2018-07-14T08:32:49Z</time>
      </trkpt>
      <trkpt lat="47.30034" lon="6.02198">
        <ele>448.59</ele>
        <time>2018-07-14T08:32:50Z</time>
      </trkpt>
      <trkpt lat="47.30036" lon="6.022">
        <ele>449.07</ele>
        <time>2018-07-14T08:32:51Z</time>
      </trkpt>
      <trkpt lat="47.30038" lon="6.02202">
        <ele>449.07</ele>
        <time>2018-07-14T08:32:52Z</time>
      </trkpt>
      <trkpt lat="47.30039" lon="6.02203">
        <ele>449.55</ele>
        <time>2018-07-14T08:32:53Z</time>
      </trkpt>
      <trkpt lat="47.30039" lon="6.02205">
        <ele>449.55</ele>
        <time>2018-07-14T08:32:54Z</time>
      </trkpt>
      <trkpt lat="47.30047" lon="6.02219">
        <ele>451.96</ele>
        <time>2018-07-14T08:33:02Z</time>
      </trkpt>
      <trkpt lat="47.30049" lon="6.0222">
        <ele>451.96</ele>
        <time>2018-07-14T08:33:03Z</time>
      </trkpt>
      <trkpt lat="47.30058" lon="6.02241">
        <ele>454.36</ele>
        <time>2018-07-14T08:33:12Z</time>
      </trkpt>
      <trkpt lat="47.30061" lon="6.02246">
        <ele>454.84</ele>
        <time>2018-07-14T08:33:14Z</time>
      </trkpt>
      <trkpt lat="47.30062" lon="6.02249">
        <ele>455.32</ele>
        <time>2018-07-14T08:33:15Z</time>
      </trkpt>
      <trkpt lat="47.30062" lon="6.02251">
        <ele>455.32</ele>
        <time>2018-07-14T08:33:16Z</time>
      </trkpt>
      <trkpt lat="47.30062" lon="6.02254">
        <ele>455.8</ele>
        <time>2018-07-14T08:33:17Z</time>
      </trkpt>
      <trkpt lat="47.30062" lon="6.02256">
        <ele>455.8</ele>
        <time>2018-07-14T08:33:18Z</time>
      </trkpt>
      <trkpt lat="47.30063" lon="6.02259">
        <ele>456.28</ele>
        <time>2018-07-14T08:33:19Z</time>
      </trkpt>
      <trkpt lat="47.30063" lon="6.02262">
        <ele>456.28</ele>
        <time>2018-07-14T08:33:20Z</time>
      </trkpt>
      <trkpt lat="47.30064" lon="6.02265">
        <ele>456.76</ele>
        <time>2018-07-14T08:33:21Z</time>
      </trkpt>
      <trkpt lat="47.30065" lon="6.02267">
        <ele>456.76</ele>
        <time>2018-07-14T08:33:22Z</time>
      </trkpt>
      <trkpt lat="47.30065" lon="6.02269">
        <ele>457.24</ele>
        <time>2018-07-14T08:33:23Z</time>
      </trkpt>
      <trkpt lat="47.30067" lon="6.02273">
        <ele>457.24</ele>
        <time>2018-07-14T08:33:24Z</time>
      </trkpt>
      <trkpt lat="47.30068" lon="6.02276">
        <ele>457.24</ele>
        <time>2018-07-14T08:33:25Z</time>
      </trkpt>
      <trkpt lat="47.3007" lon="6.02277">
        <ele>457.72</ele>
        <time>2018-07-14T08:33:26Z</time>
      </trkpt>
      <trkpt lat="47.30072" lon="6.02278">
        <ele>457.72</ele>
        <time>2018-07-14T08:33:27Z</time>
      </trkpt>
      <trkpt lat="47.30074" lon="6.02279">
        <ele>457.72</ele>
        <time>2018-07-14T08:33:28Z</time>
      </trkpt>
      <trkpt lat="47.30075" lon="6.0228">
        <ele>458.21</ele>
        <time>2018-07-14T08:33:29Z</time>
      </trkpt>
      <trkpt lat="47.30075" lon="6.02283">
        <ele>458.21</ele>
        <time>2018-07-14T08:33:30Z</time>
      </trkpt>
      <trkpt lat="47.30081" lon="6.02308">
        <ele>460.13</ele>
        <time>2018-07-14T08:33:39Z</time>
      </trkpt>
      <trkpt lat="47.30082" lon="6.02311">
        <ele>460.61</ele>
        <time>2018-07-14T08:33:40Z</time>
      </trkpt>
      <trkpt lat="47.30083" lon="6.02313">
        <ele>460.61</ele>
        <time>2018-07-14T08:33:41Z</time>
      </trkpt>
      <trkpt lat="47.30084" lon="6.02316">
        <ele>460.61</ele>
        <time>2018-07-14T08:33:42Z</time>
      </trkpt>
      <trkpt lat="47.30085" lon="6.0232">
        <ele>461.57</ele>
        <time>2018-07-14T08:33:44Z</time>
      </trkpt>
      <trkpt lat="47.30087" lon="6.02325">
        <ele>461.57</ele>
        <time>2018-07-14T08:33:46Z</time>
      </trkpt>
      <trkpt lat="47.30088" lon="6.02327">
        <ele>461.57</ele>
        <time>2018-07-14T08:33:47Z</time>
      </trkpt>
      <trkpt lat="47.30089" lon="6.02329">
        <ele>462.05</ele>
        <time>2018-07-14T08:33:48Z</time>
      </trkpt>
      <trkpt lat="47.30089" lon="6.02333">
        <ele>462.05</ele>
        <time>2018-07-14T08:33:49Z</time>
      </trkpt>
      <trkpt lat="47.3009" lon="6.02336">
        <ele>462.05</ele>
        <time>2018-07-14T08:33:50Z</time>
      </trkpt>
      <trkpt lat="47.30091" lon="6.02338">
        <ele>462.53</ele>
        <time>2018-07-14T08:33:51Z</time>
      </trkpt>
      <trkpt lat="47.30093" lon="6.02343">
        <ele>463.01</ele>
        <time>2018-07-14T08:33:53Z</time>
      </trkpt>
      <trkpt lat="47.30094" lon="6.02346">
        <ele>463.01</ele>
        <time>2018-07-14T08:33:54Z</time>
      </trkpt>
      <trkpt lat="47.30112" lon="6.02379">
        <ele>464.93</ele>
        <time>2018-07-14T08:34:05Z</time>
      </trkpt>
      <trkpt lat="47.30113" lon="6.02382">
        <ele>465.42</ele>
        <time>2018-07-14T08:34:06Z</time>
      </trkpt>
      <trkpt lat="47.30114" lon="6.02385">
        <ele>465.42</ele>
        <time>2018-07-14T08:34:07Z</time>
      </trkpt>
      <trkpt lat="47.30116" lon="6.02387">
        <ele>465.42</ele>
        <time>2018-07-14T08:34:08Z</time>
      </trkpt>
      <trkpt lat="47.30118" lon="6.0239">
        <ele>465.9</ele>
        <time>2018-07-14T08:34:09Z</time>
      </trkpt>
      <trkpt lat="47.3012" lon="6.02394">
        <ele>465.9</ele>
        <time>2018-07-14T08:34:10Z</time>
      </trkpt>
      <trkpt lat="47.30121" lon="6.02397">
        <ele>466.38</ele>
        <time>2018-07-14T08:34:11Z</time>
      </trkpt>
      <trkpt lat="47.30122" lon="6.024">
        <ele>466.38</ele>
        <time>2018-07-14T08:34:12Z</time>
      </trkpt>
      <trkpt lat="47.30124" lon="6.02403">
        <ele>466.38</ele>
        <time>2018-07-14T08:34:13Z</time>
      </trkpt>
      <trkpt lat="47.30126" lon="6.02406">
        <ele>466.38</ele>
        <time>2018-07-14T08:34:14Z</time>
      </trkpt>
      <trkpt lat="47.30147" lon="6.0244">
        <ele>468.78</ele>
        <time>2018-07-14T08:34:25Z</time>
      </trkpt>
      <trkpt lat="47.30164" lon="6.02465">
        <ele>470.22</ele>
        <time>2018-07-14T08:34:34Z</time>
      </trkpt>
      <trkpt lat="47.30168" lon="6.02476">
        <ele>470.7</ele>
        <time>2018-07-14T08:34:37Z</time>
      </trkpt>
      <trkpt lat="47.30169" lon="6.02479">
        <ele>470.7</ele>
        <time>2018-07-14T08:34:38Z</time>
      </trkpt>
      <trkpt lat="47.3017" lon="6.02483">
        <ele>470.7</ele>
        <time>2018-07-14T08:34:39Z</time>
      </trkpt>
      <trkpt lat="47.30172" lon="6.02491">
        <ele>470.7</ele>
        <time>2018-07-14T08:34:41Z</time>
      </trkpt>
      <trkpt lat="47.30175" lon="6.02543">
        <ele>470.22</ele>
        <time>2018-07-14T08:34:51Z</time>
      </trkpt>
      <trkpt lat="47.30177" lon="6.02547">
        <ele>470.22</ele>
        <time>2018-07-14T08:34:52Z</time>
      </trkpt>
      <trkpt lat="47.30186" lon="6.02572">
        <ele>470.7</ele>
        <time>2018-07-14T08:34:57Z</time>
      </trkpt>
      <trkpt lat="47.30189" lon="6.02576">
        <ele>470.7</ele>
        <time>2018-07-14T08:34:58Z</time>
      </trkpt>
      <trkpt lat="47.30191" lon="6.0258">
        <ele>470.7</ele>
        <time>2018-07-14T08:34:59Z</time>
      </trkpt>
      <trkpt lat="47.30193" lon="6.02585">
        <ele>470.7</ele>
        <time>2018-07-14T08:35:00Z</time>
      </trkpt>
      <trkpt lat="47.30195" lon="6.02588">
        <ele>470.7</ele>
        <time>2018-07-14T08:35:01Z</time>
      </trkpt>
      <trkpt lat="47.30197" lon="6.02592">
        <ele>470.7</ele>
        <time>2018-07-14T08:35:02Z</time>
      </trkpt>
      <trkpt lat="47.302" lon="6.02594">
        <ele>470.7</ele>
        <time>2018-07-14T08:35:03Z</time>
      </trkpt>
      <trkpt lat="47.30203" lon="6.02598">
        <ele>471.18</ele>
        <time>2018-07-14T08:35:04Z</time>
      </trkpt>
      <trkpt lat="47.30206" lon="6.02602">
        <ele>471.18</ele>
        <time>2018-07-14T08:35:05Z</time>
      </trkpt>
      <trkpt lat="47.30208" lon="6.02606">
        <ele>471.66</ele>
        <time>2018-07-14T08:35:06Z</time>
      </trkpt>
      <trkpt lat="47.3021" lon="6.0261">
        <ele>471.66</ele>
        <time>2018-07-14T08:35:07Z</time>
      </trkpt>
      <trkpt lat="47.30213" lon="6.02614">
        <ele>471.66</ele>
        <time>2018-07-14T08:35:08Z</time>
      </trkpt>
      <trkpt lat="47.30216" lon="6.02617">
        <ele>471.66</ele>
        <time>2018-07-14T08:35:09Z</time>
      </trkpt>
      <trkpt lat="47.30238" lon="6.02645">
        <ele>473.11</ele>
        <time>2018-07-14T08:35:17Z</time>
      </trkpt>
      <trkpt lat="47.30262" lon="6.02682">
        <ele>474.55</ele>
        <time>2018-07-14T08:35:27Z</time>
      </trkpt>
      <trkpt lat="47.30266" lon="6.0269">
        <ele>474.55</ele>
        <time>2018-07-14T08:35:29Z</time>
      </trkpt>
      <trkpt lat="47.30278" lon="6.02708">
        <ele>475.03</ele>
        <time>2018-07-14T08:35:34Z</time>
      </trkpt>
      <trkpt lat="47.30281" lon="6.02712">
        <ele>475.03</ele>
        <time>2018-07-14T08:35:35Z</time>
      </trkpt>
      <trkpt lat="47.30284" lon="6.02716">
        <ele>475.03</ele>
        <time>2018-07-14T08:35:36Z</time>
      </trkpt>
      <trkpt lat="47.30287" lon="6.0272">
        <ele>475.03</ele>
        <time>2018-07-14T08:35:37Z</time>
      </trkpt>
      <trkpt lat="47.30289" lon="6.02724">
        <ele>475.03</ele>
        <time>2018-07-14T08:35:38Z</time>
      </trkpt>
      <trkpt lat="47.3029" lon="6.0273">
        <ele>475.51</ele>
        <time>2018-07-14T08:35:39Z</time>
      </trkpt>
      <trkpt lat="47.30291" lon="6.02734">
        <ele>475.51</ele>
        <time>2018-07-14T08:35:40Z</time>
      </trkpt>
      <trkpt lat="47.30293" lon="6.02739">
        <ele>475.03</ele>
        <time>2018-07-14T08:35:41Z</time>
      </trkpt>
      <trkpt lat="47.30297" lon="6.02754">
        <ele>475.03</ele>
        <time>2018-07-14T08:35:44Z</time>
      </trkpt>
      <trkpt lat="47.303" lon="6.02761">
        <ele>474.55</ele>
        <time>2018-07-14T08:35:45Z</time>
      </trkpt>
      <trkpt lat="47.30303" lon="6.02766">
        <ele>474.55</ele>
        <time>2018-07-14T08:35:46Z</time>
      </trkpt>
      <trkpt lat="47.30306" lon="6.02771">
        <ele>474.55</ele>
        <time>2018-07-14T08:35:47Z</time>
      </trkpt>
      <trkpt lat="47.30309" lon="6.02775">
        <ele>474.55</ele>
        <time>2018-07-14T08:35:48Z</time>
      </trkpt>
      <trkpt lat="47.30312" lon="6.02778">
        <ele>474.55</ele>
        <time>2018-07-14T08:35:49Z</time>
      </trkpt>
      <trkpt lat="47.30314" lon="6.02782">
        <ele>474.55</ele>
        <time>2018-07-14T08:35:50Z</time>
      </trkpt>
      <trkpt lat="47.30318" lon="6.02786">
        <ele>474.55</ele>
        <time>2018-07-14T08:35:51Z</time>
      </trkpt>
      <trkpt lat="47.3032" lon="6.02792">
        <ele>474.55</ele>
        <time>2018-07-14T08:35:52Z</time>
      </trkpt>
      <trkpt lat="47.30321" lon="6.02797">
        <ele>474.55</ele>
        <time>2018-07-14T08:35:53Z</time>
      </trkpt>
      <trkpt lat="47.30332" lon="6.02838">
        <ele>471.18</ele>
        <time>2018-07-14T08:36:01Z</time>
      </trkpt>
      <trkpt lat="47.30338" lon="6.02854">
        <ele>469.74</ele>
        <time>2018-07-14T08:36:04Z</time>
      </trkpt>
      <trkpt lat="47.30343" lon="6.02863">
        <ele>468.78</ele>
        <time>2018-07-14T08:36:05Z</time>
      </trkpt>
      <trkpt lat="47.30363" lon="6.02915">
        <ele>465.42</ele>
        <time>2018-07-14T08:36:10Z</time>
      </trkpt>
      <trkpt lat="47.30377" lon="6.02944">
        <ele>462.53</ele>
        <time>2018-07-14T08:36:13Z</time>
      </trkpt>
      <trkpt lat="47.30382" lon="6.02953">
        <ele>462.05</ele>
        <time>2018-07-14T08:36:14Z</time>
      </trkpt>
      <trkpt lat="47.30387" lon="6.02961">
        <ele>462.05</ele>
        <time>2018-07-14T08:36:15Z</time>
      </trkpt>
      <trkpt lat="47.30391" lon="6.02968">
        <ele>461.57</ele>
        <time>2018-07-14T08:36:16Z</time>
      </trkpt>
      <trkpt lat="47.30395" lon="6.02977">
        <ele>460.61</ele>
        <time>2018-07-14T08:36:17Z</time>
      </trkpt>
      <trkpt lat="47.30397" lon="6.02986">
        <ele>459.65</ele>
        <time>2018-07-14T08:36:18Z</time>
      </trkpt>
      <trkpt lat="47.30398" lon="6.02994">
        <ele>458.69</ele>
        <time>2018-07-14T08:36:19Z</time>
      </trkpt>
      <trkpt lat="47.304" lon="6.03">
        <ele>458.21</ele>
        <time>2018-07-14T08:36:20Z</time>
      </trkpt>
      <trkpt lat="47.30405" lon="6.03003">
        <ele>457.72</ele>
        <time>2018-07-14T08:36:21Z</time>
      </trkpt>
      <trkpt lat="47.30409" lon="6.03003">
        <ele>458.21</ele>
        <time>2018-07-14T08:36:22Z</time>
      </trkpt>
      <trkpt lat="47.30412" lon="6.03002">
        <ele>458.69</ele>
        <time>2018-07-14T08:36:23Z</time>
      </trkpt>
      <trkpt lat="47.30415" lon="6.03003">
        <ele>458.69</ele>
        <time>2018-07-14T08:36:24Z</time>
      </trkpt>
      <trkpt lat="47.30419" lon="6.03004">
        <ele>458.69</ele>
        <time>2018-07-14T08:36:25Z</time>
      </trkpt>
      <trkpt lat="47.30422" lon="6.03006">
        <ele>459.17</ele>
        <time>2018-07-14T08:36:26Z</time>
      </trkpt>
      <trkpt lat="47.30424" lon="6.03009">
        <ele>459.17</ele>
        <time>2018-07-14T08:36:27Z</time>
      </trkpt>
      <trkpt lat="47.30427" lon="6.03013">
        <ele>459.17</ele>
        <time>2018-07-14T08:36:28Z</time>
      </trkpt>
      <trkpt lat="47.30452" lon="6.03058">
        <ele>460.13</ele>
        <time>2018-07-14T08:36:41Z</time>
      </trkpt>
      <trkpt lat="47.30454" lon="6.0306">
        <ele>460.13</ele>
        <time>2018-07-14T08:36:42Z</time>
      </trkpt>
      <trkpt lat="47.30456" lon="6.03063">
        <ele>460.61</ele>
        <time>2018-07-14T08:36:43Z</time>
      </trkpt>
      <trkpt lat="47.3047" lon="6.03081">
        <ele>461.57</ele>
        <time>2018-07-14T08:36:54Z</time>
      </trkpt>
      <trkpt lat="47.30473" lon="6.03083">
        <ele>462.05</ele>
        <time>2018-07-14T08:37:05Z</time>
      </trkpt>
      <trkpt lat="47.30474" lon="6.03083">
        <ele>462.53</ele>
        <time>2018-07-14T08:37:23Z</time>
      </trkpt>
      <trkpt lat="47.30476" lon="6.03081">
        <ele>464.45</ele>
        <time>2018-07-14T08:37:32Z</time>
      </trkpt>
      <trkpt lat="47.30476" lon="6.03076">
        <ele>465.42</ele>
        <time>2018-07-14T08:37:44Z</time>
      </trkpt>
      <trkpt lat="47.30479" lon="6.03077">
        <ele>466.38</ele>
        <time>2018-07-14T08:37:57Z</time>
      </trkpt>
      <trkpt lat="47.3048" lon="6.03078">
        <ele>466.38</ele>
        <time>2018-07-14T08:38:03Z</time>
      </trkpt>
      <trkpt lat="47.30481" lon="6.03079">
        <ele>466.38</ele>
        <time>2018-07-14T08:38:04Z</time>
      </trkpt>
      <trkpt lat="47.30482" lon="6.03081">
        <ele>466.38</ele>
        <time>2018-07-14T08:38:05Z</time>
      </trkpt>
      <trkpt lat="47.30486" lon="6.03089">
        <ele>466.38</ele>
        <time>2018-07-14T08:38:10Z</time>
      </trkpt>
      <trkpt lat="47.30487" lon="6.0309">
        <ele>466.38</ele>
        <time>2018-07-14T08:38:11Z</time>
      </trkpt>
      <trkpt lat="47.30498" lon="6.03107">
        <ele>466.86</ele>
        <time>2018-07-14T08:38:19Z</time>
      </trkpt>
      <trkpt lat="47.305" lon="6.03109">
        <ele>466.86</ele>
        <time>2018-07-14T08:38:20Z</time>
      </trkpt>
      <trkpt lat="47.30501" lon="6.0311">
        <ele>466.86</ele>
        <time>2018-07-14T08:38:21Z</time>
      </trkpt>
      <trkpt lat="47.30503" lon="6.03112">
        <ele>466.86</ele>
        <time>2018-07-14T08:38:22Z</time>
      </trkpt>
      <trkpt lat="47.30504" lon="6.03114">
        <ele>467.34</ele>
        <time>2018-07-14T08:38:23Z</time>
      </trkpt>
      <trkpt lat="47.30506" lon="6.03116">
        <ele>467.34</ele>
        <time>2018-07-14T08:38:24Z</time>
      </trkpt>
      <trkpt lat="47.30508" lon="6.03118">
        <ele>467.82</ele>
        <time>2018-07-14T08:38:25Z</time>
      </trkpt>
      <trkpt lat="47.30509" lon="6.0312">
        <ele>467.82</ele>
        <time>2018-07-14T08:38:26Z</time>
      </trkpt>
      <trkpt lat="47.30511" lon="6.03122">
        <ele>467.82</ele>
        <time>2018-07-14T08:38:27Z</time>
      </trkpt>
      <trkpt lat="47.30513" lon="6.03123">
        <ele>467.82</ele>
        <time>2018-07-14T08:38:28Z</time>
      </trkpt>
      <trkpt lat="47.3052" lon="6.03131">
        <ele>468.3</ele>
        <time>2018-07-14T08:38:33Z</time>
      </trkpt>
      <trkpt lat="47.30521" lon="6.03132">
        <ele>468.78</ele>
        <time>2018-07-14T08:38:34Z</time>
      </trkpt>
      <trkpt lat="47.30522" lon="6.03134">
        <ele>468.78</ele>
        <time>2018-07-14T08:38:35Z</time>
      </trkpt>
      <trkpt lat="47.30523" lon="6.03136">
        <ele>469.26</ele>
        <time>2018-07-14T08:38:36Z</time>
      </trkpt>
      <trkpt lat="47.30524" lon="6.03137">
        <ele>469.26</ele>
        <time>2018-07-14T08:38:37Z</time>
      </trkpt>
      <trkpt lat="47.30525" lon="6.03139">
        <ele>469.26</ele>
        <time>2018-07-14T08:38:38Z</time>
      </trkpt>
      <trkpt lat="47.30526" lon="6.03141">
        <ele>469.74</ele>
        <time>2018-07-14T08:38:39Z</time>
      </trkpt>
      <trkpt lat="47.30528" lon="6.03143">
        <ele>469.26</ele>
        <time>2018-07-14T08:38:40Z</time>
      </trkpt>
      <trkpt lat="47.30535" lon="6.03153">
        <ele>470.22</ele>
        <time>2018-07-14T08:38:44Z</time>
      </trkpt>
      <trkpt lat="47.30536" lon="6.03155">
        <ele>470.22</ele>
        <time>2018-07-14T08:38:45Z</time>
      </trkpt>
      <trkpt lat="47.30542" lon="6.03162">
        <ele>470.7</ele>
        <time>2018-07-14T08:38:49Z</time>
      </trkpt>
      <trkpt lat="47.30544" lon="6.03165">
        <ele>471.18</ele>
        <time>2018-07-14T08:38:50Z</time>
      </trkpt>
      <trkpt lat="47.30549" lon="6.03173">
        <ele>471.66</ele>
        <time>2018-07-14T08:38:54Z</time>
      </trkpt>
      <trkpt lat="47.30551" lon="6.03174">
        <ele>471.66</ele>
        <time>2018-07-14T08:38:55Z</time>
      </trkpt>
      <trkpt lat="47.30553" lon="6.03175">
        <ele>472.14</ele>
        <time>2018-07-14T08:38:56Z</time>
      </trkpt>
      <trkpt lat="47.30556" lon="6.03178">
        <ele>472.14</ele>
        <time>2018-07-14T08:38:58Z</time>
      </trkpt>
      <trkpt lat="47.30559" lon="6.03183">
        <ele>472.63</ele>
        <time>2018-07-14T08:39:01Z</time>
      </trkpt>
      <trkpt lat="47.3056" lon="6.03185">
        <ele>472.63</ele>
        <time>2018-07-14T08:39:02Z</time>
      </trkpt>
      <trkpt lat="47.30561" lon="6.03186">
        <ele>472.63</ele>
        <time>2018-07-14T08:39:03Z</time>
      </trkpt>
      <trkpt lat="47.30564" lon="6.03189">
        <ele>473.11</ele>
        <time>2018-07-14T08:39:06Z</time>
      </trkpt>
      <trkpt lat="47.30565" lon="6.03191">
        <ele>473.11</ele>
        <time>2018-07-14T08:39:07Z</time>
      </trkpt>
      <trkpt lat="47.30568" lon="6.03195">
        <ele>473.59</ele>
        <time>2018-07-14T08:39:10Z</time>
      </trkpt>
      <trkpt lat="47.3057" lon="6.03198">
        <ele>474.07</ele>
        <time>2018-07-14T08:39:11Z</time>
      </trkpt>
      <trkpt lat="47.30577" lon="6.03205">
        <ele>475.03</ele>
        <time>2018-07-14T08:39:15Z</time>
      </trkpt>
      <trkpt lat="47.30578" lon="6.03207">
        <ele>475.03</ele>
        <time>2018-07-14T08:39:16Z</time>
      </trkpt>
      <trkpt lat="47.3058" lon="6.03208">
        <ele>475.51</ele>
        <time>2018-07-14T08:39:17Z</time>
      </trkpt>
      <trkpt lat="47.30582" lon="6.03209">
        <ele>475.51</ele>
        <time>2018-07-14T08:39:18Z</time>
      </trkpt>
      <trkpt lat="47.30583" lon="6.0321">
        <ele>475.51</ele>
        <time>2018-07-14T08:39:19Z</time>
      </trkpt>
      <trkpt lat="47.30585" lon="6.03211">
        <ele>475.51</ele>
        <time>2018-07-14T08:39:20Z</time>
      </trkpt>
      <trkpt lat="47.30586" lon="6.03212">
        <ele>475.99</ele>
        <time>2018-07-14T08:39:21Z</time>
      </trkpt>
      <trkpt lat="47.30588" lon="6.03214">
        <ele>475.99</ele>
        <time>2018-07-14T08:39:22Z</time>
      </trkpt>
      <trkpt lat="47.30589" lon="6.03216">
        <ele>475.99</ele>
        <time>2018-07-14T08:39:23Z</time>
      </trkpt>
      <trkpt lat="47.30591" lon="6.03218">
        <ele>476.47</ele>
        <time>2018-07-14T08:39:24Z</time>
      </trkpt>
      <trkpt lat="47.30592" lon="6.0322">
        <ele>476.47</ele>
        <time>2018-07-14T08:39:25Z</time>
      </trkpt>
      <trkpt lat="47.30594" lon="6.03222">
        <ele>476.47</ele>
        <time>2018-07-14T08:39:26Z</time>
      </trkpt>
      <trkpt lat="47.30595" lon="6.03223">
        <ele>476.95</ele>
        <time>2018-07-14T08:39:27Z</time>
      </trkpt>
      <trkpt lat="47.30596" lon="6.03225">
        <ele>476.95</ele>
        <time>2018-07-14T08:39:28Z</time>
      </trkpt>
      <trkpt lat="47.30599" lon="6.03232">
        <ele>477.43</ele>
        <time>2018-07-14T08:39:31Z</time>
      </trkpt>
      <trkpt lat="47.30615" lon="6.03254">
        <ele>478.87</ele>
        <time>2018-07-14T08:39:42Z</time>
      </trkpt>
      <trkpt lat="47.30624" lon="6.03269">
        <ele>480.32</ele>
        <time>2018-07-14T08:39:49Z</time>
      </trkpt>
      <trkpt lat="47.30626" lon="6.03276">
        <ele>480.8</ele>
        <time>2018-07-14T08:39:52Z</time>
      </trkpt>
      <trkpt lat="47.30627" lon="6.03277">
        <ele>480.8</ele>
        <time>2018-07-14T08:39:53Z</time>
      </trkpt>
      <trkpt lat="47.30627" lon="6.0328">
        <ele>481.28</ele>
        <time>2018-07-14T08:39:54Z</time>
      </trkpt>
      <trkpt lat="47.30628" lon="6.03283">
        <ele>481.28</ele>
        <time>2018-07-14T08:39:55Z</time>
      </trkpt>
      <trkpt lat="47.30629" lon="6.03285">
        <ele>481.28</ele>
        <time>2018-07-14T08:39:56Z</time>
      </trkpt>
      <trkpt lat="47.3063" lon="6.03288">
        <ele>481.76</ele>
        <time>2018-07-14T08:39:57Z</time>
      </trkpt>
      <trkpt lat="47.30631" lon="6.0329">
        <ele>481.76</ele>
        <time>2018-07-14T08:39:58Z</time>
      </trkpt>
      <trkpt lat="47.30632" lon="6.03292">
        <ele>481.76</ele>
        <time>2018-07-14T08:39:59Z</time>
      </trkpt>
      <trkpt lat="47.30633" lon="6.03295">
        <ele>482.24</ele>
        <time>2018-07-14T08:40:00Z</time>
      </trkpt>
      <trkpt lat="47.30635" lon="6.03299">
        <ele>482.72</ele>
        <time>2018-07-14T08:40:03Z</time>
      </trkpt>
      <trkpt lat="47.30636" lon="6.03301">
        <ele>482.72</ele>
        <time>2018-07-14T08:40:04Z</time>
      </trkpt>
      <trkpt lat="47.30637" lon="6.03303">
        <ele>482.72</ele>
        <time>2018-07-14T08:40:05Z</time>
      </trkpt>
      <trkpt lat="47.3064" lon="6.03307">
        <ele>483.2</ele>
        <time>2018-07-14T08:40:08Z</time>
      </trkpt>
      <trkpt lat="47.30642" lon="6.03309">
        <ele>483.68</ele>
        <time>2018-07-14T08:40:09Z</time>
      </trkpt>
      <trkpt lat="47.30643" lon="6.03311">
        <ele>483.68</ele>
        <time>2018-07-14T08:40:10Z</time>
      </trkpt>
      <trkpt lat="47.30645" lon="6.03312">
        <ele>484.16</ele>
        <time>2018-07-14T08:40:11Z</time>
      </trkpt>
      <trkpt lat="47.30646" lon="6.03314">
        <ele>484.64</ele>
        <time>2018-07-14T08:40:12Z</time>
      </trkpt>
      <trkpt lat="47.30662" lon="6.03342">
        <ele>486.56</ele>
        <time>2018-07-14T08:40:25Z</time>
      </trkpt>
      <trkpt lat="47.30664" lon="6.03344">
        <ele>487.05</ele>
        <time>2018-07-14T08:40:26Z</time>
      </trkpt>
      <trkpt lat="47.30666" lon="6.03345">
        <ele>487.05</ele>
        <time>2018-07-14T08:40:27Z</time>
      </trkpt>
      <trkpt lat="47.30667" lon="6.03346">
        <ele>487.05</ele>
        <time>2018-07-14T08:40:28Z</time>
      </trkpt>
      <trkpt lat="47.30668" lon="6.03348">
        <ele>487.53</ele>
        <time>2018-07-14T08:40:29Z</time>
      </trkpt>
      <trkpt lat="47.30669" lon="6.03349">
        <ele>487.53</ele>
        <time>2018-07-14T08:40:30Z</time>
      </trkpt>
      <trkpt lat="47.30671" lon="6.03351">
        <ele>488.01</ele>
        <time>2018-07-14T08:40:31Z</time>
      </trkpt>
      <trkpt lat="47.30672" lon="6.03352">
        <ele>488.01</ele>
        <time>2018-07-14T08:40:32Z</time>
      </trkpt>
      <trkpt lat="47.30674" lon="6.03353">
        <ele>488.49</ele>
        <time>2018-07-14T08:40:33Z</time>
      </trkpt>
      <trkpt lat="47.30675" lon="6.03356">
        <ele>488.49</ele>
        <time>2018-07-14T08:40:35Z</time>
      </trkpt>
      <trkpt lat="47.30677" lon="6.03358">
        <ele>488.49</ele>
        <time>2018-07-14T08:40:36Z</time>
      </trkpt>
      <trkpt lat="47.30678" lon="6.0336">
        <ele>488.97</ele>
        <time>2018-07-14T08:40:37Z</time>
      </trkpt>
      <trkpt lat="47.30689" lon="6.03371">
        <ele>490.41</ele>
        <time>2018-07-14T08:40:45Z</time>
      </trkpt>
      <trkpt lat="47.3069" lon="6.03372">
        <ele>490.89</ele>
        <time>2018-07-14T08:40:46Z</time>
      </trkpt>
      <trkpt lat="47.30691" lon="6.03374">
        <ele>490.89</ele>
        <time>2018-07-14T08:40:47Z</time>
      </trkpt>
      <trkpt lat="47.30693" lon="6.03376">
        <ele>491.37</ele>
        <time>2018-07-14T08:40:48Z</time>
      </trkpt>
      <trkpt lat="47.30694" lon="6.03378">
        <ele>491.37</ele>
        <time>2018-07-14T08:40:49Z</time>
      </trkpt>
      <trkpt lat="47.30695" lon="6.03379">
        <ele>491.37</ele>
        <time>2018-07-14T08:40:50Z</time>
      </trkpt>
      <trkpt lat="47.30696" lon="6.03381">
        <ele>491.85</ele>
        <time>2018-07-14T08:40:51Z</time>
      </trkpt>
      <trkpt lat="47.30697" lon="6.03383">
        <ele>491.85</ele>
        <time>2018-07-14T08:40:52Z</time>
      </trkpt>
      <trkpt lat="47.30705" lon="6.03395">
        <ele>493.29</ele>
        <time>2018-07-14T08:41:00Z</time>
      </trkpt>
      <trkpt lat="47.30706" lon="6.03397">
        <ele>493.77</ele>
        <time>2018-07-14T08:41:01Z</time>
      </trkpt>
      <trkpt lat="47.30708" lon="6.03398">
        <ele>493.77</ele>
        <time>2018-07-14T08:41:02Z</time>
      </trkpt>
      <trkpt lat="47.30709" lon="6.034">
        <ele>494.26</ele>
        <time>2018-07-14T08:41:03Z</time>
      </trkpt>
      <trkpt lat="47.3071" lon="6.03401">
        <ele>494.26</ele>
        <time>2018-07-14T08:41:04Z</time>
      </trkpt>
      <trkpt lat="47.30722" lon="6.03414">
        <ele>496.18</ele>
        <time>2018-07-14T08:41:13Z</time>
      </trkpt>
      <trkpt lat="47.30724" lon="6.03415">
        <ele>496.18</ele>
        <time>2018-07-14T08:41:14Z</time>
      </trkpt>
      <trkpt lat="47.30725" lon="6.03417">
        <ele>496.66</ele>
        <time>2018-07-14T08:41:15Z</time>
      </trkpt>
      <trkpt lat="47.30727" lon="6.03418">
        <ele>496.66</ele>
        <time>2018-07-14T08:41:16Z</time>
      </trkpt>
      <trkpt lat="47.30729" lon="6.0342">
        <ele>497.14</ele>
        <time>2018-07-14T08:41:17Z</time>
      </trkpt>
      <trkpt lat="47.3073" lon="6.03421">
        <ele>497.14</ele>
        <time>2018-07-14T08:41:18Z</time>
      </trkpt>
      <trkpt lat="47.3074" lon="6.03432">
        <ele>498.58</ele>
        <time>2018-07-14T08:41:27Z</time>
      </trkpt>
      <trkpt lat="47.30746" lon="6.03438">
        <ele>499.54</ele>
        <time>2018-07-14T08:41:31Z</time>
      </trkpt>
      <trkpt lat="47.30746" lon="6.03439">
        <ele>500.02</ele>
        <time>2018-07-14T08:41:32Z</time>
      </trkpt>
      <trkpt lat="47.30747" lon="6.0344">
        <ele>500.02</ele>
        <time>2018-07-14T08:41:33Z</time>
      </trkpt>
      <trkpt lat="47.30748" lon="6.03442">
        <ele>500.5</ele>
        <time>2018-07-14T08:41:34Z</time>
      </trkpt>
      <trkpt lat="47.30749" lon="6.03444">
        <ele>500.5</ele>
        <time>2018-07-14T08:41:35Z</time>
      </trkpt>
      <trkpt lat="47.3075" lon="6.03445">
        <ele>500.98</ele>
        <time>2018-07-14T08:41:36Z</time>
      </trkpt>
      <trkpt lat="47.30751" lon="6.03446">
        <ele>500.98</ele>
        <time>2018-07-14T08:41:37Z</time>
      </trkpt>
      <trkpt lat="47.30754" lon="6.03449">
        <ele>501.46</ele>
        <time>2018-07-14T08:41:39Z</time>
      </trkpt>
      <trkpt lat="47.30756" lon="6.03451">
        <ele>501.46</ele>
        <time>2018-07-14T08:41:40Z</time>
      </trkpt>
      <trkpt lat="47.30758" lon="6.03452">
        <ele>501.95</ele>
        <time>2018-07-14T08:41:41Z</time>
      </trkpt>
      <trkpt lat="47.3076" lon="6.03453">
        <ele>501.95</ele>
        <time>2018-07-14T08:41:42Z</time>
      </trkpt>
      <trkpt lat="47.30761" lon="6.03455">
        <ele>501.95</ele>
        <time>2018-07-14T08:41:43Z</time>
      </trkpt>
      <trkpt lat="47.30768" lon="6.03462">
        <ele>503.39</ele>
        <time>2018-07-14T08:41:49Z</time>
      </trkpt>
      <trkpt lat="47.30769" lon="6.03463">
        <ele>503.39</ele>
        <time>2018-07-14T08:41:50Z</time>
      </trkpt>
      <trkpt lat="47.30773" lon="6.03469">
        <ele>504.83</ele>
        <time>2018-07-14T08:41:55Z</time>
      </trkpt>
      <trkpt lat="47.30774" lon="6.03471">
        <ele>504.83</ele>
        <time>2018-07-14T08:41:56Z</time>
      </trkpt>
      <trkpt lat="47.30779" lon="6.03477">
        <ele>505.79</ele>
        <time>2018-07-14T08:42:01Z</time>
      </trkpt>
      <trkpt lat="47.30781" lon="6.03477">
        <ele>506.27</ele>
        <time>2018-07-14T08:42:02Z</time>
      </trkpt>
      <trkpt lat="47.30782" lon="6.03477">
        <ele>506.27</ele>
        <time>2018-07-14T08:42:03Z</time>
      </trkpt>
      <trkpt lat="47.30791" lon="6.03485">
        <ele>508.19</ele>
        <time>2018-07-14T08:42:11Z</time>
      </trkpt>
      <trkpt lat="47.30792" lon="6.03486">
        <ele>508.19</ele>
        <time>2018-07-14T08:42:12Z</time>
      </trkpt>
      <trkpt lat="47.30796" lon="6.03489">
        <ele>509.16</ele>
        <time>2018-07-14T08:42:17Z</time>
      </trkpt>
      <trkpt lat="47.30805" lon="6.035">
        <ele>511.56</ele>
        <time>2018-07-14T08:42:27Z</time>
      </trkpt>
      <trkpt lat="47.30814" lon="6.03511">
        <ele>513</ele>
        <time>2018-07-14T08:42:36Z</time>
      </trkpt>
      <trkpt lat="47.30819" lon="6.03513">
        <ele>513.48</ele>
        <time>2018-07-14T08:42:41Z</time>
      </trkpt>
      <trkpt lat="47.30821" lon="6.03515">
        <ele>513.96</ele>
        <time>2018-07-14T08:42:42Z</time>
      </trkpt>
      <trkpt lat="47.30828" lon="6.03518">
        <ele>515.4</ele>
        <time>2018-07-14T08:42:50Z</time>
      </trkpt>
      <trkpt lat="47.30834" lon="6.03522">
        <ele>516.37</ele>
        <time>2018-07-14T08:42:54Z</time>
      </trkpt>
      <trkpt lat="47.3084" lon="6.0353">
        <ele>517.81</ele>
        <time>2018-07-14T08:43:02Z</time>
      </trkpt>
      <trkpt lat="47.30854" lon="6.03545">
        <ele>520.21</ele>
        <time>2018-07-14T08:43:13Z</time>
      </trkpt>
      <trkpt lat="47.30856" lon="6.03547">
        <ele>520.21</ele>
        <time>2018-07-14T08:43:14Z</time>
      </trkpt>
      <trkpt lat="47.30857" lon="6.03549">
        <ele>520.21</ele>
        <time>2018-07-14T08:43:15Z</time>
      </trkpt>
      <trkpt lat="47.30859" lon="6.0355">
        <ele>520.69</ele>
        <time>2018-07-14T08:43:16Z</time>
      </trkpt>
      <trkpt lat="47.3086" lon="6.03552">
        <ele>521.17</ele>
        <time>2018-07-14T08:43:17Z</time>
      </trkpt>
      <trkpt lat="47.30861" lon="6.03554">
        <ele>521.17</ele>
        <time>2018-07-14T08:43:18Z</time>
      </trkpt>
      <trkpt lat="47.30862" lon="6.03557">
        <ele>521.65</ele>
        <time>2018-07-14T08:43:19Z</time>
      </trkpt>
      <trkpt lat="47.30875" lon="6.03568">
        <ele>523.09</ele>
        <time>2018-07-14T08:43:27Z</time>
      </trkpt>
      <trkpt lat="47.30877" lon="6.0357">
        <ele>523.58</ele>
        <time>2018-07-14T08:43:28Z</time>
      </trkpt>
      <trkpt lat="47.30878" lon="6.03572">
        <ele>523.58</ele>
        <time>2018-07-14T08:43:29Z</time>
      </trkpt>
      <trkpt lat="47.30879" lon="6.03574">
        <ele>524.06</ele>
        <time>2018-07-14T08:43:30Z</time>
      </trkpt>
      <trkpt lat="47.3088" lon="6.03575">
        <ele>524.06</ele>
        <time>2018-07-14T08:43:31Z</time>
      </trkpt>
      <trkpt lat="47.30881" lon="6.03576">
        <ele>524.54</ele>
        <time>2018-07-14T08:43:32Z</time>
      </trkpt>
      <trkpt lat="47.30883" lon="6.03577">
        <ele>524.54</ele>
        <time>2018-07-14T08:43:33Z</time>
      </trkpt>
      <trkpt lat="47.30885" lon="6.03578">
        <ele>524.54</ele>
        <time>2018-07-14T08:43:34Z</time>
      </trkpt>
      <trkpt lat="47.30886" lon="6.0358">
        <ele>525.02</ele>
        <time>2018-07-14T08:43:35Z</time>
      </trkpt>
      <trkpt lat="47.30887" lon="6.03582">
        <ele>525.02</ele>
        <time>2018-07-14T08:43:36Z</time>
      </trkpt>
      <trkpt lat="47.30889" lon="6.03584">
        <ele>525.02</ele>
        <time>2018-07-14T08:43:37Z</time>
      </trkpt>
      <trkpt lat="47.30891" lon="6.03585">
        <ele>525.5</ele>
        <time>2018-07-14T08:43:38Z</time>
      </trkpt>
      <trkpt lat="47.30908" lon="6.03595">
        <ele>527.42</ele>
        <time>2018-07-14T08:43:48Z</time>
      </trkpt>
      <trkpt lat="47.30909" lon="6.03596">
        <ele>527.42</ele>
        <time>2018-07-14T08:43:49Z</time>
      </trkpt>
      <trkpt lat="47.30911" lon="6.03597">
        <ele>527.9</ele>
        <time>2018-07-14T08:43:50Z</time>
      </trkpt>
      <trkpt lat="47.30912" lon="6.03599">
        <ele>527.9</ele>
        <time>2018-07-14T08:43:51Z</time>
      </trkpt>
      <trkpt lat="47.30913" lon="6.036">
        <ele>527.9</ele>
        <time>2018-07-14T08:43:52Z</time>
      </trkpt>
      <trkpt lat="47.30914" lon="6.03602">
        <ele>528.38</ele>
        <time>2018-07-14T08:43:53Z</time>
      </trkpt>
      <trkpt lat="47.30915" lon="6.03603">
        <ele>528.38</ele>
        <time>2018-07-14T08:43:54Z</time>
      </trkpt>
      <trkpt lat="47.30916" lon="6.03605">
        <ele>528.38</ele>
        <time>2018-07-14T08:43:55Z</time>
      </trkpt>
      <trkpt lat="47.30918" lon="6.03606">
        <ele>528.86</ele>
        <time>2018-07-14T08:43:56Z</time>
      </trkpt>
      <trkpt lat="47.3092" lon="6.03607">
        <ele>528.86</ele>
        <time>2018-07-14T08:43:57Z</time>
      </trkpt>
      <trkpt lat="47.30934" lon="6.0361">
        <ele>530.79</ele>
        <time>2018-07-14T08:44:07Z</time>
      </trkpt>
      <trkpt lat="47.30956" lon="6.03615">
        <ele>531.75</ele>
        <time>2018-07-14T08:44:19Z</time>
      </trkpt>
      <trkpt lat="47.30962" lon="6.03623">
        <ele>532.23</ele>
        <time>2018-07-14T08:44:23Z</time>
      </trkpt>
      <trkpt lat="47.30962" lon="6.03626">
        <ele>532.23</ele>
        <time>2018-07-14T08:44:24Z</time>
      </trkpt>
      <trkpt lat="47.30963" lon="6.0363">
        <ele>532.23</ele>
        <time>2018-07-14T08:44:25Z</time>
      </trkpt>
      <trkpt lat="47.30964" lon="6.03633">
        <ele>532.71</ele>
        <time>2018-07-14T08:44:26Z</time>
      </trkpt>
      <trkpt lat="47.30965" lon="6.03636">
        <ele>532.71</ele>
        <time>2018-07-14T08:44:27Z</time>
      </trkpt>
      <trkpt lat="47.30971" lon="6.03674">
        <ele>534.15</ele>
        <time>2018-07-14T08:44:38Z</time>
      </trkpt>
      <trkpt lat="47.30972" lon="6.03676">
        <ele>534.63</ele>
        <time>2018-07-14T08:44:39Z</time>
      </trkpt>
      <trkpt lat="47.30973" lon="6.03678">
        <ele>534.63</ele>
        <time>2018-07-14T08:44:40Z</time>
      </trkpt>
      <trkpt lat="47.30973" lon="6.03681">
        <ele>534.63</ele>
        <time>2018-07-14T08:44:41Z</time>
      </trkpt>
      <trkpt lat="47.30973" lon="6.03688">
        <ele>534.63</ele>
        <time>2018-07-14T08:44:43Z</time>
      </trkpt>
      <trkpt lat="47.30972" lon="6.03692">
        <ele>535.11</ele>
        <time>2018-07-14T08:44:44Z</time>
      </trkpt>
      <trkpt lat="47.30974" lon="6.03716">
        <ele>535.59</ele>
        <time>2018-07-14T08:44:52Z</time>
      </trkpt>
      <trkpt lat="47.30973" lon="6.03719">
        <ele>536.07</ele>
        <time>2018-07-14T08:44:53Z</time>
      </trkpt>
      <trkpt lat="47.30973" lon="6.03723">
        <ele>536.07</ele>
        <time>2018-07-14T08:44:54Z</time>
      </trkpt>
      <trkpt lat="47.30972" lon="6.03729">
        <ele>536.07</ele>
        <time>2018-07-14T08:44:56Z</time>
      </trkpt>
      <trkpt lat="47.30971" lon="6.03732">
        <ele>536.55</ele>
        <time>2018-07-14T08:44:57Z</time>
      </trkpt>
      <trkpt lat="47.3097" lon="6.03737">
        <ele>536.07</ele>
        <time>2018-07-14T08:44:58Z</time>
      </trkpt>
      <trkpt lat="47.30969" lon="6.03743">
        <ele>536.55</ele>
        <time>2018-07-14T08:44:59Z</time>
      </trkpt>
      <trkpt lat="47.30966" lon="6.03747">
        <ele>536.55</ele>
        <time>2018-07-14T08:45:00Z</time>
      </trkpt>
      <trkpt lat="47.30965" lon="6.03752">
        <ele>536.55</ele>
        <time>2018-07-14T08:45:01Z</time>
      </trkpt>
      <trkpt lat="47.30964" lon="6.03756">
        <ele>536.55</ele>
        <time>2018-07-14T08:45:02Z</time>
      </trkpt>
      <trkpt lat="47.30962" lon="6.0376">
        <ele>537.03</ele>
        <time>2018-07-14T08:45:03Z</time>
      </trkpt>
      <trkpt lat="47.30961" lon="6.03764">
        <ele>537.03</ele>
        <time>2018-07-14T08:45:04Z</time>
      </trkpt>
      <trkpt lat="47.30959" lon="6.03768">
        <ele>537.03</ele>
        <time>2018-07-14T08:45:05Z</time>
      </trkpt>
      <trkpt lat="47.30958" lon="6.03772">
        <ele>537.03</ele>
        <time>2018-07-14T08:45:06Z</time>
      </trkpt>
      <trkpt lat="47.30956" lon="6.0378">
        <ele>537.51</ele>
        <time>2018-07-14T08:45:08Z</time>
      </trkpt>
      <trkpt lat="47.30956" lon="6.03784">
        <ele>537.03</ele>
        <time>2018-07-14T08:45:09Z</time>
      </trkpt>
      <trkpt lat="47.30956" lon="6.03787">
        <ele>537.51</ele>
        <time>2018-07-14T08:45:10Z</time>
      </trkpt>
      <trkpt lat="47.30956" lon="6.0379">
        <ele>537.51</ele>
        <time>2018-07-14T08:45:11Z</time>
      </trkpt>
      <trkpt lat="47.30956" lon="6.03794">
        <ele>537.51</ele>
        <time>2018-07-14T08:45:12Z</time>
      </trkpt>
      <trkpt lat="47.30954" lon="6.03799">
        <ele>537.51</ele>
        <time>2018-07-14T08:45:13Z</time>
      </trkpt>
      <trkpt lat="47.30949" lon="6.03829">
        <ele>537.99</ele>
        <time>2018-07-14T08:45:20Z</time>
      </trkpt>
      <trkpt lat="47.30948" lon="6.03834">
        <ele>538.48</ele>
        <time>2018-07-14T08:45:21Z</time>
      </trkpt>
      <trkpt lat="47.30947" lon="6.03839">
        <ele>538.48</ele>
        <time>2018-07-14T08:45:22Z</time>
      </trkpt>
      <trkpt lat="47.30947" lon="6.03843">
        <ele>538.48</ele>
        <time>2018-07-14T08:45:23Z</time>
      </trkpt>
      <trkpt lat="47.30946" lon="6.03847">
        <ele>538.96</ele>
        <time>2018-07-14T08:45:24Z</time>
      </trkpt>
      <trkpt lat="47.30945" lon="6.03851">
        <ele>538.96</ele>
        <time>2018-07-14T08:45:25Z</time>
      </trkpt>
      <trkpt lat="47.30944" lon="6.03856">
        <ele>538.96</ele>
        <time>2018-07-14T08:45:26Z</time>
      </trkpt>
      <trkpt lat="47.30943" lon="6.0386">
        <ele>538.96</ele>
        <time>2018-07-14T08:45:27Z</time>
      </trkpt>
      <trkpt lat="47.30943" lon="6.03863">
        <ele>538.96</ele>
        <time>2018-07-14T08:45:28Z</time>
      </trkpt>
      <trkpt lat="47.30944" lon="6.03867">
        <ele>539.44</ele>
        <time>2018-07-14T08:45:29Z</time>
      </trkpt>
      <trkpt lat="47.30944" lon="6.03871">
        <ele>539.44</ele>
        <time>2018-07-14T08:45:30Z</time>
      </trkpt>
      <trkpt lat="47.30949" lon="6.03907">
        <ele>540.4</ele>
        <time>2018-07-14T08:45:40Z</time>
      </trkpt>
      <trkpt lat="47.30948" lon="6.03912">
        <ele>540.4</ele>
        <time>2018-07-14T08:45:41Z</time>
      </trkpt>
      <trkpt lat="47.30946" lon="6.03924">
        <ele>540.4</ele>
        <time>2018-07-14T08:45:43Z</time>
      </trkpt>
      <trkpt lat="47.30946" lon="6.03929">
        <ele>540.4</ele>
        <time>2018-07-14T08:45:44Z</time>
      </trkpt>
      <trkpt lat="47.30942" lon="6.03947">
        <ele>540.88</ele>
        <time>2018-07-14T08:45:48Z</time>
      </trkpt>
      <trkpt lat="47.30943" lon="6.0395">
        <ele>540.88</ele>
        <time>2018-07-14T08:45:49Z</time>
      </trkpt>
      <trkpt lat="47.30945" lon="6.03952">
        <ele>540.88</ele>
        <time>2018-07-14T08:45:50Z</time>
      </trkpt>
      <trkpt lat="47.30947" lon="6.03956">
        <ele>541.36</ele>
        <time>2018-07-14T08:45:51Z</time>
      </trkpt>
      <trkpt lat="47.30947" lon="6.0396">
        <ele>540.88</ele>
        <time>2018-07-14T08:45:52Z</time>
      </trkpt>
      <trkpt lat="47.30947" lon="6.03965">
        <ele>541.36</ele>
        <time>2018-07-14T08:45:53Z</time>
      </trkpt>
      <trkpt lat="47.30946" lon="6.03971">
        <ele>541.36</ele>
        <time>2018-07-14T08:45:54Z</time>
      </trkpt>
      <trkpt lat="47.30942" lon="6.03988">
        <ele>541.36</ele>
        <time>2018-07-14T08:45:57Z</time>
      </trkpt>
      <trkpt lat="47.30941" lon="6.03993">
        <ele>541.84</ele>
        <time>2018-07-14T08:45:58Z</time>
      </trkpt>
      <trkpt lat="47.30939" lon="6.03999">
        <ele>541.84</ele>
        <time>2018-07-14T08:45:59Z</time>
      </trkpt>
      <trkpt lat="47.30938" lon="6.04004">
        <ele>541.84</ele>
        <time>2018-07-14T08:46:00Z</time>
      </trkpt>
      <trkpt lat="47.30937" lon="6.04009">
        <ele>541.84</ele>
        <time>2018-07-14T08:46:01Z</time>
      </trkpt>
      <trkpt lat="47.30933" lon="6.04049">
        <ele>542.32</ele>
        <time>2018-07-14T08:46:10Z</time>
      </trkpt>
      <trkpt lat="47.30932" lon="6.04064">
        <ele>542.8</ele>
        <time>2018-07-14T08:46:13Z</time>
      </trkpt>
      <trkpt lat="47.30932" lon="6.0411">
        <ele>543.28</ele>
        <time>2018-07-14T08:46:23Z</time>
      </trkpt>
      <trkpt lat="47.30939" lon="6.04156">
        <ele>544.24</ele>
        <time>2018-07-14T08:46:33Z</time>
      </trkpt>
      <trkpt lat="47.3094" lon="6.04164">
        <ele>544.24</ele>
        <time>2018-07-14T08:46:35Z</time>
      </trkpt>
      <trkpt lat="47.30937" lon="6.04206">
        <ele>545.2</ele>
        <time>2018-07-14T08:46:44Z</time>
      </trkpt>
      <trkpt lat="47.3094" lon="6.04243">
        <ele>546.17</ele>
        <time>2018-07-14T08:46:52Z</time>
      </trkpt>
      <trkpt lat="47.30943" lon="6.04262">
        <ele>546.17</ele>
        <time>2018-07-14T08:46:56Z</time>
      </trkpt>
      <trkpt lat="47.30944" lon="6.04266">
        <ele>546.65</ele>
        <time>2018-07-14T08:46:57Z</time>
      </trkpt>
      <trkpt lat="47.30945" lon="6.0427">
        <ele>546.65</ele>
        <time>2018-07-14T08:46:58Z</time>
      </trkpt>
      <trkpt lat="47.30947" lon="6.04273">
        <ele>546.65</ele>
        <time>2018-07-14T08:46:59Z</time>
      </trkpt>
      <trkpt lat="47.30949" lon="6.04277">
        <ele>546.65</ele>
        <time>2018-07-14T08:47:00Z</time>
      </trkpt>
      <trkpt lat="47.30949" lon="6.04281">
        <ele>547.13</ele>
        <time>2018-07-14T08:47:01Z</time>
      </trkpt>
      <trkpt lat="47.30949" lon="6.04286">
        <ele>547.13</ele>
        <time>2018-07-14T08:47:02Z</time>
      </trkpt>
      <trkpt lat="47.3095" lon="6.04291">
        <ele>547.13</ele>
        <time>2018-07-14T08:47:03Z</time>
      </trkpt>
      <trkpt lat="47.30951" lon="6.04295">
        <ele>547.13</ele>
        <time>2018-07-14T08:47:04Z</time>
      </trkpt>
      <trkpt lat="47.30959" lon="6.04337">
        <ele>548.57</ele>
        <time>2018-07-14T08:47:14Z</time>
      </trkpt>
      <trkpt lat="47.3097" lon="6.04365">
        <ele>549.53</ele>
        <time>2018-07-14T08:47:22Z</time>
      </trkpt>
      <trkpt lat="47.30988" lon="6.04395">
        <ele>550.49</ele>
        <time>2018-07-14T08:47:31Z</time>
      </trkpt>
      <trkpt lat="47.31" lon="6.04419">
        <ele>550.97</ele>
        <time>2018-07-14T08:47:37Z</time>
      </trkpt>
      <trkpt lat="47.31021" lon="6.04459">
        <ele>551.93</ele>
        <time>2018-07-14T08:47:48Z</time>
      </trkpt>
      <trkpt lat="47.3104" lon="6.04487">
        <ele>552.41</ele>
        <time>2018-07-14T08:47:56Z</time>
      </trkpt>
      <trkpt lat="47.31054" lon="6.04511">
        <ele>552.41</ele>
        <time>2018-07-14T08:48:02Z</time>
      </trkpt>
      <trkpt lat="47.31058" lon="6.04514">
        <ele>552.41</ele>
        <time>2018-07-14T08:48:03Z</time>
      </trkpt>
      <trkpt lat="47.31062" lon="6.04518">
        <ele>551.93</ele>
        <time>2018-07-14T08:48:04Z</time>
      </trkpt>
      <trkpt lat="47.31065" lon="6.04521">
        <ele>551.93</ele>
        <time>2018-07-14T08:48:05Z</time>
      </trkpt>
      <trkpt lat="47.31067" lon="6.04526">
        <ele>551.93</ele>
        <time>2018-07-14T08:48:06Z</time>
      </trkpt>
      <trkpt lat="47.31069" lon="6.0453">
        <ele>551.93</ele>
        <time>2018-07-14T08:48:07Z</time>
      </trkpt>
      <trkpt lat="47.31071" lon="6.04534">
        <ele>551.93</ele>
        <time>2018-07-14T08:48:08Z</time>
      </trkpt>
      <trkpt lat="47.31073" lon="6.04538">
        <ele>551.93</ele>
        <time>2018-07-14T08:48:09Z</time>
      </trkpt>
      <trkpt lat="47.31075" lon="6.04542">
        <ele>551.93</ele>
        <time>2018-07-14T08:48:10Z</time>
      </trkpt>
      <trkpt lat="47.31078" lon="6.04546">
        <ele>551.93</ele>
        <time>2018-07-14T08:48:11Z</time>
      </trkpt>
      <trkpt lat="47.3108" lon="6.04551">
        <ele>551.93</ele>
        <time>2018-07-14T08:48:12Z</time>
      </trkpt>
      <trkpt lat="47.31103" lon="6.04591">
        <ele>550.49</ele>
        <time>2018-07-14T08:48:22Z</time>
      </trkpt>
      <trkpt lat="47.31115" lon="6.04612">
        <ele>550.01</ele>
        <time>2018-07-14T08:48:26Z</time>
      </trkpt>
      <trkpt lat="47.31117" lon="6.04618">
        <ele>550.01</ele>
        <time>2018-07-14T08:48:27Z</time>
      </trkpt>
      <trkpt lat="47.31134" lon="6.04648">
        <ele>549.05</ele>
        <time>2018-07-14T08:48:32Z</time>
      </trkpt>
      <trkpt lat="47.31137" lon="6.04655">
        <ele>548.09</ele>
        <time>2018-07-14T08:48:33Z</time>
      </trkpt>
      <trkpt lat="47.31151" lon="6.04688">
        <ele>546.65</ele>
        <time>2018-07-14T08:48:37Z</time>
      </trkpt>
      <trkpt lat="47.31162" lon="6.04713">
        <ele>546.17</ele>
        <time>2018-07-14T08:48:40Z</time>
      </trkpt>
      <trkpt lat="47.31166" lon="6.04721">
        <ele>545.69</ele>
        <time>2018-07-14T08:48:41Z</time>
      </trkpt>
      <trkpt lat="47.31169" lon="6.0473">
        <ele>545.2</ele>
        <time>2018-07-14T08:48:42Z</time>
      </trkpt>
      <trkpt lat="47.31184" lon="6.04782">
        <ele>544.24</ele>
        <time>2018-07-14T08:48:48Z</time>
      </trkpt>
      <trkpt lat="47.31187" lon="6.0479">
        <ele>544.24</ele>
        <time>2018-07-14T08:48:49Z</time>
      </trkpt>
      <trkpt lat="47.31201" lon="6.04857">
        <ele>541.84</ele>
        <time>2018-07-14T08:48:57Z</time>
      </trkpt>
      <trkpt lat="47.31203" lon="6.04867">
        <ele>541.36</ele>
        <time>2018-07-14T08:48:58Z</time>
      </trkpt>
      <trkpt lat="47.31205" lon="6.04877">
        <ele>540.88</ele>
        <time>2018-07-14T08:48:59Z</time>
      </trkpt>
      <trkpt lat="47.31207" lon="6.04887">
        <ele>540.4</ele>
        <time>2018-07-14T08:49:00Z</time>
      </trkpt>
      <trkpt lat="47.31209" lon="6.04896">
        <ele>540.4</ele>
        <time>2018-07-14T08:49:01Z</time>
      </trkpt>
      <trkpt lat="47.31216" lon="6.04923">
        <ele>540.4</ele>
        <time>2018-07-14T08:49:04Z</time>
      </trkpt>
      <trkpt lat="47.3122" lon="6.04938">
        <ele>540.88</ele>
        <time>2018-07-14T08:49:06Z</time>
      </trkpt>
      <trkpt lat="47.31222" lon="6.04945">
        <ele>541.36</ele>
        <time>2018-07-14T08:49:07Z</time>
      </trkpt>
      <trkpt lat="47.31227" lon="6.04964">
        <ele>541.84</ele>
        <time>2018-07-14T08:49:10Z</time>
      </trkpt>
      <trkpt lat="47.31229" lon="6.04969">
        <ele>541.84</ele>
        <time>2018-07-14T08:49:11Z</time>
      </trkpt>
      <trkpt lat="47.3123" lon="6.04975">
        <ele>542.32</ele>
        <time>2018-07-14T08:49:12Z</time>
      </trkpt>
      <trkpt lat="47.31231" lon="6.0498">
        <ele>542.32</ele>
        <time>2018-07-14T08:49:13Z</time>
      </trkpt>
      <trkpt lat="47.31233" lon="6.04984">
        <ele>542.8</ele>
        <time>2018-07-14T08:49:14Z</time>
      </trkpt>
      <trkpt lat="47.31234" lon="6.04989">
        <ele>542.8</ele>
        <time>2018-07-14T08:49:15Z</time>
      </trkpt>
      <trkpt lat="47.31236" lon="6.04994">
        <ele>542.8</ele>
        <time>2018-07-14T08:49:16Z</time>
      </trkpt>
      <trkpt lat="47.31238" lon="6.04999">
        <ele>543.28</ele>
        <time>2018-07-14T08:49:17Z</time>
      </trkpt>
      <trkpt lat="47.31255" lon="6.05042">
        <ele>545.2</ele>
        <time>2018-07-14T08:49:27Z</time>
      </trkpt>
      <trkpt lat="47.31258" lon="6.0505">
        <ele>545.69</ele>
        <time>2018-07-14T08:49:29Z</time>
      </trkpt>
      <trkpt lat="47.31259" lon="6.05054">
        <ele>545.69</ele>
        <time>2018-07-14T08:49:30Z</time>
      </trkpt>
      <trkpt lat="47.31261" lon="6.05058">
        <ele>545.69</ele>
        <time>2018-07-14T08:49:31Z</time>
      </trkpt>
      <trkpt lat="47.31262" lon="6.05063">
        <ele>546.17</ele>
        <time>2018-07-14T08:49:32Z</time>
      </trkpt>
      <trkpt lat="47.31262" lon="6.05068">
        <ele>546.17</ele>
        <time>2018-07-14T08:49:33Z</time>
      </trkpt>
      <trkpt lat="47.31278" lon="6.05121">
        <ele>548.09</ele>
        <time>2018-07-14T08:49:44Z</time>
      </trkpt>
      <trkpt lat="47.31287" lon="6.05144">
        <ele>549.05</ele>
        <time>2018-07-14T08:49:49Z</time>
      </trkpt>
      <trkpt lat="47.31289" lon="6.05148">
        <ele>549.05</ele>
        <time>2018-07-14T08:49:50Z</time>
      </trkpt>
      <trkpt lat="47.31306" lon="6.0518">
        <ele>550.49</ele>
        <time>2018-07-14T08:49:58Z</time>
      </trkpt>
      <trkpt lat="47.31308" lon="6.05184">
        <ele>550.97</ele>
        <time>2018-07-14T08:49:59Z</time>
      </trkpt>
      <trkpt lat="47.31337" lon="6.05227">
        <ele>552.9</ele>
        <time>2018-07-14T08:50:11Z</time>
      </trkpt>
      <trkpt lat="47.31356" lon="6.05267">
        <ele>554.34</ele>
        <time>2018-07-14T08:50:21Z</time>
      </trkpt>
      <trkpt lat="47.31381" lon="6.05303">
        <ele>555.78</ele>
        <time>2018-07-14T08:50:31Z</time>
      </trkpt>
      <trkpt lat="47.31401" lon="6.05333">
        <ele>557.7</ele>
        <time>2018-07-14T08:50:40Z</time>
      </trkpt>
      <trkpt lat="47.31414" lon="6.05347">
        <ele>559.14</ele>
        <time>2018-07-14T08:50:46Z</time>
      </trkpt>
      <trkpt lat="47.31416" lon="6.0535">
        <ele>559.14</ele>
        <time>2018-07-14T08:50:47Z</time>
      </trkpt>
      <trkpt lat="47.31417" lon="6.05353">
        <ele>559.14</ele>
        <time>2018-07-14T08:50:48Z</time>
      </trkpt>
      <trkpt lat="47.3142" lon="6.05356">
        <ele>559.62</ele>
        <time>2018-07-14T08:50:49Z</time>
      </trkpt>
      <trkpt lat="47.31422" lon="6.05359">
        <ele>559.62</ele>
        <time>2018-07-14T08:50:50Z</time>
      </trkpt>
      <trkpt lat="47.31424" lon="6.05362">
        <ele>560.11</ele>
        <time>2018-07-14T08:50:51Z</time>
      </trkpt>
      <trkpt lat="47.31446" lon="6.05389">
        <ele>562.03</ele>
        <time>2018-07-14T08:51:00Z</time>
      </trkpt>
      <trkpt lat="47.31453" lon="6.05397">
        <ele>562.51</ele>
        <time>2018-07-14T08:51:03Z</time>
      </trkpt>
      <trkpt lat="47.31455" lon="6.05399">
        <ele>562.99</ele>
        <time>2018-07-14T08:51:04Z</time>
      </trkpt>
      <trkpt lat="47.31456" lon="6.05402">
        <ele>562.99</ele>
        <time>2018-07-14T08:51:05Z</time>
      </trkpt>
      <trkpt lat="47.31477" lon="6.05426">
        <ele>565.39</ele>
        <time>2018-07-14T08:51:14Z</time>
      </trkpt>
      <trkpt lat="47.31479" lon="6.05428">
        <ele>565.39</ele>
        <time>2018-07-14T08:51:15Z</time>
      </trkpt>
      <trkpt lat="47.31481" lon="6.05431">
        <ele>565.87</ele>
        <time>2018-07-14T08:51:16Z</time>
      </trkpt>
      <trkpt lat="47.31483" lon="6.05434">
        <ele>565.87</ele>
        <time>2018-07-14T08:51:17Z</time>
      </trkpt>
      <trkpt lat="47.31485" lon="6.05437">
        <ele>565.87</ele>
        <time>2018-07-14T08:51:18Z</time>
      </trkpt>
      <trkpt lat="47.31487" lon="6.0544">
        <ele>566.35</ele>
        <time>2018-07-14T08:51:19Z</time>
      </trkpt>
      <trkpt lat="47.31489" lon="6.05443">
        <ele>566.35</ele>
        <time>2018-07-14T08:51:20Z</time>
      </trkpt>
      <trkpt lat="47.31491" lon="6.05446">
        <ele>566.83</ele>
        <time>2018-07-14T08:51:21Z</time>
      </trkpt>
      <trkpt lat="47.31509" lon="6.05471">
        <ele>568.76</ele>
        <time>2018-07-14T08:51:30Z</time>
      </trkpt>
      <trkpt lat="47.31513" lon="6.05477">
        <ele>569.24</ele>
        <time>2018-07-14T08:51:32Z</time>
      </trkpt>
      <trkpt lat="47.31516" lon="6.05481">
        <ele>569.72</ele>
        <time>2018-07-14T08:51:35Z</time>
      </trkpt>
      <trkpt lat="47.31518" lon="6.05484">
        <ele>570.2</ele>
        <time>2018-07-14T08:51:36Z</time>
      </trkpt>
      <trkpt lat="47.3152" lon="6.05487">
        <ele>570.2</ele>
        <time>2018-07-14T08:51:37Z</time>
      </trkpt>
      <trkpt lat="47.31522" lon="6.05491">
        <ele>570.68</ele>
        <time>2018-07-14T08:51:38Z</time>
      </trkpt>
      <trkpt lat="47.31524" lon="6.05494">
        <ele>570.68</ele>
        <time>2018-07-14T08:51:39Z</time>
      </trkpt>
      <trkpt lat="47.31526" lon="6.05497">
        <ele>570.68</ele>
        <time>2018-07-14T08:51:40Z</time>
      </trkpt>
      <trkpt lat="47.31528" lon="6.055">
        <ele>571.16</ele>
        <time>2018-07-14T08:51:41Z</time>
      </trkpt>
      <trkpt lat="47.3153" lon="6.05504">
        <ele>571.16</ele>
        <time>2018-07-14T08:51:42Z</time>
      </trkpt>
      <trkpt lat="47.31532" lon="6.05507">
        <ele>571.64</ele>
        <time>2018-07-14T08:51:43Z</time>
      </trkpt>
      <trkpt lat="47.31534" lon="6.05511">
        <ele>571.64</ele>
        <time>2018-07-14T08:51:44Z</time>
      </trkpt>
      <trkpt lat="47.31536" lon="6.05513">
        <ele>572.12</ele>
        <time>2018-07-14T08:51:45Z</time>
      </trkpt>
      <trkpt lat="47.31538" lon="6.05516">
        <ele>572.12</ele>
        <time>2018-07-14T08:51:46Z</time>
      </trkpt>
      <trkpt lat="47.31541" lon="6.05519">
        <ele>572.6</ele>
        <time>2018-07-14T08:51:47Z</time>
      </trkpt>
      <trkpt lat="47.31544" lon="6.05522">
        <ele>572.6</ele>
        <time>2018-07-14T08:51:48Z</time>
      </trkpt>
      <trkpt lat="47.31547" lon="6.05524">
        <ele>572.6</ele>
        <time>2018-07-14T08:51:49Z</time>
      </trkpt>
      <trkpt lat="47.3155" lon="6.05527">
        <ele>573.08</ele>
        <time>2018-07-14T08:51:50Z</time>
      </trkpt>
      <trkpt lat="47.31553" lon="6.05529">
        <ele>573.56</ele>
        <time>2018-07-14T08:51:51Z</time>
      </trkpt>
      <trkpt lat="47.31579" lon="6.05551">
        <ele>575.01</ele>
        <time>2018-07-14T08:52:01Z</time>
      </trkpt>
      <trkpt lat="47.31604" lon="6.05575">
        <ele>576.93</ele>
        <time>2018-07-14T08:52:11Z</time>
      </trkpt>
      <trkpt lat="47.31625" lon="6.056">
        <ele>577.89</ele>
        <time>2018-07-14T08:52:19Z</time>
      </trkpt>
      <trkpt lat="47.31645" lon="6.05601">
        <ele>578.85</ele>
        <time>2018-07-14T08:52:29Z</time>
      </trkpt>
      <trkpt lat="47.31647" lon="6.05604">
        <ele>578.85</ele>
        <time>2018-07-14T08:52:30Z</time>
      </trkpt>
      <trkpt lat="47.31648" lon="6.05607">
        <ele>578.37</ele>
        <time>2018-07-14T08:52:31Z</time>
      </trkpt>
      <trkpt lat="47.31648" lon="6.05611">
        <ele>578.37</ele>
        <time>2018-07-14T08:52:32Z</time>
      </trkpt>
      <trkpt lat="47.31649" lon="6.05615">
        <ele>578.37</ele>
        <time>2018-07-14T08:52:33Z</time>
      </trkpt>
      <trkpt lat="47.3165" lon="6.05618">
        <ele>578.37</ele>
        <time>2018-07-14T08:52:34Z</time>
      </trkpt>
      <trkpt lat="47.31651" lon="6.0562">
        <ele>578.37</ele>
        <time>2018-07-14T08:52:35Z</time>
      </trkpt>
      <trkpt lat="47.31652" lon="6.05623">
        <ele>578.37</ele>
        <time>2018-07-14T08:52:36Z</time>
      </trkpt>
      <trkpt lat="47.31652" lon="6.05626">
        <ele>578.37</ele>
        <time>2018-07-14T08:52:37Z</time>
      </trkpt>
      <trkpt lat="47.31652" lon="6.05628">
        <ele>578.37</ele>
        <time>2018-07-14T08:52:38Z</time>
      </trkpt>
      <trkpt lat="47.3165" lon="6.05633">
        <ele>578.37</ele>
        <time>2018-07-14T08:52:40Z</time>
      </trkpt>
      <trkpt lat="47.31651" lon="6.05636">
        <ele>577.89</ele>
        <time>2018-07-14T08:52:41Z</time>
      </trkpt>
      <trkpt lat="47.31655" lon="6.05641">
        <ele>577.89</ele>
        <time>2018-07-14T08:52:44Z</time>
      </trkpt>
      <trkpt lat="47.31655" lon="6.05644">
        <ele>577.89</ele>
        <time>2018-07-14T08:52:45Z</time>
      </trkpt>
      <trkpt lat="47.31656" lon="6.05648">
        <ele>577.89</ele>
        <time>2018-07-14T08:52:46Z</time>
      </trkpt>
      <trkpt lat="47.31657" lon="6.05653">
        <ele>577.41</ele>
        <time>2018-07-14T08:52:47Z</time>
      </trkpt>
      <trkpt lat="47.31659" lon="6.05657">
        <ele>577.41</ele>
        <time>2018-07-14T08:52:48Z</time>
      </trkpt>
      <trkpt lat="47.31661" lon="6.05659">
        <ele>577.89</ele>
        <time>2018-07-14T08:52:49Z</time>
      </trkpt>
      <trkpt lat="47.31662" lon="6.05662">
        <ele>577.89</ele>
        <time>2018-07-14T08:52:50Z</time>
      </trkpt>
      <trkpt lat="47.31663" lon="6.05665">
        <ele>577.89</ele>
        <time>2018-07-14T08:52:51Z</time>
      </trkpt>
      <trkpt lat="47.31665" lon="6.05668">
        <ele>577.89</ele>
        <time>2018-07-14T08:52:52Z</time>
      </trkpt>
      <trkpt lat="47.31667" lon="6.05671">
        <ele>577.89</ele>
        <time>2018-07-14T08:52:53Z</time>
      </trkpt>
      <trkpt lat="47.31669" lon="6.05676">
        <ele>577.89</ele>
        <time>2018-07-14T08:52:54Z</time>
      </trkpt>
      <trkpt lat="47.31676" lon="6.05688">
        <ele>577.89</ele>
        <time>2018-07-14T08:52:57Z</time>
      </trkpt>
      <trkpt lat="47.31679" lon="6.05692">
        <ele>578.37</ele>
        <time>2018-07-14T08:52:58Z</time>
      </trkpt>
      <trkpt lat="47.31697" lon="6.05708">
        <ele>579.81</ele>
        <time>2018-07-14T08:53:04Z</time>
      </trkpt>
      <trkpt lat="47.31698" lon="6.05712">
        <ele>580.29</ele>
        <time>2018-07-14T08:53:05Z</time>
      </trkpt>
      <trkpt lat="47.31699" lon="6.05716">
        <ele>580.29</ele>
        <time>2018-07-14T08:53:06Z</time>
      </trkpt>
      <trkpt lat="47.317" lon="6.05721">
        <ele>580.29</ele>
        <time>2018-07-14T08:53:07Z</time>
      </trkpt>
      <trkpt lat="47.31701" lon="6.05724">
        <ele>580.77</ele>
        <time>2018-07-14T08:53:08Z</time>
      </trkpt>
      <trkpt lat="47.31702" lon="6.05727">
        <ele>580.77</ele>
        <time>2018-07-14T08:53:09Z</time>
      </trkpt>
      <trkpt lat="47.31704" lon="6.05729">
        <ele>581.25</ele>
        <time>2018-07-14T08:53:10Z</time>
      </trkpt>
      <trkpt lat="47.31706" lon="6.0573">
        <ele>581.73</ele>
        <time>2018-07-14T08:53:11Z</time>
      </trkpt>
      <trkpt lat="47.31709" lon="6.05732">
        <ele>581.73</ele>
        <time>2018-07-14T08:53:12Z</time>
      </trkpt>
      <trkpt lat="47.31711" lon="6.05735">
        <ele>581.73</ele>
        <time>2018-07-14T08:53:13Z</time>
      </trkpt>
      <trkpt lat="47.31714" lon="6.05739">
        <ele>582.22</ele>
        <time>2018-07-14T08:53:14Z</time>
      </trkpt>
      <trkpt lat="47.31716" lon="6.05741">
        <ele>582.22</ele>
        <time>2018-07-14T08:53:15Z</time>
      </trkpt>
      <trkpt lat="47.31717" lon="6.05744">
        <ele>582.7</ele>
        <time>2018-07-14T08:53:16Z</time>
      </trkpt>
      <trkpt lat="47.31718" lon="6.05747">
        <ele>582.7</ele>
        <time>2018-07-14T08:53:17Z</time>
      </trkpt>
      <trkpt lat="47.31718" lon="6.05752">
        <ele>582.7</ele>
        <time>2018-07-14T08:53:18Z</time>
      </trkpt>
      <trkpt lat="47.31719" lon="6.05756">
        <ele>583.18</ele>
        <time>2018-07-14T08:53:19Z</time>
      </trkpt>
      <trkpt lat="47.3172" lon="6.05759">
        <ele>583.18</ele>
        <time>2018-07-14T08:53:20Z</time>
      </trkpt>
      <trkpt lat="47.31723" lon="6.05762">
        <ele>583.66</ele>
        <time>2018-07-14T08:53:21Z</time>
      </trkpt>
      <trkpt lat="47.31725" lon="6.05764">
        <ele>583.66</ele>
        <time>2018-07-14T08:53:22Z</time>
      </trkpt>
      <trkpt lat="47.31726" lon="6.05766">
        <ele>583.66</ele>
        <time>2018-07-14T08:53:23Z</time>
      </trkpt>
      <trkpt lat="47.31729" lon="6.05769">
        <ele>584.14</ele>
        <time>2018-07-14T08:53:25Z</time>
      </trkpt>
      <trkpt lat="47.3173" lon="6.05772">
        <ele>584.14</ele>
        <time>2018-07-14T08:53:26Z</time>
      </trkpt>
      <trkpt lat="47.31732" lon="6.05775">
        <ele>584.14</ele>
        <time>2018-07-14T08:53:27Z</time>
      </trkpt>
      <trkpt lat="47.31733" lon="6.05779">
        <ele>584.14</ele>
        <time>2018-07-14T08:53:28Z</time>
      </trkpt>
      <trkpt lat="47.31734" lon="6.05782">
        <ele>584.62</ele>
        <time>2018-07-14T08:53:29Z</time>
      </trkpt>
      <trkpt lat="47.31735" lon="6.05786">
        <ele>584.62</ele>
        <time>2018-07-14T08:53:30Z</time>
      </trkpt>
      <trkpt lat="47.31737" lon="6.05788">
        <ele>584.62</ele>
        <time>2018-07-14T08:53:31Z</time>
      </trkpt>
      <trkpt lat="47.3174" lon="6.05791">
        <ele>584.62</ele>
        <time>2018-07-14T08:53:32Z</time>
      </trkpt>
      <trkpt lat="47.31742" lon="6.05794">
        <ele>585.1</ele>
        <time>2018-07-14T08:53:33Z</time>
      </trkpt>
      <trkpt lat="47.31743" lon="6.05798">
        <ele>585.1</ele>
        <time>2018-07-14T08:53:34Z</time>
      </trkpt>
      <trkpt lat="47.31744" lon="6.05801">
        <ele>585.1</ele>
        <time>2018-07-14T08:53:35Z</time>
      </trkpt>
      <trkpt lat="47.31745" lon="6.05804">
        <ele>585.1</ele>
        <time>2018-07-14T08:53:36Z</time>
      </trkpt>
      <trkpt lat="47.31748" lon="6.05806">
        <ele>585.1</ele>
        <time>2018-07-14T08:53:37Z</time>
      </trkpt>
      <trkpt lat="47.3175" lon="6.05807">
        <ele>585.1</ele>
        <time>2018-07-14T08:53:38Z</time>
      </trkpt>
      <trkpt lat="47.31751" lon="6.0581">
        <ele>585.58</ele>
        <time>2018-07-14T08:53:39Z</time>
      </trkpt>
      <trkpt lat="47.31753" lon="6.05814">
        <ele>585.58</ele>
        <time>2018-07-14T08:53:40Z</time>
      </trkpt>
      <trkpt lat="47.31753" lon="6.05817">
        <ele>585.58</ele>
        <time>2018-07-14T08:53:41Z</time>
      </trkpt>
      <trkpt lat="47.31755" lon="6.0582">
        <ele>585.58</ele>
        <time>2018-07-14T08:53:42Z</time>
      </trkpt>
      <trkpt lat="47.31756" lon="6.05823">
        <ele>585.58</ele>
        <time>2018-07-14T08:53:43Z</time>
      </trkpt>
      <trkpt lat="47.31766" lon="6.05849">
        <ele>586.54</ele>
        <time>2018-07-14T08:53:51Z</time>
      </trkpt>
      <trkpt lat="47.31768" lon="6.05852">
        <ele>586.54</ele>
        <time>2018-07-14T08:53:52Z</time>
      </trkpt>
      <trkpt lat="47.3177" lon="6.05855">
        <ele>587.02</ele>
        <time>2018-07-14T08:53:53Z</time>
      </trkpt>
      <trkpt lat="47.31772" lon="6.05856">
        <ele>587.02</ele>
        <time>2018-07-14T08:53:54Z</time>
      </trkpt>
      <trkpt lat="47.31774" lon="6.05858">
        <ele>587.02</ele>
        <time>2018-07-14T08:53:55Z</time>
      </trkpt>
      <trkpt lat="47.31776" lon="6.0586">
        <ele>587.02</ele>
        <time>2018-07-14T08:53:56Z</time>
      </trkpt>
      <trkpt lat="47.31778" lon="6.05864">
        <ele>587.02</ele>
        <time>2018-07-14T08:53:57Z</time>
      </trkpt>
      <trkpt lat="47.3178" lon="6.05867">
        <ele>587.5</ele>
        <time>2018-07-14T08:53:58Z</time>
      </trkpt>
      <trkpt lat="47.31783" lon="6.0587">
        <ele>587.5</ele>
        <time>2018-07-14T08:53:59Z</time>
      </trkpt>
      <trkpt lat="47.31792" lon="6.05879">
        <ele>588.46</ele>
        <time>2018-07-14T08:54:03Z</time>
      </trkpt>
      <trkpt lat="47.31795" lon="6.05881">
        <ele>588.46</ele>
        <time>2018-07-14T08:54:04Z</time>
      </trkpt>
      <trkpt lat="47.31797" lon="6.05883">
        <ele>588.46</ele>
        <time>2018-07-14T08:54:05Z</time>
      </trkpt>
      <trkpt lat="47.31798" lon="6.05887">
        <ele>588.95</ele>
        <time>2018-07-14T08:54:06Z</time>
      </trkpt>
      <trkpt lat="47.31798" lon="6.05889">
        <ele>589.43</ele>
        <time>2018-07-14T08:54:07Z</time>
      </trkpt>
      <trkpt lat="47.318" lon="6.0589">
        <ele>589.43</ele>
        <time>2018-07-14T08:54:08Z</time>
      </trkpt>
      <trkpt lat="47.31802" lon="6.0589">
        <ele>589.43</ele>
        <time>2018-07-14T08:54:09Z</time>
      </trkpt>
      <trkpt lat="47.31819" lon="6.05889">
        <ele>589.43</ele>
        <time>2018-07-14T08:54:14Z</time>
      </trkpt>
      <trkpt lat="47.31823" lon="6.0589">
        <ele>589.43</ele>
        <time>2018-07-14T08:54:15Z</time>
      </trkpt>
      <trkpt lat="47.31826" lon="6.05892">
        <ele>589.43</ele>
        <time>2018-07-14T08:54:16Z</time>
      </trkpt>
      <trkpt lat="47.31829" lon="6.05893">
        <ele>589.43</ele>
        <time>2018-07-14T08:54:17Z</time>
      </trkpt>
      <trkpt lat="47.31833" lon="6.05895">
        <ele>589.91</ele>
        <time>2018-07-14T08:54:18Z</time>
      </trkpt>
      <trkpt lat="47.31845" lon="6.05901">
        <ele>589.91</ele>
        <time>2018-07-14T08:54:22Z</time>
      </trkpt>
      <trkpt lat="47.31847" lon="6.05903">
        <ele>590.39</ele>
        <time>2018-07-14T08:54:23Z</time>
      </trkpt>
      <trkpt lat="47.31849" lon="6.05906">
        <ele>590.39</ele>
        <time>2018-07-14T08:54:24Z</time>
      </trkpt>
      <trkpt lat="47.31851" lon="6.0591">
        <ele>590.87</ele>
        <time>2018-07-14T08:54:25Z</time>
      </trkpt>
      <trkpt lat="47.31852" lon="6.05914">
        <ele>590.87</ele>
        <time>2018-07-14T08:54:26Z</time>
      </trkpt>
      <trkpt lat="47.31853" lon="6.05918">
        <ele>591.35</ele>
        <time>2018-07-14T08:54:27Z</time>
      </trkpt>
      <trkpt lat="47.31853" lon="6.05922">
        <ele>591.35</ele>
        <time>2018-07-14T08:54:28Z</time>
      </trkpt>
      <trkpt lat="47.31854" lon="6.05926">
        <ele>591.83</ele>
        <time>2018-07-14T08:54:29Z</time>
      </trkpt>
      <trkpt lat="47.31855" lon="6.05928">
        <ele>592.31</ele>
        <time>2018-07-14T08:54:30Z</time>
      </trkpt>
      <trkpt lat="47.31855" lon="6.05932">
        <ele>592.31</ele>
        <time>2018-07-14T08:54:31Z</time>
      </trkpt>
      <trkpt lat="47.31856" lon="6.05934">
        <ele>592.79</ele>
        <time>2018-07-14T08:54:32Z</time>
      </trkpt>
      <trkpt lat="47.31856" lon="6.05937">
        <ele>592.79</ele>
        <time>2018-07-14T08:54:33Z</time>
      </trkpt>
      <trkpt lat="47.31857" lon="6.05938">
        <ele>592.79</ele>
        <time>2018-07-14T08:54:34Z</time>
      </trkpt>
      <trkpt lat="47.31858" lon="6.0594">
        <ele>592.79</ele>
        <time>2018-07-14T08:54:35Z</time>
      </trkpt>
      <trkpt lat="47.3186" lon="6.05942">
        <ele>592.79</ele>
        <time>2018-07-14T08:54:36Z</time>
      </trkpt>
      <trkpt lat="47.31862" lon="6.05944">
        <ele>593.27</ele>
        <time>2018-07-14T08:54:37Z</time>
      </trkpt>
      <trkpt lat="47.31874" lon="6.05964">
        <ele>594.23</ele>
        <time>2018-07-14T08:54:47Z</time>
      </trkpt>
      <trkpt lat="47.31876" lon="6.05966">
        <ele>594.71</ele>
        <time>2018-07-14T08:54:48Z</time>
      </trkpt>
      <trkpt lat="47.31879" lon="6.05971">
        <ele>595.19</ele>
        <time>2018-07-14T08:54:57Z</time>
      </trkpt>
      <trkpt lat="47.31881" lon="6.05973">
        <ele>595.19</ele>
        <time>2018-07-14T08:55:11Z</time>
      </trkpt>
      <trkpt lat="47.31879" lon="6.05975">
        <ele>595.19</ele>
        <time>2018-07-14T08:55:36Z</time>
      </trkpt>
      <trkpt lat="47.31879" lon="6.05973">
        <ele>595.67</ele>
        <time>2018-07-14T08:55:59Z</time>
      </trkpt>
      <trkpt lat="47.31879" lon="6.05973">
        <ele>595.67</ele>
        <time>2018-07-14T08:56:29Z</time>
      </trkpt>
      <trkpt lat="47.31879" lon="6.05975">
        <ele>595.67</ele>
        <time>2018-07-14T08:56:44Z</time>
      </trkpt>
      <trkpt lat="47.31879" lon="6.05976">
        <ele>596.15</ele>
        <time>2018-07-14T08:57:05Z</time>
      </trkpt>
      <trkpt lat="47.31878" lon="6.05978">
        <ele>596.15</ele>
        <time>2018-07-14T08:57:28Z</time>
      </trkpt>
      <trkpt lat="47.31879" lon="6.05977">
        <ele>596.64</ele>
        <time>2018-07-14T08:57:56Z</time>
      </trkpt>
      <trkpt lat="47.31879" lon="6.05977">
        <ele>596.64</ele>
        <time>2018-07-14T08:58:22Z</time>
      </trkpt>
      <trkpt lat="47.3188" lon="6.05978">
        <ele>596.64</ele>
        <time>2018-07-14T08:58:44Z</time>
      </trkpt>
      <trkpt lat="47.3188" lon="6.05977">
        <ele>597.12</ele>
        <time>2018-07-14T08:59:11Z</time>
      </trkpt>
      <trkpt lat="47.3188" lon="6.05977">
        <ele>597.12</ele>
        <time>2018-07-14T08:59:32Z</time>
      </trkpt>
      <trkpt lat="47.31879" lon="6.05975">
        <ele>597.12</ele>
        <time>2018-07-14T08:59:53Z</time>
      </trkpt>
      <trkpt lat="47.31878" lon="6.05976">
        <ele>597.12</ele>
        <time>2018-07-14T09:00:17Z</time>
      </trkpt>
      <trkpt lat="47.31878" lon="6.05977">
        <ele>597.12</ele>
        <time>2018-07-14T09:00:38Z</time>
      </trkpt>
      <trkpt lat="47.3188" lon="6.05977">
        <ele>597.12</ele>
        <time>2018-07-14T09:00:54Z</time>
      </trkpt>
      <trkpt lat="47.3188" lon="6.05977">
        <ele>597.12</ele>
        <time>2018-07-14T09:01:16Z</time>
      </trkpt>
      <trkpt lat="47.31881" lon="6.05976">
        <ele>597.6</ele>
        <time>2018-07-14T09:01:37Z</time>
      </trkpt>
      <trkpt lat="47.31882" lon="6.05975">
        <ele>597.6</ele>
        <time>2018-07-14T09:01:55Z</time>
      </trkpt>
      <trkpt lat="47.31882" lon="6.05975">
        <ele>597.6</ele>
        <time>2018-07-14T09:02:14Z</time>
      </trkpt>
      <trkpt lat="47.31882" lon="6.05975">
        <ele>597.6</ele>
        <time>2018-07-14T09:02:27Z</time>
      </trkpt>
      <trkpt lat="47.31882" lon="6.05976">
        <ele>597.6</ele>
        <time>2018-07-14T09:02:43Z</time>
      </trkpt>
      <trkpt lat="47.31883" lon="6.05976">
        <ele>597.6</ele>
        <time>2018-07-14T09:03:01Z</time>
      </trkpt>
      <trkpt lat="47.31883" lon="6.05976">
        <ele>597.6</ele>
        <time>2018-07-14T09:03:22Z</time>
      </trkpt>
      <trkpt lat="47.31884" lon="6.05976">
        <ele>597.6</ele>
        <time>2018-07-14T09:03:44Z</time>
      </trkpt>
      <trkpt lat="47.31884" lon="6.05976">
        <ele>598.08</ele>
        <time>2018-07-14T09:04:05Z</time>
      </trkpt>
      <trkpt lat="47.31884" lon="6.05977">
        <ele>597.6</ele>
        <time>2018-07-14T09:04:32Z</time>
      </trkpt>
      <trkpt lat="47.31884" lon="6.05977">
        <ele>598.08</ele>
        <time>2018-07-14T09:04:48Z</time>
      </trkpt>
      <trkpt lat="47.31884" lon="6.05975">
        <ele>598.08</ele>
        <time>2018-07-14T09:05:08Z</time>
      </trkpt>
      <trkpt lat="47.31884" lon="6.05976">
        <ele>598.08</ele>
        <time>2018-07-14T09:05:30Z</time>
      </trkpt>
      <trkpt lat="47.31884" lon="6.0598">
        <ele>598.08</ele>
        <time>2018-07-14T09:05:47Z</time>
      </trkpt>
      <trkpt lat="47.31884" lon="6.05979">
        <ele>598.08</ele>
        <time>2018-07-14T09:05:49Z</time>
      </trkpt>
      <trkpt lat="47.31881" lon="6.05976">
        <ele>598.08</ele>
        <time>2018-07-14T09:06:03Z</time>
      </trkpt>
      <trkpt lat="47.31879" lon="6.05977">
        <ele>598.08</ele>
        <time>2018-07-14T09:06:29Z</time>
      </trkpt>
      <trkpt lat="47.31878" lon="6.05976">
        <ele>598.08</ele>
        <time>2018-07-14T09:06:30Z</time>
      </trkpt>
      <trkpt lat="47.31865" lon="6.05974">
        <ele>597.6</ele>
        <time>2018-07-14T09:06:38Z</time>
      </trkpt>
      <trkpt lat="47.3187" lon="6.05989">
        <ele>598.08</ele>
        <time>2018-07-14T09:06:46Z</time>
      </trkpt>
      <trkpt lat="47.3187" lon="6.05991">
        <ele>598.56</ele>
        <time>2018-07-14T09:06:47Z</time>
      </trkpt>
      <trkpt lat="47.31872" lon="6.06008">
        <ele>599.52</ele>
        <time>2018-07-14T09:06:52Z</time>
      </trkpt>
      <trkpt lat="47.3187" lon="6.06019">
        <ele>600</ele>
        <time>2018-07-14T09:06:56Z</time>
      </trkpt>
      <trkpt lat="47.31866" lon="6.06023">
        <ele>600.48</ele>
        <time>2018-07-14T09:06:58Z</time>
      </trkpt>
      <trkpt lat="47.31859" lon="6.06041">
        <ele>600.96</ele>
        <time>2018-07-14T09:07:07Z</time>
      </trkpt>
      <trkpt lat="47.31854" lon="6.06053">
        <ele>601.92</ele>
        <time>2018-07-14T09:07:13Z</time>
      </trkpt>
      <trkpt lat="47.31855" lon="6.06058">
        <ele>601.92</ele>
        <time>2018-07-14T09:07:15Z</time>
      </trkpt>
      <trkpt lat="47.31857" lon="6.06062">
        <ele>602.4</ele>
        <time>2018-07-14T09:07:17Z</time>
      </trkpt>
      <trkpt lat="47.31853" lon="6.0607">
        <ele>602.88</ele>
        <time>2018-07-14T09:07:20Z</time>
      </trkpt>
      <trkpt lat="47.31852" lon="6.06075">
        <ele>602.88</ele>
        <time>2018-07-14T09:07:22Z</time>
      </trkpt>
      <trkpt lat="47.31853" lon="6.06076">
        <ele>602.88</ele>
        <time>2018-07-14T09:07:23Z</time>
      </trkpt>
      <trkpt lat="47.31857" lon="6.0609">
        <ele>602.4</ele>
        <time>2018-07-14T09:07:27Z</time>
      </trkpt>
      <trkpt lat="47.31827" lon="6.06152">
        <ele>600.96</ele>
        <time>2018-07-14T09:07:38Z</time>
      </trkpt>
      <trkpt lat="47.31814" lon="6.06202">
        <ele>598.08</ele>
        <time>2018-07-14T09:07:44Z</time>
      </trkpt>
      <trkpt lat="47.31812" lon="6.06209">
        <ele>597.6</ele>
        <time>2018-07-14T09:07:45Z</time>
      </trkpt>
      <trkpt lat="47.31809" lon="6.06237">
        <ele>597.12</ele>
        <time>2018-07-14T09:07:49Z</time>
      </trkpt>
      <trkpt lat="47.3181" lon="6.06245">
        <ele>597.12</ele>
        <time>2018-07-14T09:07:50Z</time>
      </trkpt>
      <trkpt lat="47.31811" lon="6.06254">
        <ele>597.12</ele>
        <time>2018-07-14T09:07:51Z</time>
      </trkpt>
      <trkpt lat="47.31813" lon="6.06263">
        <ele>597.12</ele>
        <time>2018-07-14T09:07:52Z</time>
      </trkpt>
      <trkpt lat="47.31816" lon="6.06271">
        <ele>597.12</ele>
        <time>2018-07-14T09:07:53Z</time>
      </trkpt>
      <trkpt lat="47.31818" lon="6.06281">
        <ele>597.12</ele>
        <time>2018-07-14T09:07:54Z</time>
      </trkpt>
      <trkpt lat="47.31821" lon="6.06288">
        <ele>597.12</ele>
        <time>2018-07-14T09:07:55Z</time>
      </trkpt>
      <trkpt lat="47.31825" lon="6.06293">
        <ele>597.6</ele>
        <time>2018-07-14T09:07:56Z</time>
      </trkpt>
      <trkpt lat="47.31841" lon="6.06318">
        <ele>599.04</ele>
        <time>2018-07-14T09:08:01Z</time>
      </trkpt>
      <trkpt lat="47.31844" lon="6.06324">
        <ele>599.04</ele>
        <time>2018-07-14T09:08:02Z</time>
      </trkpt>
      <trkpt lat="47.3185" lon="6.06347">
        <ele>600</ele>
        <time>2018-07-14T09:08:06Z</time>
      </trkpt>
      <trkpt lat="47.31851" lon="6.06353">
        <ele>600</ele>
        <time>2018-07-14T09:08:07Z</time>
      </trkpt>
      <trkpt lat="47.31853" lon="6.06358">
        <ele>600.48</ele>
        <time>2018-07-14T09:08:08Z</time>
      </trkpt>
      <trkpt lat="47.31855" lon="6.06363">
        <ele>600.48</ele>
        <time>2018-07-14T09:08:09Z</time>
      </trkpt>
      <trkpt lat="47.31857" lon="6.06367">
        <ele>600.48</ele>
        <time>2018-07-14T09:08:10Z</time>
      </trkpt>
      <trkpt lat="47.31861" lon="6.06369">
        <ele>600.96</ele>
        <time>2018-07-14T09:08:11Z</time>
      </trkpt>
      <trkpt lat="47.31865" lon="6.06372">
        <ele>600.96</ele>
        <time>2018-07-14T09:08:12Z</time>
      </trkpt>
      <trkpt lat="47.31885" lon="6.06396">
        <ele>600.96</ele>
        <time>2018-07-14T09:08:19Z</time>
      </trkpt>
      <trkpt lat="47.31887" lon="6.06401">
        <ele>600.48</ele>
        <time>2018-07-14T09:08:20Z</time>
      </trkpt>
      <trkpt lat="47.31899" lon="6.06425">
        <ele>598.56</ele>
        <time>2018-07-14T09:08:24Z</time>
      </trkpt>
      <trkpt lat="47.31904" lon="6.0643">
        <ele>598.08</ele>
        <time>2018-07-14T09:08:25Z</time>
      </trkpt>
      <trkpt lat="47.31908" lon="6.06434">
        <ele>598.56</ele>
        <time>2018-07-14T09:08:26Z</time>
      </trkpt>
      <trkpt lat="47.31913" lon="6.06437">
        <ele>598.56</ele>
        <time>2018-07-14T09:08:27Z</time>
      </trkpt>
      <trkpt lat="47.31918" lon="6.0644">
        <ele>598.56</ele>
        <time>2018-07-14T09:08:28Z</time>
      </trkpt>
      <trkpt lat="47.31922" lon="6.06443">
        <ele>598.56</ele>
        <time>2018-07-14T09:08:29Z</time>
      </trkpt>
      <trkpt lat="47.31926" lon="6.06446">
        <ele>598.08</ele>
        <time>2018-07-14T09:08:30Z</time>
      </trkpt>
      <trkpt lat="47.31929" lon="6.06449">
        <ele>599.52</ele>
        <time>2018-07-14T09:08:31Z</time>
      </trkpt>
      <trkpt lat="47.31933" lon="6.06451">
        <ele>599.52</ele>
        <time>2018-07-14T09:08:32Z</time>
      </trkpt>
      <trkpt lat="47.31956" lon="6.06475">
        <ele>599.52</ele>
        <time>2018-07-14T09:08:39Z</time>
      </trkpt>
      <trkpt lat="47.3196" lon="6.0648">
        <ele>599.52</ele>
        <time>2018-07-14T09:08:40Z</time>
      </trkpt>
      <trkpt lat="47.31964" lon="6.06486">
        <ele>599.04</ele>
        <time>2018-07-14T09:08:41Z</time>
      </trkpt>
      <trkpt lat="47.31967" lon="6.06493">
        <ele>599.04</ele>
        <time>2018-07-14T09:08:42Z</time>
      </trkpt>
      <trkpt lat="47.31969" lon="6.06501">
        <ele>598.56</ele>
        <time>2018-07-14T09:08:43Z</time>
      </trkpt>
      <trkpt lat="47.31971" lon="6.06509">
        <ele>598.08</ele>
        <time>2018-07-14T09:08:44Z</time>
      </trkpt>
      <trkpt lat="47.31972" lon="6.06518">
        <ele>597.6</ele>
        <time>2018-07-14T09:08:45Z</time>
      </trkpt>
      <trkpt lat="47.31982" lon="6.06566">
        <ele>595.19</ele>
        <time>2018-07-14T09:08:50Z</time>
      </trkpt>
      <trkpt lat="47.31984" lon="6.06576">
        <ele>594.71</ele>
        <time>2018-07-14T09:08:51Z</time>
      </trkpt>
      <trkpt lat="47.31998" lon="6.06625">
        <ele>593.75</ele>
        <time>2018-07-14T09:08:56Z</time>
      </trkpt>
      <trkpt lat="47.32017" lon="6.06725">
        <ele>590.39</ele>
        <time>2018-07-14T09:09:06Z</time>
      </trkpt>
      <trkpt lat="47.32019" lon="6.06734">
        <ele>590.39</ele>
        <time>2018-07-14T09:09:07Z</time>
      </trkpt>
      <trkpt lat="47.32029" lon="6.06773">
        <ele>588.95</ele>
        <time>2018-07-14T09:09:11Z</time>
      </trkpt>
      <trkpt lat="47.32033" lon="6.06793">
        <ele>588.46</ele>
        <time>2018-07-14T09:09:13Z</time>
      </trkpt>
      <trkpt lat="47.32036" lon="6.06802">
        <ele>588.46</ele>
        <time>2018-07-14T09:09:14Z</time>
      </trkpt>
      <trkpt lat="47.32051" lon="6.06874">
        <ele>586.06</ele>
        <time>2018-07-14T09:09:22Z</time>
      </trkpt>
      <trkpt lat="47.32058" lon="6.06894">
        <ele>585.58</ele>
        <time>2018-07-14T09:09:25Z</time>
      </trkpt>
      <trkpt lat="47.32061" lon="6.06902">
        <ele>585.1</ele>
        <time>2018-07-14T09:09:26Z</time>
      </trkpt>
      <trkpt lat="47.32064" lon="6.0691">
        <ele>585.1</ele>
        <time>2018-07-14T09:09:27Z</time>
      </trkpt>
      <trkpt lat="47.32067" lon="6.06919">
        <ele>584.14</ele>
        <time>2018-07-14T09:09:28Z</time>
      </trkpt>
      <trkpt lat="47.32069" lon="6.06929">
        <ele>583.66</ele>
        <time>2018-07-14T09:09:29Z</time>
      </trkpt>
      <trkpt lat="47.32071" lon="6.06939">
        <ele>583.18</ele>
        <time>2018-07-14T09:09:30Z</time>
      </trkpt>
      <trkpt lat="47.32072" lon="6.06949">
        <ele>582.7</ele>
        <time>2018-07-14T09:09:31Z</time>
      </trkpt>
      <trkpt lat="47.32074" lon="6.06958">
        <ele>582.22</ele>
        <time>2018-07-14T09:09:32Z</time>
      </trkpt>
      <trkpt lat="47.32077" lon="6.06967">
        <ele>581.73</ele>
        <time>2018-07-14T09:09:33Z</time>
      </trkpt>
      <trkpt lat="47.32101" lon="6.07025">
        <ele>579.33</ele>
        <time>2018-07-14T09:09:40Z</time>
      </trkpt>
      <trkpt lat="47.32105" lon="6.07034">
        <ele>579.33</ele>
        <time>2018-07-14T09:09:41Z</time>
      </trkpt>
      <trkpt lat="47.32125" lon="6.07075">
        <ele>578.37</ele>
        <time>2018-07-14T09:09:46Z</time>
      </trkpt>
      <trkpt lat="47.32132" lon="6.07092">
        <ele>576.93</ele>
        <time>2018-07-14T09:09:48Z</time>
      </trkpt>
      <trkpt lat="47.32138" lon="6.07107">
        <ele>576.45</ele>
        <time>2018-07-14T09:09:50Z</time>
      </trkpt>
      <trkpt lat="47.3215" lon="6.0713">
        <ele>575.49</ele>
        <time>2018-07-14T09:09:53Z</time>
      </trkpt>
      <trkpt lat="47.32154" lon="6.07139">
        <ele>575.49</ele>
        <time>2018-07-14T09:09:54Z</time>
      </trkpt>
      <trkpt lat="47.32159" lon="6.07147">
        <ele>575.01</ele>
        <time>2018-07-14T09:09:55Z</time>
      </trkpt>
      <trkpt lat="47.32173" lon="6.07178">
        <ele>574.53</ele>
        <time>2018-07-14T09:09:59Z</time>
      </trkpt>
      <trkpt lat="47.32174" lon="6.07187">
        <ele>573.56</ele>
        <time>2018-07-14T09:10:00Z</time>
      </trkpt>
      <trkpt lat="47.32175" lon="6.07197">
        <ele>572.6</ele>
        <time>2018-07-14T09:10:01Z</time>
      </trkpt>
      <trkpt lat="47.32175" lon="6.07207">
        <ele>571.64</ele>
        <time>2018-07-14T09:10:02Z</time>
      </trkpt>
      <trkpt lat="47.32177" lon="6.07216">
        <ele>570.68</ele>
        <time>2018-07-14T09:10:03Z</time>
      </trkpt>
      <trkpt lat="47.3218" lon="6.07224">
        <ele>570.2</ele>
        <time>2018-07-14T09:10:04Z</time>
      </trkpt>
      <trkpt lat="47.32184" lon="6.07231">
        <ele>570.2</ele>
        <time>2018-07-14T09:10:05Z</time>
      </trkpt>
      <trkpt lat="47.32189" lon="6.07247">
        <ele>569.72</ele>
        <time>2018-07-14T09:10:07Z</time>
      </trkpt>
      <trkpt lat="47.32196" lon="6.07284">
        <ele>568.28</ele>
        <time>2018-07-14T09:10:11Z</time>
      </trkpt>
      <trkpt lat="47.32202" lon="6.07303">
        <ele>566.83</ele>
        <time>2018-07-14T09:10:13Z</time>
      </trkpt>
      <trkpt lat="47.32206" lon="6.07312">
        <ele>566.35</ele>
        <time>2018-07-14T09:10:14Z</time>
      </trkpt>
      <trkpt lat="47.32213" lon="6.0733">
        <ele>566.35</ele>
        <time>2018-07-14T09:10:16Z</time>
      </trkpt>
      <trkpt lat="47.32219" lon="6.07344">
        <ele>566.35</ele>
        <time>2018-07-14T09:10:18Z</time>
      </trkpt>
      <trkpt lat="47.32237" lon="6.07385">
        <ele>563.95</ele>
        <time>2018-07-14T09:10:26Z</time>
      </trkpt>
      <trkpt lat="47.32241" lon="6.07409">
        <ele>562.51</ele>
        <time>2018-07-14T09:10:29Z</time>
      </trkpt>
      <trkpt lat="47.32242" lon="6.07417">
        <ele>562.03</ele>
        <time>2018-07-14T09:10:30Z</time>
      </trkpt>
      <trkpt lat="47.32241" lon="6.07424">
        <ele>562.03</ele>
        <time>2018-07-14T09:10:31Z</time>
      </trkpt>
      <trkpt lat="47.32236" lon="6.07455">
        <ele>562.99</ele>
        <time>2018-07-14T09:10:37Z</time>
      </trkpt>
      <trkpt lat="47.32237" lon="6.07458">
        <ele>562.99</ele>
        <time>2018-07-14T09:10:38Z</time>
      </trkpt>
      <trkpt lat="47.32239" lon="6.07461">
        <ele>562.99</ele>
        <time>2018-07-14T09:10:39Z</time>
      </trkpt>
      <trkpt lat="47.3224" lon="6.07464">
        <ele>563.47</ele>
        <time>2018-07-14T09:10:40Z</time>
      </trkpt>
      <trkpt lat="47.3224" lon="6.07466">
        <ele>563.47</ele>
        <time>2018-07-14T09:10:41Z</time>
      </trkpt>
      <trkpt lat="47.32242" lon="6.07469">
        <ele>563.47</ele>
        <time>2018-07-14T09:10:42Z</time>
      </trkpt>
      <trkpt lat="47.32245" lon="6.07471">
        <ele>563.47</ele>
        <time>2018-07-14T09:10:43Z</time>
      </trkpt>
      <trkpt lat="47.32247" lon="6.07474">
        <ele>563.95</ele>
        <time>2018-07-14T09:10:44Z</time>
      </trkpt>
      <trkpt lat="47.3225" lon="6.07476">
        <ele>563.95</ele>
        <time>2018-07-14T09:10:45Z</time>
      </trkpt>
      <trkpt lat="47.32252" lon="6.07478">
        <ele>564.43</ele>
        <time>2018-07-14T09:10:46Z</time>
      </trkpt>
      <trkpt lat="47.32254" lon="6.07481">
        <ele>564.43</ele>
        <time>2018-07-14T09:10:47Z</time>
      </trkpt>
      <trkpt lat="47.32255" lon="6.07486">
        <ele>564.43</ele>
        <time>2018-07-14T09:10:48Z</time>
      </trkpt>
      <trkpt lat="47.32256" lon="6.07491">
        <ele>564.91</ele>
        <time>2018-07-14T09:10:49Z</time>
      </trkpt>
      <trkpt lat="47.32257" lon="6.07494">
        <ele>564.91</ele>
        <time>2018-07-14T09:10:50Z</time>
      </trkpt>
      <trkpt lat="47.32257" lon="6.07499">
        <ele>565.39</ele>
        <time>2018-07-14T09:10:51Z</time>
      </trkpt>
      <trkpt lat="47.32259" lon="6.07508">
        <ele>564.91</ele>
        <time>2018-07-14T09:10:53Z</time>
      </trkpt>
      <trkpt lat="47.32259" lon="6.07513">
        <ele>565.39</ele>
        <time>2018-07-14T09:10:54Z</time>
      </trkpt>
      <trkpt lat="47.32259" lon="6.07571">
        <ele>566.83</ele>
        <time>2018-07-14T09:11:06Z</time>
      </trkpt>
      <trkpt lat="47.32253" lon="6.07623">
        <ele>567.8</ele>
        <time>2018-07-14T09:11:16Z</time>
      </trkpt>
      <trkpt lat="47.32246" lon="6.07678">
        <ele>569.72</ele>
        <time>2018-07-14T09:11:26Z</time>
      </trkpt>
      <trkpt lat="47.32251" lon="6.07734">
        <ele>570.68</ele>
        <time>2018-07-14T09:11:37Z</time>
      </trkpt>
      <trkpt lat="47.32245" lon="6.07782">
        <ele>572.6</ele>
        <time>2018-07-14T09:11:48Z</time>
      </trkpt>
      <trkpt lat="47.32244" lon="6.07823">
        <ele>573.56</ele>
        <time>2018-07-14T09:11:56Z</time>
      </trkpt>
      <trkpt lat="47.32244" lon="6.07887">
        <ele>575.49</ele>
        <time>2018-07-14T09:12:09Z</time>
      </trkpt>
      <trkpt lat="47.32243" lon="6.07944">
        <ele>577.41</ele>
        <time>2018-07-14T09:12:21Z</time>
      </trkpt>
      <trkpt lat="47.32244" lon="6.0796">
        <ele>581.73</ele>
        <time>2018-07-14T09:12:25Z</time>
      </trkpt>
      <trkpt lat="47.32244" lon="6.07965">
        <ele>578.37</ele>
        <time>2018-07-14T09:12:26Z</time>
      </trkpt>
      <trkpt lat="47.32249" lon="6.0801">
        <ele>579.33</ele>
        <time>2018-07-14T09:12:36Z</time>
      </trkpt>
      <trkpt lat="47.32253" lon="6.08064">
        <ele>580.77</ele>
        <time>2018-07-14T09:12:48Z</time>
      </trkpt>
      <trkpt lat="47.32258" lon="6.08079">
        <ele>580.77</ele>
        <time>2018-07-14T09:12:51Z</time>
      </trkpt>
      <trkpt lat="47.32258" lon="6.08084">
        <ele>581.25</ele>
        <time>2018-07-14T09:12:52Z</time>
      </trkpt>
      <trkpt lat="47.32258" lon="6.08088">
        <ele>581.25</ele>
        <time>2018-07-14T09:12:53Z</time>
      </trkpt>
      <trkpt lat="47.32258" lon="6.08093">
        <ele>581.73</ele>
        <time>2018-07-14T09:12:54Z</time>
      </trkpt>
      <trkpt lat="47.32258" lon="6.08097">
        <ele>581.25</ele>
        <time>2018-07-14T09:12:55Z</time>
      </trkpt>
      <trkpt lat="47.3226" lon="6.08143">
        <ele>582.7</ele>
        <time>2018-07-14T09:13:05Z</time>
      </trkpt>
      <trkpt lat="47.32259" lon="6.08148">
        <ele>582.7</ele>
        <time>2018-07-14T09:13:06Z</time>
      </trkpt>
      <trkpt lat="47.32265" lon="6.08188">
        <ele>583.66</ele>
        <time>2018-07-14T09:13:16Z</time>
      </trkpt>
      <trkpt lat="47.32266" lon="6.08206">
        <ele>584.14</ele>
        <time>2018-07-14T09:13:21Z</time>
      </trkpt>
      <trkpt lat="47.32283" lon="6.08256">
        <ele>584.14</ele>
        <time>2018-07-14T09:13:31Z</time>
      </trkpt>
      <trkpt lat="47.32289" lon="6.08264">
        <ele>585.1</ele>
        <time>2018-07-14T09:13:33Z</time>
      </trkpt>
      <trkpt lat="47.3229" lon="6.08268">
        <ele>585.1</ele>
        <time>2018-07-14T09:13:34Z</time>
      </trkpt>
      <trkpt lat="47.3229" lon="6.08273">
        <ele>585.1</ele>
        <time>2018-07-14T09:13:35Z</time>
      </trkpt>
      <trkpt lat="47.3229" lon="6.08293">
        <ele>585.1</ele>
        <time>2018-07-14T09:13:40Z</time>
      </trkpt>
      <trkpt lat="47.3228" lon="6.0833">
        <ele>586.06</ele>
        <time>2018-07-14T09:13:52Z</time>
      </trkpt>
      <trkpt lat="47.32278" lon="6.08353">
        <ele>586.06</ele>
        <time>2018-07-14T09:13:57Z</time>
      </trkpt>
      <trkpt lat="47.32278" lon="6.08357">
        <ele>586.06</ele>
        <time>2018-07-14T09:13:58Z</time>
      </trkpt>
      <trkpt lat="47.32278" lon="6.08381">
        <ele>586.06</ele>
        <time>2018-07-14T09:14:02Z</time>
      </trkpt>
      <trkpt lat="47.32278" lon="6.08387">
        <ele>586.06</ele>
        <time>2018-07-14T09:14:03Z</time>
      </trkpt>
      <trkpt lat="47.3228" lon="6.08402">
        <ele>586.06</ele>
        <time>2018-07-14T09:14:06Z</time>
      </trkpt>
      <trkpt lat="47.32282" lon="6.08406">
        <ele>586.54</ele>
        <time>2018-07-14T09:14:07Z</time>
      </trkpt>
      <trkpt lat="47.32292" lon="6.08425">
        <ele>586.06</ele>
        <time>2018-07-14T09:14:10Z</time>
      </trkpt>
      <trkpt lat="47.32294" lon="6.08432">
        <ele>586.06</ele>
        <time>2018-07-14T09:14:11Z</time>
      </trkpt>
      <trkpt lat="47.32312" lon="6.08481">
        <ele>585.58</ele>
        <time>2018-07-14T09:14:20Z</time>
      </trkpt>
      <trkpt lat="47.32319" lon="6.08534">
        <ele>586.06</ele>
        <time>2018-07-14T09:14:30Z</time>
      </trkpt>
      <trkpt lat="47.32328" lon="6.08578">
        <ele>585.58</ele>
        <time>2018-07-14T09:14:38Z</time>
      </trkpt>
      <trkpt lat="47.32328" lon="6.08622">
        <ele>585.1</ele>
        <time>2018-07-14T09:14:47Z</time>
      </trkpt>
      <trkpt lat="47.32329" lon="6.08638">
        <ele>585.1</ele>
        <time>2018-07-14T09:14:49Z</time>
      </trkpt>
      <trkpt lat="47.32329" lon="6.08644">
        <ele>585.58</ele>
        <time>2018-07-14T09:14:50Z</time>
      </trkpt>
      <trkpt lat="47.32331" lon="6.08651">
        <ele>585.1</ele>
        <time>2018-07-14T09:14:51Z</time>
      </trkpt>
      <trkpt lat="47.32337" lon="6.08674">
        <ele>585.1</ele>
        <time>2018-07-14T09:14:55Z</time>
      </trkpt>
      <trkpt lat="47.32339" lon="6.0868">
        <ele>585.1</ele>
        <time>2018-07-14T09:14:56Z</time>
      </trkpt>
      <trkpt lat="47.32354" lon="6.08709">
        <ele>585.1</ele>
        <time>2018-07-14T09:15:00Z</time>
      </trkpt>
      <trkpt lat="47.3236" lon="6.08716">
        <ele>585.1</ele>
        <time>2018-07-14T09:15:01Z</time>
      </trkpt>
      <trkpt lat="47.32386" lon="6.08778">
        <ele>585.1</ele>
        <time>2018-07-14T09:15:11Z</time>
      </trkpt>
      <trkpt lat="47.32393" lon="6.08824">
        <ele>584.62</ele>
        <time>2018-07-14T09:15:19Z</time>
      </trkpt>
      <trkpt lat="47.32407" lon="6.08889">
        <ele>584.14</ele>
        <time>2018-07-14T09:15:30Z</time>
      </trkpt>
      <trkpt lat="47.32419" lon="6.08959">
        <ele>584.14</ele>
        <time>2018-07-14T09:15:41Z</time>
      </trkpt>
      <trkpt lat="47.32428" lon="6.09">
        <ele>583.66</ele>
        <time>2018-07-14T09:15:47Z</time>
      </trkpt>
      <trkpt lat="47.3243" lon="6.09007">
        <ele>583.66</ele>
        <time>2018-07-14T09:15:48Z</time>
      </trkpt>
      <trkpt lat="47.32434" lon="6.09027">
        <ele>583.18</ele>
        <time>2018-07-14T09:15:51Z</time>
      </trkpt>
      <trkpt lat="47.32443" lon="6.09095">
        <ele>582.22</ele>
        <time>2018-07-14T09:16:01Z</time>
      </trkpt>
      <trkpt lat="47.32448" lon="6.09133">
        <ele>581.73</ele>
        <time>2018-07-14T09:16:07Z</time>
      </trkpt>
      <trkpt lat="47.32469" lon="6.09188">
        <ele>579.81</ele>
        <time>2018-07-14T09:16:15Z</time>
      </trkpt>
      <trkpt lat="47.32472" lon="6.09195">
        <ele>579.81</ele>
        <time>2018-07-14T09:16:16Z</time>
      </trkpt>
      <trkpt lat="47.32474" lon="6.09202">
        <ele>579.81</ele>
        <time>2018-07-14T09:16:17Z</time>
      </trkpt>
      <trkpt lat="47.32474" lon="6.09208">
        <ele>579.33</ele>
        <time>2018-07-14T09:16:18Z</time>
      </trkpt>
      <trkpt lat="47.32474" lon="6.09214">
        <ele>579.33</ele>
        <time>2018-07-14T09:16:19Z</time>
      </trkpt>
      <trkpt lat="47.32479" lon="6.09228">
        <ele>579.33</ele>
        <time>2018-07-14T09:16:21Z</time>
      </trkpt>
      <trkpt lat="47.32495" lon="6.09283">
        <ele>578.37</ele>
        <time>2018-07-14T09:16:29Z</time>
      </trkpt>
      <trkpt lat="47.32497" lon="6.09291">
        <ele>578.37</ele>
        <time>2018-07-14T09:16:30Z</time>
      </trkpt>
      <trkpt lat="47.32498" lon="6.09307">
        <ele>577.89</ele>
        <time>2018-07-14T09:16:32Z</time>
      </trkpt>
      <trkpt lat="47.32509" lon="6.09376">
        <ele>577.41</ele>
        <time>2018-07-14T09:16:41Z</time>
      </trkpt>
      <trkpt lat="47.32511" lon="6.09384">
        <ele>577.41</ele>
        <time>2018-07-14T09:16:42Z</time>
      </trkpt>
      <trkpt lat="47.32513" lon="6.09391">
        <ele>576.93</ele>
        <time>2018-07-14T09:16:43Z</time>
      </trkpt>
      <trkpt lat="47.32518" lon="6.09408">
        <ele>576.93</ele>
        <time>2018-07-14T09:16:45Z</time>
      </trkpt>
      <trkpt lat="47.32519" lon="6.09416">
        <ele>576.45</ele>
        <time>2018-07-14T09:16:46Z</time>
      </trkpt>
      <trkpt lat="47.32519" lon="6.09425">
        <ele>575.97</ele>
        <time>2018-07-14T09:16:47Z</time>
      </trkpt>
      <trkpt lat="47.32523" lon="6.09485">
        <ele>575.49</ele>
        <time>2018-07-14T09:16:56Z</time>
      </trkpt>
      <trkpt lat="47.32523" lon="6.09488">
        <ele>575.49</ele>
        <time>2018-07-14T09:16:57Z</time>
      </trkpt>
      <trkpt lat="47.32524" lon="6.0949">
        <ele>575.49</ele>
        <time>2018-07-14T09:16:58Z</time>
      </trkpt>
      <trkpt lat="47.32525" lon="6.09492">
        <ele>575.97</ele>
        <time>2018-07-14T09:16:59Z</time>
      </trkpt>
      <trkpt lat="47.32527" lon="6.09514">
        <ele>575.97</ele>
        <time>2018-07-14T09:17:05Z</time>
      </trkpt>
      <trkpt lat="47.32527" lon="6.09517">
        <ele>575.97</ele>
        <time>2018-07-14T09:17:06Z</time>
      </trkpt>
      <trkpt lat="47.32527" lon="6.09519">
        <ele>575.49</ele>
        <time>2018-07-14T09:17:07Z</time>
      </trkpt>
      <trkpt lat="47.32528" lon="6.09522">
        <ele>575.49</ele>
        <time>2018-07-14T09:17:08Z</time>
      </trkpt>
      <trkpt lat="47.3253" lon="6.09525">
        <ele>575.49</ele>
        <time>2018-07-14T09:17:09Z</time>
      </trkpt>
      <trkpt lat="47.32531" lon="6.0953">
        <ele>575.01</ele>
        <time>2018-07-14T09:17:10Z</time>
      </trkpt>
      <trkpt lat="47.32531" lon="6.09533">
        <ele>575.01</ele>
        <time>2018-07-14T09:17:11Z</time>
      </trkpt>
      <trkpt lat="47.32533" lon="6.09536">
        <ele>575.49</ele>
        <time>2018-07-14T09:17:12Z</time>
      </trkpt>
      <trkpt lat="47.32535" lon="6.09535">
        <ele>575.49</ele>
        <time>2018-07-14T09:17:21Z</time>
      </trkpt>
      <trkpt lat="47.32534" lon="6.09533">
        <ele>575.49</ele>
        <time>2018-07-14T09:17:22Z</time>
      </trkpt>
      <trkpt lat="47.32533" lon="6.09531">
        <ele>575.49</ele>
        <time>2018-07-14T09:17:23Z</time>
      </trkpt>
      <trkpt lat="47.32533" lon="6.09529">
        <ele>575.49</ele>
        <time>2018-07-14T09:17:24Z</time>
      </trkpt>
      <trkpt lat="47.32533" lon="6.09527">
        <ele>575.49</ele>
        <time>2018-07-14T09:17:25Z</time>
      </trkpt>
      <trkpt lat="47.32532" lon="6.09525">
        <ele>575.49</ele>
        <time>2018-07-14T09:17:26Z</time>
      </trkpt>
      <trkpt lat="47.3253" lon="6.09523">
        <ele>575.49</ele>
        <time>2018-07-14T09:17:27Z</time>
      </trkpt>
      <trkpt lat="47.32529" lon="6.0952">
        <ele>575.49</ele>
        <time>2018-07-14T09:17:28Z</time>
      </trkpt>
      <trkpt lat="47.32528" lon="6.09518">
        <ele>575.97</ele>
        <time>2018-07-14T09:17:29Z</time>
      </trkpt>
      <trkpt lat="47.32527" lon="6.0951">
        <ele>575.49</ele>
        <time>2018-07-14T09:17:33Z</time>
      </trkpt>
      <trkpt lat="47.32527" lon="6.09507">
        <ele>575.01</ele>
        <time>2018-07-14T09:17:34Z</time>
      </trkpt>
      <trkpt lat="47.32526" lon="6.09505">
        <ele>575.01</ele>
        <time>2018-07-14T09:17:35Z</time>
      </trkpt>
      <trkpt lat="47.32525" lon="6.09502">
        <ele>575.01</ele>
        <time>2018-07-14T09:17:36Z</time>
      </trkpt>
      <trkpt lat="47.32524" lon="6.09499">
        <ele>574.53</ele>
        <time>2018-07-14T09:17:37Z</time>
      </trkpt>
      <trkpt lat="47.32523" lon="6.09496">
        <ele>574.53</ele>
        <time>2018-07-14T09:17:38Z</time>
      </trkpt>
      <trkpt lat="47.32522" lon="6.09493">
        <ele>574.04</ele>
        <time>2018-07-14T09:17:39Z</time>
      </trkpt>
      <trkpt lat="47.3252" lon="6.09492">
        <ele>573.56</ele>
        <time>2018-07-14T09:17:40Z</time>
      </trkpt>
      <trkpt lat="47.32513" lon="6.09489">
        <ele>572.6</ele>
        <time>2018-07-14T09:17:42Z</time>
      </trkpt>
      <trkpt lat="47.32508" lon="6.09491">
        <ele>572.12</ele>
        <time>2018-07-14T09:17:43Z</time>
      </trkpt>
      <trkpt lat="47.32503" lon="6.09491">
        <ele>571.64</ele>
        <time>2018-07-14T09:17:44Z</time>
      </trkpt>
      <trkpt lat="47.32497" lon="6.0949">
        <ele>571.16</ele>
        <time>2018-07-14T09:17:45Z</time>
      </trkpt>
      <trkpt lat="47.32491" lon="6.09487">
        <ele>570.68</ele>
        <time>2018-07-14T09:17:46Z</time>
      </trkpt>
      <trkpt lat="47.32485" lon="6.09483">
        <ele>570.68</ele>
        <time>2018-07-14T09:17:47Z</time>
      </trkpt>
      <trkpt lat="47.32475" lon="6.09476">
        <ele>570.2</ele>
        <time>2018-07-14T09:17:49Z</time>
      </trkpt>
      <trkpt lat="47.3245" lon="6.09483">
        <ele>568.28</ele>
        <time>2018-07-14T09:17:53Z</time>
      </trkpt>
      <trkpt lat="47.32414" lon="6.09504">
        <ele>564.43</ele>
        <time>2018-07-14T09:17:59Z</time>
      </trkpt>
      <trkpt lat="47.3241" lon="6.09508">
        <ele>563.95</ele>
        <time>2018-07-14T09:18:00Z</time>
      </trkpt>
      <trkpt lat="47.32404" lon="6.09511">
        <ele>563.47</ele>
        <time>2018-07-14T09:18:01Z</time>
      </trkpt>
      <trkpt lat="47.32389" lon="6.0953">
        <ele>558.18</ele>
        <time>2018-07-14T09:18:06Z</time>
      </trkpt>
      <trkpt lat="47.32381" lon="6.09543">
        <ele>554.34</ele>
        <time>2018-07-14T09:18:09Z</time>
      </trkpt>
      <trkpt lat="47.32374" lon="6.09554">
        <ele>550.97</ele>
        <time>2018-07-14T09:18:12Z</time>
      </trkpt>
      <trkpt lat="47.32369" lon="6.09564">
        <ele>547.61</ele>
        <time>2018-07-14T09:18:14Z</time>
      </trkpt>
      <trkpt lat="47.32358" lon="6.09578">
        <ele>543.76</ele>
        <time>2018-07-14T09:18:17Z</time>
      </trkpt>
      <trkpt lat="47.32348" lon="6.09593">
        <ele>540.4</ele>
        <time>2018-07-14T09:18:20Z</time>
      </trkpt>
      <trkpt lat="47.32344" lon="6.09602">
        <ele>537.99</ele>
        <time>2018-07-14T09:18:22Z</time>
      </trkpt>
      <trkpt lat="47.32341" lon="6.09608">
        <ele>534.63</ele>
        <time>2018-07-14T09:18:25Z</time>
      </trkpt>
      <trkpt lat="47.32339" lon="6.09607">
        <ele>533.67</ele>
        <time>2018-07-14T09:18:27Z</time>
      </trkpt>
      <trkpt lat="47.32338" lon="6.09571">
        <ele>530.79</ele>
        <time>2018-07-14T09:18:35Z</time>
      </trkpt>
      <trkpt lat="47.32337" lon="6.0956">
        <ele>529.34</ele>
        <time>2018-07-14T09:18:37Z</time>
      </trkpt>
      <trkpt lat="47.32337" lon="6.09553">
        <ele>528.86</ele>
        <time>2018-07-14T09:18:38Z</time>
      </trkpt>
      <trkpt lat="47.32337" lon="6.09545">
        <ele>527.9</ele>
        <time>2018-07-14T09:18:39Z</time>
      </trkpt>
      <trkpt lat="47.32334" lon="6.09521">
        <ele>525.5</ele>
        <time>2018-07-14T09:18:42Z</time>
      </trkpt>
      <trkpt lat="47.3233" lon="6.09491">
        <ele>522.13</ele>
        <time>2018-07-14T09:18:46Z</time>
      </trkpt>
      <trkpt lat="47.32324" lon="6.09473">
        <ele>519.73</ele>
        <time>2018-07-14T09:18:48Z</time>
      </trkpt>
      <trkpt lat="47.3232" lon="6.09465">
        <ele>518.77</ele>
        <time>2018-07-14T09:18:49Z</time>
      </trkpt>
      <trkpt lat="47.32314" lon="6.09456">
        <ele>518.29</ele>
        <time>2018-07-14T09:18:50Z</time>
      </trkpt>
      <trkpt lat="47.32308" lon="6.09447">
        <ele>517.33</ele>
        <time>2018-07-14T09:18:51Z</time>
      </trkpt>
      <trkpt lat="47.32304" lon="6.09438">
        <ele>515.88</ele>
        <time>2018-07-14T09:18:52Z</time>
      </trkpt>
      <trkpt lat="47.32298" lon="6.09429">
        <ele>513.48</ele>
        <time>2018-07-14T09:18:53Z</time>
      </trkpt>
      <trkpt lat="47.32277" lon="6.09395">
        <ele>510.6</ele>
        <time>2018-07-14T09:18:57Z</time>
      </trkpt>
      <trkpt lat="47.32265" lon="6.09377">
        <ele>508.19</ele>
        <time>2018-07-14T09:18:59Z</time>
      </trkpt>
      <trkpt lat="47.32243" lon="6.09341">
        <ele>505.31</ele>
        <time>2018-07-14T09:19:03Z</time>
      </trkpt>
      <trkpt lat="47.32231" lon="6.09315">
        <ele>501.95</ele>
        <time>2018-07-14T09:19:06Z</time>
      </trkpt>
      <trkpt lat="47.32228" lon="6.0931">
        <ele>500.98</ele>
        <time>2018-07-14T09:19:07Z</time>
      </trkpt>
      <trkpt lat="47.32218" lon="6.09291">
        <ele>496.66</ele>
        <time>2018-07-14T09:19:10Z</time>
      </trkpt>
      <trkpt lat="47.32206" lon="6.0927">
        <ele>493.29</ele>
        <time>2018-07-14T09:19:13Z</time>
      </trkpt>
      <trkpt lat="47.32192" lon="6.09247">
        <ele>488.97</ele>
        <time>2018-07-14T09:19:16Z</time>
      </trkpt>
      <trkpt lat="47.32176" lon="6.09218">
        <ele>485.12</ele>
        <time>2018-07-14T09:19:19Z</time>
      </trkpt>
      <trkpt lat="47.32164" lon="6.09193">
        <ele>484.16</ele>
        <time>2018-07-14T09:19:22Z</time>
      </trkpt>
      <trkpt lat="47.3216" lon="6.09186">
        <ele>483.68</ele>
        <time>2018-07-14T09:19:23Z</time>
      </trkpt>
      <trkpt lat="47.32156" lon="6.09179">
        <ele>483.2</ele>
        <time>2018-07-14T09:19:24Z</time>
      </trkpt>
      <trkpt lat="47.32135" lon="6.09142">
        <ele>480.32</ele>
        <time>2018-07-14T09:19:29Z</time>
      </trkpt>
      <trkpt lat="47.32132" lon="6.09133">
        <ele>479.84</ele>
        <time>2018-07-14T09:19:30Z</time>
      </trkpt>
      <trkpt lat="47.32123" lon="6.09106">
        <ele>477.43</ele>
        <time>2018-07-14T09:19:33Z</time>
      </trkpt>
      <trkpt lat="47.32121" lon="6.091">
        <ele>476.95</ele>
        <time>2018-07-14T09:19:34Z</time>
      </trkpt>
      <trkpt lat="47.32117" lon="6.09093">
        <ele>475.99</ele>
        <time>2018-07-14T09:19:35Z</time>
      </trkpt>
      <trkpt lat="47.32112" lon="6.09081">
        <ele>475.03</ele>
        <time>2018-07-14T09:19:37Z</time>
      </trkpt>
      <trkpt lat="47.3211" lon="6.09073">
        <ele>474.07</ele>
        <time>2018-07-14T09:19:38Z</time>
      </trkpt>
      <trkpt lat="47.32095" lon="6.09038">
        <ele>471.18</ele>
        <time>2018-07-14T09:19:42Z</time>
      </trkpt>
      <trkpt lat="47.32086" lon="6.09017">
        <ele>467.82</ele>
        <time>2018-07-14T09:19:44Z</time>
      </trkpt>
      <trkpt lat="47.32065" lon="6.08966">
        <ele>464.93</ele>
        <time>2018-07-14T09:19:49Z</time>
      </trkpt>
      <trkpt lat="47.32058" lon="6.08946">
        <ele>463.97</ele>
        <time>2018-07-14T09:19:51Z</time>
      </trkpt>
      <trkpt lat="47.32046" lon="6.08918">
        <ele>461.57</ele>
        <time>2018-07-14T09:19:54Z</time>
      </trkpt>
      <trkpt lat="47.32038" lon="6.08883">
        <ele>460.13</ele>
        <time>2018-07-14T09:19:57Z</time>
      </trkpt>
      <trkpt lat="47.32036" lon="6.08872">
        <ele>460.13</ele>
        <time>2018-07-14T09:19:58Z</time>
      </trkpt>
      <trkpt lat="47.32011" lon="6.08768">
        <ele>457.24</ele>
        <time>2018-07-14T09:20:09Z</time>
      </trkpt>
      <trkpt lat="47.32009" lon="6.08761">
        <ele>457.24</ele>
        <time>2018-07-14T09:20:10Z</time>
      </trkpt>
      <trkpt lat="47.31988" lon="6.08686">
        <ele>455.8</ele>
        <time>2018-07-14T09:20:19Z</time>
      </trkpt>
      <trkpt lat="47.3198" lon="6.0866">
        <ele>454.84</ele>
        <time>2018-07-14T09:20:22Z</time>
      </trkpt>
      <trkpt lat="47.31976" lon="6.08651">
        <ele>454.84</ele>
        <time>2018-07-14T09:20:23Z</time>
      </trkpt>
      <trkpt lat="47.31954" lon="6.08607">
        <ele>452.92</ele>
        <time>2018-07-14T09:20:28Z</time>
      </trkpt>
      <trkpt lat="47.31949" lon="6.08599">
        <ele>452.44</ele>
        <time>2018-07-14T09:20:29Z</time>
      </trkpt>
      <trkpt lat="47.31944" lon="6.08591">
        <ele>452.44</ele>
        <time>2018-07-14T09:20:30Z</time>
      </trkpt>
      <trkpt lat="47.3193" lon="6.0856">
        <ele>451</ele>
        <time>2018-07-14T09:20:33Z</time>
      </trkpt>
      <trkpt lat="47.31923" lon="6.08541">
        <ele>450.52</ele>
        <time>2018-07-14T09:20:35Z</time>
      </trkpt>
      <trkpt lat="47.31915" lon="6.08516">
        <ele>450.52</ele>
        <time>2018-07-14T09:20:38Z</time>
      </trkpt>
      <trkpt lat="47.31911" lon="6.08508">
        <ele>450.03</ele>
        <time>2018-07-14T09:20:39Z</time>
      </trkpt>
      <trkpt lat="47.31898" lon="6.0848">
        <ele>449.55</ele>
        <time>2018-07-14T09:20:42Z</time>
      </trkpt>
      <trkpt lat="47.31876" lon="6.08445">
        <ele>449.55</ele>
        <time>2018-07-14T09:20:46Z</time>
      </trkpt>
      <trkpt lat="47.31849" lon="6.08409">
        <ele>449.07</ele>
        <time>2018-07-14T09:20:50Z</time>
      </trkpt>
      <trkpt lat="47.31813" lon="6.08348">
        <ele>448.59</ele>
        <time>2018-07-14T09:20:57Z</time>
      </trkpt>
      <trkpt lat="47.31778" lon="6.08271">
        <ele>447.15</ele>
        <time>2018-07-14T09:21:06Z</time>
      </trkpt>
      <trkpt lat="47.31775" lon="6.0824">
        <ele>446.67</ele>
        <time>2018-07-14T09:21:12Z</time>
      </trkpt>
      <trkpt lat="47.31773" lon="6.08235">
        <ele>446.19</ele>
        <time>2018-07-14T09:21:13Z</time>
      </trkpt>
      <trkpt lat="47.3177" lon="6.0822">
        <ele>445.71</ele>
        <time>2018-07-14T09:21:15Z</time>
      </trkpt>
      <trkpt lat="47.31754" lon="6.08185">
        <ele>443.79</ele>
        <time>2018-07-14T09:21:19Z</time>
      </trkpt>
      <trkpt lat="47.31736" lon="6.08136">
        <ele>441.38</ele>
        <time>2018-07-14T09:21:24Z</time>
      </trkpt>
      <trkpt lat="47.31721" lon="6.08079">
        <ele>438.98</ele>
        <time>2018-07-14T09:21:30Z</time>
      </trkpt>
      <trkpt lat="47.31718" lon="6.0807">
        <ele>438.5</ele>
        <time>2018-07-14T09:21:31Z</time>
      </trkpt>
      <trkpt lat="47.31715" lon="6.08061">
        <ele>438.02</ele>
        <time>2018-07-14T09:21:32Z</time>
      </trkpt>
      <trkpt lat="47.317" lon="6.07993">
        <ele>435.13</ele>
        <time>2018-07-14T09:21:39Z</time>
      </trkpt>
      <trkpt lat="47.31698" lon="6.07984">
        <ele>434.17</ele>
        <time>2018-07-14T09:21:40Z</time>
      </trkpt>
      <trkpt lat="47.31695" lon="6.07976">
        <ele>434.17</ele>
        <time>2018-07-14T09:21:41Z</time>
      </trkpt>
      <trkpt lat="47.3169" lon="6.07942">
        <ele>433.21</ele>
        <time>2018-07-14T09:21:45Z</time>
      </trkpt>
      <trkpt lat="47.31688" lon="6.07914">
        <ele>431.29</ele>
        <time>2018-07-14T09:21:48Z</time>
      </trkpt>
      <trkpt lat="47.3167" lon="6.07841">
        <ele>427.92</ele>
        <time>2018-07-14T09:21:55Z</time>
      </trkpt>
      <trkpt lat="47.31646" lon="6.07731">
        <ele>425.04</ele>
        <time>2018-07-14T09:22:06Z</time>
      </trkpt>
      <trkpt lat="47.31629" lon="6.0767">
        <ele>424.56</ele>
        <time>2018-07-14T09:22:13Z</time>
      </trkpt>
      <trkpt lat="47.31616" lon="6.07633">
        <ele>423.12</ele>
        <time>2018-07-14T09:22:17Z</time>
      </trkpt>
      <trkpt lat="47.31613" lon="6.07628">
        <ele>422.16</ele>
        <time>2018-07-14T09:22:18Z</time>
      </trkpt>
      <trkpt lat="47.31605" lon="6.07619">
        <ele>421.19</ele>
        <time>2018-07-14T09:22:20Z</time>
      </trkpt>
      <trkpt lat="47.31601" lon="6.07616">
        <ele>419.75</ele>
        <time>2018-07-14T09:22:21Z</time>
      </trkpt>
      <trkpt lat="47.31595" lon="6.0761">
        <ele>417.83</ele>
        <time>2018-07-14T09:22:22Z</time>
      </trkpt>
      <trkpt lat="47.31589" lon="6.07606">
        <ele>416.39</ele>
        <time>2018-07-14T09:22:23Z</time>
      </trkpt>
      <trkpt lat="47.31585" lon="6.07602">
        <ele>414.95</ele>
        <time>2018-07-14T09:22:24Z</time>
      </trkpt>
      <trkpt lat="47.31579" lon="6.07599">
        <ele>413.98</ele>
        <time>2018-07-14T09:22:25Z</time>
      </trkpt>
      <trkpt lat="47.31571" lon="6.07596">
        <ele>413.02</ele>
        <time>2018-07-14T09:22:26Z</time>
      </trkpt>
      <trkpt lat="47.31564" lon="6.07591">
        <ele>411.1</ele>
        <time>2018-07-14T09:22:27Z</time>
      </trkpt>
      <trkpt lat="47.31557" lon="6.07586">
        <ele>410.14</ele>
        <time>2018-07-14T09:22:28Z</time>
      </trkpt>
      <trkpt lat="47.31549" lon="6.07583">
        <ele>408.7</ele>
        <time>2018-07-14T09:22:29Z</time>
      </trkpt>
      <trkpt lat="47.31535" lon="6.07575">
        <ele>407.74</ele>
        <time>2018-07-14T09:22:31Z</time>
      </trkpt>
      <trkpt lat="47.31529" lon="6.07571">
        <ele>406.77</ele>
        <time>2018-07-14T09:22:32Z</time>
      </trkpt>
      <trkpt lat="47.31514" lon="6.07564">
        <ele>404.37</ele>
        <time>2018-07-14T09:22:34Z</time>
      </trkpt>
      <trkpt lat="47.31485" lon="6.07551">
        <ele>401.01</ele>
        <time>2018-07-14T09:22:37Z</time>
      </trkpt>
      <trkpt lat="47.3146" lon="6.07541">
        <ele>399.08</ele>
        <time>2018-07-14T09:22:40Z</time>
      </trkpt>
      <trkpt lat="47.31454" lon="6.07538">
        <ele>398.6</ele>
        <time>2018-07-14T09:22:41Z</time>
      </trkpt>
      <trkpt lat="47.31448" lon="6.07536">
        <ele>398.12</ele>
        <time>2018-07-14T09:22:42Z</time>
      </trkpt>
      <trkpt lat="47.31442" lon="6.07533">
        <ele>397.16</ele>
        <time>2018-07-14T09:22:43Z</time>
      </trkpt>
      <trkpt lat="47.31437" lon="6.0753">
        <ele>397.16</ele>
        <time>2018-07-14T09:22:44Z</time>
      </trkpt>
      <trkpt lat="47.31435" lon="6.07524">
        <ele>396.68</ele>
        <time>2018-07-14T09:22:45Z</time>
      </trkpt>
      <trkpt lat="47.3143" lon="6.07518">
        <ele>396.2</ele>
        <time>2018-07-14T09:22:46Z</time>
      </trkpt>
      <trkpt lat="47.31426" lon="6.07511">
        <ele>395.72</ele>
        <time>2018-07-14T09:22:47Z</time>
      </trkpt>
      <trkpt lat="47.31408" lon="6.07475">
        <ele>394.28</ele>
        <time>2018-07-14T09:22:52Z</time>
      </trkpt>
      <trkpt lat="47.31403" lon="6.07468">
        <ele>393.8</ele>
        <time>2018-07-14T09:22:53Z</time>
      </trkpt>
      <trkpt lat="47.31397" lon="6.0746">
        <ele>393.8</ele>
        <time>2018-07-14T09:22:54Z</time>
      </trkpt>
      <trkpt lat="47.31373" lon="6.074">
        <ele>391.39</ele>
        <time>2018-07-14T09:23:01Z</time>
      </trkpt>
      <trkpt lat="47.31368" lon="6.07393">
        <ele>391.39</ele>
        <time>2018-07-14T09:23:02Z</time>
      </trkpt>
      <trkpt lat="47.31365" lon="6.07387">
        <ele>390.91</ele>
        <time>2018-07-14T09:23:03Z</time>
      </trkpt>
      <trkpt lat="47.31362" lon="6.07383">
        <ele>390.43</ele>
        <time>2018-07-14T09:23:04Z</time>
      </trkpt>
      <trkpt lat="47.31357" lon="6.07382">
        <ele>389.47</ele>
        <time>2018-07-14T09:23:05Z</time>
      </trkpt>
      <trkpt lat="47.31352" lon="6.07383">
        <ele>388.99</ele>
        <time>2018-07-14T09:23:06Z</time>
      </trkpt>
      <trkpt lat="47.31345" lon="6.07386">
        <ele>388.51</ele>
        <time>2018-07-14T09:23:07Z</time>
      </trkpt>
      <trkpt lat="47.3134" lon="6.0739">
        <ele>388.03</ele>
        <time>2018-07-14T09:23:08Z</time>
      </trkpt>
      <trkpt lat="47.31335" lon="6.07395">
        <ele>388.03</ele>
        <time>2018-07-14T09:23:09Z</time>
      </trkpt>
      <trkpt lat="47.31334" lon="6.074">
        <ele>387.55</ele>
        <time>2018-07-14T09:23:10Z</time>
      </trkpt>
      <trkpt lat="47.31314" lon="6.07427">
        <ele>386.11</ele>
        <time>2018-07-14T09:23:15Z</time>
      </trkpt>
      <trkpt lat="47.31309" lon="6.07431">
        <ele>385.15</ele>
        <time>2018-07-14T09:23:16Z</time>
      </trkpt>
      <trkpt lat="47.31301" lon="6.07433">
        <ele>384.66</ele>
        <time>2018-07-14T09:23:17Z</time>
      </trkpt>
      <trkpt lat="47.31293" lon="6.07434">
        <ele>384.66</ele>
        <time>2018-07-14T09:23:18Z</time>
      </trkpt>
      <trkpt lat="47.31285" lon="6.07433">
        <ele>384.18</ele>
        <time>2018-07-14T09:23:19Z</time>
      </trkpt>
      <trkpt lat="47.31278" lon="6.0743">
        <ele>383.22</ele>
        <time>2018-07-14T09:23:20Z</time>
      </trkpt>
      <trkpt lat="47.31271" lon="6.07425">
        <ele>382.26</ele>
        <time>2018-07-14T09:23:21Z</time>
      </trkpt>
      <trkpt lat="47.31263" lon="6.07418">
        <ele>381.3</ele>
        <time>2018-07-14T09:23:22Z</time>
      </trkpt>
      <trkpt lat="47.31254" lon="6.0741">
        <ele>379.86</ele>
        <time>2018-07-14T09:23:23Z</time>
      </trkpt>
      <trkpt lat="47.31245" lon="6.07401">
        <ele>378.42</ele>
        <time>2018-07-14T09:23:24Z</time>
      </trkpt>
      <trkpt lat="47.31237" lon="6.0739">
        <ele>376.49</ele>
        <time>2018-07-14T09:23:25Z</time>
      </trkpt>
      <trkpt lat="47.3122" lon="6.07368">
        <ele>371.21</ele>
        <time>2018-07-14T09:23:27Z</time>
      </trkpt>
      <trkpt lat="47.31194" lon="6.07335">
        <ele>367.84</ele>
        <time>2018-07-14T09:23:30Z</time>
      </trkpt>
      <trkpt lat="47.31177" lon="6.07316">
        <ele>366.88</ele>
        <time>2018-07-14T09:23:32Z</time>
      </trkpt>
      <trkpt lat="47.31154" lon="6.07289">
        <ele>364.48</ele>
        <time>2018-07-14T09:23:35Z</time>
      </trkpt>
      <trkpt lat="47.31147" lon="6.07279">
        <ele>363.04</ele>
        <time>2018-07-14T09:23:36Z</time>
      </trkpt>
      <trkpt lat="47.31132" lon="6.07259">
        <ele>362.07</ele>
        <time>2018-07-14T09:23:38Z</time>
      </trkpt>
      <trkpt lat="47.31124" lon="6.0725">
        <ele>361.59</ele>
        <time>2018-07-14T09:23:39Z</time>
      </trkpt>
      <trkpt lat="47.31094" lon="6.07217">
        <ele>361.11</ele>
        <time>2018-07-14T09:23:43Z</time>
      </trkpt>
      <trkpt lat="47.31086" lon="6.07211">
        <ele>361.11</ele>
        <time>2018-07-14T09:23:44Z</time>
      </trkpt>
      <trkpt lat="47.31077" lon="6.07206">
        <ele>360.15</ele>
        <time>2018-07-14T09:23:45Z</time>
      </trkpt>
      <trkpt lat="47.31067" lon="6.07203">
        <ele>359.19</ele>
        <time>2018-07-14T09:23:46Z</time>
      </trkpt>
      <trkpt lat="47.31057" lon="6.072">
        <ele>357.75</ele>
        <time>2018-07-14T09:23:47Z</time>
      </trkpt>
      <trkpt lat="47.31019" lon="6.07188">
        <ele>354.38</ele>
        <time>2018-07-14T09:23:51Z</time>
      </trkpt>
      <trkpt lat="47.31" lon="6.07178">
        <ele>352.46</ele>
        <time>2018-07-14T09:23:53Z</time>
      </trkpt>
      <trkpt lat="47.3099" lon="6.07171">
        <ele>351.98</ele>
        <time>2018-07-14T09:23:54Z</time>
      </trkpt>
      <trkpt lat="47.30982" lon="6.07164">
        <ele>351.98</ele>
        <time>2018-07-14T09:23:55Z</time>
      </trkpt>
      <trkpt lat="47.30934" lon="6.07114">
        <ele>351.5</ele>
        <time>2018-07-14T09:24:02Z</time>
      </trkpt>
      <trkpt lat="47.30923" lon="6.07101">
        <ele>352.46</ele>
        <time>2018-07-14T09:24:04Z</time>
      </trkpt>
      <trkpt lat="47.30903" lon="6.07077">
        <ele>353.42</ele>
        <time>2018-07-14T09:24:08Z</time>
      </trkpt>
      <trkpt lat="47.30886" lon="6.07059">
        <ele>353.9</ele>
        <time>2018-07-14T09:24:11Z</time>
      </trkpt>
      <trkpt lat="47.30883" lon="6.07053">
        <ele>353.9</ele>
        <time>2018-07-14T09:24:12Z</time>
      </trkpt>
      <trkpt lat="47.30879" lon="6.07048">
        <ele>353.9</ele>
        <time>2018-07-14T09:24:13Z</time>
      </trkpt>
      <trkpt lat="47.30856" lon="6.07016">
        <ele>354.38</ele>
        <time>2018-07-14T09:24:19Z</time>
      </trkpt>
      <trkpt lat="47.30852" lon="6.0701">
        <ele>354.38</ele>
        <time>2018-07-14T09:24:20Z</time>
      </trkpt>
      <trkpt lat="47.30848" lon="6.07006">
        <ele>353.9</ele>
        <time>2018-07-14T09:24:21Z</time>
      </trkpt>
      <trkpt lat="47.30844" lon="6.07001">
        <ele>353.9</ele>
        <time>2018-07-14T09:24:22Z</time>
      </trkpt>
      <trkpt lat="47.30841" lon="6.06996">
        <ele>353.42</ele>
        <time>2018-07-14T09:24:23Z</time>
      </trkpt>
      <trkpt lat="47.30836" lon="6.0699">
        <ele>353.42</ele>
        <time>2018-07-14T09:24:24Z</time>
      </trkpt>
      <trkpt lat="47.30832" lon="6.06983">
        <ele>352.94</ele>
        <time>2018-07-14T09:24:25Z</time>
      </trkpt>
      <trkpt lat="47.30827" lon="6.06976">
        <ele>352.94</ele>
        <time>2018-07-14T09:24:26Z</time>
      </trkpt>
      <trkpt lat="47.30822" lon="6.0697">
        <ele>352.46</ele>
        <time>2018-07-14T09:24:27Z</time>
      </trkpt>
      <trkpt lat="47.30817" lon="6.06964">
        <ele>351.98</ele>
        <time>2018-07-14T09:24:28Z</time>
      </trkpt>
      <trkpt lat="47.30802" lon="6.06946">
        <ele>351.02</ele>
        <time>2018-07-14T09:24:31Z</time>
      </trkpt>
      <trkpt lat="47.30797" lon="6.0694">
        <ele>351.02</ele>
        <time>2018-07-14T09:24:32Z</time>
      </trkpt>
      <trkpt lat="47.30792" lon="6.06934">
        <ele>350.54</ele>
        <time>2018-07-14T09:24:33Z</time>
      </trkpt>
      <trkpt lat="47.30767" lon="6.06906">
        <ele>350.54</ele>
        <time>2018-07-14T09:24:38Z</time>
      </trkpt>
      <trkpt lat="47.30764" lon="6.06902">
        <ele>350.54</ele>
        <time>2018-07-14T09:24:39Z</time>
      </trkpt>
      <trkpt lat="47.3076" lon="6.06896">
        <ele>350.54</ele>
        <time>2018-07-14T09:24:40Z</time>
      </trkpt>
      <trkpt lat="47.30747" lon="6.06877">
        <ele>350.54</ele>
        <time>2018-07-14T09:24:44Z</time>
      </trkpt>
      <trkpt lat="47.30745" lon="6.06874">
        <ele>350.54</ele>
        <time>2018-07-14T09:24:45Z</time>
      </trkpt>
      <trkpt lat="47.30743" lon="6.06872">
        <ele>350.54</ele>
        <time>2018-07-14T09:24:46Z</time>
      </trkpt>
      <trkpt lat="47.30738" lon="6.06865">
        <ele>351.5</ele>
        <time>2018-07-14T09:24:50Z</time>
      </trkpt>
      <trkpt lat="47.30738" lon="6.06862">
        <ele>351.5</ele>
        <time>2018-07-14T09:24:51Z</time>
      </trkpt>
      <trkpt lat="47.30735" lon="6.06853">
        <ele>352.46</ele>
        <time>2018-07-14T09:24:54Z</time>
      </trkpt>
      <trkpt lat="47.30733" lon="6.06851">
        <ele>352.46</ele>
        <time>2018-07-14T09:24:55Z</time>
      </trkpt>
      <trkpt lat="47.30731" lon="6.06849">
        <ele>352.46</ele>
        <time>2018-07-14T09:24:56Z</time>
      </trkpt>
      <trkpt lat="47.3073" lon="6.06846">
        <ele>352.46</ele>
        <time>2018-07-14T09:24:57Z</time>
      </trkpt>
      <trkpt lat="47.3073" lon="6.06843">
        <ele>352.46</ele>
        <time>2018-07-14T09:24:58Z</time>
      </trkpt>
      <trkpt lat="47.30728" lon="6.0684">
        <ele>352.94</ele>
        <time>2018-07-14T09:24:59Z</time>
      </trkpt>
      <trkpt lat="47.30726" lon="6.06837">
        <ele>352.94</ele>
        <time>2018-07-14T09:25:00Z</time>
      </trkpt>
      <trkpt lat="47.30723" lon="6.06836">
        <ele>353.42</ele>
        <time>2018-07-14T09:25:01Z</time>
      </trkpt>
      <trkpt lat="47.30721" lon="6.06833">
        <ele>353.42</ele>
        <time>2018-07-14T09:25:02Z</time>
      </trkpt>
      <trkpt lat="47.30719" lon="6.06831">
        <ele>353.42</ele>
        <time>2018-07-14T09:25:03Z</time>
      </trkpt>
      <trkpt lat="47.30716" lon="6.06829">
        <ele>352.94</ele>
        <time>2018-07-14T09:25:04Z</time>
      </trkpt>
      <trkpt lat="47.30714" lon="6.06827">
        <ele>353.42</ele>
        <time>2018-07-14T09:25:05Z</time>
      </trkpt>
      <trkpt lat="47.30712" lon="6.06825">
        <ele>353.42</ele>
        <time>2018-07-14T09:25:06Z</time>
      </trkpt>
      <trkpt lat="47.30709" lon="6.06821">
        <ele>353.42</ele>
        <time>2018-07-14T09:25:07Z</time>
      </trkpt>
      <trkpt lat="47.30706" lon="6.06817">
        <ele>353.42</ele>
        <time>2018-07-14T09:25:08Z</time>
      </trkpt>
      <trkpt lat="47.30704" lon="6.06814">
        <ele>353.42</ele>
        <time>2018-07-14T09:25:09Z</time>
      </trkpt>
      <trkpt lat="47.30703" lon="6.06811">
        <ele>353.9</ele>
        <time>2018-07-14T09:25:10Z</time>
      </trkpt>
      <trkpt lat="47.30702" lon="6.06807">
        <ele>353.9</ele>
        <time>2018-07-14T09:25:11Z</time>
      </trkpt>
      <trkpt lat="47.3069" lon="6.06785">
        <ele>357.27</ele>
        <time>2018-07-14T09:25:20Z</time>
      </trkpt>
      <trkpt lat="47.30689" lon="6.06783">
        <ele>357.27</ele>
        <time>2018-07-14T09:25:21Z</time>
      </trkpt>
      <trkpt lat="47.30687" lon="6.06781">
        <ele>357.75</ele>
        <time>2018-07-14T09:25:22Z</time>
      </trkpt>
      <trkpt lat="47.30686" lon="6.06779">
        <ele>357.75</ele>
        <time>2018-07-14T09:25:23Z</time>
      </trkpt>
      <trkpt lat="47.30684" lon="6.06776">
        <ele>357.75</ele>
        <time>2018-07-14T09:25:24Z</time>
      </trkpt>
      <trkpt lat="47.30681" lon="6.06773">
        <ele>358.23</ele>
        <time>2018-07-14T09:25:25Z</time>
      </trkpt>
      <trkpt lat="47.30677" lon="6.06771">
        <ele>358.23</ele>
        <time>2018-07-14T09:25:26Z</time>
      </trkpt>
      <trkpt lat="47.30675" lon="6.06768">
        <ele>358.71</ele>
        <time>2018-07-14T09:25:27Z</time>
      </trkpt>
      <trkpt lat="47.30673" lon="6.06766">
        <ele>358.71</ele>
        <time>2018-07-14T09:25:28Z</time>
      </trkpt>
      <trkpt lat="47.30669" lon="6.06764">
        <ele>359.19</ele>
        <time>2018-07-14T09:25:29Z</time>
      </trkpt>
      <trkpt lat="47.30661" lon="6.06756">
        <ele>360.63</ele>
        <time>2018-07-14T09:25:34Z</time>
      </trkpt>
      <trkpt lat="47.3066" lon="6.06754">
        <ele>361.11</ele>
        <time>2018-07-14T09:25:35Z</time>
      </trkpt>
      <trkpt lat="47.30658" lon="6.06752">
        <ele>361.11</ele>
        <time>2018-07-14T09:25:36Z</time>
      </trkpt>
      <trkpt lat="47.30654" lon="6.06748">
        <ele>361.59</ele>
        <time>2018-07-14T09:25:38Z</time>
      </trkpt>
      <trkpt lat="47.30652" lon="6.06746">
        <ele>361.59</ele>
        <time>2018-07-14T09:25:39Z</time>
      </trkpt>
      <trkpt lat="47.30637" lon="6.06725">
        <ele>362.55</ele>
        <time>2018-07-14T09:25:46Z</time>
      </trkpt>
      <trkpt lat="47.30637" lon="6.06722">
        <ele>362.55</ele>
        <time>2018-07-14T09:25:47Z</time>
      </trkpt>
      <trkpt lat="47.30627" lon="6.0671">
        <ele>362.55</ele>
        <time>2018-07-14T09:25:51Z</time>
      </trkpt>
      <trkpt lat="47.30623" lon="6.06707">
        <ele>363.04</ele>
        <time>2018-07-14T09:25:52Z</time>
      </trkpt>
      <trkpt lat="47.30621" lon="6.06704">
        <ele>362.55</ele>
        <time>2018-07-14T09:25:53Z</time>
      </trkpt>
      <trkpt lat="47.30614" lon="6.067">
        <ele>363.04</ele>
        <time>2018-07-14T09:25:55Z</time>
      </trkpt>
      <trkpt lat="47.30611" lon="6.06698">
        <ele>363.04</ele>
        <time>2018-07-14T09:25:56Z</time>
      </trkpt>
      <trkpt lat="47.30608" lon="6.06697">
        <ele>363.04</ele>
        <time>2018-07-14T09:25:57Z</time>
      </trkpt>
      <trkpt lat="47.30604" lon="6.06697">
        <ele>363.04</ele>
        <time>2018-07-14T09:25:59Z</time>
      </trkpt>
      <trkpt lat="47.30601" lon="6.06697">
        <ele>363.04</ele>
        <time>2018-07-14T09:26:01Z</time>
      </trkpt>
      <trkpt lat="47.30598" lon="6.06697">
        <ele>363.04</ele>
        <time>2018-07-14T09:26:02Z</time>
      </trkpt>
      <trkpt lat="47.30596" lon="6.06696">
        <ele>362.55</ele>
        <time>2018-07-14T09:26:03Z</time>
      </trkpt>
      <trkpt lat="47.30591" lon="6.06696">
        <ele>362.55</ele>
        <time>2018-07-14T09:26:05Z</time>
      </trkpt>
      <trkpt lat="47.30586" lon="6.06692">
        <ele>362.55</ele>
        <time>2018-07-14T09:26:09Z</time>
      </trkpt>
      <trkpt lat="47.30585" lon="6.06684">
        <ele>363.04</ele>
        <time>2018-07-14T09:26:21Z</time>
      </trkpt>
      <trkpt lat="47.30582" lon="6.0668">
        <ele>363.04</ele>
        <time>2018-07-14T09:26:24Z</time>
      </trkpt>
      <trkpt lat="47.30581" lon="6.06678">
        <ele>363.04</ele>
        <time>2018-07-14T09:26:25Z</time>
      </trkpt>
      <trkpt lat="47.30579" lon="6.06677">
        <ele>362.55</ele>
        <time>2018-07-14T09:26:26Z</time>
      </trkpt>
      <trkpt lat="47.30578" lon="6.06675">
        <ele>362.55</ele>
        <time>2018-07-14T09:26:27Z</time>
      </trkpt>
      <trkpt lat="47.30576" lon="6.06673">
        <ele>362.55</ele>
        <time>2018-07-14T09:26:28Z</time>
      </trkpt>
      <trkpt lat="47.30572" lon="6.06669">
        <ele>362.55</ele>
        <time>2018-07-14T09:26:30Z</time>
      </trkpt>
      <trkpt lat="47.30566" lon="6.06662">
        <ele>362.07</ele>
        <time>2018-07-14T09:26:38Z</time>
      </trkpt>
      <trkpt lat="47.30559" lon="6.06657">
        <ele>361.59</ele>
        <time>2018-07-14T09:26:47Z</time>
      </trkpt>
      <trkpt lat="47.30559" lon="6.06656">
        <ele>361.59</ele>
        <time>2018-07-14T09:26:50Z</time>
      </trkpt>
      <trkpt lat="47.30556" lon="6.06652">
        <ele>360.63</ele>
        <time>2018-07-14T09:26:56Z</time>
      </trkpt>
      <trkpt lat="47.30555" lon="6.06651">
        <ele>360.63</ele>
        <time>2018-07-14T09:26:57Z</time>
      </trkpt>
      <trkpt lat="47.30554" lon="6.06648">
        <ele>360.15</ele>
        <time>2018-07-14T09:26:59Z</time>
      </trkpt>
      <trkpt lat="47.30554" lon="6.06646">
        <ele>360.15</ele>
        <time>2018-07-14T09:27:00Z</time>
      </trkpt>
      <trkpt lat="47.30544" lon="6.06631">
        <ele>361.59</ele>
        <time>2018-07-14T09:27:09Z</time>
      </trkpt>
      <trkpt lat="47.30523" lon="6.06606">
        <ele>361.11</ele>
        <time>2018-07-14T09:27:19Z</time>
      </trkpt>
      <trkpt lat="47.30499" lon="6.0658">
        <ele>361.11</ele>
        <time>2018-07-14T09:27:28Z</time>
      </trkpt>
      <trkpt lat="47.3047" lon="6.06543">
        <ele>359.19</ele>
        <time>2018-07-14T09:27:38Z</time>
      </trkpt>
      <trkpt lat="47.30466" lon="6.06538">
        <ele>359.19</ele>
        <time>2018-07-14T09:27:39Z</time>
      </trkpt>
      <trkpt lat="47.3042" lon="6.06484">
        <ele>357.75</ele>
        <time>2018-07-14T09:27:49Z</time>
      </trkpt>
      <trkpt lat="47.30415" lon="6.06479">
        <ele>357.75</ele>
        <time>2018-07-14T09:27:50Z</time>
      </trkpt>
      <trkpt lat="47.30411" lon="6.06474">
        <ele>357.75</ele>
        <time>2018-07-14T09:27:51Z</time>
      </trkpt>
      <trkpt lat="47.30397" lon="6.06453">
        <ele>357.27</ele>
        <time>2018-07-14T09:27:55Z</time>
      </trkpt>
      <trkpt lat="47.30393" lon="6.06448">
        <ele>357.27</ele>
        <time>2018-07-14T09:27:56Z</time>
      </trkpt>
      <trkpt lat="47.30389" lon="6.06444">
        <ele>357.27</ele>
        <time>2018-07-14T09:27:57Z</time>
      </trkpt>
      <trkpt lat="47.30384" lon="6.0644">
        <ele>357.27</ele>
        <time>2018-07-14T09:27:58Z</time>
      </trkpt>
      <trkpt lat="47.30379" lon="6.06436">
        <ele>356.79</ele>
        <time>2018-07-14T09:27:59Z</time>
      </trkpt>
      <trkpt lat="47.30376" lon="6.06432">
        <ele>356.79</ele>
        <time>2018-07-14T09:28:00Z</time>
      </trkpt>
      <trkpt lat="47.30374" lon="6.06428">
        <ele>356.79</ele>
        <time>2018-07-14T09:28:01Z</time>
      </trkpt>
      <trkpt lat="47.30373" lon="6.06425">
        <ele>356.79</ele>
        <time>2018-07-14T09:28:02Z</time>
      </trkpt>
      <trkpt lat="47.30371" lon="6.06422">
        <ele>356.79</ele>
        <time>2018-07-14T09:28:04Z</time>
      </trkpt>
      <trkpt lat="47.30365" lon="6.06416">
        <ele>356.31</ele>
        <time>2018-07-14T09:28:09Z</time>
      </trkpt>
      <trkpt lat="47.30363" lon="6.06412">
        <ele>356.31</ele>
        <time>2018-07-14T09:28:11Z</time>
      </trkpt>
      <trkpt lat="47.30361" lon="6.0641">
        <ele>355.83</ele>
        <time>2018-07-14T09:28:12Z</time>
      </trkpt>
      <trkpt lat="47.30358" lon="6.06407">
        <ele>355.83</ele>
        <time>2018-07-14T09:28:13Z</time>
      </trkpt>
      <trkpt lat="47.30355" lon="6.06404">
        <ele>355.83</ele>
        <time>2018-07-14T09:28:14Z</time>
      </trkpt>
      <trkpt lat="47.30351" lon="6.06401">
        <ele>355.34</ele>
        <time>2018-07-14T09:28:15Z</time>
      </trkpt>
      <trkpt lat="47.30344" lon="6.06394">
        <ele>354.86</ele>
        <time>2018-07-14T09:28:17Z</time>
      </trkpt>
      <trkpt lat="47.30341" lon="6.0639">
        <ele>354.86</ele>
        <time>2018-07-14T09:28:18Z</time>
      </trkpt>
      <trkpt lat="47.3033" lon="6.06378">
        <ele>353.9</ele>
        <time>2018-07-14T09:28:21Z</time>
      </trkpt>
      <trkpt lat="47.30326" lon="6.06374">
        <ele>353.9</ele>
        <time>2018-07-14T09:28:22Z</time>
      </trkpt>
      <trkpt lat="47.30317" lon="6.06364">
        <ele>352.94</ele>
        <time>2018-07-14T09:28:24Z</time>
      </trkpt>
      <trkpt lat="47.30313" lon="6.06358">
        <ele>352.46</ele>
        <time>2018-07-14T09:28:25Z</time>
      </trkpt>
      <trkpt lat="47.3031" lon="6.06354">
        <ele>352.46</ele>
        <time>2018-07-14T09:28:26Z</time>
      </trkpt>
      <trkpt lat="47.30306" lon="6.06351">
        <ele>352.46</ele>
        <time>2018-07-14T09:28:27Z</time>
      </trkpt>
      <trkpt lat="47.30302" lon="6.06347">
        <ele>352.46</ele>
        <time>2018-07-14T09:28:28Z</time>
      </trkpt>
      <trkpt lat="47.30299" lon="6.06343">
        <ele>352.46</ele>
        <time>2018-07-14T09:28:29Z</time>
      </trkpt>
      <trkpt lat="47.30296" lon="6.06338">
        <ele>352.46</ele>
        <time>2018-07-14T09:28:30Z</time>
      </trkpt>
      <trkpt lat="47.30292" lon="6.06334">
        <ele>351.98</ele>
        <time>2018-07-14T09:28:31Z</time>
      </trkpt>
      <trkpt lat="47.30288" lon="6.0633">
        <ele>351.98</ele>
        <time>2018-07-14T09:28:32Z</time>
      </trkpt>
      <trkpt lat="47.30285" lon="6.06326">
        <ele>351.98</ele>
        <time>2018-07-14T09:28:33Z</time>
      </trkpt>
      <trkpt lat="47.30265" lon="6.06294">
        <ele>351.02</ele>
        <time>2018-07-14T09:28:39Z</time>
      </trkpt>
      <trkpt lat="47.30252" lon="6.06279">
        <ele>350.06</ele>
        <time>2018-07-14T09:28:42Z</time>
      </trkpt>
      <trkpt lat="47.30248" lon="6.06274">
        <ele>349.58</ele>
        <time>2018-07-14T09:28:43Z</time>
      </trkpt>
      <trkpt lat="47.30243" lon="6.06269">
        <ele>349.1</ele>
        <time>2018-07-14T09:28:44Z</time>
      </trkpt>
      <trkpt lat="47.30238" lon="6.06262">
        <ele>349.1</ele>
        <time>2018-07-14T09:28:45Z</time>
      </trkpt>
      <trkpt lat="47.30233" lon="6.06254">
        <ele>348.13</ele>
        <time>2018-07-14T09:28:46Z</time>
      </trkpt>
      <trkpt lat="47.30227" lon="6.06247">
        <ele>347.17</ele>
        <time>2018-07-14T09:28:47Z</time>
      </trkpt>
      <trkpt lat="47.30221" lon="6.06239">
        <ele>346.69</ele>
        <time>2018-07-14T09:28:48Z</time>
      </trkpt>
      <trkpt lat="47.30215" lon="6.06232">
        <ele>345.73</ele>
        <time>2018-07-14T09:28:49Z</time>
      </trkpt>
      <trkpt lat="47.30211" lon="6.06226">
        <ele>345.73</ele>
        <time>2018-07-14T09:28:50Z</time>
      </trkpt>
      <trkpt lat="47.30206" lon="6.06222">
        <ele>346.21</ele>
        <time>2018-07-14T09:28:51Z</time>
      </trkpt>
      <trkpt lat="47.30203" lon="6.0622">
        <ele>346.21</ele>
        <time>2018-07-14T09:28:52Z</time>
      </trkpt>
      <trkpt lat="47.3019" lon="6.06205">
        <ele>345.25</ele>
        <time>2018-07-14T09:28:57Z</time>
      </trkpt>
      <trkpt lat="47.30188" lon="6.06202">
        <ele>345.25</ele>
        <time>2018-07-14T09:28:58Z</time>
      </trkpt>
      <trkpt lat="47.30187" lon="6.06199">
        <ele>345.73</ele>
        <time>2018-07-14T09:28:59Z</time>
      </trkpt>
      <trkpt lat="47.3018" lon="6.06193">
        <ele>346.21</ele>
        <time>2018-07-14T09:29:08Z</time>
      </trkpt>
      <trkpt lat="47.3018" lon="6.06194">
        <ele>346.21</ele>
        <time>2018-07-14T09:29:09Z</time>
      </trkpt>
      <trkpt lat="47.3018" lon="6.06198">
        <ele>345.73</ele>
        <time>2018-07-14T09:29:16Z</time>
      </trkpt>
      <trkpt lat="47.30181" lon="6.06199">
        <ele>345.73</ele>
        <time>2018-07-14T09:29:17Z</time>
      </trkpt>
      <trkpt lat="47.30184" lon="6.06203">
        <ele>345.25</ele>
        <time>2018-07-14T09:29:19Z</time>
      </trkpt>
      <trkpt lat="47.30186" lon="6.06205">
        <ele>345.25</ele>
        <time>2018-07-14T09:29:20Z</time>
      </trkpt>
      <trkpt lat="47.30187" lon="6.06207">
        <ele>345.73</ele>
        <time>2018-07-14T09:29:21Z</time>
      </trkpt>
      <trkpt lat="47.30188" lon="6.06209">
        <ele>345.73</ele>
        <time>2018-07-14T09:29:22Z</time>
      </trkpt>
      <trkpt lat="47.30189" lon="6.06211">
        <ele>345.73</ele>
        <time>2018-07-14T09:29:23Z</time>
      </trkpt>
      <trkpt lat="47.3019" lon="6.06213">
        <ele>345.73</ele>
        <time>2018-07-14T09:29:24Z</time>
      </trkpt>
      <trkpt lat="47.30191" lon="6.06216">
        <ele>346.21</ele>
        <time>2018-07-14T09:29:25Z</time>
      </trkpt>
      <trkpt lat="47.30193" lon="6.06219">
        <ele>346.21</ele>
        <time>2018-07-14T09:29:26Z</time>
      </trkpt>
      <trkpt lat="47.30195" lon="6.06222">
        <ele>346.21</ele>
        <time>2018-07-14T09:29:27Z</time>
      </trkpt>
      <trkpt lat="47.30197" lon="6.06224">
        <ele>346.21</ele>
        <time>2018-07-14T09:29:28Z</time>
      </trkpt>
      <trkpt lat="47.30199" lon="6.06226">
        <ele>346.21</ele>
        <time>2018-07-14T09:29:29Z</time>
      </trkpt>
      <trkpt lat="47.30201" lon="6.06228">
        <ele>346.21</ele>
        <time>2018-07-14T09:29:30Z</time>
      </trkpt>
      <trkpt lat="47.30228" lon="6.06252">
        <ele>348.13</ele>
        <time>2018-07-14T09:29:40Z</time>
      </trkpt>
      <trkpt lat="47.30249" lon="6.06276">
        <ele>350.54</ele>
        <time>2018-07-14T09:29:50Z</time>
      </trkpt>
      <trkpt lat="47.30272" lon="6.06298">
        <ele>351.5</ele>
        <time>2018-07-14T09:30:00Z</time>
      </trkpt>
      <trkpt lat="47.30282" lon="6.06305">
        <ele>351.98</ele>
        <time>2018-07-14T09:30:04Z</time>
      </trkpt>
      <trkpt lat="47.30284" lon="6.06308">
        <ele>351.98</ele>
        <time>2018-07-14T09:30:05Z</time>
      </trkpt>
      <trkpt lat="47.30286" lon="6.0631">
        <ele>351.98</ele>
        <time>2018-07-14T09:30:06Z</time>
      </trkpt>
      <trkpt lat="47.30288" lon="6.06312">
        <ele>351.98</ele>
        <time>2018-07-14T09:30:07Z</time>
      </trkpt>
      <trkpt lat="47.30289" lon="6.06315">
        <ele>351.98</ele>
        <time>2018-07-14T09:30:08Z</time>
      </trkpt>
      <trkpt lat="47.30301" lon="6.06337">
        <ele>352.94</ele>
        <time>2018-07-14T09:30:14Z</time>
      </trkpt>
      <trkpt lat="47.30301" lon="6.06341">
        <ele>352.94</ele>
        <time>2018-07-14T09:30:15Z</time>
      </trkpt>
      <trkpt lat="47.30304" lon="6.06346">
        <ele>352.94</ele>
        <time>2018-07-14T09:30:17Z</time>
      </trkpt>
      <trkpt lat="47.30306" lon="6.06351">
        <ele>352.94</ele>
        <time>2018-07-14T09:30:18Z</time>
      </trkpt>
      <trkpt lat="47.3031" lon="6.06355">
        <ele>352.94</ele>
        <time>2018-07-14T09:30:19Z</time>
      </trkpt>
      <trkpt lat="47.30314" lon="6.0636">
        <ele>353.42</ele>
        <time>2018-07-14T09:30:20Z</time>
      </trkpt>
      <trkpt lat="47.3034" lon="6.06388">
        <ele>354.86</ele>
        <time>2018-07-14T09:30:27Z</time>
      </trkpt>
      <trkpt lat="47.30344" lon="6.0639">
        <ele>354.86</ele>
        <time>2018-07-14T09:30:28Z</time>
      </trkpt>
      <trkpt lat="47.30347" lon="6.06393">
        <ele>354.86</ele>
        <time>2018-07-14T09:30:29Z</time>
      </trkpt>
      <trkpt lat="47.3035" lon="6.06397">
        <ele>354.86</ele>
        <time>2018-07-14T09:30:30Z</time>
      </trkpt>
      <trkpt lat="47.30352" lon="6.06401">
        <ele>355.83</ele>
        <time>2018-07-14T09:30:31Z</time>
      </trkpt>
      <trkpt lat="47.30354" lon="6.06405">
        <ele>355.83</ele>
        <time>2018-07-14T09:30:32Z</time>
      </trkpt>
      <trkpt lat="47.30362" lon="6.06412">
        <ele>355.83</ele>
        <time>2018-07-14T09:30:35Z</time>
      </trkpt>
      <trkpt lat="47.30363" lon="6.06412">
        <ele>356.31</ele>
        <time>2018-07-14T09:30:36Z</time>
      </trkpt>
      <trkpt lat="47.30364" lon="6.0641">
        <ele>356.31</ele>
        <time>2018-07-14T09:30:37Z</time>
      </trkpt>
      <trkpt lat="47.30364" lon="6.06406">
        <ele>356.31</ele>
        <time>2018-07-14T09:30:38Z</time>
      </trkpt>
      <trkpt lat="47.30364" lon="6.06402">
        <ele>356.31</ele>
        <time>2018-07-14T09:30:39Z</time>
      </trkpt>
      <trkpt lat="47.30363" lon="6.06398">
        <ele>356.31</ele>
        <time>2018-07-14T09:30:40Z</time>
      </trkpt>
      <trkpt lat="47.30362" lon="6.06393">
        <ele>356.31</ele>
        <time>2018-07-14T09:30:41Z</time>
      </trkpt>
      <trkpt lat="47.3036" lon="6.06388">
        <ele>356.31</ele>
        <time>2018-07-14T09:30:42Z</time>
      </trkpt>
      <trkpt lat="47.30358" lon="6.06371">
        <ele>356.31</ele>
        <time>2018-07-14T09:30:45Z</time>
      </trkpt>
      <trkpt lat="47.30351" lon="6.06322">
        <ele>356.31</ele>
        <time>2018-07-14T09:30:55Z</time>
      </trkpt>
      <trkpt lat="47.30353" lon="6.06271">
        <ele>356.79</ele>
        <time>2018-07-14T09:31:04Z</time>
      </trkpt>
      <trkpt lat="47.30378" lon="6.06232">
        <ele>358.71</ele>
        <time>2018-07-14T09:31:14Z</time>
      </trkpt>
      <trkpt lat="47.30394" lon="6.06196">
        <ele>359.67</ele>
        <time>2018-07-14T09:31:22Z</time>
      </trkpt>
      <trkpt lat="47.30394" lon="6.06191">
        <ele>360.15</ele>
        <time>2018-07-14T09:31:23Z</time>
      </trkpt>
      <trkpt lat="47.30397" lon="6.06175">
        <ele>360.15</ele>
        <time>2018-07-14T09:31:26Z</time>
      </trkpt>
      <trkpt lat="47.30398" lon="6.06169">
        <ele>360.63</ele>
        <time>2018-07-14T09:31:27Z</time>
      </trkpt>
      <trkpt lat="47.30399" lon="6.06164">
        <ele>360.63</ele>
        <time>2018-07-14T09:31:28Z</time>
      </trkpt>
      <trkpt lat="47.304" lon="6.06159">
        <ele>360.63</ele>
        <time>2018-07-14T09:31:29Z</time>
      </trkpt>
      <trkpt lat="47.30404" lon="6.06143">
        <ele>360.63</ele>
        <time>2018-07-14T09:31:32Z</time>
      </trkpt>
      <trkpt lat="47.30406" lon="6.06139">
        <ele>360.63</ele>
        <time>2018-07-14T09:31:33Z</time>
      </trkpt>
      <trkpt lat="47.30408" lon="6.06135">
        <ele>361.11</ele>
        <time>2018-07-14T09:31:34Z</time>
      </trkpt>
      <trkpt lat="47.30409" lon="6.06131">
        <ele>361.11</ele>
        <time>2018-07-14T09:31:35Z</time>
      </trkpt>
      <trkpt lat="47.3041" lon="6.06127">
        <ele>361.59</ele>
        <time>2018-07-14T09:31:36Z</time>
      </trkpt>
      <trkpt lat="47.3041" lon="6.06123">
        <ele>361.59</ele>
        <time>2018-07-14T09:31:37Z</time>
      </trkpt>
      <trkpt lat="47.3041" lon="6.06119">
        <ele>362.07</ele>
        <time>2018-07-14T09:31:38Z</time>
      </trkpt>
      <trkpt lat="47.30411" lon="6.06116">
        <ele>362.07</ele>
        <time>2018-07-14T09:31:39Z</time>
      </trkpt>
      <trkpt lat="47.30411" lon="6.06112">
        <ele>362.55</ele>
        <time>2018-07-14T09:31:40Z</time>
      </trkpt>
      <trkpt lat="47.3041" lon="6.06109">
        <ele>362.55</ele>
        <time>2018-07-14T09:31:41Z</time>
      </trkpt>
      <trkpt lat="47.30411" lon="6.06104">
        <ele>363.04</ele>
        <time>2018-07-14T09:31:42Z</time>
      </trkpt>
      <trkpt lat="47.30413" lon="6.06098">
        <ele>363.04</ele>
        <time>2018-07-14T09:31:43Z</time>
      </trkpt>
      <trkpt lat="47.3042" lon="6.06069">
        <ele>364.48</ele>
        <time>2018-07-14T09:31:48Z</time>
      </trkpt>
      <trkpt lat="47.30427" lon="6.06053">
        <ele>364.48</ele>
        <time>2018-07-14T09:31:51Z</time>
      </trkpt>
      <trkpt lat="47.30431" lon="6.06044">
        <ele>364.48</ele>
        <time>2018-07-14T09:31:53Z</time>
      </trkpt>
      <trkpt lat="47.30433" lon="6.06039">
        <ele>364.96</ele>
        <time>2018-07-14T09:31:54Z</time>
      </trkpt>
      <trkpt lat="47.3046" lon="6.05999">
        <ele>367.36</ele>
        <time>2018-07-14T09:32:04Z</time>
      </trkpt>
      <trkpt lat="47.30486" lon="6.05955">
        <ele>369.76</ele>
        <time>2018-07-14T09:32:16Z</time>
      </trkpt>
      <trkpt lat="47.30499" lon="6.05923">
        <ele>371.69</ele>
        <time>2018-07-14T09:32:24Z</time>
      </trkpt>
      <trkpt lat="47.30501" lon="6.05917">
        <ele>372.17</ele>
        <time>2018-07-14T09:32:25Z</time>
      </trkpt>
      <trkpt lat="47.30507" lon="6.05898">
        <ele>371.69</ele>
        <time>2018-07-14T09:32:29Z</time>
      </trkpt>
      <trkpt lat="47.30508" lon="6.05894">
        <ele>372.17</ele>
        <time>2018-07-14T09:32:30Z</time>
      </trkpt>
      <trkpt lat="47.30521" lon="6.05864">
        <ele>373.61</ele>
        <time>2018-07-14T09:32:38Z</time>
      </trkpt>
      <trkpt lat="47.30522" lon="6.05856">
        <ele>373.61</ele>
        <time>2018-07-14T09:32:40Z</time>
      </trkpt>
      <trkpt lat="47.30524" lon="6.05853">
        <ele>374.09</ele>
        <time>2018-07-14T09:32:41Z</time>
      </trkpt>
      <trkpt lat="47.30525" lon="6.05849">
        <ele>374.09</ele>
        <time>2018-07-14T09:32:42Z</time>
      </trkpt>
      <trkpt lat="47.30526" lon="6.05844">
        <ele>374.57</ele>
        <time>2018-07-14T09:32:43Z</time>
      </trkpt>
      <trkpt lat="47.30528" lon="6.0584">
        <ele>374.57</ele>
        <time>2018-07-14T09:32:44Z</time>
      </trkpt>
      <trkpt lat="47.30529" lon="6.05835">
        <ele>375.05</ele>
        <time>2018-07-14T09:32:45Z</time>
      </trkpt>
      <trkpt lat="47.3053" lon="6.05831">
        <ele>375.05</ele>
        <time>2018-07-14T09:32:46Z</time>
      </trkpt>
      <trkpt lat="47.30534" lon="6.05793">
        <ele>376.97</ele>
        <time>2018-07-14T09:32:55Z</time>
      </trkpt>
      <trkpt lat="47.30535" lon="6.05755">
        <ele>378.42</ele>
        <time>2018-07-14T09:33:05Z</time>
      </trkpt>
      <trkpt lat="47.30533" lon="6.05716">
        <ele>379.86</ele>
        <time>2018-07-14T09:33:15Z</time>
      </trkpt>
      <trkpt lat="47.30533" lon="6.05712">
        <ele>379.86</ele>
        <time>2018-07-14T09:33:16Z</time>
      </trkpt>
      <trkpt lat="47.30533" lon="6.05708">
        <ele>380.34</ele>
        <time>2018-07-14T09:33:17Z</time>
      </trkpt>
      <trkpt lat="47.30534" lon="6.05705">
        <ele>380.34</ele>
        <time>2018-07-14T09:33:18Z</time>
      </trkpt>
      <trkpt lat="47.30534" lon="6.05701">
        <ele>380.34</ele>
        <time>2018-07-14T09:33:19Z</time>
      </trkpt>
      <trkpt lat="47.30534" lon="6.05698">
        <ele>380.82</ele>
        <time>2018-07-14T09:33:20Z</time>
      </trkpt>
      <trkpt lat="47.30534" lon="6.05695">
        <ele>381.3</ele>
        <time>2018-07-14T09:33:21Z</time>
      </trkpt>
      <trkpt lat="47.30534" lon="6.05691">
        <ele>381.3</ele>
        <time>2018-07-14T09:33:22Z</time>
      </trkpt>
      <trkpt lat="47.30534" lon="6.05688">
        <ele>381.78</ele>
        <time>2018-07-14T09:33:23Z</time>
      </trkpt>
      <trkpt lat="47.30534" lon="6.05685">
        <ele>381.78</ele>
        <time>2018-07-14T09:33:24Z</time>
      </trkpt>
      <trkpt lat="47.30534" lon="6.05682">
        <ele>382.26</ele>
        <time>2018-07-14T09:33:25Z</time>
      </trkpt>
      <trkpt lat="47.30534" lon="6.05678">
        <ele>382.74</ele>
        <time>2018-07-14T09:33:26Z</time>
      </trkpt>
      <trkpt lat="47.30535" lon="6.05674">
        <ele>382.74</ele>
        <time>2018-07-14T09:33:27Z</time>
      </trkpt>
      <trkpt lat="47.30536" lon="6.0567">
        <ele>383.22</ele>
        <time>2018-07-14T09:33:28Z</time>
      </trkpt>
      <trkpt lat="47.30536" lon="6.05667">
        <ele>383.22</ele>
        <time>2018-07-14T09:33:29Z</time>
      </trkpt>
      <trkpt lat="47.30537" lon="6.05664">
        <ele>383.7</ele>
        <time>2018-07-14T09:33:30Z</time>
      </trkpt>
      <trkpt lat="47.30539" lon="6.05662">
        <ele>383.7</ele>
        <time>2018-07-14T09:33:31Z</time>
      </trkpt>
      <trkpt lat="47.3054" lon="6.05659">
        <ele>383.7</ele>
        <time>2018-07-14T09:33:32Z</time>
      </trkpt>
      <trkpt lat="47.30541" lon="6.05655">
        <ele>384.18</ele>
        <time>2018-07-14T09:33:33Z</time>
      </trkpt>
      <trkpt lat="47.30541" lon="6.05652">
        <ele>384.18</ele>
        <time>2018-07-14T09:33:34Z</time>
      </trkpt>
      <trkpt lat="47.30541" lon="6.05647">
        <ele>384.18</ele>
        <time>2018-07-14T09:33:35Z</time>
      </trkpt>
      <trkpt lat="47.30541" lon="6.05644">
        <ele>384.66</ele>
        <time>2018-07-14T09:33:36Z</time>
      </trkpt>
      <trkpt lat="47.30541" lon="6.05641">
        <ele>385.15</ele>
        <time>2018-07-14T09:33:37Z</time>
      </trkpt>
      <trkpt lat="47.3054" lon="6.05638">
        <ele>385.15</ele>
        <time>2018-07-14T09:33:38Z</time>
      </trkpt>
      <trkpt lat="47.3054" lon="6.05634">
        <ele>384.66</ele>
        <time>2018-07-14T09:33:39Z</time>
      </trkpt>
      <trkpt lat="47.30528" lon="6.05609">
        <ele>385.63</ele>
        <time>2018-07-14T09:33:46Z</time>
      </trkpt>
      <trkpt lat="47.30526" lon="6.05607">
        <ele>385.63</ele>
        <time>2018-07-14T09:33:47Z</time>
      </trkpt>
      <trkpt lat="47.30524" lon="6.05604">
        <ele>386.11</ele>
        <time>2018-07-14T09:33:48Z</time>
      </trkpt>
      <trkpt lat="47.30522" lon="6.05602">
        <ele>386.11</ele>
        <time>2018-07-14T09:33:49Z</time>
      </trkpt>
      <trkpt lat="47.3052" lon="6.056">
        <ele>386.59</ele>
        <time>2018-07-14T09:33:50Z</time>
      </trkpt>
      <trkpt lat="47.30518" lon="6.05599">
        <ele>387.07</ele>
        <time>2018-07-14T09:33:51Z</time>
      </trkpt>
      <trkpt lat="47.30516" lon="6.05598">
        <ele>387.07</ele>
        <time>2018-07-14T09:33:52Z</time>
      </trkpt>
      <trkpt lat="47.30513" lon="6.05598">
        <ele>387.55</ele>
        <time>2018-07-14T09:33:53Z</time>
      </trkpt>
      <trkpt lat="47.30511" lon="6.05598">
        <ele>387.55</ele>
        <time>2018-07-14T09:33:54Z</time>
      </trkpt>
      <trkpt lat="47.30509" lon="6.05597">
        <ele>387.55</ele>
        <time>2018-07-14T09:33:55Z</time>
      </trkpt>
      <trkpt lat="47.30507" lon="6.05596">
        <ele>387.55</ele>
        <time>2018-07-14T09:33:56Z</time>
      </trkpt>
      <trkpt lat="47.30503" lon="6.05593">
        <ele>387.55</ele>
        <time>2018-07-14T09:33:57Z</time>
      </trkpt>
      <trkpt lat="47.30497" lon="6.0558">
        <ele>388.51</ele>
        <time>2018-07-14T09:34:01Z</time>
      </trkpt>
      <trkpt lat="47.30497" lon="6.05577">
        <ele>388.51</ele>
        <time>2018-07-14T09:34:02Z</time>
      </trkpt>
      <trkpt lat="47.30498" lon="6.05574">
        <ele>388.99</ele>
        <time>2018-07-14T09:34:03Z</time>
      </trkpt>
      <trkpt lat="47.30499" lon="6.0557">
        <ele>388.99</ele>
        <time>2018-07-14T09:34:04Z</time>
      </trkpt>
      <trkpt lat="47.30498" lon="6.05567">
        <ele>389.47</ele>
        <time>2018-07-14T09:34:05Z</time>
      </trkpt>
      <trkpt lat="47.30497" lon="6.05564">
        <ele>389.95</ele>
        <time>2018-07-14T09:34:06Z</time>
      </trkpt>
      <trkpt lat="47.30497" lon="6.0556">
        <ele>389.95</ele>
        <time>2018-07-14T09:34:07Z</time>
      </trkpt>
      <trkpt lat="47.30497" lon="6.05524">
        <ele>393.32</ele>
        <time>2018-07-14T09:34:18Z</time>
      </trkpt>
      <trkpt lat="47.30498" lon="6.05521">
        <ele>393.8</ele>
        <time>2018-07-14T09:34:19Z</time>
      </trkpt>
      <trkpt lat="47.30499" lon="6.05518">
        <ele>393.8</ele>
        <time>2018-07-14T09:34:20Z</time>
      </trkpt>
      <trkpt lat="47.30502" lon="6.05512">
        <ele>394.28</ele>
        <time>2018-07-14T09:34:22Z</time>
      </trkpt>
      <trkpt lat="47.30502" lon="6.05509">
        <ele>394.28</ele>
        <time>2018-07-14T09:34:23Z</time>
      </trkpt>
      <trkpt lat="47.30502" lon="6.05505">
        <ele>394.76</ele>
        <time>2018-07-14T09:34:24Z</time>
      </trkpt>
      <trkpt lat="47.30503" lon="6.05476">
        <ele>396.2</ele>
        <time>2018-07-14T09:34:32Z</time>
      </trkpt>
      <trkpt lat="47.30504" lon="6.05473">
        <ele>396.2</ele>
        <time>2018-07-14T09:34:33Z</time>
      </trkpt>
      <trkpt lat="47.30508" lon="6.05431">
        <ele>398.12</ele>
        <time>2018-07-14T09:34:43Z</time>
      </trkpt>
      <trkpt lat="47.30507" lon="6.05399">
        <ele>398.6</ele>
        <time>2018-07-14T09:34:50Z</time>
      </trkpt>
      <trkpt lat="47.30508" lon="6.05394">
        <ele>398.6</ele>
        <time>2018-07-14T09:34:51Z</time>
      </trkpt>
      <trkpt lat="47.30508" lon="6.05389">
        <ele>398.6</ele>
        <time>2018-07-14T09:34:52Z</time>
      </trkpt>
      <trkpt lat="47.30507" lon="6.05383">
        <ele>398.6</ele>
        <time>2018-07-14T09:34:53Z</time>
      </trkpt>
      <trkpt lat="47.30507" lon="6.05376">
        <ele>398.12</ele>
        <time>2018-07-14T09:34:54Z</time>
      </trkpt>
      <trkpt lat="47.30507" lon="6.0537">
        <ele>398.12</ele>
        <time>2018-07-14T09:34:55Z</time>
      </trkpt>
      <trkpt lat="47.30507" lon="6.05339">
        <ele>397.64</ele>
        <time>2018-07-14T09:35:00Z</time>
      </trkpt>
      <trkpt lat="47.30506" lon="6.05333">
        <ele>398.12</ele>
        <time>2018-07-14T09:35:01Z</time>
      </trkpt>
      <trkpt lat="47.30506" lon="6.05328">
        <ele>398.12</ele>
        <time>2018-07-14T09:35:02Z</time>
      </trkpt>
      <trkpt lat="47.30506" lon="6.05322">
        <ele>397.64</ele>
        <time>2018-07-14T09:35:03Z</time>
      </trkpt>
      <trkpt lat="47.30505" lon="6.05316">
        <ele>397.16</ele>
        <time>2018-07-14T09:35:04Z</time>
      </trkpt>
      <trkpt lat="47.30504" lon="6.05309">
        <ele>397.16</ele>
        <time>2018-07-14T09:35:05Z</time>
      </trkpt>
      <trkpt lat="47.30492" lon="6.05234">
        <ele>394.28</ele>
        <time>2018-07-14T09:35:14Z</time>
      </trkpt>
      <trkpt lat="47.3048" lon="6.05167">
        <ele>390.91</ele>
        <time>2018-07-14T09:35:20Z</time>
      </trkpt>
      <trkpt lat="47.30479" lon="6.05156">
        <ele>390.43</ele>
        <time>2018-07-14T09:35:21Z</time>
      </trkpt>
      <trkpt lat="47.30478" lon="6.05146">
        <ele>389.95</ele>
        <time>2018-07-14T09:35:22Z</time>
      </trkpt>
      <trkpt lat="47.30478" lon="6.05135">
        <ele>389.47</ele>
        <time>2018-07-14T09:35:23Z</time>
      </trkpt>
      <trkpt lat="47.30478" lon="6.05081">
        <ele>386.59</ele>
        <time>2018-07-14T09:35:29Z</time>
      </trkpt>
      <trkpt lat="47.30477" lon="6.05073">
        <ele>385.63</ele>
        <time>2018-07-14T09:35:30Z</time>
      </trkpt>
      <trkpt lat="47.30458" lon="6.05024">
        <ele>385.63</ele>
        <time>2018-07-14T09:35:35Z</time>
      </trkpt>
      <trkpt lat="47.30454" lon="6.05018">
        <ele>387.55</ele>
        <time>2018-07-14T09:35:36Z</time>
      </trkpt>
      <trkpt lat="47.3045" lon="6.05009">
        <ele>388.51</ele>
        <time>2018-07-14T09:35:38Z</time>
      </trkpt>
      <trkpt lat="47.30438" lon="6.04983">
        <ele>388.51</ele>
        <time>2018-07-14T09:35:43Z</time>
      </trkpt>
      <trkpt lat="47.30434" lon="6.04977">
        <ele>388.03</ele>
        <time>2018-07-14T09:35:44Z</time>
      </trkpt>
      <trkpt lat="47.3043" lon="6.0497">
        <ele>387.55</ele>
        <time>2018-07-14T09:35:45Z</time>
      </trkpt>
      <trkpt lat="47.30427" lon="6.04964">
        <ele>387.07</ele>
        <time>2018-07-14T09:35:46Z</time>
      </trkpt>
      <trkpt lat="47.30424" lon="6.04957">
        <ele>386.59</ele>
        <time>2018-07-14T09:35:47Z</time>
      </trkpt>
      <trkpt lat="47.30421" lon="6.04949">
        <ele>386.11</ele>
        <time>2018-07-14T09:35:48Z</time>
      </trkpt>
      <trkpt lat="47.30419" lon="6.04942">
        <ele>385.63</ele>
        <time>2018-07-14T09:35:49Z</time>
      </trkpt>
      <trkpt lat="47.30391" lon="6.04876">
        <ele>382.74</ele>
        <time>2018-07-14T09:35:57Z</time>
      </trkpt>
      <trkpt lat="47.3038" lon="6.04849">
        <ele>381.3</ele>
        <time>2018-07-14T09:36:00Z</time>
      </trkpt>
      <trkpt lat="47.30346" lon="6.04773">
        <ele>378.42</ele>
        <time>2018-07-14T09:36:08Z</time>
      </trkpt>
      <trkpt lat="47.30324" lon="6.04721">
        <ele>375.53</ele>
        <time>2018-07-14T09:36:13Z</time>
      </trkpt>
      <trkpt lat="47.30302" lon="6.04666">
        <ele>372.17</ele>
        <time>2018-07-14T09:36:18Z</time>
      </trkpt>
      <trkpt lat="47.30289" lon="6.04635">
        <ele>370.24</ele>
        <time>2018-07-14T09:36:21Z</time>
      </trkpt>
      <trkpt lat="47.30287" lon="6.04623">
        <ele>370.24</ele>
        <time>2018-07-14T09:36:22Z</time>
      </trkpt>
      <trkpt lat="47.30274" lon="6.04532">
        <ele>370.24</ele>
        <time>2018-07-14T09:36:30Z</time>
      </trkpt>
      <trkpt lat="47.30269" lon="6.04511">
        <ele>370.24</ele>
        <time>2018-07-14T09:36:32Z</time>
      </trkpt>
      <trkpt lat="47.30266" lon="6.04502">
        <ele>370.24</ele>
        <time>2018-07-14T09:36:33Z</time>
      </trkpt>
      <trkpt lat="47.30262" lon="6.04495">
        <ele>370.73</ele>
        <time>2018-07-14T09:36:34Z</time>
      </trkpt>
      <trkpt lat="47.30248" lon="6.04467">
        <ele>370.24</ele>
        <time>2018-07-14T09:36:38Z</time>
      </trkpt>
      <trkpt lat="47.30244" lon="6.0446">
        <ele>370.24</ele>
        <time>2018-07-14T09:36:39Z</time>
      </trkpt>
      <trkpt lat="47.30241" lon="6.04452">
        <ele>370.24</ele>
        <time>2018-07-14T09:36:40Z</time>
      </trkpt>
      <trkpt lat="47.30239" lon="6.04443">
        <ele>370.24</ele>
        <time>2018-07-14T09:36:41Z</time>
      </trkpt>
      <trkpt lat="47.30236" lon="6.04436">
        <ele>370.24</ele>
        <time>2018-07-14T09:36:42Z</time>
      </trkpt>
      <trkpt lat="47.30232" lon="6.04428">
        <ele>369.76</ele>
        <time>2018-07-14T09:36:43Z</time>
      </trkpt>
      <trkpt lat="47.30203" lon="6.04381">
        <ele>368.8</ele>
        <time>2018-07-14T09:36:50Z</time>
      </trkpt>
      <trkpt lat="47.30197" lon="6.04375">
        <ele>368.8</ele>
        <time>2018-07-14T09:36:51Z</time>
      </trkpt>
      <trkpt lat="47.30192" lon="6.0437">
        <ele>368.8</ele>
        <time>2018-07-14T09:36:52Z</time>
      </trkpt>
      <trkpt lat="47.30186" lon="6.04367">
        <ele>368.32</ele>
        <time>2018-07-14T09:36:53Z</time>
      </trkpt>
      <trkpt lat="47.30179" lon="6.04365">
        <ele>368.32</ele>
        <time>2018-07-14T09:36:54Z</time>
      </trkpt>
      <trkpt lat="47.30173" lon="6.04364">
        <ele>368.32</ele>
        <time>2018-07-14T09:36:55Z</time>
      </trkpt>
      <trkpt lat="47.30155" lon="6.0436">
        <ele>368.32</ele>
        <time>2018-07-14T09:36:58Z</time>
      </trkpt>
      <trkpt lat="47.30143" lon="6.04356">
        <ele>368.8</ele>
        <time>2018-07-14T09:37:00Z</time>
      </trkpt>
      <trkpt lat="47.30138" lon="6.04351">
        <ele>368.8</ele>
        <time>2018-07-14T09:37:01Z</time>
      </trkpt>
      <trkpt lat="47.30124" lon="6.04336">
        <ele>368.32</ele>
        <time>2018-07-14T09:37:04Z</time>
      </trkpt>
      <trkpt lat="47.30118" lon="6.04331">
        <ele>368.32</ele>
        <time>2018-07-14T09:37:05Z</time>
      </trkpt>
      <trkpt lat="47.30108" lon="6.04321">
        <ele>367.84</ele>
        <time>2018-07-14T09:37:07Z</time>
      </trkpt>
      <trkpt lat="47.30104" lon="6.04316">
        <ele>367.84</ele>
        <time>2018-07-14T09:37:08Z</time>
      </trkpt>
      <trkpt lat="47.30089" lon="6.043">
        <ele>366.4</ele>
        <time>2018-07-14T09:37:11Z</time>
      </trkpt>
      <trkpt lat="47.30066" lon="6.0428">
        <ele>364.96</ele>
        <time>2018-07-14T09:37:15Z</time>
      </trkpt>
      <trkpt lat="47.30054" lon="6.04271">
        <ele>363.52</ele>
        <time>2018-07-14T09:37:17Z</time>
      </trkpt>
      <trkpt lat="47.30029" lon="6.04256">
        <ele>360.15</ele>
        <time>2018-07-14T09:37:21Z</time>
      </trkpt>
      <trkpt lat="47.29959" lon="6.04242">
        <ele>359.19</ele>
        <time>2018-07-14T09:37:31Z</time>
      </trkpt>
      <trkpt lat="47.29952" lon="6.04239">
        <ele>359.19</ele>
        <time>2018-07-14T09:37:32Z</time>
      </trkpt>
      <trkpt lat="47.29946" lon="6.04236">
        <ele>359.19</ele>
        <time>2018-07-14T09:37:33Z</time>
      </trkpt>
      <trkpt lat="47.29939" lon="6.04231">
        <ele>358.23</ele>
        <time>2018-07-14T09:37:34Z</time>
      </trkpt>
      <trkpt lat="47.29933" lon="6.04227">
        <ele>357.75</ele>
        <time>2018-07-14T09:37:35Z</time>
      </trkpt>
      <trkpt lat="47.29927" lon="6.04222">
        <ele>357.75</ele>
        <time>2018-07-14T09:37:36Z</time>
      </trkpt>
      <trkpt lat="47.2992" lon="6.04216">
        <ele>356.79</ele>
        <time>2018-07-14T09:37:37Z</time>
      </trkpt>
      <trkpt lat="47.29884" lon="6.04196">
        <ele>354.86</ele>
        <time>2018-07-14T09:37:42Z</time>
      </trkpt>
      <trkpt lat="47.29876" lon="6.04191">
        <ele>353.9</ele>
        <time>2018-07-14T09:37:43Z</time>
      </trkpt>
      <trkpt lat="47.29862" lon="6.04182">
        <ele>352.46</ele>
        <time>2018-07-14T09:37:45Z</time>
      </trkpt>
      <trkpt lat="47.29847" lon="6.04174">
        <ele>351.5</ele>
        <time>2018-07-14T09:37:47Z</time>
      </trkpt>
      <trkpt lat="47.2984" lon="6.04169">
        <ele>351.5</ele>
        <time>2018-07-14T09:37:48Z</time>
      </trkpt>
      <trkpt lat="47.29827" lon="6.04156">
        <ele>350.54</ele>
        <time>2018-07-14T09:37:50Z</time>
      </trkpt>
      <trkpt lat="47.29821" lon="6.0415">
        <ele>350.54</ele>
        <time>2018-07-14T09:37:51Z</time>
      </trkpt>
      <trkpt lat="47.29802" lon="6.04133">
        <ele>348.62</ele>
        <time>2018-07-14T09:37:54Z</time>
      </trkpt>
      <trkpt lat="47.29797" lon="6.04124">
        <ele>348.13</ele>
        <time>2018-07-14T09:37:55Z</time>
      </trkpt>
      <trkpt lat="47.29792" lon="6.04114">
        <ele>347.65</ele>
        <time>2018-07-14T09:37:56Z</time>
      </trkpt>
      <trkpt lat="47.29788" lon="6.04104">
        <ele>346.69</ele>
        <time>2018-07-14T09:37:57Z</time>
      </trkpt>
      <trkpt lat="47.29783" lon="6.04094">
        <ele>345.25</ele>
        <time>2018-07-14T09:37:58Z</time>
      </trkpt>
      <trkpt lat="47.29777" lon="6.04083">
        <ele>345.25</ele>
        <time>2018-07-14T09:37:59Z</time>
      </trkpt>
      <trkpt lat="47.29751" lon="6.04031">
        <ele>342.85</ele>
        <time>2018-07-14T09:38:04Z</time>
      </trkpt>
      <trkpt lat="47.29747" lon="6.0402">
        <ele>343.81</ele>
        <time>2018-07-14T09:38:05Z</time>
      </trkpt>
      <trkpt lat="47.29745" lon="6.0401">
        <ele>344.29</ele>
        <time>2018-07-14T09:38:06Z</time>
      </trkpt>
      <trkpt lat="47.29743" lon="6.04001">
        <ele>344.29</ele>
        <time>2018-07-14T09:38:07Z</time>
      </trkpt>
      <trkpt lat="47.29742" lon="6.03991">
        <ele>344.77</ele>
        <time>2018-07-14T09:38:08Z</time>
      </trkpt>
      <trkpt lat="47.2974" lon="6.03973">
        <ele>344.77</ele>
        <time>2018-07-14T09:38:10Z</time>
      </trkpt>
      <trkpt lat="47.29738" lon="6.03965">
        <ele>344.77</ele>
        <time>2018-07-14T09:38:11Z</time>
      </trkpt>
      <trkpt lat="47.29735" lon="6.03948">
        <ele>344.77</ele>
        <time>2018-07-14T09:38:13Z</time>
      </trkpt>
      <trkpt lat="47.29731" lon="6.03938">
        <ele>344.29</ele>
        <time>2018-07-14T09:38:15Z</time>
      </trkpt>
      <trkpt lat="47.29726" lon="6.03934">
        <ele>343.33</ele>
        <time>2018-07-14T09:38:16Z</time>
      </trkpt>
      <trkpt lat="47.2972" lon="6.03929">
        <ele>342.85</ele>
        <time>2018-07-14T09:38:17Z</time>
      </trkpt>
      <trkpt lat="47.29714" lon="6.03925">
        <ele>342.85</ele>
        <time>2018-07-14T09:38:18Z</time>
      </trkpt>
      <trkpt lat="47.29708" lon="6.0392">
        <ele>342.85</ele>
        <time>2018-07-14T09:38:19Z</time>
      </trkpt>
      <trkpt lat="47.29701" lon="6.03915">
        <ele>342.85</ele>
        <time>2018-07-14T09:38:20Z</time>
      </trkpt>
      <trkpt lat="47.29676" lon="6.03898">
        <ele>344.29</ele>
        <time>2018-07-14T09:38:24Z</time>
      </trkpt>
      <trkpt lat="47.2967" lon="6.03895">
        <ele>344.77</ele>
        <time>2018-07-14T09:38:25Z</time>
      </trkpt>
      <trkpt lat="47.29664" lon="6.03892">
        <ele>344.77</ele>
        <time>2018-07-14T09:38:26Z</time>
      </trkpt>
      <trkpt lat="47.29659" lon="6.03888">
        <ele>345.25</ele>
        <time>2018-07-14T09:38:27Z</time>
      </trkpt>
      <trkpt lat="47.29654" lon="6.03882">
        <ele>345.25</ele>
        <time>2018-07-14T09:38:28Z</time>
      </trkpt>
      <trkpt lat="47.29639" lon="6.03862">
        <ele>345.73</ele>
        <time>2018-07-14T09:38:31Z</time>
      </trkpt>
      <trkpt lat="47.29624" lon="6.03845">
        <ele>346.69</ele>
        <time>2018-07-14T09:38:34Z</time>
      </trkpt>
      <trkpt lat="47.2962" lon="6.0384">
        <ele>346.69</ele>
        <time>2018-07-14T09:38:35Z</time>
      </trkpt>
      <trkpt lat="47.29616" lon="6.03835">
        <ele>346.69</ele>
        <time>2018-07-14T09:38:36Z</time>
      </trkpt>
      <trkpt lat="47.29613" lon="6.03829">
        <ele>347.17</ele>
        <time>2018-07-14T09:38:37Z</time>
      </trkpt>
      <trkpt lat="47.2961" lon="6.03822">
        <ele>346.69</ele>
        <time>2018-07-14T09:38:38Z</time>
      </trkpt>
      <trkpt lat="47.29608" lon="6.03814">
        <ele>346.69</ele>
        <time>2018-07-14T09:38:39Z</time>
      </trkpt>
      <trkpt lat="47.29607" lon="6.03806">
        <ele>346.69</ele>
        <time>2018-07-14T09:38:40Z</time>
      </trkpt>
      <trkpt lat="47.29604" lon="6.03789">
        <ele>346.69</ele>
        <time>2018-07-14T09:38:42Z</time>
      </trkpt>
      <trkpt lat="47.29602" lon="6.03782">
        <ele>346.69</ele>
        <time>2018-07-14T09:38:43Z</time>
      </trkpt>
      <trkpt lat="47.29598" lon="6.03769">
        <ele>347.65</ele>
        <time>2018-07-14T09:38:45Z</time>
      </trkpt>
      <trkpt lat="47.29595" lon="6.03762">
        <ele>348.13</ele>
        <time>2018-07-14T09:38:46Z</time>
      </trkpt>
      <trkpt lat="47.29589" lon="6.03744">
        <ele>349.1</ele>
        <time>2018-07-14T09:38:49Z</time>
      </trkpt>
      <trkpt lat="47.29574" lon="6.03682">
        <ele>350.54</ele>
        <time>2018-07-14T09:38:59Z</time>
      </trkpt>
      <trkpt lat="47.29565" lon="6.03657">
        <ele>350.54</ele>
        <time>2018-07-14T09:39:04Z</time>
      </trkpt>
      <trkpt lat="47.29561" lon="6.03655">
        <ele>351.02</ele>
        <time>2018-07-14T09:39:05Z</time>
      </trkpt>
      <trkpt lat="47.29559" lon="6.03653">
        <ele>351.02</ele>
        <time>2018-07-14T09:39:06Z</time>
      </trkpt>
      <trkpt lat="47.29556" lon="6.03651">
        <ele>351.5</ele>
        <time>2018-07-14T09:39:07Z</time>
      </trkpt>
      <trkpt lat="47.29552" lon="6.03648">
        <ele>351.98</ele>
        <time>2018-07-14T09:39:08Z</time>
      </trkpt>
      <trkpt lat="47.29518" lon="6.03626">
        <ele>354.38</ele>
        <time>2018-07-14T09:39:18Z</time>
      </trkpt>
      <trkpt lat="47.29509" lon="6.03616">
        <ele>354.86</ele>
        <time>2018-07-14T09:39:21Z</time>
      </trkpt>
      <trkpt lat="47.29507" lon="6.03612">
        <ele>354.86</ele>
        <time>2018-07-14T09:39:22Z</time>
      </trkpt>
      <trkpt lat="47.2949" lon="6.03568">
        <ele>357.27</ele>
        <time>2018-07-14T09:39:32Z</time>
      </trkpt>
      <trkpt lat="47.2949" lon="6.03565">
        <ele>357.27</ele>
        <time>2018-07-14T09:39:33Z</time>
      </trkpt>
      <trkpt lat="47.29489" lon="6.03561">
        <ele>357.27</ele>
        <time>2018-07-14T09:39:34Z</time>
      </trkpt>
      <trkpt lat="47.29488" lon="6.03557">
        <ele>357.27</ele>
        <time>2018-07-14T09:39:35Z</time>
      </trkpt>
      <trkpt lat="47.29486" lon="6.03554">
        <ele>357.75</ele>
        <time>2018-07-14T09:39:36Z</time>
      </trkpt>
      <trkpt lat="47.29486" lon="6.03551">
        <ele>358.23</ele>
        <time>2018-07-14T09:39:37Z</time>
      </trkpt>
      <trkpt lat="47.29484" lon="6.03548">
        <ele>358.23</ele>
        <time>2018-07-14T09:39:38Z</time>
      </trkpt>
      <trkpt lat="47.29483" lon="6.03544">
        <ele>358.23</ele>
        <time>2018-07-14T09:39:39Z</time>
      </trkpt>
      <trkpt lat="47.29481" lon="6.03541">
        <ele>358.71</ele>
        <time>2018-07-14T09:39:40Z</time>
      </trkpt>
      <trkpt lat="47.29474" lon="6.03506">
        <ele>360.63</ele>
        <time>2018-07-14T09:39:49Z</time>
      </trkpt>
      <trkpt lat="47.29472" lon="6.03503">
        <ele>360.63</ele>
        <time>2018-07-14T09:39:50Z</time>
      </trkpt>
      <trkpt lat="47.29471" lon="6.035">
        <ele>361.11</ele>
        <time>2018-07-14T09:39:51Z</time>
      </trkpt>
      <trkpt lat="47.29469" lon="6.03498">
        <ele>361.11</ele>
        <time>2018-07-14T09:39:52Z</time>
      </trkpt>
      <trkpt lat="47.29467" lon="6.03494">
        <ele>361.59</ele>
        <time>2018-07-14T09:39:53Z</time>
      </trkpt>
      <trkpt lat="47.29447" lon="6.03485">
        <ele>363.52</ele>
        <time>2018-07-14T09:40:01Z</time>
      </trkpt>
      <trkpt lat="47.29433" lon="6.0349">
        <ele>364</ele>
        <time>2018-07-14T09:40:06Z</time>
      </trkpt>
      <trkpt lat="47.2941" lon="6.03504">
        <ele>365.92</ele>
        <time>2018-07-14T09:40:14Z</time>
      </trkpt>
      <trkpt lat="47.29407" lon="6.03506">
        <ele>365.92</ele>
        <time>2018-07-14T09:40:15Z</time>
      </trkpt>
      <trkpt lat="47.29406" lon="6.03508">
        <ele>365.92</ele>
        <time>2018-07-14T09:40:16Z</time>
      </trkpt>
      <trkpt lat="47.29404" lon="6.0351">
        <ele>366.4</ele>
        <time>2018-07-14T09:40:17Z</time>
      </trkpt>
      <trkpt lat="47.29402" lon="6.03511">
        <ele>366.4</ele>
        <time>2018-07-14T09:40:18Z</time>
      </trkpt>
      <trkpt lat="47.29396" lon="6.03515">
        <ele>366.88</ele>
        <time>2018-07-14T09:40:20Z</time>
      </trkpt>
      <trkpt lat="47.29393" lon="6.03516">
        <ele>367.36</ele>
        <time>2018-07-14T09:40:21Z</time>
      </trkpt>
      <trkpt lat="47.29385" lon="6.03517">
        <ele>367.84</ele>
        <time>2018-07-14T09:40:24Z</time>
      </trkpt>
      <trkpt lat="47.29373" lon="6.03515">
        <ele>369.28</ele>
        <time>2018-07-14T09:40:28Z</time>
      </trkpt>
      <trkpt lat="47.2935" lon="6.03501">
        <ele>371.69</ele>
        <time>2018-07-14T09:40:36Z</time>
      </trkpt>
      <trkpt lat="47.29347" lon="6.03499">
        <ele>371.69</ele>
        <time>2018-07-14T09:40:37Z</time>
      </trkpt>
      <trkpt lat="47.29312" lon="6.03484">
        <ele>373.61</ele>
        <time>2018-07-14T09:40:48Z</time>
      </trkpt>
      <trkpt lat="47.29278" lon="6.03464">
        <ele>375.05</ele>
        <time>2018-07-14T09:40:59Z</time>
      </trkpt>
      <trkpt lat="47.2925" lon="6.03451">
        <ele>375.53</ele>
        <time>2018-07-14T09:41:08Z</time>
      </trkpt>
      <trkpt lat="47.29222" lon="6.03449">
        <ele>376.97</ele>
        <time>2018-07-14T09:41:16Z</time>
      </trkpt>
      <trkpt lat="47.29216" lon="6.03449">
        <ele>377.45</ele>
        <time>2018-07-14T09:41:18Z</time>
      </trkpt>
      <trkpt lat="47.29213" lon="6.03448">
        <ele>377.94</ele>
        <time>2018-07-14T09:41:19Z</time>
      </trkpt>
      <trkpt lat="47.2921" lon="6.03448">
        <ele>377.94</ele>
        <time>2018-07-14T09:41:20Z</time>
      </trkpt>
      <trkpt lat="47.29164" lon="6.03426">
        <ele>378.42</ele>
        <time>2018-07-14T09:41:33Z</time>
      </trkpt>
      <trkpt lat="47.29158" lon="6.03418">
        <ele>378.42</ele>
        <time>2018-07-14T09:41:35Z</time>
      </trkpt>
      <trkpt lat="47.29155" lon="6.03412">
        <ele>377.94</ele>
        <time>2018-07-14T09:41:36Z</time>
      </trkpt>
      <trkpt lat="47.29152" lon="6.03406">
        <ele>377.94</ele>
        <time>2018-07-14T09:41:37Z</time>
      </trkpt>
      <trkpt lat="47.2915" lon="6.034">
        <ele>377.94</ele>
        <time>2018-07-14T09:41:38Z</time>
      </trkpt>
      <trkpt lat="47.29147" lon="6.03394">
        <ele>377.45</ele>
        <time>2018-07-14T09:41:39Z</time>
      </trkpt>
      <trkpt lat="47.29145" lon="6.03387">
        <ele>377.45</ele>
        <time>2018-07-14T09:41:40Z</time>
      </trkpt>
      <trkpt lat="47.29142" lon="6.0338">
        <ele>377.45</ele>
        <time>2018-07-14T09:41:41Z</time>
      </trkpt>
      <trkpt lat="47.29139" lon="6.03374">
        <ele>376.97</ele>
        <time>2018-07-14T09:41:42Z</time>
      </trkpt>
      <trkpt lat="47.29136" lon="6.03367">
        <ele>376.97</ele>
        <time>2018-07-14T09:41:43Z</time>
      </trkpt>
      <trkpt lat="47.29133" lon="6.03361">
        <ele>376.49</ele>
        <time>2018-07-14T09:41:44Z</time>
      </trkpt>
      <trkpt lat="47.29129" lon="6.03354">
        <ele>376.49</ele>
        <time>2018-07-14T09:41:45Z</time>
      </trkpt>
      <trkpt lat="47.29127" lon="6.03347">
        <ele>376.01</ele>
        <time>2018-07-14T09:41:46Z</time>
      </trkpt>
      <trkpt lat="47.29122" lon="6.03332">
        <ele>375.53</ele>
        <time>2018-07-14T09:41:48Z</time>
      </trkpt>
      <trkpt lat="47.2911" lon="6.03302">
        <ele>375.53</ele>
        <time>2018-07-14T09:41:52Z</time>
      </trkpt>
      <trkpt lat="47.29107" lon="6.03294">
        <ele>375.05</ele>
        <time>2018-07-14T09:41:53Z</time>
      </trkpt>
      <trkpt lat="47.29086" lon="6.03224">
        <ele>373.61</ele>
        <time>2018-07-14T09:42:02Z</time>
      </trkpt>
      <trkpt lat="47.29078" lon="6.03208">
        <ele>372.65</ele>
        <time>2018-07-14T09:42:04Z</time>
      </trkpt>
      <trkpt lat="47.29066" lon="6.03185">
        <ele>371.21</ele>
        <time>2018-07-14T09:42:07Z</time>
      </trkpt>
      <trkpt lat="47.2906" lon="6.03181">
        <ele>369.76</ele>
        <time>2018-07-14T09:42:08Z</time>
      </trkpt>
      <trkpt lat="47.29054" lon="6.03178">
        <ele>368.8</ele>
        <time>2018-07-14T09:42:09Z</time>
      </trkpt>
      <trkpt lat="47.29047" lon="6.03176">
        <ele>367.84</ele>
        <time>2018-07-14T09:42:10Z</time>
      </trkpt>
      <trkpt lat="47.2904" lon="6.03172">
        <ele>366.88</ele>
        <time>2018-07-14T09:42:11Z</time>
      </trkpt>
      <trkpt lat="47.29033" lon="6.03168">
        <ele>366.4</ele>
        <time>2018-07-14T09:42:12Z</time>
      </trkpt>
      <trkpt lat="47.29025" lon="6.03162">
        <ele>366.4</ele>
        <time>2018-07-14T09:42:13Z</time>
      </trkpt>
      <trkpt lat="47.29011" lon="6.0315">
        <ele>366.4</ele>
        <time>2018-07-14T09:42:15Z</time>
      </trkpt>
      <trkpt lat="47.29005" lon="6.03143">
        <ele>366.4</ele>
        <time>2018-07-14T09:42:16Z</time>
      </trkpt>
      <trkpt lat="47.28993" lon="6.03129">
        <ele>366.4</ele>
        <time>2018-07-14T09:42:18Z</time>
      </trkpt>
      <trkpt lat="47.28986" lon="6.03123">
        <ele>366.4</ele>
        <time>2018-07-14T09:42:19Z</time>
      </trkpt>
      <trkpt lat="47.28974" lon="6.03113">
        <ele>365.92</ele>
        <time>2018-07-14T09:42:21Z</time>
      </trkpt>
      <trkpt lat="47.28969" lon="6.03107">
        <ele>365.44</ele>
        <time>2018-07-14T09:42:22Z</time>
      </trkpt>
      <trkpt lat="47.28964" lon="6.031">
        <ele>365.44</ele>
        <time>2018-07-14T09:42:23Z</time>
      </trkpt>
      <trkpt lat="47.28959" lon="6.03093">
        <ele>365.44</ele>
        <time>2018-07-14T09:42:24Z</time>
      </trkpt>
      <trkpt lat="47.28955" lon="6.03085">
        <ele>365.44</ele>
        <time>2018-07-14T09:42:25Z</time>
      </trkpt>
      <trkpt lat="47.28932" lon="6.03047">
        <ele>364</ele>
        <time>2018-07-14T09:42:31Z</time>
      </trkpt>
      <trkpt lat="47.28927" lon="6.03041">
        <ele>364</ele>
        <time>2018-07-14T09:42:32Z</time>
      </trkpt>
      <trkpt lat="47.28923" lon="6.03037">
        <ele>364</ele>
        <time>2018-07-14T09:42:33Z</time>
      </trkpt>
      <trkpt lat="47.28917" lon="6.03033">
        <ele>364</ele>
        <time>2018-07-14T09:42:34Z</time>
      </trkpt>
      <trkpt lat="47.28912" lon="6.03029">
        <ele>364</ele>
        <time>2018-07-14T09:42:35Z</time>
      </trkpt>
      <trkpt lat="47.28906" lon="6.03025">
        <ele>364</ele>
        <time>2018-07-14T09:42:36Z</time>
      </trkpt>
      <trkpt lat="47.28902" lon="6.0302">
        <ele>364</ele>
        <time>2018-07-14T09:42:37Z</time>
      </trkpt>
      <trkpt lat="47.28897" lon="6.03015">
        <ele>364</ele>
        <time>2018-07-14T09:42:38Z</time>
      </trkpt>
      <trkpt lat="47.28884" lon="6.03001">
        <ele>364</ele>
        <time>2018-07-14T09:42:41Z</time>
      </trkpt>
      <trkpt lat="47.28879" lon="6.02998">
        <ele>364</ele>
        <time>2018-07-14T09:42:42Z</time>
      </trkpt>
      <trkpt lat="47.28874" lon="6.02995">
        <ele>364</ele>
        <time>2018-07-14T09:42:43Z</time>
      </trkpt>
      <trkpt lat="47.28869" lon="6.02994">
        <ele>364</ele>
        <time>2018-07-14T09:42:44Z</time>
      </trkpt>
      <trkpt lat="47.28864" lon="6.02993">
        <ele>364</ele>
        <time>2018-07-14T09:42:45Z</time>
      </trkpt>
      <trkpt lat="47.2886" lon="6.02993">
        <ele>364.48</ele>
        <time>2018-07-14T09:42:46Z</time>
      </trkpt>
      <trkpt lat="47.28856" lon="6.02994">
        <ele>364.48</ele>
        <time>2018-07-14T09:42:47Z</time>
      </trkpt>
      <trkpt lat="47.28853" lon="6.02997">
        <ele>364.48</ele>
        <time>2018-07-14T09:42:48Z</time>
      </trkpt>
      <trkpt lat="47.2885" lon="6.03001">
        <ele>364.96</ele>
        <time>2018-07-14T09:42:49Z</time>
      </trkpt>
      <trkpt lat="47.28849" lon="6.03004">
        <ele>364.96</ele>
        <time>2018-07-14T09:42:50Z</time>
      </trkpt>
      <trkpt lat="47.28846" lon="6.03007">
        <ele>364.48</ele>
        <time>2018-07-14T09:42:51Z</time>
      </trkpt>
      <trkpt lat="47.28841" lon="6.03015">
        <ele>364</ele>
        <time>2018-07-14T09:42:53Z</time>
      </trkpt>
      <trkpt lat="47.28837" lon="6.03019">
        <ele>363.52</ele>
        <time>2018-07-14T09:42:54Z</time>
      </trkpt>
      <trkpt lat="47.28826" lon="6.03033">
        <ele>362.07</ele>
        <time>2018-07-14T09:42:57Z</time>
      </trkpt>
      <trkpt lat="47.28819" lon="6.03045">
        <ele>361.11</ele>
        <time>2018-07-14T09:42:59Z</time>
      </trkpt>
      <trkpt lat="47.2881" lon="6.03056">
        <ele>360.15</ele>
        <time>2018-07-14T09:43:01Z</time>
      </trkpt>
      <trkpt lat="47.28806" lon="6.03062">
        <ele>360.15</ele>
        <time>2018-07-14T09:43:02Z</time>
      </trkpt>
      <trkpt lat="47.28782" lon="6.03091">
        <ele>356.79</ele>
        <time>2018-07-14T09:43:07Z</time>
      </trkpt>
      <trkpt lat="47.2876" lon="6.0312">
        <ele>353.9</ele>
        <time>2018-07-14T09:43:11Z</time>
      </trkpt>
      <trkpt lat="47.28738" lon="6.03148">
        <ele>350.06</ele>
        <time>2018-07-14T09:43:15Z</time>
      </trkpt>
      <trkpt lat="47.28717" lon="6.03174">
        <ele>346.21</ele>
        <time>2018-07-14T09:43:18Z</time>
      </trkpt>
      <trkpt lat="47.28696" lon="6.032">
        <ele>344.77</ele>
        <time>2018-07-14T09:43:21Z</time>
      </trkpt>
      <trkpt lat="47.2868" lon="6.0322">
        <ele>341.41</ele>
        <time>2018-07-14T09:43:24Z</time>
      </trkpt>
      <trkpt lat="47.28674" lon="6.03226">
        <ele>339.48</ele>
        <time>2018-07-14T09:43:25Z</time>
      </trkpt>
      <trkpt lat="47.28655" lon="6.03248">
        <ele>337.08</ele>
        <time>2018-07-14T09:43:28Z</time>
      </trkpt>
      <trkpt lat="47.28649" lon="6.03255">
        <ele>337.08</ele>
        <time>2018-07-14T09:43:29Z</time>
      </trkpt>
      <trkpt lat="47.2864" lon="6.03269">
        <ele>338.52</ele>
        <time>2018-07-14T09:43:31Z</time>
      </trkpt>
      <trkpt lat="47.28634" lon="6.03283">
        <ele>340.92</ele>
        <time>2018-07-14T09:43:34Z</time>
      </trkpt>
      <trkpt lat="47.28623" lon="6.03298">
        <ele>342.37</ele>
        <time>2018-07-14T09:43:45Z</time>
      </trkpt>
      <trkpt lat="47.28622" lon="6.03297">
        <ele>342.37</ele>
        <time>2018-07-14T09:43:46Z</time>
      </trkpt>
      <trkpt lat="47.28621" lon="6.03296">
        <ele>342.37</ele>
        <time>2018-07-14T09:43:47Z</time>
      </trkpt>
      <trkpt lat="47.28619" lon="6.03295">
        <ele>342.37</ele>
        <time>2018-07-14T09:43:48Z</time>
      </trkpt>
      <trkpt lat="47.28618" lon="6.03295">
        <ele>342.37</ele>
        <time>2018-07-14T09:43:49Z</time>
      </trkpt>
      <trkpt lat="47.28616" lon="6.03295">
        <ele>342.37</ele>
        <time>2018-07-14T09:43:50Z</time>
      </trkpt>
      <trkpt lat="47.28615" lon="6.03295">
        <ele>341.89</ele>
        <time>2018-07-14T09:43:51Z</time>
      </trkpt>
      <trkpt lat="47.28612" lon="6.03297">
        <ele>341.89</ele>
        <time>2018-07-14T09:43:52Z</time>
      </trkpt>
      <trkpt lat="47.28611" lon="6.03298">
        <ele>341.41</ele>
        <time>2018-07-14T09:43:53Z</time>
      </trkpt>
      <trkpt lat="47.28609" lon="6.033">
        <ele>341.41</ele>
        <time>2018-07-14T09:43:54Z</time>
      </trkpt>
      <trkpt lat="47.28607" lon="6.03303">
        <ele>340.92</ele>
        <time>2018-07-14T09:43:55Z</time>
      </trkpt>
      <trkpt lat="47.28604" lon="6.03306">
        <ele>340.92</ele>
        <time>2018-07-14T09:43:56Z</time>
      </trkpt>
      <trkpt lat="47.28601" lon="6.03309">
        <ele>339.96</ele>
        <time>2018-07-14T09:43:57Z</time>
      </trkpt>
      <trkpt lat="47.28598" lon="6.03311">
        <ele>339</ele>
        <time>2018-07-14T09:43:58Z</time>
      </trkpt>
      <trkpt lat="47.2858" lon="6.03327">
        <ele>335.64</ele>
        <time>2018-07-14T09:44:02Z</time>
      </trkpt>
      <trkpt lat="47.28565" lon="6.03345">
        <ele>334.68</ele>
        <time>2018-07-14T09:44:05Z</time>
      </trkpt>
      <trkpt lat="47.2856" lon="6.03351">
        <ele>334.68</ele>
        <time>2018-07-14T09:44:06Z</time>
      </trkpt>
      <trkpt lat="47.2855" lon="6.03364">
        <ele>334.2</ele>
        <time>2018-07-14T09:44:08Z</time>
      </trkpt>
      <trkpt lat="47.28546" lon="6.03371">
        <ele>333.71</ele>
        <time>2018-07-14T09:44:09Z</time>
      </trkpt>
      <trkpt lat="47.28519" lon="6.03405">
        <ele>330.35</ele>
        <time>2018-07-14T09:44:14Z</time>
      </trkpt>
      <trkpt lat="47.28475" lon="6.03463">
        <ele>331.79</ele>
        <time>2018-07-14T09:44:22Z</time>
      </trkpt>
      <trkpt lat="47.28451" lon="6.03504">
        <ele>333.71</ele>
        <time>2018-07-14T09:44:29Z</time>
      </trkpt>
      <trkpt lat="47.2845" lon="6.03508">
        <ele>333.71</ele>
        <time>2018-07-14T09:44:30Z</time>
      </trkpt>
      <trkpt lat="47.28446" lon="6.03519">
        <ele>334.68</ele>
        <time>2018-07-14T09:44:33Z</time>
      </trkpt>
      <trkpt lat="47.28442" lon="6.03522">
        <ele>335.16</ele>
        <time>2018-07-14T09:44:34Z</time>
      </trkpt>
      <trkpt lat="47.28438" lon="6.03526">
        <ele>335.64</ele>
        <time>2018-07-14T09:44:35Z</time>
      </trkpt>
      <trkpt lat="47.28437" lon="6.03529">
        <ele>336.12</ele>
        <time>2018-07-14T09:44:36Z</time>
      </trkpt>
      <trkpt lat="47.28436" lon="6.03533">
        <ele>336.12</ele>
        <time>2018-07-14T09:44:37Z</time>
      </trkpt>
      <trkpt lat="47.28437" lon="6.03534">
        <ele>336.12</ele>
        <time>2018-07-14T09:44:38Z</time>
      </trkpt>
      <trkpt lat="47.28438" lon="6.03535">
        <ele>336.12</ele>
        <time>2018-07-14T09:44:39Z</time>
      </trkpt>
      <trkpt lat="47.28461" lon="6.03556">
        <ele>336.12</ele>
        <time>2018-07-14T09:44:48Z</time>
      </trkpt>
      <trkpt lat="47.28465" lon="6.03559">
        <ele>336.12</ele>
        <time>2018-07-14T09:44:49Z</time>
      </trkpt>
      <trkpt lat="47.28498" lon="6.03595">
        <ele>336.12</ele>
        <time>2018-07-14T09:44:59Z</time>
      </trkpt>
      <trkpt lat="47.28512" lon="6.03608">
        <ele>336.6</ele>
        <time>2018-07-14T09:45:03Z</time>
      </trkpt>
      <trkpt lat="47.28515" lon="6.03611">
        <ele>336.6</ele>
        <time>2018-07-14T09:45:04Z</time>
      </trkpt>
      <trkpt lat="47.28564" lon="6.03648">
        <ele>336.12</ele>
        <time>2018-07-14T09:45:15Z</time>
      </trkpt>
      <trkpt lat="47.2859" lon="6.03669">
        <ele>336.12</ele>
        <time>2018-07-14T09:45:21Z</time>
      </trkpt>
      <trkpt lat="47.28595" lon="6.03673">
        <ele>336.12</ele>
        <time>2018-07-14T09:45:22Z</time>
      </trkpt>
      <trkpt lat="47.28629" lon="6.03706">
        <ele>336.12</ele>
        <time>2018-07-14T09:45:31Z</time>
      </trkpt>
      <trkpt lat="47.28633" lon="6.03708">
        <ele>335.64</ele>
        <time>2018-07-14T09:45:32Z</time>
      </trkpt>
      <trkpt lat="47.28637" lon="6.0371">
        <ele>335.64</ele>
        <time>2018-07-14T09:45:33Z</time>
      </trkpt>
      <trkpt lat="47.28642" lon="6.03715">
        <ele>336.12</ele>
        <time>2018-07-14T09:45:35Z</time>
      </trkpt>
      <trkpt lat="47.28642" lon="6.03718">
        <ele>336.12</ele>
        <time>2018-07-14T09:45:36Z</time>
      </trkpt>
      <trkpt lat="47.28641" lon="6.03721">
        <ele>336.12</ele>
        <time>2018-07-14T09:45:37Z</time>
      </trkpt>
      <trkpt lat="47.2864" lon="6.03724">
        <ele>335.64</ele>
        <time>2018-07-14T09:45:38Z</time>
      </trkpt>
      <trkpt lat="47.28639" lon="6.03727">
        <ele>336.12</ele>
        <time>2018-07-14T09:45:39Z</time>
      </trkpt>
      <trkpt lat="47.28633" lon="6.0374">
        <ele>334.68</ele>
        <time>2018-07-14T09:45:42Z</time>
      </trkpt>
      <trkpt lat="47.28612" lon="6.03768">
        <ele>336.6</ele>
        <time>2018-07-14T09:45:52Z</time>
      </trkpt>
      <trkpt lat="47.28605" lon="6.03778">
        <ele>339.96</ele>
        <time>2018-07-14T09:46:00Z</time>
      </trkpt>
      <trkpt lat="47.28601" lon="6.03785">
        <ele>341.89</ele>
        <time>2018-07-14T09:46:06Z</time>
      </trkpt>
      <trkpt lat="47.286" lon="6.03786">
        <ele>341.89</ele>
        <time>2018-07-14T09:46:07Z</time>
      </trkpt>
      <trkpt lat="47.28598" lon="6.03787">
        <ele>342.37</ele>
        <time>2018-07-14T09:46:08Z</time>
      </trkpt>
      <trkpt lat="47.28597" lon="6.03788">
        <ele>342.37</ele>
        <time>2018-07-14T09:46:09Z</time>
      </trkpt>
      <trkpt lat="47.28596" lon="6.0379">
        <ele>342.37</ele>
        <time>2018-07-14T09:46:10Z</time>
      </trkpt>
      <trkpt lat="47.28595" lon="6.03792">
        <ele>342.85</ele>
        <time>2018-07-14T09:46:11Z</time>
      </trkpt>
      <trkpt lat="47.28594" lon="6.03794">
        <ele>342.85</ele>
        <time>2018-07-14T09:46:12Z</time>
      </trkpt>
      <trkpt lat="47.28593" lon="6.03795">
        <ele>343.33</ele>
        <time>2018-07-14T09:46:13Z</time>
      </trkpt>
      <trkpt lat="47.28591" lon="6.03797">
        <ele>343.33</ele>
        <time>2018-07-14T09:46:14Z</time>
      </trkpt>
      <trkpt lat="47.28589" lon="6.038">
        <ele>343.81</ele>
        <time>2018-07-14T09:46:16Z</time>
      </trkpt>
      <trkpt lat="47.28587" lon="6.03802">
        <ele>343.81</ele>
        <time>2018-07-14T09:46:17Z</time>
      </trkpt>
      <trkpt lat="47.28563" lon="6.03834">
        <ele>347.17</ele>
        <time>2018-07-14T09:46:33Z</time>
      </trkpt>
      <trkpt lat="47.28545" lon="6.03855">
        <ele>349.58</ele>
        <time>2018-07-14T09:46:45Z</time>
      </trkpt>
      <trkpt lat="47.28544" lon="6.03857">
        <ele>349.58</ele>
        <time>2018-07-14T09:46:46Z</time>
      </trkpt>
      <trkpt lat="47.28536" lon="6.03866">
        <ele>350.54</ele>
        <time>2018-07-14T09:46:52Z</time>
      </trkpt>
      <trkpt lat="47.28534" lon="6.03867">
        <ele>351.02</ele>
        <time>2018-07-14T09:46:53Z</time>
      </trkpt>
      <trkpt lat="47.28532" lon="6.03867">
        <ele>351.02</ele>
        <time>2018-07-14T09:46:54Z</time>
      </trkpt>
      <trkpt lat="47.28531" lon="6.03866">
        <ele>351.02</ele>
        <time>2018-07-14T09:46:55Z</time>
      </trkpt>
      <trkpt lat="47.28529" lon="6.03865">
        <ele>351.5</ele>
        <time>2018-07-14T09:46:56Z</time>
      </trkpt>
      <trkpt lat="47.28499" lon="6.03839">
        <ele>350.54</ele>
        <time>2018-07-14T09:47:06Z</time>
      </trkpt>
      <trkpt lat="47.28488" lon="6.0383">
        <ele>350.54</ele>
        <time>2018-07-14T09:47:09Z</time>
      </trkpt>
      <trkpt lat="47.28455" lon="6.03798">
        <ele>348.13</ele>
        <time>2018-07-14T09:47:16Z</time>
      </trkpt>
      <trkpt lat="47.2845" lon="6.03793">
        <ele>348.13</ele>
        <time>2018-07-14T09:47:17Z</time>
      </trkpt>
      <trkpt lat="47.28388" lon="6.03732">
        <ele>349.1</ele>
        <time>2018-07-14T09:47:29Z</time>
      </trkpt>
      <trkpt lat="47.28363" lon="6.03707">
        <ele>349.1</ele>
        <time>2018-07-14T09:47:34Z</time>
      </trkpt>
      <trkpt lat="47.28357" lon="6.03702">
        <ele>349.1</ele>
        <time>2018-07-14T09:47:35Z</time>
      </trkpt>
      <trkpt lat="47.28342" lon="6.03688">
        <ele>350.06</ele>
        <time>2018-07-14T09:47:38Z</time>
      </trkpt>
      <trkpt lat="47.28333" lon="6.03678">
        <ele>350.06</ele>
        <time>2018-07-14T09:47:40Z</time>
      </trkpt>
      <trkpt lat="47.28328" lon="6.03673">
        <ele>350.54</ele>
        <time>2018-07-14T09:47:41Z</time>
      </trkpt>
      <trkpt lat="47.28323" lon="6.03669">
        <ele>350.54</ele>
        <time>2018-07-14T09:47:42Z</time>
      </trkpt>
      <trkpt lat="47.28318" lon="6.03666">
        <ele>350.54</ele>
        <time>2018-07-14T09:47:43Z</time>
      </trkpt>
      <trkpt lat="47.28314" lon="6.03663">
        <ele>351.02</ele>
        <time>2018-07-14T09:47:44Z</time>
      </trkpt>
      <trkpt lat="47.2831" lon="6.03659">
        <ele>351.5</ele>
        <time>2018-07-14T09:47:45Z</time>
      </trkpt>
      <trkpt lat="47.28282" lon="6.03633">
        <ele>351.5</ele>
        <time>2018-07-14T09:47:52Z</time>
      </trkpt>
      <trkpt lat="47.28269" lon="6.0362">
        <ele>351.02</ele>
        <time>2018-07-14T09:47:55Z</time>
      </trkpt>
      <trkpt lat="47.28264" lon="6.03613">
        <ele>350.54</ele>
        <time>2018-07-14T09:47:56Z</time>
      </trkpt>
      <trkpt lat="47.28259" lon="6.03608">
        <ele>350.54</ele>
        <time>2018-07-14T09:47:57Z</time>
      </trkpt>
      <trkpt lat="47.28254" lon="6.03604">
        <ele>350.06</ele>
        <time>2018-07-14T09:47:58Z</time>
      </trkpt>
      <trkpt lat="47.28249" lon="6.036">
        <ele>349.58</ele>
        <time>2018-07-14T09:47:59Z</time>
      </trkpt>
      <trkpt lat="47.28243" lon="6.03596">
        <ele>349.1</ele>
        <time>2018-07-14T09:48:00Z</time>
      </trkpt>
      <trkpt lat="47.28236" lon="6.03593">
        <ele>349.1</ele>
        <time>2018-07-14T09:48:01Z</time>
      </trkpt>
      <trkpt lat="47.2823" lon="6.03591">
        <ele>348.62</ele>
        <time>2018-07-14T09:48:02Z</time>
      </trkpt>
      <trkpt lat="47.28183" lon="6.03577">
        <ele>346.69</ele>
        <time>2018-07-14T09:48:09Z</time>
      </trkpt>
      <trkpt lat="47.28176" lon="6.03574">
        <ele>346.69</ele>
        <time>2018-07-14T09:48:10Z</time>
      </trkpt>
      <trkpt lat="47.28169" lon="6.03571">
        <ele>346.21</ele>
        <time>2018-07-14T09:48:11Z</time>
      </trkpt>
      <trkpt lat="47.28162" lon="6.0357">
        <ele>346.21</ele>
        <time>2018-07-14T09:48:12Z</time>
      </trkpt>
      <trkpt lat="47.28156" lon="6.03569">
        <ele>346.21</ele>
        <time>2018-07-14T09:48:13Z</time>
      </trkpt>
      <trkpt lat="47.2815" lon="6.03569">
        <ele>346.69</ele>
        <time>2018-07-14T09:48:14Z</time>
      </trkpt>
      <trkpt lat="47.28132" lon="6.03567">
        <ele>346.69</ele>
        <time>2018-07-14T09:48:17Z</time>
      </trkpt>
      <trkpt lat="47.28121" lon="6.03564">
        <ele>347.17</ele>
        <time>2018-07-14T09:48:19Z</time>
      </trkpt>
      <trkpt lat="47.28115" lon="6.03564">
        <ele>347.65</ele>
        <time>2018-07-14T09:48:20Z</time>
      </trkpt>
      <trkpt lat="47.28111" lon="6.03565">
        <ele>348.62</ele>
        <time>2018-07-14T09:48:21Z</time>
      </trkpt>
      <trkpt lat="47.28104" lon="6.03574">
        <ele>350.54</ele>
        <time>2018-07-14T09:48:25Z</time>
      </trkpt>
      <trkpt lat="47.28103" lon="6.03576">
        <ele>350.54</ele>
        <time>2018-07-14T09:48:26Z</time>
      </trkpt>
      <trkpt lat="47.28102" lon="6.03578">
        <ele>351.02</ele>
        <time>2018-07-14T09:48:27Z</time>
      </trkpt>
      <trkpt lat="47.28095" lon="6.03586">
        <ele>352.46</ele>
        <time>2018-07-14T09:48:32Z</time>
      </trkpt>
      <trkpt lat="47.28093" lon="6.03588">
        <ele>352.46</ele>
        <time>2018-07-14T09:48:33Z</time>
      </trkpt>
      <trkpt lat="47.28092" lon="6.0359">
        <ele>352.94</ele>
        <time>2018-07-14T09:48:34Z</time>
      </trkpt>
      <trkpt lat="47.2809" lon="6.03592">
        <ele>352.94</ele>
        <time>2018-07-14T09:48:35Z</time>
      </trkpt>
      <trkpt lat="47.28089" lon="6.03594">
        <ele>353.42</ele>
        <time>2018-07-14T09:48:36Z</time>
      </trkpt>
      <trkpt lat="47.28088" lon="6.03597">
        <ele>353.9</ele>
        <time>2018-07-14T09:48:37Z</time>
      </trkpt>
      <trkpt lat="47.28086" lon="6.03599">
        <ele>353.9</ele>
        <time>2018-07-14T09:48:38Z</time>
      </trkpt>
      <trkpt lat="47.28085" lon="6.036">
        <ele>354.38</ele>
        <time>2018-07-14T09:48:39Z</time>
      </trkpt>
      <trkpt lat="47.28083" lon="6.03602">
        <ele>354.86</ele>
        <time>2018-07-14T09:48:40Z</time>
      </trkpt>
      <trkpt lat="47.28082" lon="6.03604">
        <ele>355.34</ele>
        <time>2018-07-14T09:48:41Z</time>
      </trkpt>
      <trkpt lat="47.28081" lon="6.03607">
        <ele>355.34</ele>
        <time>2018-07-14T09:48:42Z</time>
      </trkpt>
      <trkpt lat="47.28075" lon="6.03618">
        <ele>357.27</ele>
        <time>2018-07-14T09:48:46Z</time>
      </trkpt>
      <trkpt lat="47.28073" lon="6.03621">
        <ele>357.75</ele>
        <time>2018-07-14T09:48:47Z</time>
      </trkpt>
      <trkpt lat="47.28071" lon="6.03623">
        <ele>357.75</ele>
        <time>2018-07-14T09:48:48Z</time>
      </trkpt>
      <trkpt lat="47.28068" lon="6.03624">
        <ele>358.71</ele>
        <time>2018-07-14T09:48:50Z</time>
      </trkpt>
      <trkpt lat="47.2806" lon="6.03637">
        <ele>359.67</ele>
        <time>2018-07-14T09:49:00Z</time>
      </trkpt>
      <trkpt lat="47.28058" lon="6.03636">
        <ele>359.67</ele>
        <time>2018-07-14T09:49:01Z</time>
      </trkpt>
      <trkpt lat="47.28056" lon="6.03635">
        <ele>359.19</ele>
        <time>2018-07-14T09:49:02Z</time>
      </trkpt>
      <trkpt lat="47.28053" lon="6.03634">
        <ele>359.67</ele>
        <time>2018-07-14T09:49:03Z</time>
      </trkpt>
      <trkpt lat="47.28051" lon="6.03633">
        <ele>359.19</ele>
        <time>2018-07-14T09:49:04Z</time>
      </trkpt>
      <trkpt lat="47.28048" lon="6.03631">
        <ele>358.71</ele>
        <time>2018-07-14T09:49:05Z</time>
      </trkpt>
      <trkpt lat="47.28046" lon="6.03629">
        <ele>358.71</ele>
        <time>2018-07-14T09:49:06Z</time>
      </trkpt>
      <trkpt lat="47.28043" lon="6.03626">
        <ele>358.71</ele>
        <time>2018-07-14T09:49:07Z</time>
      </trkpt>
      <trkpt lat="47.2804" lon="6.03624">
        <ele>358.23</ele>
        <time>2018-07-14T09:49:08Z</time>
      </trkpt>
      <trkpt lat="47.28037" lon="6.03621">
        <ele>357.75</ele>
        <time>2018-07-14T09:49:09Z</time>
      </trkpt>
      <trkpt lat="47.28033" lon="6.03618">
        <ele>357.27</ele>
        <time>2018-07-14T09:49:10Z</time>
      </trkpt>
      <trkpt lat="47.2803" lon="6.03614">
        <ele>357.27</ele>
        <time>2018-07-14T09:49:11Z</time>
      </trkpt>
      <trkpt lat="47.28025" lon="6.03609">
        <ele>356.31</ele>
        <time>2018-07-14T09:49:12Z</time>
      </trkpt>
      <trkpt lat="47.28017" lon="6.03602">
        <ele>355.34</ele>
        <time>2018-07-14T09:49:14Z</time>
      </trkpt>
      <trkpt lat="47.28012" lon="6.03595">
        <ele>354.86</ele>
        <time>2018-07-14T09:49:15Z</time>
      </trkpt>
      <trkpt lat="47.28003" lon="6.03583">
        <ele>354.38</ele>
        <time>2018-07-14T09:49:17Z</time>
      </trkpt>
      <trkpt lat="47.27961" lon="6.03535">
        <ele>350.54</ele>
        <time>2018-07-14T09:49:24Z</time>
      </trkpt>
      <trkpt lat="47.27955" lon="6.03528">
        <ele>350.54</ele>
        <time>2018-07-14T09:49:25Z</time>
      </trkpt>
      <trkpt lat="47.27936" lon="6.03505">
        <ele>349.58</ele>
        <time>2018-07-14T09:49:28Z</time>
      </trkpt>
      <trkpt lat="47.27917" lon="6.03484">
        <ele>348.13</ele>
        <time>2018-07-14T09:49:31Z</time>
      </trkpt>
      <trkpt lat="47.27896" lon="6.03456">
        <ele>351.5</ele>
        <time>2018-07-14T09:49:35Z</time>
      </trkpt>
      <trkpt lat="47.27891" lon="6.0345">
        <ele>355.34</ele>
        <time>2018-07-14T09:49:37Z</time>
      </trkpt>
      <trkpt lat="47.27877" lon="6.03436">
        <ele>358.23</ele>
        <time>2018-07-14T09:49:44Z</time>
      </trkpt>
      <trkpt lat="47.27859" lon="6.03418">
        <ele>359.67</ele>
        <time>2018-07-14T09:49:54Z</time>
      </trkpt>
      <trkpt lat="47.27856" lon="6.03414">
        <ele>360.15</ele>
        <time>2018-07-14T09:49:56Z</time>
      </trkpt>
      <trkpt lat="47.27855" lon="6.03412">
        <ele>360.15</ele>
        <time>2018-07-14T09:49:57Z</time>
      </trkpt>
      <trkpt lat="47.27853" lon="6.0341">
        <ele>360.63</ele>
        <time>2018-07-14T09:49:58Z</time>
      </trkpt>
      <trkpt lat="47.27851" lon="6.03411">
        <ele>360.63</ele>
        <time>2018-07-14T09:49:59Z</time>
      </trkpt>
      <trkpt lat="47.27849" lon="6.03413">
        <ele>360.63</ele>
        <time>2018-07-14T09:50:00Z</time>
      </trkpt>
      <trkpt lat="47.27848" lon="6.03416">
        <ele>360.63</ele>
        <time>2018-07-14T09:50:01Z</time>
      </trkpt>
      <trkpt lat="47.27838" lon="6.0347">
        <ele>360.15</ele>
        <time>2018-07-14T09:50:12Z</time>
      </trkpt>
      <trkpt lat="47.27839" lon="6.03514">
        <ele>360.63</ele>
        <time>2018-07-14T09:50:21Z</time>
      </trkpt>
      <trkpt lat="47.27839" lon="6.03516">
        <ele>361.11</ele>
        <time>2018-07-14T09:50:22Z</time>
      </trkpt>
      <trkpt lat="47.27839" lon="6.03518">
        <ele>361.11</ele>
        <time>2018-07-14T09:50:23Z</time>
      </trkpt>
      <trkpt lat="47.27848" lon="6.03561">
        <ele>362.55</ele>
        <time>2018-07-14T09:50:33Z</time>
      </trkpt>
      <trkpt lat="47.27875" lon="6.036">
        <ele>362.55</ele>
        <time>2018-07-14T09:50:43Z</time>
      </trkpt>
      <trkpt lat="47.27884" lon="6.03609">
        <ele>362.07</ele>
        <time>2018-07-14T09:50:46Z</time>
      </trkpt>
      <trkpt lat="47.27888" lon="6.03612">
        <ele>362.07</ele>
        <time>2018-07-14T09:50:47Z</time>
      </trkpt>
      <trkpt lat="47.27902" lon="6.0362">
        <ele>362.07</ele>
        <time>2018-07-14T09:50:50Z</time>
      </trkpt>
      <trkpt lat="47.27906" lon="6.03623">
        <ele>362.07</ele>
        <time>2018-07-14T09:50:51Z</time>
      </trkpt>
      <trkpt lat="47.27959" lon="6.03645">
        <ele>361.59</ele>
        <time>2018-07-14T09:51:02Z</time>
      </trkpt>
      <trkpt lat="47.28002" lon="6.03666">
        <ele>361.11</ele>
        <time>2018-07-14T09:51:12Z</time>
      </trkpt>
      <trkpt lat="47.28014" lon="6.03674">
        <ele>361.11</ele>
        <time>2018-07-14T09:51:15Z</time>
      </trkpt>
      <trkpt lat="47.28019" lon="6.03676">
        <ele>361.11</ele>
        <time>2018-07-14T09:51:16Z</time>
      </trkpt>
      <trkpt lat="47.28023" lon="6.03679">
        <ele>361.11</ele>
        <time>2018-07-14T09:51:17Z</time>
      </trkpt>
      <trkpt lat="47.28028" lon="6.03681">
        <ele>361.11</ele>
        <time>2018-07-14T09:51:18Z</time>
      </trkpt>
      <trkpt lat="47.28034" lon="6.03682">
        <ele>360.63</ele>
        <time>2018-07-14T09:51:19Z</time>
      </trkpt>
      <trkpt lat="47.28039" lon="6.03683">
        <ele>361.11</ele>
        <time>2018-07-14T09:51:20Z</time>
      </trkpt>
      <trkpt lat="47.28045" lon="6.03683">
        <ele>361.11</ele>
        <time>2018-07-14T09:51:21Z</time>
      </trkpt>
      <trkpt lat="47.28065" lon="6.03683">
        <ele>360.63</ele>
        <time>2018-07-14T09:51:25Z</time>
      </trkpt>
      <trkpt lat="47.2807" lon="6.03684">
        <ele>360.63</ele>
        <time>2018-07-14T09:51:26Z</time>
      </trkpt>
      <trkpt lat="47.28075" lon="6.03686">
        <ele>360.15</ele>
        <time>2018-07-14T09:51:27Z</time>
      </trkpt>
      <trkpt lat="47.28079" lon="6.03688">
        <ele>360.15</ele>
        <time>2018-07-14T09:51:28Z</time>
      </trkpt>
      <trkpt lat="47.28084" lon="6.03692">
        <ele>360.15</ele>
        <time>2018-07-14T09:51:29Z</time>
      </trkpt>
      <trkpt lat="47.28088" lon="6.03697">
        <ele>359.67</ele>
        <time>2018-07-14T09:51:30Z</time>
      </trkpt>
      <trkpt lat="47.28104" lon="6.03718">
        <ele>358.71</ele>
        <time>2018-07-14T09:51:34Z</time>
      </trkpt>
      <trkpt lat="47.28108" lon="6.03723">
        <ele>358.23</ele>
        <time>2018-07-14T09:51:35Z</time>
      </trkpt>
      <trkpt lat="47.28112" lon="6.03727">
        <ele>357.75</ele>
        <time>2018-07-14T09:51:36Z</time>
      </trkpt>
      <trkpt lat="47.28117" lon="6.03731">
        <ele>357.27</ele>
        <time>2018-07-14T09:51:37Z</time>
      </trkpt>
      <trkpt lat="47.28122" lon="6.03734">
        <ele>357.27</ele>
        <time>2018-07-14T09:51:38Z</time>
      </trkpt>
      <trkpt lat="47.28134" lon="6.0374">
        <ele>356.31</ele>
        <time>2018-07-14T09:51:40Z</time>
      </trkpt>
      <trkpt lat="47.2814" lon="6.03743">
        <ele>356.31</ele>
        <time>2018-07-14T09:51:41Z</time>
      </trkpt>
      <trkpt lat="47.28146" lon="6.03748">
        <ele>355.83</ele>
        <time>2018-07-14T09:51:42Z</time>
      </trkpt>
      <trkpt lat="47.28151" lon="6.03753">
        <ele>356.31</ele>
        <time>2018-07-14T09:51:43Z</time>
      </trkpt>
      <trkpt lat="47.28156" lon="6.03759">
        <ele>356.79</ele>
        <time>2018-07-14T09:51:44Z</time>
      </trkpt>
      <trkpt lat="47.2816" lon="6.03766">
        <ele>356.79</ele>
        <time>2018-07-14T09:51:45Z</time>
      </trkpt>
      <trkpt lat="47.28164" lon="6.03773">
        <ele>357.27</ele>
        <time>2018-07-14T09:51:46Z</time>
      </trkpt>
      <trkpt lat="47.28167" lon="6.03779">
        <ele>357.75</ele>
        <time>2018-07-14T09:51:47Z</time>
      </trkpt>
      <trkpt lat="47.2817" lon="6.03786">
        <ele>357.75</ele>
        <time>2018-07-14T09:51:48Z</time>
      </trkpt>
      <trkpt lat="47.28173" lon="6.03792">
        <ele>358.23</ele>
        <time>2018-07-14T09:51:49Z</time>
      </trkpt>
      <trkpt lat="47.28176" lon="6.03798">
        <ele>358.71</ele>
        <time>2018-07-14T09:51:50Z</time>
      </trkpt>
      <trkpt lat="47.2818" lon="6.03803">
        <ele>358.71</ele>
        <time>2018-07-14T09:51:51Z</time>
      </trkpt>
      <trkpt lat="47.28183" lon="6.03807">
        <ele>359.19</ele>
        <time>2018-07-14T09:51:52Z</time>
      </trkpt>
      <trkpt lat="47.28206" lon="6.03837">
        <ele>361.11</ele>
        <time>2018-07-14T09:52:01Z</time>
      </trkpt>
      <trkpt lat="47.28235" lon="6.03871">
        <ele>363.04</ele>
        <time>2018-07-14T09:52:12Z</time>
      </trkpt>
      <trkpt lat="47.28269" lon="6.03907">
        <ele>364.48</ele>
        <time>2018-07-14T09:52:25Z</time>
      </trkpt>
      <trkpt lat="47.28275" lon="6.03916">
        <ele>365.44</ele>
        <time>2018-07-14T09:52:28Z</time>
      </trkpt>
      <trkpt lat="47.28297" lon="6.0394">
        <ele>366.88</ele>
        <time>2018-07-14T09:52:38Z</time>
      </trkpt>
      <trkpt lat="47.283" lon="6.03942">
        <ele>367.36</ele>
        <time>2018-07-14T09:52:39Z</time>
      </trkpt>
      <trkpt lat="47.28303" lon="6.03945">
        <ele>367.36</ele>
        <time>2018-07-14T09:52:40Z</time>
      </trkpt>
      <trkpt lat="47.28306" lon="6.03948">
        <ele>367.84</ele>
        <time>2018-07-14T09:52:41Z</time>
      </trkpt>
      <trkpt lat="47.28309" lon="6.03951">
        <ele>367.84</ele>
        <time>2018-07-14T09:52:42Z</time>
      </trkpt>
      <trkpt lat="47.28312" lon="6.03954">
        <ele>367.84</ele>
        <time>2018-07-14T09:52:43Z</time>
      </trkpt>
      <trkpt lat="47.28315" lon="6.03957">
        <ele>368.32</ele>
        <time>2018-07-14T09:52:44Z</time>
      </trkpt>
      <trkpt lat="47.28317" lon="6.03959">
        <ele>368.8</ele>
        <time>2018-07-14T09:52:45Z</time>
      </trkpt>
      <trkpt lat="47.28319" lon="6.03961">
        <ele>368.8</ele>
        <time>2018-07-14T09:52:46Z</time>
      </trkpt>
      <trkpt lat="47.2832" lon="6.03964">
        <ele>368.8</ele>
        <time>2018-07-14T09:52:47Z</time>
      </trkpt>
      <trkpt lat="47.28323" lon="6.03968">
        <ele>369.28</ele>
        <time>2018-07-14T09:52:48Z</time>
      </trkpt>
      <trkpt lat="47.28325" lon="6.03972">
        <ele>369.28</ele>
        <time>2018-07-14T09:52:49Z</time>
      </trkpt>
      <trkpt lat="47.28327" lon="6.03975">
        <ele>369.76</ele>
        <time>2018-07-14T09:52:50Z</time>
      </trkpt>
      <trkpt lat="47.2833" lon="6.03979">
        <ele>369.76</ele>
        <time>2018-07-14T09:52:51Z</time>
      </trkpt>
      <trkpt lat="47.28332" lon="6.03982">
        <ele>370.24</ele>
        <time>2018-07-14T09:52:52Z</time>
      </trkpt>
      <trkpt lat="47.28332" lon="6.03985">
        <ele>370.24</ele>
        <time>2018-07-14T09:52:53Z</time>
      </trkpt>
      <trkpt lat="47.28333" lon="6.03987">
        <ele>370.73</ele>
        <time>2018-07-14T09:52:54Z</time>
      </trkpt>
      <trkpt lat="47.28337" lon="6.03992">
        <ele>370.73</ele>
        <time>2018-07-14T09:52:55Z</time>
      </trkpt>
      <trkpt lat="47.2834" lon="6.03995">
        <ele>371.21</ele>
        <time>2018-07-14T09:52:56Z</time>
      </trkpt>
      <trkpt lat="47.28342" lon="6.03998">
        <ele>371.21</ele>
        <time>2018-07-14T09:52:57Z</time>
      </trkpt>
      <trkpt lat="47.28345" lon="6.04001">
        <ele>371.69</ele>
        <time>2018-07-14T09:52:58Z</time>
      </trkpt>
      <trkpt lat="47.28347" lon="6.04004">
        <ele>371.69</ele>
        <time>2018-07-14T09:52:59Z</time>
      </trkpt>
      <trkpt lat="47.28375" lon="6.04032">
        <ele>373.13</ele>
        <time>2018-07-14T09:53:08Z</time>
      </trkpt>
      <trkpt lat="47.28398" lon="6.04057">
        <ele>374.09</ele>
        <time>2018-07-14T09:53:16Z</time>
      </trkpt>
      <trkpt lat="47.28401" lon="6.04061">
        <ele>374.09</ele>
        <time>2018-07-14T09:53:17Z</time>
      </trkpt>
      <trkpt lat="47.28404" lon="6.04064">
        <ele>374.09</ele>
        <time>2018-07-14T09:53:18Z</time>
      </trkpt>
      <trkpt lat="47.2843" lon="6.04091">
        <ele>375.53</ele>
        <time>2018-07-14T09:53:28Z</time>
      </trkpt>
      <trkpt lat="47.28452" lon="6.04114">
        <ele>376.49</ele>
        <time>2018-07-14T09:53:36Z</time>
      </trkpt>
      <trkpt lat="47.28476" lon="6.04145">
        <ele>377.94</ele>
        <time>2018-07-14T09:53:47Z</time>
      </trkpt>
      <trkpt lat="47.28495" lon="6.04168">
        <ele>379.38</ele>
        <time>2018-07-14T09:53:54Z</time>
      </trkpt>
      <trkpt lat="47.28497" lon="6.04171">
        <ele>379.38</ele>
        <time>2018-07-14T09:53:55Z</time>
      </trkpt>
      <trkpt lat="47.28498" lon="6.04174">
        <ele>379.38</ele>
        <time>2018-07-14T09:53:56Z</time>
      </trkpt>
      <trkpt lat="47.28523" lon="6.04209">
        <ele>378.9</ele>
        <time>2018-07-14T09:54:05Z</time>
      </trkpt>
      <trkpt lat="47.28541" lon="6.0423">
        <ele>376.97</ele>
        <time>2018-07-14T09:54:11Z</time>
      </trkpt>
      <trkpt lat="47.28545" lon="6.04234">
        <ele>376.49</ele>
        <time>2018-07-14T09:54:12Z</time>
      </trkpt>
      <trkpt lat="47.28548" lon="6.04239">
        <ele>376.49</ele>
        <time>2018-07-14T09:54:13Z</time>
      </trkpt>
      <trkpt lat="47.28551" lon="6.04243">
        <ele>376.49</ele>
        <time>2018-07-14T09:54:14Z</time>
      </trkpt>
      <trkpt lat="47.28554" lon="6.04248">
        <ele>376.49</ele>
        <time>2018-07-14T09:54:15Z</time>
      </trkpt>
      <trkpt lat="47.28587" lon="6.04284">
        <ele>375.05</ele>
        <time>2018-07-14T09:54:24Z</time>
      </trkpt>
      <trkpt lat="47.28603" lon="6.043">
        <ele>372.65</ele>
        <time>2018-07-14T09:54:29Z</time>
      </trkpt>
      <trkpt lat="47.28605" lon="6.04303">
        <ele>372.17</ele>
        <time>2018-07-14T09:54:30Z</time>
      </trkpt>
      <trkpt lat="47.28607" lon="6.04305">
        <ele>371.69</ele>
        <time>2018-07-14T09:54:31Z</time>
      </trkpt>
      <trkpt lat="47.28609" lon="6.04306">
        <ele>371.21</ele>
        <time>2018-07-14T09:54:32Z</time>
      </trkpt>
      <trkpt lat="47.2861" lon="6.04307">
        <ele>371.21</ele>
        <time>2018-07-14T09:54:33Z</time>
      </trkpt>
      <trkpt lat="47.28616" lon="6.04317">
        <ele>368.8</ele>
        <time>2018-07-14T09:54:43Z</time>
      </trkpt>
      <trkpt lat="47.28621" lon="6.0432">
        <ele>367.84</ele>
        <time>2018-07-14T09:54:57Z</time>
      </trkpt>
      <trkpt lat="47.28623" lon="6.04322">
        <ele>364.96</ele>
        <time>2018-07-14T09:55:07Z</time>
      </trkpt>
      <trkpt lat="47.28623" lon="6.04323">
        <ele>364</ele>
        <time>2018-07-14T09:55:11Z</time>
      </trkpt>
      <trkpt lat="47.28625" lon="6.04328">
        <ele>361.11</ele>
        <time>2018-07-14T09:55:14Z</time>
      </trkpt>
      <trkpt lat="47.28626" lon="6.0433">
        <ele>360.15</ele>
        <time>2018-07-14T09:55:15Z</time>
      </trkpt>
      <trkpt lat="47.28628" lon="6.04333">
        <ele>359.19</ele>
        <time>2018-07-14T09:55:16Z</time>
      </trkpt>
      <trkpt lat="47.2863" lon="6.04335">
        <ele>358.23</ele>
        <time>2018-07-14T09:55:17Z</time>
      </trkpt>
      <trkpt lat="47.28631" lon="6.04337">
        <ele>357.27</ele>
        <time>2018-07-14T09:55:18Z</time>
      </trkpt>
      <trkpt lat="47.28632" lon="6.04338">
        <ele>356.31</ele>
        <time>2018-07-14T09:55:19Z</time>
      </trkpt>
      <trkpt lat="47.28633" lon="6.04342">
        <ele>353.42</ele>
        <time>2018-07-14T09:55:22Z</time>
      </trkpt>
      <trkpt lat="47.28636" lon="6.04345">
        <ele>352.46</ele>
        <time>2018-07-14T09:55:24Z</time>
      </trkpt>
      <trkpt lat="47.28639" lon="6.0435">
        <ele>351.98</ele>
        <time>2018-07-14T09:55:26Z</time>
      </trkpt>
      <trkpt lat="47.28653" lon="6.04369">
        <ele>353.42</ele>
        <time>2018-07-14T09:55:34Z</time>
      </trkpt>
      <trkpt lat="47.28678" lon="6.04394">
        <ele>356.79</ele>
        <time>2018-07-14T09:55:43Z</time>
      </trkpt>
      <trkpt lat="47.28679" lon="6.04396">
        <ele>356.79</ele>
        <time>2018-07-14T09:55:44Z</time>
      </trkpt>
      <trkpt lat="47.28689" lon="6.04404">
        <ele>356.79</ele>
        <time>2018-07-14T09:55:45Z</time>
      </trkpt>
      <trkpt lat="47.2869" lon="6.04406">
        <ele>357.27</ele>
        <time>2018-07-14T09:55:46Z</time>
      </trkpt>
      <trkpt lat="47.28692" lon="6.04408">
        <ele>357.27</ele>
        <time>2018-07-14T09:55:47Z</time>
      </trkpt>
      <trkpt lat="47.28694" lon="6.0441">
        <ele>357.75</ele>
        <time>2018-07-14T09:55:48Z</time>
      </trkpt>
      <trkpt lat="47.2871" lon="6.04426">
        <ele>359.67</ele>
        <time>2018-07-14T09:55:56Z</time>
      </trkpt>
      <trkpt lat="47.2872" lon="6.0444">
        <ele>360.63</ele>
        <time>2018-07-14T09:56:03Z</time>
      </trkpt>
      <trkpt lat="47.28721" lon="6.04441">
        <ele>361.11</ele>
        <time>2018-07-14T09:56:04Z</time>
      </trkpt>
      <trkpt lat="47.28742" lon="6.04458">
        <ele>362.07</ele>
        <time>2018-07-14T09:56:11Z</time>
      </trkpt>
      <trkpt lat="47.28746" lon="6.04463">
        <ele>362.07</ele>
        <time>2018-07-14T09:56:14Z</time>
      </trkpt>
      <trkpt lat="47.28754" lon="6.04475">
        <ele>363.04</ele>
        <time>2018-07-14T09:56:20Z</time>
      </trkpt>
      <trkpt lat="47.28753" lon="6.04477">
        <ele>363.04</ele>
        <time>2018-07-14T09:56:21Z</time>
      </trkpt>
      <trkpt lat="47.2875" lon="6.04479">
        <ele>362.55</ele>
        <time>2018-07-14T09:56:22Z</time>
      </trkpt>
      <trkpt lat="47.28747" lon="6.04482">
        <ele>362.55</ele>
        <time>2018-07-14T09:56:23Z</time>
      </trkpt>
      <trkpt lat="47.28744" lon="6.04484">
        <ele>362.55</ele>
        <time>2018-07-14T09:56:24Z</time>
      </trkpt>
      <trkpt lat="47.28741" lon="6.04486">
        <ele>362.07</ele>
        <time>2018-07-14T09:56:25Z</time>
      </trkpt>
      <trkpt lat="47.28738" lon="6.04489">
        <ele>361.59</ele>
        <time>2018-07-14T09:56:26Z</time>
      </trkpt>
      <trkpt lat="47.28727" lon="6.04497">
        <ele>361.11</ele>
        <time>2018-07-14T09:56:29Z</time>
      </trkpt>
      <trkpt lat="47.28694" lon="6.04545">
        <ele>357.27</ele>
        <time>2018-07-14T09:56:37Z</time>
      </trkpt>
      <trkpt lat="47.28688" lon="6.04552">
        <ele>356.79</ele>
        <time>2018-07-14T09:56:38Z</time>
      </trkpt>
      <trkpt lat="47.28668" lon="6.0458">
        <ele>355.34</ele>
        <time>2018-07-14T09:56:42Z</time>
      </trkpt>
      <trkpt lat="47.28653" lon="6.04599">
        <ele>353.9</ele>
        <time>2018-07-14T09:56:45Z</time>
      </trkpt>
      <trkpt lat="47.28638" lon="6.04619">
        <ele>352.94</ele>
        <time>2018-07-14T09:56:48Z</time>
      </trkpt>
      <trkpt lat="47.28607" lon="6.04668">
        <ele>351.5</ele>
        <time>2018-07-14T09:56:55Z</time>
      </trkpt>
      <trkpt lat="47.28599" lon="6.04683">
        <ele>351.5</ele>
        <time>2018-07-14T09:56:57Z</time>
      </trkpt>
      <trkpt lat="47.28591" lon="6.04696">
        <ele>351.5</ele>
        <time>2018-07-14T09:56:59Z</time>
      </trkpt>
      <trkpt lat="47.28587" lon="6.04701">
        <ele>351.5</ele>
        <time>2018-07-14T09:57:00Z</time>
      </trkpt>
      <trkpt lat="47.28583" lon="6.04705">
        <ele>351.98</ele>
        <time>2018-07-14T09:57:01Z</time>
      </trkpt>
      <trkpt lat="47.28579" lon="6.04711">
        <ele>351.98</ele>
        <time>2018-07-14T09:57:02Z</time>
      </trkpt>
      <trkpt lat="47.28575" lon="6.04715">
        <ele>352.46</ele>
        <time>2018-07-14T09:57:03Z</time>
      </trkpt>
      <trkpt lat="47.28554" lon="6.04745">
        <ele>355.34</ele>
        <time>2018-07-14T09:57:11Z</time>
      </trkpt>
      <trkpt lat="47.28532" lon="6.04779">
        <ele>357.75</ele>
        <time>2018-07-14T09:57:20Z</time>
      </trkpt>
      <trkpt lat="47.28513" lon="6.04807">
        <ele>359.19</ele>
        <time>2018-07-14T09:57:29Z</time>
      </trkpt>
      <trkpt lat="47.285" lon="6.04828">
        <ele>359.67</ele>
        <time>2018-07-14T09:57:35Z</time>
      </trkpt>
      <trkpt lat="47.28497" lon="6.04832">
        <ele>359.67</ele>
        <time>2018-07-14T09:57:36Z</time>
      </trkpt>
      <trkpt lat="47.28494" lon="6.04835">
        <ele>359.67</ele>
        <time>2018-07-14T09:57:37Z</time>
      </trkpt>
      <trkpt lat="47.28467" lon="6.04873">
        <ele>357.27</ele>
        <time>2018-07-14T09:57:46Z</time>
      </trkpt>
      <trkpt lat="47.28454" lon="6.0489">
        <ele>356.31</ele>
        <time>2018-07-14T09:57:53Z</time>
      </trkpt>
      <trkpt lat="47.28452" lon="6.04892">
        <ele>356.31</ele>
        <time>2018-07-14T09:57:54Z</time>
      </trkpt>
      <trkpt lat="47.2845" lon="6.04894">
        <ele>356.31</ele>
        <time>2018-07-14T09:57:55Z</time>
      </trkpt>
      <trkpt lat="47.28448" lon="6.04896">
        <ele>355.83</ele>
        <time>2018-07-14T09:57:56Z</time>
      </trkpt>
      <trkpt lat="47.28446" lon="6.04899">
        <ele>355.34</ele>
        <time>2018-07-14T09:57:57Z</time>
      </trkpt>
      <trkpt lat="47.28443" lon="6.04902">
        <ele>355.34</ele>
        <time>2018-07-14T09:57:58Z</time>
      </trkpt>
      <trkpt lat="47.28415" lon="6.04941">
        <ele>353.9</ele>
        <time>2018-07-14T09:58:09Z</time>
      </trkpt>
      <trkpt lat="47.28389" lon="6.04976">
        <ele>351.5</ele>
        <time>2018-07-14T09:58:18Z</time>
      </trkpt>
      <trkpt lat="47.28374" lon="6.05001">
        <ele>350.06</ele>
        <time>2018-07-14T09:58:23Z</time>
      </trkpt>
      <trkpt lat="47.28363" lon="6.05016">
        <ele>348.62</ele>
        <time>2018-07-14T09:58:26Z</time>
      </trkpt>
      <trkpt lat="47.28353" lon="6.0503">
        <ele>348.13</ele>
        <time>2018-07-14T09:58:29Z</time>
      </trkpt>
      <trkpt lat="47.28351" lon="6.05033">
        <ele>348.13</ele>
        <time>2018-07-14T09:58:30Z</time>
      </trkpt>
      <trkpt lat="47.28349" lon="6.05036">
        <ele>347.65</ele>
        <time>2018-07-14T09:58:31Z</time>
      </trkpt>
      <trkpt lat="47.28348" lon="6.05038">
        <ele>347.65</ele>
        <time>2018-07-14T09:58:32Z</time>
      </trkpt>
      <trkpt lat="47.28345" lon="6.05039">
        <ele>347.17</ele>
        <time>2018-07-14T09:58:33Z</time>
      </trkpt>
      <trkpt lat="47.28342" lon="6.05039">
        <ele>347.17</ele>
        <time>2018-07-14T09:58:34Z</time>
      </trkpt>
      <trkpt lat="47.2834" lon="6.05037">
        <ele>347.17</ele>
        <time>2018-07-14T09:58:35Z</time>
      </trkpt>
      <trkpt lat="47.28337" lon="6.05034">
        <ele>346.69</ele>
        <time>2018-07-14T09:58:36Z</time>
      </trkpt>
      <trkpt lat="47.28335" lon="6.0503">
        <ele>346.69</ele>
        <time>2018-07-14T09:58:37Z</time>
      </trkpt>
      <trkpt lat="47.28334" lon="6.05026">
        <ele>346.69</ele>
        <time>2018-07-14T09:58:38Z</time>
      </trkpt>
      <trkpt lat="47.28305" lon="6.05003">
        <ele>347.17</ele>
        <time>2018-07-14T09:58:48Z</time>
      </trkpt>
      <trkpt lat="47.28293" lon="6.04996">
        <ele>346.69</ele>
        <time>2018-07-14T09:58:52Z</time>
      </trkpt>
      <trkpt lat="47.28291" lon="6.04994">
        <ele>347.17</ele>
        <time>2018-07-14T09:58:53Z</time>
      </trkpt>
      <trkpt lat="47.28288" lon="6.04993">
        <ele>346.69</ele>
        <time>2018-07-14T09:58:54Z</time>
      </trkpt>
      <trkpt lat="47.28284" lon="6.04992">
        <ele>346.69</ele>
        <time>2018-07-14T09:58:55Z</time>
      </trkpt>
      <trkpt lat="47.2828" lon="6.0499">
        <ele>346.21</ele>
        <time>2018-07-14T09:58:56Z</time>
      </trkpt>
      <trkpt lat="47.28276" lon="6.04988">
        <ele>346.21</ele>
        <time>2018-07-14T09:58:57Z</time>
      </trkpt>
      <trkpt lat="47.28272" lon="6.04985">
        <ele>346.21</ele>
        <time>2018-07-14T09:58:58Z</time>
      </trkpt>
      <trkpt lat="47.28263" lon="6.04981">
        <ele>345.73</ele>
        <time>2018-07-14T09:59:00Z</time>
      </trkpt>
      <trkpt lat="47.28255" lon="6.04976">
        <ele>345.73</ele>
        <time>2018-07-14T09:59:02Z</time>
      </trkpt>
      <trkpt lat="47.28223" lon="6.04941">
        <ele>345.25</ele>
        <time>2018-07-14T09:59:12Z</time>
      </trkpt>
      <trkpt lat="47.28215" lon="6.04929">
        <ele>345.25</ele>
        <time>2018-07-14T09:59:15Z</time>
      </trkpt>
      <trkpt lat="47.28185" lon="6.04888">
        <ele>345.25</ele>
        <time>2018-07-14T09:59:26Z</time>
      </trkpt>
      <trkpt lat="47.28166" lon="6.04839">
        <ele>345.73</ele>
        <time>2018-07-14T09:59:36Z</time>
      </trkpt>
      <trkpt lat="47.28151" lon="6.04828">
        <ele>346.21</ele>
        <time>2018-07-14T09:59:41Z</time>
      </trkpt>
      <trkpt lat="47.28149" lon="6.04831">
        <ele>346.21</ele>
        <time>2018-07-14T09:59:42Z</time>
      </trkpt>
      <trkpt lat="47.28146" lon="6.04834">
        <ele>346.21</ele>
        <time>2018-07-14T09:59:43Z</time>
      </trkpt>
      <trkpt lat="47.28142" lon="6.04837">
        <ele>345.73</ele>
        <time>2018-07-14T09:59:44Z</time>
      </trkpt>
      <trkpt lat="47.28138" lon="6.0484">
        <ele>345.25</ele>
        <time>2018-07-14T09:59:45Z</time>
      </trkpt>
      <trkpt lat="47.28133" lon="6.04842">
        <ele>344.77</ele>
        <time>2018-07-14T09:59:46Z</time>
      </trkpt>
      <trkpt lat="47.28128" lon="6.04843">
        <ele>344.77</ele>
        <time>2018-07-14T09:59:47Z</time>
      </trkpt>
      <trkpt lat="47.28113" lon="6.04848">
        <ele>343.81</ele>
        <time>2018-07-14T09:59:50Z</time>
      </trkpt>
      <trkpt lat="47.28108" lon="6.04852">
        <ele>343.33</ele>
        <time>2018-07-14T09:59:51Z</time>
      </trkpt>
      <trkpt lat="47.28104" lon="6.04856">
        <ele>343.33</ele>
        <time>2018-07-14T09:59:52Z</time>
      </trkpt>
      <trkpt lat="47.28101" lon="6.0486">
        <ele>343.81</ele>
        <time>2018-07-14T09:59:53Z</time>
      </trkpt>
      <trkpt lat="47.28099" lon="6.04863">
        <ele>344.77</ele>
        <time>2018-07-14T09:59:54Z</time>
      </trkpt>
      <trkpt lat="47.28094" lon="6.04872">
        <ele>345.25</ele>
        <time>2018-07-14T09:59:56Z</time>
      </trkpt>
      <trkpt lat="47.28091" lon="6.04878">
        <ele>345.25</ele>
        <time>2018-07-14T09:59:57Z</time>
      </trkpt>
      <trkpt lat="47.28087" lon="6.04883">
        <ele>345.73</ele>
        <time>2018-07-14T09:59:58Z</time>
      </trkpt>
      <trkpt lat="47.28084" lon="6.04887">
        <ele>346.21</ele>
        <time>2018-07-14T09:59:59Z</time>
      </trkpt>
      <trkpt lat="47.28082" lon="6.04892">
        <ele>346.21</ele>
        <time>2018-07-14T10:00:00Z</time>
      </trkpt>
      <trkpt lat="47.28079" lon="6.04897">
        <ele>346.69</ele>
        <time>2018-07-14T10:00:01Z</time>
      </trkpt>
      <trkpt lat="47.28077" lon="6.04903">
        <ele>346.69</ele>
        <time>2018-07-14T10:00:02Z</time>
      </trkpt>
      <trkpt lat="47.28075" lon="6.04909">
        <ele>346.21</ele>
        <time>2018-07-14T10:00:03Z</time>
      </trkpt>
      <trkpt lat="47.28073" lon="6.04915">
        <ele>346.21</ele>
        <time>2018-07-14T10:00:04Z</time>
      </trkpt>
      <trkpt lat="47.2807" lon="6.04921">
        <ele>345.73</ele>
        <time>2018-07-14T10:00:05Z</time>
      </trkpt>
      <trkpt lat="47.28068" lon="6.04928">
        <ele>345.73</ele>
        <time>2018-07-14T10:00:06Z</time>
      </trkpt>
      <trkpt lat="47.28065" lon="6.04934">
        <ele>345.73</ele>
        <time>2018-07-14T10:00:07Z</time>
      </trkpt>
      <trkpt lat="47.28063" lon="6.04939">
        <ele>345.73</ele>
        <time>2018-07-14T10:00:08Z</time>
      </trkpt>
      <trkpt lat="47.2806" lon="6.04944">
        <ele>345.73</ele>
        <time>2018-07-14T10:00:09Z</time>
      </trkpt>
      <trkpt lat="47.28049" lon="6.04963">
        <ele>345.73</ele>
        <time>2018-07-14T10:00:13Z</time>
      </trkpt>
      <trkpt lat="47.28041" lon="6.04974">
        <ele>345.73</ele>
        <time>2018-07-14T10:00:15Z</time>
      </trkpt>
      <trkpt lat="47.28036" lon="6.04979">
        <ele>346.21</ele>
        <time>2018-07-14T10:00:16Z</time>
      </trkpt>
      <trkpt lat="47.28019" lon="6.05004">
        <ele>346.21</ele>
        <time>2018-07-14T10:00:21Z</time>
      </trkpt>
      <trkpt lat="47.27984" lon="6.05047">
        <ele>348.62</ele>
        <time>2018-07-14T10:00:32Z</time>
      </trkpt>
      <trkpt lat="47.27965" lon="6.05073">
        <ele>348.13</ele>
        <time>2018-07-14T10:00:40Z</time>
      </trkpt>
      <trkpt lat="47.27958" lon="6.05079">
        <ele>347.65</ele>
        <time>2018-07-14T10:00:42Z</time>
      </trkpt>
      <trkpt lat="47.27953" lon="6.05081">
        <ele>347.17</ele>
        <time>2018-07-14T10:00:43Z</time>
      </trkpt>
      <trkpt lat="47.27935" lon="6.05098">
        <ele>344.77</ele>
        <time>2018-07-14T10:00:47Z</time>
      </trkpt>
      <trkpt lat="47.27932" lon="6.05105">
        <ele>343.81</ele>
        <time>2018-07-14T10:00:48Z</time>
      </trkpt>
      <trkpt lat="47.27929" lon="6.05111">
        <ele>343.81</ele>
        <time>2018-07-14T10:00:49Z</time>
      </trkpt>
      <trkpt lat="47.27926" lon="6.05115">
        <ele>343.33</ele>
        <time>2018-07-14T10:00:50Z</time>
      </trkpt>
      <trkpt lat="47.27924" lon="6.05116">
        <ele>343.33</ele>
        <time>2018-07-14T10:00:51Z</time>
      </trkpt>
      <trkpt lat="47.27921" lon="6.05117">
        <ele>343.33</ele>
        <time>2018-07-14T10:00:52Z</time>
      </trkpt>
      <trkpt lat="47.27918" lon="6.05119">
        <ele>343.33</ele>
        <time>2018-07-14T10:00:54Z</time>
      </trkpt>
      <trkpt lat="47.27918" lon="6.05122">
        <ele>342.85</ele>
        <time>2018-07-14T10:00:55Z</time>
      </trkpt>
      <trkpt lat="47.27917" lon="6.05127">
        <ele>342.37</ele>
        <time>2018-07-14T10:00:56Z</time>
      </trkpt>
      <trkpt lat="47.2791" lon="6.05145">
        <ele>341.41</ele>
        <time>2018-07-14T10:00:59Z</time>
      </trkpt>
      <trkpt lat="47.27906" lon="6.05151">
        <ele>341.41</ele>
        <time>2018-07-14T10:01:00Z</time>
      </trkpt>
      <trkpt lat="47.27877" lon="6.05195">
        <ele>341.41</ele>
        <time>2018-07-14T10:01:10Z</time>
      </trkpt>
      <trkpt lat="47.27873" lon="6.05201">
        <ele>340.44</ele>
        <time>2018-07-14T10:01:11Z</time>
      </trkpt>
      <trkpt lat="47.27869" lon="6.05208">
        <ele>339.96</ele>
        <time>2018-07-14T10:01:12Z</time>
      </trkpt>
      <trkpt lat="47.27864" lon="6.05214">
        <ele>339.48</ele>
        <time>2018-07-14T10:01:13Z</time>
      </trkpt>
      <trkpt lat="47.2786" lon="6.05221">
        <ele>339</ele>
        <time>2018-07-14T10:01:14Z</time>
      </trkpt>
      <trkpt lat="47.27856" lon="6.05227">
        <ele>339</ele>
        <time>2018-07-14T10:01:15Z</time>
      </trkpt>
      <trkpt lat="47.27852" lon="6.05233">
        <ele>339.48</ele>
        <time>2018-07-14T10:01:16Z</time>
      </trkpt>
      <trkpt lat="47.27848" lon="6.05237">
        <ele>339.96</ele>
        <time>2018-07-14T10:01:17Z</time>
      </trkpt>
      <trkpt lat="47.27844" lon="6.05241">
        <ele>340.44</ele>
        <time>2018-07-14T10:01:18Z</time>
      </trkpt>
      <trkpt lat="47.27841" lon="6.05246">
        <ele>340.92</ele>
        <time>2018-07-14T10:01:19Z</time>
      </trkpt>
      <trkpt lat="47.27838" lon="6.0525">
        <ele>341.41</ele>
        <time>2018-07-14T10:01:20Z</time>
      </trkpt>
      <trkpt lat="47.27814" lon="6.05287">
        <ele>340.92</ele>
        <time>2018-07-14T10:01:29Z</time>
      </trkpt>
      <trkpt lat="47.27793" lon="6.05316">
        <ele>339</ele>
        <time>2018-07-14T10:01:34Z</time>
      </trkpt>
      <trkpt lat="47.27784" lon="6.05328">
        <ele>338.04</ele>
        <time>2018-07-14T10:01:36Z</time>
      </trkpt>
      <trkpt lat="47.2778" lon="6.05334">
        <ele>337.56</ele>
        <time>2018-07-14T10:01:37Z</time>
      </trkpt>
      <trkpt lat="47.27761" lon="6.05353">
        <ele>337.56</ele>
        <time>2018-07-14T10:01:41Z</time>
      </trkpt>
      <trkpt lat="47.27757" lon="6.05352">
        <ele>337.56</ele>
        <time>2018-07-14T10:01:42Z</time>
      </trkpt>
      <trkpt lat="47.27754" lon="6.05349">
        <ele>337.56</ele>
        <time>2018-07-14T10:01:43Z</time>
      </trkpt>
      <trkpt lat="47.27737" lon="6.05324">
        <ele>335.16</ele>
        <time>2018-07-14T10:01:48Z</time>
      </trkpt>
      <trkpt lat="47.27731" lon="6.05321">
        <ele>335.16</ele>
        <time>2018-07-14T10:01:49Z</time>
      </trkpt>
      <trkpt lat="47.27726" lon="6.05319">
        <ele>335.16</ele>
        <time>2018-07-14T10:01:50Z</time>
      </trkpt>
      <trkpt lat="47.27717" lon="6.05311">
        <ele>335.16</ele>
        <time>2018-07-14T10:01:52Z</time>
      </trkpt>
      <trkpt lat="47.27715" lon="6.05306">
        <ele>335.16</ele>
        <time>2018-07-14T10:01:53Z</time>
      </trkpt>
      <trkpt lat="47.27706" lon="6.05285">
        <ele>334.2</ele>
        <time>2018-07-14T10:01:56Z</time>
      </trkpt>
      <trkpt lat="47.27701" lon="6.05264">
        <ele>334.2</ele>
        <time>2018-07-14T10:01:59Z</time>
      </trkpt>
      <trkpt lat="47.277" lon="6.05256">
        <ele>334.2</ele>
        <time>2018-07-14T10:02:00Z</time>
      </trkpt>
      <trkpt lat="47.27699" lon="6.05249">
        <ele>334.2</ele>
        <time>2018-07-14T10:02:01Z</time>
      </trkpt>
      <trkpt lat="47.27697" lon="6.05243">
        <ele>334.2</ele>
        <time>2018-07-14T10:02:02Z</time>
      </trkpt>
      <trkpt lat="47.27695" lon="6.05237">
        <ele>334.68</ele>
        <time>2018-07-14T10:02:03Z</time>
      </trkpt>
      <trkpt lat="47.27691" lon="6.05231">
        <ele>334.2</ele>
        <time>2018-07-14T10:02:04Z</time>
      </trkpt>
      <trkpt lat="47.27687" lon="6.05224">
        <ele>334.68</ele>
        <time>2018-07-14T10:02:05Z</time>
      </trkpt>
      <trkpt lat="47.27683" lon="6.05219">
        <ele>335.16</ele>
        <time>2018-07-14T10:02:06Z</time>
      </trkpt>
      <trkpt lat="47.27679" lon="6.05214">
        <ele>335.64</ele>
        <time>2018-07-14T10:02:07Z</time>
      </trkpt>
      <trkpt lat="47.27674" lon="6.0521">
        <ele>336.12</ele>
        <time>2018-07-14T10:02:08Z</time>
      </trkpt>
      <trkpt lat="47.27665" lon="6.05202">
        <ele>336.12</ele>
        <time>2018-07-14T10:02:10Z</time>
      </trkpt>
      <trkpt lat="47.27651" lon="6.05193">
        <ele>335.64</ele>
        <time>2018-07-14T10:02:13Z</time>
      </trkpt>
      <trkpt lat="47.27647" lon="6.05194">
        <ele>335.64</ele>
        <time>2018-07-14T10:02:14Z</time>
      </trkpt>
      <trkpt lat="47.27643" lon="6.05197">
        <ele>335.64</ele>
        <time>2018-07-14T10:02:15Z</time>
      </trkpt>
      <trkpt lat="47.27627" lon="6.05209">
        <ele>336.6</ele>
        <time>2018-07-14T10:02:19Z</time>
      </trkpt>
      <trkpt lat="47.27622" lon="6.0521">
        <ele>337.08</ele>
        <time>2018-07-14T10:02:20Z</time>
      </trkpt>
      <trkpt lat="47.27617" lon="6.05208">
        <ele>337.08</ele>
        <time>2018-07-14T10:02:21Z</time>
      </trkpt>
      <trkpt lat="47.27612" lon="6.05205">
        <ele>337.08</ele>
        <time>2018-07-14T10:02:22Z</time>
      </trkpt>
      <trkpt lat="47.27609" lon="6.05201">
        <ele>337.08</ele>
        <time>2018-07-14T10:02:23Z</time>
      </trkpt>
      <trkpt lat="47.27607" lon="6.05196">
        <ele>337.56</ele>
        <time>2018-07-14T10:02:24Z</time>
      </trkpt>
      <trkpt lat="47.27605" lon="6.05189">
        <ele>337.08</ele>
        <time>2018-07-14T10:02:25Z</time>
      </trkpt>
      <trkpt lat="47.27603" lon="6.05184">
        <ele>337.08</ele>
        <time>2018-07-14T10:02:26Z</time>
      </trkpt>
      <trkpt lat="47.27599" lon="6.0518">
        <ele>337.56</ele>
        <time>2018-07-14T10:02:27Z</time>
      </trkpt>
      <trkpt lat="47.27596" lon="6.05176">
        <ele>337.56</ele>
        <time>2018-07-14T10:02:28Z</time>
      </trkpt>
      <trkpt lat="47.27577" lon="6.05148">
        <ele>337.08</ele>
        <time>2018-07-14T10:02:34Z</time>
      </trkpt>
      <trkpt lat="47.27574" lon="6.05142">
        <ele>337.56</ele>
        <time>2018-07-14T10:02:35Z</time>
      </trkpt>
      <trkpt lat="47.27573" lon="6.05136">
        <ele>337.08</ele>
        <time>2018-07-14T10:02:36Z</time>
      </trkpt>
      <trkpt lat="47.27572" lon="6.0513">
        <ele>337.08</ele>
        <time>2018-07-14T10:02:37Z</time>
      </trkpt>
      <trkpt lat="47.27572" lon="6.05125">
        <ele>336.6</ele>
        <time>2018-07-14T10:02:38Z</time>
      </trkpt>
      <trkpt lat="47.27571" lon="6.05121">
        <ele>336.6</ele>
        <time>2018-07-14T10:02:39Z</time>
      </trkpt>
      <trkpt lat="47.27571" lon="6.05116">
        <ele>336.12</ele>
        <time>2018-07-14T10:02:40Z</time>
      </trkpt>
      <trkpt lat="47.27572" lon="6.05109">
        <ele>335.64</ele>
        <time>2018-07-14T10:02:41Z</time>
      </trkpt>
      <trkpt lat="47.2758" lon="6.05077">
        <ele>333.71</ele>
        <time>2018-07-14T10:02:45Z</time>
      </trkpt>
      <trkpt lat="47.27581" lon="6.05067">
        <ele>333.23</ele>
        <time>2018-07-14T10:02:46Z</time>
      </trkpt>
      <trkpt lat="47.27583" lon="6.05057">
        <ele>332.75</ele>
        <time>2018-07-14T10:02:47Z</time>
      </trkpt>
      <trkpt lat="47.27586" lon="6.05047">
        <ele>332.27</ele>
        <time>2018-07-14T10:02:48Z</time>
      </trkpt>
      <trkpt lat="47.27592" lon="6.0503">
        <ele>332.27</ele>
        <time>2018-07-14T10:02:50Z</time>
      </trkpt>
      <trkpt lat="47.27595" lon="6.05021">
        <ele>332.75</ele>
        <time>2018-07-14T10:02:51Z</time>
      </trkpt>
      <trkpt lat="47.27597" lon="6.05013">
        <ele>333.23</ele>
        <time>2018-07-14T10:02:52Z</time>
      </trkpt>
      <trkpt lat="47.27599" lon="6.05006">
        <ele>333.71</ele>
        <time>2018-07-14T10:02:53Z</time>
      </trkpt>
      <trkpt lat="47.27602" lon="6.04988">
        <ele>334.2</ele>
        <time>2018-07-14T10:02:56Z</time>
      </trkpt>
      <trkpt lat="47.27601" lon="6.04981">
        <ele>334.2</ele>
        <time>2018-07-14T10:02:57Z</time>
      </trkpt>
      <trkpt lat="47.276" lon="6.04974">
        <ele>333.71</ele>
        <time>2018-07-14T10:02:58Z</time>
      </trkpt>
      <trkpt lat="47.27598" lon="6.04967">
        <ele>334.2</ele>
        <time>2018-07-14T10:02:59Z</time>
      </trkpt>
      <trkpt lat="47.27596" lon="6.0496">
        <ele>334.2</ele>
        <time>2018-07-14T10:03:00Z</time>
      </trkpt>
      <trkpt lat="47.27594" lon="6.04953">
        <ele>334.2</ele>
        <time>2018-07-14T10:03:01Z</time>
      </trkpt>
      <trkpt lat="47.27588" lon="6.04939">
        <ele>334.68</ele>
        <time>2018-07-14T10:03:03Z</time>
      </trkpt>
      <trkpt lat="47.27585" lon="6.04931">
        <ele>335.16</ele>
        <time>2018-07-14T10:03:04Z</time>
      </trkpt>
      <trkpt lat="47.27581" lon="6.04914">
        <ele>335.64</ele>
        <time>2018-07-14T10:03:06Z</time>
      </trkpt>
      <trkpt lat="47.2758" lon="6.04907">
        <ele>336.12</ele>
        <time>2018-07-14T10:03:07Z</time>
      </trkpt>
      <trkpt lat="47.27579" lon="6.049">
        <ele>336.6</ele>
        <time>2018-07-14T10:03:08Z</time>
      </trkpt>
      <trkpt lat="47.27578" lon="6.04893">
        <ele>337.08</ele>
        <time>2018-07-14T10:03:09Z</time>
      </trkpt>
      <trkpt lat="47.27577" lon="6.04887">
        <ele>337.56</ele>
        <time>2018-07-14T10:03:10Z</time>
      </trkpt>
      <trkpt lat="47.27577" lon="6.04881">
        <ele>337.56</ele>
        <time>2018-07-14T10:03:11Z</time>
      </trkpt>
      <trkpt lat="47.27576" lon="6.04876">
        <ele>338.04</ele>
        <time>2018-07-14T10:03:12Z</time>
      </trkpt>
      <trkpt lat="47.27576" lon="6.04873">
        <ele>338.04</ele>
        <time>2018-07-14T10:03:13Z</time>
      </trkpt>
      <trkpt lat="47.27577" lon="6.0487">
        <ele>338.04</ele>
        <time>2018-07-14T10:03:14Z</time>
      </trkpt>
      <trkpt lat="47.27577" lon="6.04866">
        <ele>338.52</ele>
        <time>2018-07-14T10:03:15Z</time>
      </trkpt>
      <trkpt lat="47.27577" lon="6.0486">
        <ele>338.52</ele>
        <time>2018-07-14T10:03:16Z</time>
      </trkpt>
      <trkpt lat="47.27576" lon="6.04854">
        <ele>339</ele>
        <time>2018-07-14T10:03:17Z</time>
      </trkpt>
      <trkpt lat="47.27575" lon="6.04847">
        <ele>339</ele>
        <time>2018-07-14T10:03:18Z</time>
      </trkpt>
      <trkpt lat="47.27574" lon="6.0484">
        <ele>339.48</ele>
        <time>2018-07-14T10:03:19Z</time>
      </trkpt>
      <trkpt lat="47.2757" lon="6.04817">
        <ele>339.96</ele>
        <time>2018-07-14T10:03:22Z</time>
      </trkpt>
      <trkpt lat="47.27569" lon="6.04811">
        <ele>340.44</ele>
        <time>2018-07-14T10:03:23Z</time>
      </trkpt>
      <trkpt lat="47.27568" lon="6.04807">
        <ele>340.44</ele>
        <time>2018-07-14T10:03:24Z</time>
      </trkpt>
      <trkpt lat="47.27568" lon="6.04804">
        <ele>340.92</ele>
        <time>2018-07-14T10:03:25Z</time>
      </trkpt>
      <trkpt lat="47.27567" lon="6.048">
        <ele>340.92</ele>
        <time>2018-07-14T10:03:26Z</time>
      </trkpt>
      <trkpt lat="47.27565" lon="6.04783">
        <ele>341.41</ele>
        <time>2018-07-14T10:03:30Z</time>
      </trkpt>
      <trkpt lat="47.27564" lon="6.04777">
        <ele>341.41</ele>
        <time>2018-07-14T10:03:31Z</time>
      </trkpt>
      <trkpt lat="47.27562" lon="6.04771">
        <ele>341.89</ele>
        <time>2018-07-14T10:03:32Z</time>
      </trkpt>
      <trkpt lat="47.27531" lon="6.04736">
        <ele>342.37</ele>
        <time>2018-07-14T10:03:41Z</time>
      </trkpt>
      <trkpt lat="47.27526" lon="6.04736">
        <ele>342.37</ele>
        <time>2018-07-14T10:03:42Z</time>
      </trkpt>
      <trkpt lat="47.27517" lon="6.04737">
        <ele>341.89</ele>
        <time>2018-07-14T10:03:44Z</time>
      </trkpt>
      <trkpt lat="47.27513" lon="6.04739">
        <ele>341.89</ele>
        <time>2018-07-14T10:03:45Z</time>
      </trkpt>
      <trkpt lat="47.27508" lon="6.04739">
        <ele>341.89</ele>
        <time>2018-07-14T10:03:46Z</time>
      </trkpt>
      <trkpt lat="47.27502" lon="6.04738">
        <ele>341.89</ele>
        <time>2018-07-14T10:03:47Z</time>
      </trkpt>
      <trkpt lat="47.27497" lon="6.04736">
        <ele>341.41</ele>
        <time>2018-07-14T10:03:48Z</time>
      </trkpt>
      <trkpt lat="47.27492" lon="6.04733">
        <ele>341.41</ele>
        <time>2018-07-14T10:03:49Z</time>
      </trkpt>
      <trkpt lat="47.27487" lon="6.0473">
        <ele>341.41</ele>
        <time>2018-07-14T10:03:50Z</time>
      </trkpt>
      <trkpt lat="47.27472" lon="6.04718">
        <ele>341.41</ele>
        <time>2018-07-14T10:03:53Z</time>
      </trkpt>
      <trkpt lat="47.27446" lon="6.04695">
        <ele>340.92</ele>
        <time>2018-07-14T10:03:59Z</time>
      </trkpt>
      <trkpt lat="47.27389" lon="6.04637">
        <ele>342.37</ele>
        <time>2018-07-14T10:04:12Z</time>
      </trkpt>
      <trkpt lat="47.27325" lon="6.04576">
        <ele>340.44</ele>
        <time>2018-07-14T10:04:26Z</time>
      </trkpt>
      <trkpt lat="47.27322" lon="6.04569">
        <ele>339.96</ele>
        <time>2018-07-14T10:04:27Z</time>
      </trkpt>
      <trkpt lat="47.2732" lon="6.04562">
        <ele>339.96</ele>
        <time>2018-07-14T10:04:28Z</time>
      </trkpt>
      <trkpt lat="47.27316" lon="6.04556">
        <ele>339.96</ele>
        <time>2018-07-14T10:04:29Z</time>
      </trkpt>
      <trkpt lat="47.27312" lon="6.0455">
        <ele>339.48</ele>
        <time>2018-07-14T10:04:30Z</time>
      </trkpt>
      <trkpt lat="47.27308" lon="6.04545">
        <ele>339</ele>
        <time>2018-07-14T10:04:31Z</time>
      </trkpt>
      <trkpt lat="47.27303" lon="6.0454">
        <ele>338.52</ele>
        <time>2018-07-14T10:04:32Z</time>
      </trkpt>
      <trkpt lat="47.27299" lon="6.04533">
        <ele>338.52</ele>
        <time>2018-07-14T10:04:33Z</time>
      </trkpt>
      <trkpt lat="47.27295" lon="6.04527">
        <ele>338.04</ele>
        <time>2018-07-14T10:04:34Z</time>
      </trkpt>
      <trkpt lat="47.27287" lon="6.04514">
        <ele>337.56</ele>
        <time>2018-07-14T10:04:36Z</time>
      </trkpt>
      <trkpt lat="47.27283" lon="6.0451">
        <ele>337.56</ele>
        <time>2018-07-14T10:04:37Z</time>
      </trkpt>
      <trkpt lat="47.27278" lon="6.04508">
        <ele>337.08</ele>
        <time>2018-07-14T10:04:38Z</time>
      </trkpt>
      <trkpt lat="47.27274" lon="6.04509">
        <ele>336.6</ele>
        <time>2018-07-14T10:04:39Z</time>
      </trkpt>
      <trkpt lat="47.27269" lon="6.04512">
        <ele>336.6</ele>
        <time>2018-07-14T10:04:40Z</time>
      </trkpt>
      <trkpt lat="47.27264" lon="6.04516">
        <ele>335.64</ele>
        <time>2018-07-14T10:04:41Z</time>
      </trkpt>
      <trkpt lat="47.27258" lon="6.04521">
        <ele>335.64</ele>
        <time>2018-07-14T10:04:42Z</time>
      </trkpt>
      <trkpt lat="47.27252" lon="6.04525">
        <ele>334.68</ele>
        <time>2018-07-14T10:04:43Z</time>
      </trkpt>
      <trkpt lat="47.27246" lon="6.04527">
        <ele>334.2</ele>
        <time>2018-07-14T10:04:44Z</time>
      </trkpt>
      <trkpt lat="47.27239" lon="6.04528">
        <ele>333.71</ele>
        <time>2018-07-14T10:04:45Z</time>
      </trkpt>
      <trkpt lat="47.27232" lon="6.04527">
        <ele>333.71</ele>
        <time>2018-07-14T10:04:46Z</time>
      </trkpt>
      <trkpt lat="47.27226" lon="6.04526">
        <ele>333.71</ele>
        <time>2018-07-14T10:04:47Z</time>
      </trkpt>
      <trkpt lat="47.2722" lon="6.04524">
        <ele>333.71</ele>
        <time>2018-07-14T10:04:48Z</time>
      </trkpt>
      <trkpt lat="47.27215" lon="6.04524">
        <ele>333.71</ele>
        <time>2018-07-14T10:04:49Z</time>
      </trkpt>
      <trkpt lat="47.27209" lon="6.04524">
        <ele>333.71</ele>
        <time>2018-07-14T10:04:50Z</time>
      </trkpt>
      <trkpt lat="47.27203" lon="6.04524">
        <ele>333.71</ele>
        <time>2018-07-14T10:04:51Z</time>
      </trkpt>
      <trkpt lat="47.27198" lon="6.04525">
        <ele>333.71</ele>
        <time>2018-07-14T10:04:52Z</time>
      </trkpt>
      <trkpt lat="47.27192" lon="6.04527">
        <ele>333.71</ele>
        <time>2018-07-14T10:04:53Z</time>
      </trkpt>
      <trkpt lat="47.27182" lon="6.04528">
        <ele>334.2</ele>
        <time>2018-07-14T10:04:55Z</time>
      </trkpt>
      <trkpt lat="47.27178" lon="6.04528">
        <ele>333.71</ele>
        <time>2018-07-14T10:04:56Z</time>
      </trkpt>
      <trkpt lat="47.27174" lon="6.04528">
        <ele>334.2</ele>
        <time>2018-07-14T10:04:57Z</time>
      </trkpt>
      <trkpt lat="47.2717" lon="6.0453">
        <ele>334.2</ele>
        <time>2018-07-14T10:04:58Z</time>
      </trkpt>
      <trkpt lat="47.27167" lon="6.04533">
        <ele>333.71</ele>
        <time>2018-07-14T10:04:59Z</time>
      </trkpt>
      <trkpt lat="47.27164" lon="6.04538">
        <ele>333.23</ele>
        <time>2018-07-14T10:05:00Z</time>
      </trkpt>
      <trkpt lat="47.27161" lon="6.04545">
        <ele>332.27</ele>
        <time>2018-07-14T10:05:01Z</time>
      </trkpt>
      <trkpt lat="47.27155" lon="6.0456">
        <ele>330.35</ele>
        <time>2018-07-14T10:05:03Z</time>
      </trkpt>
      <trkpt lat="47.27149" lon="6.04569">
        <ele>330.35</ele>
        <time>2018-07-14T10:05:04Z</time>
      </trkpt>
      <trkpt lat="47.27143" lon="6.04578">
        <ele>328.91</ele>
        <time>2018-07-14T10:05:05Z</time>
      </trkpt>
      <trkpt lat="47.27129" lon="6.04596">
        <ele>326.99</ele>
        <time>2018-07-14T10:05:07Z</time>
      </trkpt>
      <trkpt lat="47.27121" lon="6.04602">
        <ele>326.99</ele>
        <time>2018-07-14T10:05:08Z</time>
      </trkpt>
      <trkpt lat="47.27085" lon="6.04625">
        <ele>327.95</ele>
        <time>2018-07-14T10:05:13Z</time>
      </trkpt>
      <trkpt lat="47.2708" lon="6.0463">
        <ele>328.91</ele>
        <time>2018-07-14T10:05:14Z</time>
      </trkpt>
      <trkpt lat="47.27053" lon="6.04658">
        <ele>331.79</ele>
        <time>2018-07-14T10:05:20Z</time>
      </trkpt>
      <trkpt lat="47.27038" lon="6.04669">
        <ele>333.71</ele>
        <time>2018-07-14T10:05:23Z</time>
      </trkpt>
      <trkpt lat="47.27032" lon="6.04671">
        <ele>334.2</ele>
        <time>2018-07-14T10:05:24Z</time>
      </trkpt>
      <trkpt lat="47.27027" lon="6.04671">
        <ele>334.68</ele>
        <time>2018-07-14T10:05:25Z</time>
      </trkpt>
      <trkpt lat="47.27021" lon="6.04672">
        <ele>335.64</ele>
        <time>2018-07-14T10:05:26Z</time>
      </trkpt>
      <trkpt lat="47.27017" lon="6.04675">
        <ele>336.12</ele>
        <time>2018-07-14T10:05:27Z</time>
      </trkpt>
      <trkpt lat="47.27012" lon="6.04679">
        <ele>336.6</ele>
        <time>2018-07-14T10:05:28Z</time>
      </trkpt>
      <trkpt lat="47.27008" lon="6.04683">
        <ele>337.08</ele>
        <time>2018-07-14T10:05:29Z</time>
      </trkpt>
      <trkpt lat="47.27003" lon="6.04686">
        <ele>337.56</ele>
        <time>2018-07-14T10:05:30Z</time>
      </trkpt>
      <trkpt lat="47.26995" lon="6.04691">
        <ele>337.56</ele>
        <time>2018-07-14T10:05:32Z</time>
      </trkpt>
      <trkpt lat="47.2695" lon="6.04709">
        <ele>339.96</ele>
        <time>2018-07-14T10:05:44Z</time>
      </trkpt>
      <trkpt lat="47.26946" lon="6.04709">
        <ele>340.44</ele>
        <time>2018-07-14T10:05:45Z</time>
      </trkpt>
      <trkpt lat="47.26938" lon="6.04708">
        <ele>340.44</ele>
        <time>2018-07-14T10:05:47Z</time>
      </trkpt>
      <trkpt lat="47.26934" lon="6.0471">
        <ele>340.92</ele>
        <time>2018-07-14T10:05:48Z</time>
      </trkpt>
      <trkpt lat="47.26925" lon="6.04715">
        <ele>341.41</ele>
        <time>2018-07-14T10:05:50Z</time>
      </trkpt>
      <trkpt lat="47.26857" lon="6.04762">
        <ele>341.41</ele>
        <time>2018-07-14T10:06:04Z</time>
      </trkpt>
      <trkpt lat="47.26852" lon="6.04768">
        <ele>341.41</ele>
        <time>2018-07-14T10:06:05Z</time>
      </trkpt>
      <trkpt lat="47.26828" lon="6.04801">
        <ele>342.37</ele>
        <time>2018-07-14T10:06:11Z</time>
      </trkpt>
      <trkpt lat="47.26812" lon="6.0482">
        <ele>342.85</ele>
        <time>2018-07-14T10:06:15Z</time>
      </trkpt>
      <trkpt lat="47.26808" lon="6.04822">
        <ele>343.33</ele>
        <time>2018-07-14T10:06:16Z</time>
      </trkpt>
      <trkpt lat="47.26803" lon="6.0482">
        <ele>343.33</ele>
        <time>2018-07-14T10:06:17Z</time>
      </trkpt>
      <trkpt lat="47.26798" lon="6.04815">
        <ele>343.33</ele>
        <time>2018-07-14T10:06:18Z</time>
      </trkpt>
      <trkpt lat="47.26795" lon="6.04809">
        <ele>342.85</ele>
        <time>2018-07-14T10:06:19Z</time>
      </trkpt>
      <trkpt lat="47.2678" lon="6.0478">
        <ele>342.85</ele>
        <time>2018-07-14T10:06:23Z</time>
      </trkpt>
      <trkpt lat="47.26773" lon="6.04768">
        <ele>343.33</ele>
        <time>2018-07-14T10:06:25Z</time>
      </trkpt>
      <trkpt lat="47.26755" lon="6.04745">
        <ele>344.29</ele>
        <time>2018-07-14T10:06:29Z</time>
      </trkpt>
      <trkpt lat="47.2675" lon="6.0474">
        <ele>344.29</ele>
        <time>2018-07-14T10:06:30Z</time>
      </trkpt>
      <trkpt lat="47.2668" lon="6.04684">
        <ele>345.25</ele>
        <time>2018-07-14T10:06:42Z</time>
      </trkpt>
      <trkpt lat="47.26674" lon="6.04681">
        <ele>345.25</ele>
        <time>2018-07-14T10:06:43Z</time>
      </trkpt>
      <trkpt lat="47.26667" lon="6.04679">
        <ele>345.73</ele>
        <time>2018-07-14T10:06:44Z</time>
      </trkpt>
      <trkpt lat="47.26645" lon="6.04677">
        <ele>344.77</ele>
        <time>2018-07-14T10:06:47Z</time>
      </trkpt>
      <trkpt lat="47.26622" lon="6.04678">
        <ele>344.29</ele>
        <time>2018-07-14T10:06:50Z</time>
      </trkpt>
      <trkpt lat="47.26614" lon="6.04677">
        <ele>344.77</ele>
        <time>2018-07-14T10:06:51Z</time>
      </trkpt>
      <trkpt lat="47.26558" lon="6.04664">
        <ele>342.37</ele>
        <time>2018-07-14T10:06:58Z</time>
      </trkpt>
      <trkpt lat="47.26549" lon="6.04659">
        <ele>341.89</ele>
        <time>2018-07-14T10:06:59Z</time>
      </trkpt>
      <trkpt lat="47.26541" lon="6.04652">
        <ele>340.44</ele>
        <time>2018-07-14T10:07:00Z</time>
      </trkpt>
      <trkpt lat="47.26533" lon="6.04642">
        <ele>340.44</ele>
        <time>2018-07-14T10:07:01Z</time>
      </trkpt>
      <trkpt lat="47.26525" lon="6.04633">
        <ele>340.44</ele>
        <time>2018-07-14T10:07:02Z</time>
      </trkpt>
      <trkpt lat="47.26517" lon="6.04624">
        <ele>339.96</ele>
        <time>2018-07-14T10:07:03Z</time>
      </trkpt>
      <trkpt lat="47.26491" lon="6.04598">
        <ele>339.48</ele>
        <time>2018-07-14T10:07:06Z</time>
      </trkpt>
      <trkpt lat="47.26482" lon="6.04593">
        <ele>339</ele>
        <time>2018-07-14T10:07:07Z</time>
      </trkpt>
      <trkpt lat="47.26462" lon="6.04583">
        <ele>339</ele>
        <time>2018-07-14T10:07:09Z</time>
      </trkpt>
      <trkpt lat="47.26453" lon="6.04577">
        <ele>339</ele>
        <time>2018-07-14T10:07:10Z</time>
      </trkpt>
      <trkpt lat="47.26444" lon="6.04572">
        <ele>338.52</ele>
        <time>2018-07-14T10:07:11Z</time>
      </trkpt>
      <trkpt lat="47.26401" lon="6.0455">
        <ele>336.12</ele>
        <time>2018-07-14T10:07:16Z</time>
      </trkpt>
      <trkpt lat="47.26374" lon="6.04536">
        <ele>337.56</ele>
        <time>2018-07-14T10:07:19Z</time>
      </trkpt>
      <trkpt lat="47.26348" lon="6.04522">
        <ele>337.56</ele>
        <time>2018-07-14T10:07:22Z</time>
      </trkpt>
      <trkpt lat="47.26339" lon="6.04516">
        <ele>337.08</ele>
        <time>2018-07-14T10:07:23Z</time>
      </trkpt>
      <trkpt lat="47.26288" lon="6.0447">
        <ele>333.71</ele>
        <time>2018-07-14T10:07:29Z</time>
      </trkpt>
      <trkpt lat="47.2628" lon="6.04462">
        <ele>333.71</ele>
        <time>2018-07-14T10:07:30Z</time>
      </trkpt>
      <trkpt lat="47.26248" lon="6.04428">
        <ele>332.27</ele>
        <time>2018-07-14T10:07:34Z</time>
      </trkpt>
      <trkpt lat="47.26234" lon="6.04409">
        <ele>331.79</ele>
        <time>2018-07-14T10:07:36Z</time>
      </trkpt>
      <trkpt lat="47.26226" lon="6.04401">
        <ele>331.31</ele>
        <time>2018-07-14T10:07:37Z</time>
      </trkpt>
      <trkpt lat="47.26218" lon="6.04393">
        <ele>330.83</ele>
        <time>2018-07-14T10:07:38Z</time>
      </trkpt>
      <trkpt lat="47.26156" lon="6.04316">
        <ele>329.39</ele>
        <time>2018-07-14T10:07:47Z</time>
      </trkpt>
      <trkpt lat="47.26109" lon="6.04243">
        <ele>329.39</ele>
        <time>2018-07-14T10:07:57Z</time>
      </trkpt>
      <trkpt lat="47.26107" lon="6.0424">
        <ele>329.87</ele>
        <time>2018-07-14T10:07:58Z</time>
      </trkpt>
      <trkpt lat="47.26106" lon="6.04236">
        <ele>329.87</ele>
        <time>2018-07-14T10:07:59Z</time>
      </trkpt>
      <trkpt lat="47.26105" lon="6.04234">
        <ele>329.87</ele>
        <time>2018-07-14T10:08:00Z</time>
      </trkpt>
      <trkpt lat="47.26102" lon="6.04235">
        <ele>329.87</ele>
        <time>2018-07-14T10:08:10Z</time>
      </trkpt>
      <trkpt lat="47.26102" lon="6.04234">
        <ele>329.87</ele>
        <time>2018-07-14T10:08:18Z</time>
      </trkpt>
    </trkseg>
  </trk>
</gpx>